<?xml version="1.0" encoding="UTF-8" standalone="no" ?>
<gpx xmlns="http://www.topografix.com/GPX/1/1" xmlns:xsi="http://www.w3.org/2001/XMLSchema-instance" xsi:schemaLocation="http://www.topografix.com/GPX/1/1 http://www.topografix.com/GPX/1/1/gpx.xsd" version="1.1" creator="VisuGPX - https://www.visugpx.com">
  <metadata>
    <name>Rando du 19/07/2015</name>
    <desc><![CDATA[Rando Evreux - Conches en Ouche]]></desc>
  </metadata>
  <trk>
    <name><![CDATA[Rando du 19/07/2015_1]]></name>
    <trkseg>
      <trkpt lat="49.02213" lon="1.14091">
        <ele>65.400002</ele>
        <time>2015-07-19T06:11:12Z</time>
      </trkpt>
      <trkpt lat="49.02203" lon="1.14094">
        <ele>65.400002</ele>
        <time>2015-07-19T06:11:15Z</time>
      </trkpt>
      <trkpt lat="49.02195" lon="1.14085">
        <ele>65.400002</ele>
        <time>2015-07-19T06:11:18Z</time>
      </trkpt>
      <trkpt lat="49.0219" lon="1.14068">
        <ele>65.300003</ele>
        <time>2015-07-19T06:11:21Z</time>
      </trkpt>
      <trkpt lat="49.02186" lon="1.14053">
        <ele>65.099998</ele>
        <time>2015-07-19T06:11:25Z</time>
      </trkpt>
      <trkpt lat="49.02186" lon="1.14039">
        <ele>63.700001</ele>
        <time>2015-07-19T06:12:07Z</time>
      </trkpt>
      <trkpt lat="49.02188" lon="1.14053">
        <ele>62.599998</ele>
        <time>2015-07-19T06:18:40Z</time>
      </trkpt>
      <trkpt lat="49.02193" lon="1.14067">
        <ele>62.599998</ele>
        <time>2015-07-19T06:18:48Z</time>
      </trkpt>
      <trkpt lat="49.02192" lon="1.14082">
        <ele>62.700001</ele>
        <time>2015-07-19T06:18:54Z</time>
      </trkpt>
      <trkpt lat="49.02201" lon="1.14088">
        <ele>63</ele>
        <time>2015-07-19T06:19:01Z</time>
      </trkpt>
      <trkpt lat="49.0221" lon="1.14085">
        <ele>63.099998</ele>
        <time>2015-07-19T06:19:05Z</time>
      </trkpt>
      <trkpt lat="49.02221" lon="1.1408">
        <ele>63.299999</ele>
        <time>2015-07-19T06:19:09Z</time>
      </trkpt>
      <trkpt lat="49.02232" lon="1.14077">
        <ele>63.400002</ele>
        <time>2015-07-19T06:19:13Z</time>
      </trkpt>
      <trkpt lat="49.02244" lon="1.14074">
        <ele>63.5</ele>
        <time>2015-07-19T06:19:17Z</time>
      </trkpt>
      <trkpt lat="49.02254" lon="1.14069">
        <ele>63.5</ele>
        <time>2015-07-19T06:19:21Z</time>
      </trkpt>
      <trkpt lat="49.02263" lon="1.14062">
        <ele>63.599998</ele>
        <time>2015-07-19T06:19:26Z</time>
      </trkpt>
      <trkpt lat="49.02269" lon="1.1405">
        <ele>63.799999</ele>
        <time>2015-07-19T06:19:37Z</time>
      </trkpt>
      <trkpt lat="49.02267" lon="1.14036">
        <ele>63.900002</ele>
        <time>2015-07-19T06:19:43Z</time>
      </trkpt>
      <trkpt lat="49.02262" lon="1.14023">
        <ele>63.900002</ele>
        <time>2015-07-19T06:19:47Z</time>
      </trkpt>
      <trkpt lat="49.02257" lon="1.14008">
        <ele>63.900002</ele>
        <time>2015-07-19T06:19:51Z</time>
      </trkpt>
      <trkpt lat="49.02251" lon="1.13993">
        <ele>64</ele>
        <time>2015-07-19T06:19:55Z</time>
      </trkpt>
      <trkpt lat="49.02246" lon="1.13977">
        <ele>64</ele>
        <time>2015-07-19T06:19:59Z</time>
      </trkpt>
      <trkpt lat="49.02241" lon="1.13964">
        <ele>64.099998</ele>
        <time>2015-07-19T06:20:02Z</time>
      </trkpt>
      <trkpt lat="49.02236" lon="1.1395">
        <ele>64.099998</ele>
        <time>2015-07-19T06:20:05Z</time>
      </trkpt>
      <trkpt lat="49.02231" lon="1.13936">
        <ele>64.199997</ele>
        <time>2015-07-19T06:20:08Z</time>
      </trkpt>
      <trkpt lat="49.02225" lon="1.1392">
        <ele>64.199997</ele>
        <time>2015-07-19T06:20:11Z</time>
      </trkpt>
      <trkpt lat="49.0222" lon="1.13905">
        <ele>64.199997</ele>
        <time>2015-07-19T06:20:14Z</time>
      </trkpt>
      <trkpt lat="49.02214" lon="1.13889">
        <ele>64.199997</ele>
        <time>2015-07-19T06:20:17Z</time>
      </trkpt>
      <trkpt lat="49.02208" lon="1.13872">
        <ele>64.199997</ele>
        <time>2015-07-19T06:20:20Z</time>
      </trkpt>
      <trkpt lat="49.02202" lon="1.13855">
        <ele>64.300003</ele>
        <time>2015-07-19T06:20:23Z</time>
      </trkpt>
      <trkpt lat="49.02197" lon="1.13839">
        <ele>64.300003</ele>
        <time>2015-07-19T06:20:26Z</time>
      </trkpt>
      <trkpt lat="49.02191" lon="1.13822">
        <ele>64.300003</ele>
        <time>2015-07-19T06:20:29Z</time>
      </trkpt>
      <trkpt lat="49.02185" lon="1.13806">
        <ele>64.300003</ele>
        <time>2015-07-19T06:20:32Z</time>
      </trkpt>
      <trkpt lat="49.02181" lon="1.13793">
        <ele>64.300003</ele>
        <time>2015-07-19T06:20:35Z</time>
      </trkpt>
      <trkpt lat="49.02177" lon="1.13778">
        <ele>64.300003</ele>
        <time>2015-07-19T06:20:40Z</time>
      </trkpt>
      <trkpt lat="49.02182" lon="1.13765">
        <ele>64.300003</ele>
        <time>2015-07-19T06:21:43Z</time>
      </trkpt>
      <trkpt lat="49.02191" lon="1.13754">
        <ele>64.400002</ele>
        <time>2015-07-19T06:21:47Z</time>
      </trkpt>
      <trkpt lat="49.02201" lon="1.13745">
        <ele>64.400002</ele>
        <time>2015-07-19T06:21:50Z</time>
      </trkpt>
      <trkpt lat="49.02213" lon="1.13736">
        <ele>64.400002</ele>
        <time>2015-07-19T06:21:53Z</time>
      </trkpt>
      <trkpt lat="49.02221" lon="1.13731">
        <ele>64.400002</ele>
        <time>2015-07-19T06:21:55Z</time>
      </trkpt>
      <trkpt lat="49.0223" lon="1.13724">
        <ele>64.400002</ele>
        <time>2015-07-19T06:21:57Z</time>
      </trkpt>
      <trkpt lat="49.02239" lon="1.13719">
        <ele>64.400002</ele>
        <time>2015-07-19T06:21:59Z</time>
      </trkpt>
      <trkpt lat="49.02247" lon="1.13713">
        <ele>64.400002</ele>
        <time>2015-07-19T06:22:01Z</time>
      </trkpt>
      <trkpt lat="49.02256" lon="1.13706">
        <ele>64.5</ele>
        <time>2015-07-19T06:22:03Z</time>
      </trkpt>
      <trkpt lat="49.02265" lon="1.13699">
        <ele>64.5</ele>
        <time>2015-07-19T06:22:05Z</time>
      </trkpt>
      <trkpt lat="49.02274" lon="1.13693">
        <ele>64.5</ele>
        <time>2015-07-19T06:22:07Z</time>
      </trkpt>
      <trkpt lat="49.02283" lon="1.13687">
        <ele>64.5</ele>
        <time>2015-07-19T06:22:09Z</time>
      </trkpt>
      <trkpt lat="49.02293" lon="1.13681">
        <ele>64.599998</ele>
        <time>2015-07-19T06:22:11Z</time>
      </trkpt>
      <trkpt lat="49.02301" lon="1.13673">
        <ele>64.599998</ele>
        <time>2015-07-19T06:22:13Z</time>
      </trkpt>
      <trkpt lat="49.0231" lon="1.13666">
        <ele>64.599998</ele>
        <time>2015-07-19T06:22:15Z</time>
      </trkpt>
      <trkpt lat="49.02319" lon="1.13662">
        <ele>64.699997</ele>
        <time>2015-07-19T06:22:17Z</time>
      </trkpt>
      <trkpt lat="49.02329" lon="1.13658">
        <ele>64.699997</ele>
        <time>2015-07-19T06:22:19Z</time>
      </trkpt>
      <trkpt lat="49.02337" lon="1.13648">
        <ele>64.699997</ele>
        <time>2015-07-19T06:22:21Z</time>
      </trkpt>
      <trkpt lat="49.02341" lon="1.13634">
        <ele>64.699997</ele>
        <time>2015-07-19T06:22:23Z</time>
      </trkpt>
      <trkpt lat="49.02342" lon="1.13619">
        <ele>64.699997</ele>
        <time>2015-07-19T06:22:25Z</time>
      </trkpt>
      <trkpt lat="49.02344" lon="1.13604">
        <ele>64.699997</ele>
        <time>2015-07-19T06:22:27Z</time>
      </trkpt>
      <trkpt lat="49.02346" lon="1.13589">
        <ele>64.699997</ele>
        <time>2015-07-19T06:22:29Z</time>
      </trkpt>
      <trkpt lat="49.02349" lon="1.13575">
        <ele>64.800003</ele>
        <time>2015-07-19T06:22:31Z</time>
      </trkpt>
      <trkpt lat="49.0235" lon="1.13559">
        <ele>64.800003</ele>
        <time>2015-07-19T06:22:33Z</time>
      </trkpt>
      <trkpt lat="49.02351" lon="1.13544">
        <ele>64.800003</ele>
        <time>2015-07-19T06:22:35Z</time>
      </trkpt>
      <trkpt lat="49.02353" lon="1.13524">
        <ele>64.800003</ele>
        <time>2015-07-19T06:22:38Z</time>
      </trkpt>
      <trkpt lat="49.02354" lon="1.13508">
        <ele>64.800003</ele>
        <time>2015-07-19T06:22:40Z</time>
      </trkpt>
      <trkpt lat="49.02355" lon="1.13493">
        <ele>64.800003</ele>
        <time>2015-07-19T06:22:42Z</time>
      </trkpt>
      <trkpt lat="49.02357" lon="1.13477">
        <ele>64.800003</ele>
        <time>2015-07-19T06:22:44Z</time>
      </trkpt>
      <trkpt lat="49.02358" lon="1.13462">
        <ele>64.800003</ele>
        <time>2015-07-19T06:22:46Z</time>
      </trkpt>
      <trkpt lat="49.02359" lon="1.13447">
        <ele>64.800003</ele>
        <time>2015-07-19T06:22:48Z</time>
      </trkpt>
      <trkpt lat="49.02359" lon="1.13431">
        <ele>64.800003</ele>
        <time>2015-07-19T06:22:50Z</time>
      </trkpt>
      <trkpt lat="49.02359" lon="1.1341">
        <ele>64.800003</ele>
        <time>2015-07-19T06:22:53Z</time>
      </trkpt>
      <trkpt lat="49.02361" lon="1.13395">
        <ele>64.800003</ele>
        <time>2015-07-19T06:22:55Z</time>
      </trkpt>
      <trkpt lat="49.02363" lon="1.13379">
        <ele>64.800003</ele>
        <time>2015-07-19T06:22:57Z</time>
      </trkpt>
      <trkpt lat="49.02363" lon="1.13363">
        <ele>64.800003</ele>
        <time>2015-07-19T06:22:59Z</time>
      </trkpt>
      <trkpt lat="49.02364" lon="1.13347">
        <ele>64.800003</ele>
        <time>2015-07-19T06:23:01Z</time>
      </trkpt>
      <trkpt lat="49.02365" lon="1.13332">
        <ele>64.800003</ele>
        <time>2015-07-19T06:23:03Z</time>
      </trkpt>
      <trkpt lat="49.02365" lon="1.13318">
        <ele>64.800003</ele>
        <time>2015-07-19T06:23:05Z</time>
      </trkpt>
      <trkpt lat="49.02366" lon="1.13302">
        <ele>64.800003</ele>
        <time>2015-07-19T06:23:07Z</time>
      </trkpt>
      <trkpt lat="49.02367" lon="1.13288">
        <ele>64.800003</ele>
        <time>2015-07-19T06:23:09Z</time>
      </trkpt>
      <trkpt lat="49.02368" lon="1.13274">
        <ele>64.800003</ele>
        <time>2015-07-19T06:23:11Z</time>
      </trkpt>
      <trkpt lat="49.02369" lon="1.1326">
        <ele>64.800003</ele>
        <time>2015-07-19T06:23:13Z</time>
      </trkpt>
      <trkpt lat="49.0237" lon="1.13246">
        <ele>64.800003</ele>
        <time>2015-07-19T06:23:15Z</time>
      </trkpt>
      <trkpt lat="49.02372" lon="1.13232">
        <ele>64.800003</ele>
        <time>2015-07-19T06:23:17Z</time>
      </trkpt>
      <trkpt lat="49.02373" lon="1.13217">
        <ele>64.800003</ele>
        <time>2015-07-19T06:23:19Z</time>
      </trkpt>
      <trkpt lat="49.02374" lon="1.13202">
        <ele>64.800003</ele>
        <time>2015-07-19T06:23:21Z</time>
      </trkpt>
      <trkpt lat="49.02375" lon="1.13185">
        <ele>64.800003</ele>
        <time>2015-07-19T06:23:23Z</time>
      </trkpt>
      <trkpt lat="49.02375" lon="1.13169">
        <ele>64.800003</ele>
        <time>2015-07-19T06:23:25Z</time>
      </trkpt>
      <trkpt lat="49.02376" lon="1.13154">
        <ele>64.800003</ele>
        <time>2015-07-19T06:23:27Z</time>
      </trkpt>
      <trkpt lat="49.02377" lon="1.13138">
        <ele>64.800003</ele>
        <time>2015-07-19T06:23:29Z</time>
      </trkpt>
      <trkpt lat="49.02377" lon="1.13121">
        <ele>64.800003</ele>
        <time>2015-07-19T06:23:31Z</time>
      </trkpt>
      <trkpt lat="49.02378" lon="1.13105">
        <ele>64.800003</ele>
        <time>2015-07-19T06:23:33Z</time>
      </trkpt>
      <trkpt lat="49.02379" lon="1.13088">
        <ele>64.800003</ele>
        <time>2015-07-19T06:23:35Z</time>
      </trkpt>
      <trkpt lat="49.0238" lon="1.13073">
        <ele>64.800003</ele>
        <time>2015-07-19T06:23:37Z</time>
      </trkpt>
      <trkpt lat="49.02381" lon="1.13057">
        <ele>64.800003</ele>
        <time>2015-07-19T06:23:39Z</time>
      </trkpt>
      <trkpt lat="49.02383" lon="1.13037">
        <ele>64.800003</ele>
        <time>2015-07-19T06:23:42Z</time>
      </trkpt>
      <trkpt lat="49.02384" lon="1.13023">
        <ele>64.800003</ele>
        <time>2015-07-19T06:23:44Z</time>
      </trkpt>
      <trkpt lat="49.02385" lon="1.13008">
        <ele>64.800003</ele>
        <time>2015-07-19T06:23:46Z</time>
      </trkpt>
      <trkpt lat="49.02386" lon="1.12993">
        <ele>64.800003</ele>
        <time>2015-07-19T06:23:48Z</time>
      </trkpt>
      <trkpt lat="49.02387" lon="1.12979">
        <ele>64.800003</ele>
        <time>2015-07-19T06:23:50Z</time>
      </trkpt>
      <trkpt lat="49.02388" lon="1.12964">
        <ele>64.800003</ele>
        <time>2015-07-19T06:23:52Z</time>
      </trkpt>
      <trkpt lat="49.02389" lon="1.1295">
        <ele>64.800003</ele>
        <time>2015-07-19T06:23:54Z</time>
      </trkpt>
      <trkpt lat="49.02389" lon="1.12933">
        <ele>64.800003</ele>
        <time>2015-07-19T06:23:56Z</time>
      </trkpt>
      <trkpt lat="49.02391" lon="1.12917">
        <ele>64.800003</ele>
        <time>2015-07-19T06:23:58Z</time>
      </trkpt>
      <trkpt lat="49.02393" lon="1.12903">
        <ele>64.800003</ele>
        <time>2015-07-19T06:24:00Z</time>
      </trkpt>
      <trkpt lat="49.02394" lon="1.12884">
        <ele>64.800003</ele>
        <time>2015-07-19T06:24:03Z</time>
      </trkpt>
      <trkpt lat="49.02398" lon="1.12864">
        <ele>64.800003</ele>
        <time>2015-07-19T06:24:06Z</time>
      </trkpt>
      <trkpt lat="49.02398" lon="1.12847">
        <ele>64.800003</ele>
        <time>2015-07-19T06:24:08Z</time>
      </trkpt>
      <trkpt lat="49.02399" lon="1.12833">
        <ele>64.900002</ele>
        <time>2015-07-19T06:24:10Z</time>
      </trkpt>
      <trkpt lat="49.024" lon="1.12817">
        <ele>64.900002</ele>
        <time>2015-07-19T06:24:12Z</time>
      </trkpt>
      <trkpt lat="49.024" lon="1.128">
        <ele>65</ele>
        <time>2015-07-19T06:24:14Z</time>
      </trkpt>
      <trkpt lat="49.02401" lon="1.12783">
        <ele>65</ele>
        <time>2015-07-19T06:24:16Z</time>
      </trkpt>
      <trkpt lat="49.02402" lon="1.12767">
        <ele>65.099998</ele>
        <time>2015-07-19T06:24:18Z</time>
      </trkpt>
      <trkpt lat="49.02403" lon="1.12751">
        <ele>65.199997</ele>
        <time>2015-07-19T06:24:20Z</time>
      </trkpt>
      <trkpt lat="49.02403" lon="1.12735">
        <ele>65.300003</ele>
        <time>2015-07-19T06:24:22Z</time>
      </trkpt>
      <trkpt lat="49.02404" lon="1.12719">
        <ele>65.300003</ele>
        <time>2015-07-19T06:24:24Z</time>
      </trkpt>
      <trkpt lat="49.02405" lon="1.12705">
        <ele>65.400002</ele>
        <time>2015-07-19T06:24:26Z</time>
      </trkpt>
      <trkpt lat="49.02406" lon="1.12691">
        <ele>65.400002</ele>
        <time>2015-07-19T06:24:28Z</time>
      </trkpt>
      <trkpt lat="49.02407" lon="1.12674">
        <ele>65.5</ele>
        <time>2015-07-19T06:24:30Z</time>
      </trkpt>
      <trkpt lat="49.02407" lon="1.12658">
        <ele>65.5</ele>
        <time>2015-07-19T06:24:32Z</time>
      </trkpt>
      <trkpt lat="49.02408" lon="1.12644">
        <ele>65.599998</ele>
        <time>2015-07-19T06:24:34Z</time>
      </trkpt>
      <trkpt lat="49.02409" lon="1.1263">
        <ele>65.599998</ele>
        <time>2015-07-19T06:24:36Z</time>
      </trkpt>
      <trkpt lat="49.0241" lon="1.12615">
        <ele>65.699997</ele>
        <time>2015-07-19T06:24:38Z</time>
      </trkpt>
      <trkpt lat="49.02412" lon="1.12601">
        <ele>65.699997</ele>
        <time>2015-07-19T06:24:40Z</time>
      </trkpt>
      <trkpt lat="49.02413" lon="1.12586">
        <ele>65.800003</ele>
        <time>2015-07-19T06:24:42Z</time>
      </trkpt>
      <trkpt lat="49.02414" lon="1.12571">
        <ele>65.800003</ele>
        <time>2015-07-19T06:24:44Z</time>
      </trkpt>
      <trkpt lat="49.02415" lon="1.12557">
        <ele>65.800003</ele>
        <time>2015-07-19T06:24:46Z</time>
      </trkpt>
      <trkpt lat="49.02416" lon="1.12542">
        <ele>65.900002</ele>
        <time>2015-07-19T06:24:48Z</time>
      </trkpt>
      <trkpt lat="49.02421" lon="1.12531">
        <ele>66</ele>
        <time>2015-07-19T06:24:50Z</time>
      </trkpt>
      <trkpt lat="49.0243" lon="1.12525">
        <ele>66</ele>
        <time>2015-07-19T06:24:52Z</time>
      </trkpt>
      <trkpt lat="49.0244" lon="1.12519">
        <ele>66.099998</ele>
        <time>2015-07-19T06:24:54Z</time>
      </trkpt>
      <trkpt lat="49.02449" lon="1.12512">
        <ele>66.099998</ele>
        <time>2015-07-19T06:24:56Z</time>
      </trkpt>
      <trkpt lat="49.02457" lon="1.12505">
        <ele>66.199997</ele>
        <time>2015-07-19T06:24:58Z</time>
      </trkpt>
      <trkpt lat="49.02465" lon="1.12496">
        <ele>66.199997</ele>
        <time>2015-07-19T06:25:00Z</time>
      </trkpt>
      <trkpt lat="49.02472" lon="1.12488">
        <ele>66.300003</ele>
        <time>2015-07-19T06:25:02Z</time>
      </trkpt>
      <trkpt lat="49.02481" lon="1.12472">
        <ele>66.400002</ele>
        <time>2015-07-19T06:25:05Z</time>
      </trkpt>
      <trkpt lat="49.02489" lon="1.12463">
        <ele>66.5</ele>
        <time>2015-07-19T06:25:07Z</time>
      </trkpt>
      <trkpt lat="49.02496" lon="1.12454">
        <ele>66.599998</ele>
        <time>2015-07-19T06:25:09Z</time>
      </trkpt>
      <trkpt lat="49.02506" lon="1.12446">
        <ele>66.699997</ele>
        <time>2015-07-19T06:25:11Z</time>
      </trkpt>
      <trkpt lat="49.02513" lon="1.12437">
        <ele>66.699997</ele>
        <time>2015-07-19T06:25:13Z</time>
      </trkpt>
      <trkpt lat="49.02521" lon="1.12429">
        <ele>66.800003</ele>
        <time>2015-07-19T06:25:15Z</time>
      </trkpt>
      <trkpt lat="49.02529" lon="1.12419">
        <ele>66.800003</ele>
        <time>2015-07-19T06:25:17Z</time>
      </trkpt>
      <trkpt lat="49.02537" lon="1.12411">
        <ele>66.900002</ele>
        <time>2015-07-19T06:25:19Z</time>
      </trkpt>
      <trkpt lat="49.02544" lon="1.12402">
        <ele>67</ele>
        <time>2015-07-19T06:25:21Z</time>
      </trkpt>
      <trkpt lat="49.02553" lon="1.12388">
        <ele>67.199997</ele>
        <time>2015-07-19T06:25:24Z</time>
      </trkpt>
      <trkpt lat="49.02561" lon="1.12373">
        <ele>67.400002</ele>
        <time>2015-07-19T06:25:27Z</time>
      </trkpt>
      <trkpt lat="49.02568" lon="1.12358">
        <ele>67.599998</ele>
        <time>2015-07-19T06:25:30Z</time>
      </trkpt>
      <trkpt lat="49.02574" lon="1.12341">
        <ele>67.900002</ele>
        <time>2015-07-19T06:25:33Z</time>
      </trkpt>
      <trkpt lat="49.02579" lon="1.12326">
        <ele>68.199997</ele>
        <time>2015-07-19T06:25:36Z</time>
      </trkpt>
      <trkpt lat="49.02585" lon="1.12309">
        <ele>68.400002</ele>
        <time>2015-07-19T06:25:39Z</time>
      </trkpt>
      <trkpt lat="49.02584" lon="1.12295">
        <ele>68.599998</ele>
        <time>2015-07-19T06:25:41Z</time>
      </trkpt>
      <trkpt lat="49.02592" lon="1.1228">
        <ele>68.900002</ele>
        <time>2015-07-19T06:25:44Z</time>
      </trkpt>
      <trkpt lat="49.02599" lon="1.12266">
        <ele>69.199997</ele>
        <time>2015-07-19T06:25:47Z</time>
      </trkpt>
      <trkpt lat="49.02606" lon="1.12249">
        <ele>69.5</ele>
        <time>2015-07-19T06:25:50Z</time>
      </trkpt>
      <trkpt lat="49.02612" lon="1.12233">
        <ele>69.800003</ele>
        <time>2015-07-19T06:25:53Z</time>
      </trkpt>
      <trkpt lat="49.02618" lon="1.12217">
        <ele>70.099998</ele>
        <time>2015-07-19T06:25:56Z</time>
      </trkpt>
      <trkpt lat="49.02625" lon="1.12202">
        <ele>70.5</ele>
        <time>2015-07-19T06:25:59Z</time>
      </trkpt>
      <trkpt lat="49.02632" lon="1.12188">
        <ele>70.800003</ele>
        <time>2015-07-19T06:26:02Z</time>
      </trkpt>
      <trkpt lat="49.02639" lon="1.12175">
        <ele>71.199997</ele>
        <time>2015-07-19T06:26:05Z</time>
      </trkpt>
      <trkpt lat="49.02647" lon="1.12162">
        <ele>71.599998</ele>
        <time>2015-07-19T06:26:08Z</time>
      </trkpt>
      <trkpt lat="49.02655" lon="1.1215">
        <ele>71.900002</ele>
        <time>2015-07-19T06:26:11Z</time>
      </trkpt>
      <trkpt lat="49.02663" lon="1.12137">
        <ele>72.300003</ele>
        <time>2015-07-19T06:26:14Z</time>
      </trkpt>
      <trkpt lat="49.0267" lon="1.12125">
        <ele>72.699997</ele>
        <time>2015-07-19T06:26:17Z</time>
      </trkpt>
      <trkpt lat="49.02677" lon="1.12113">
        <ele>73.199997</ele>
        <time>2015-07-19T06:26:20Z</time>
      </trkpt>
      <trkpt lat="49.02684" lon="1.12101">
        <ele>73.699997</ele>
        <time>2015-07-19T06:26:23Z</time>
      </trkpt>
      <trkpt lat="49.02691" lon="1.12088">
        <ele>74.199997</ele>
        <time>2015-07-19T06:26:26Z</time>
      </trkpt>
      <trkpt lat="49.02698" lon="1.12075">
        <ele>74.699997</ele>
        <time>2015-07-19T06:26:29Z</time>
      </trkpt>
      <trkpt lat="49.02705" lon="1.12063">
        <ele>75.199997</ele>
        <time>2015-07-19T06:26:32Z</time>
      </trkpt>
      <trkpt lat="49.02712" lon="1.12051">
        <ele>75.699997</ele>
        <time>2015-07-19T06:26:35Z</time>
      </trkpt>
      <trkpt lat="49.02718" lon="1.12039">
        <ele>76.099998</ele>
        <time>2015-07-19T06:26:38Z</time>
      </trkpt>
      <trkpt lat="49.02725" lon="1.12027">
        <ele>76.599998</ele>
        <time>2015-07-19T06:26:41Z</time>
      </trkpt>
      <trkpt lat="49.02731" lon="1.12016">
        <ele>77.199997</ele>
        <time>2015-07-19T06:26:44Z</time>
      </trkpt>
      <trkpt lat="49.02737" lon="1.12005">
        <ele>77.800003</ele>
        <time>2015-07-19T06:26:47Z</time>
      </trkpt>
      <trkpt lat="49.02744" lon="1.11994">
        <ele>78.300003</ele>
        <time>2015-07-19T06:26:50Z</time>
      </trkpt>
      <trkpt lat="49.0275" lon="1.11983">
        <ele>78.900002</ele>
        <time>2015-07-19T06:26:53Z</time>
      </trkpt>
      <trkpt lat="49.02756" lon="1.11972">
        <ele>79.5</ele>
        <time>2015-07-19T06:26:56Z</time>
      </trkpt>
      <trkpt lat="49.02763" lon="1.11962">
        <ele>80.099998</ele>
        <time>2015-07-19T06:26:59Z</time>
      </trkpt>
      <trkpt lat="49.02769" lon="1.11951">
        <ele>80.699997</ele>
        <time>2015-07-19T06:27:02Z</time>
      </trkpt>
      <trkpt lat="49.02775" lon="1.1194">
        <ele>81.300003</ele>
        <time>2015-07-19T06:27:05Z</time>
      </trkpt>
      <trkpt lat="49.02783" lon="1.11926">
        <ele>82.199997</ele>
        <time>2015-07-19T06:27:09Z</time>
      </trkpt>
      <trkpt lat="49.02788" lon="1.11914">
        <ele>82.900002</ele>
        <time>2015-07-19T06:27:12Z</time>
      </trkpt>
      <trkpt lat="49.02792" lon="1.11902">
        <ele>83.599998</ele>
        <time>2015-07-19T06:27:15Z</time>
      </trkpt>
      <trkpt lat="49.02798" lon="1.11887">
        <ele>84.699997</ele>
        <time>2015-07-19T06:27:19Z</time>
      </trkpt>
      <trkpt lat="49.02803" lon="1.11871">
        <ele>85.800003</ele>
        <time>2015-07-19T06:27:23Z</time>
      </trkpt>
      <trkpt lat="49.02807" lon="1.11854">
        <ele>86.900002</ele>
        <time>2015-07-19T06:27:27Z</time>
      </trkpt>
      <trkpt lat="49.0281" lon="1.1184">
        <ele>87.800003</ele>
        <time>2015-07-19T06:27:30Z</time>
      </trkpt>
      <trkpt lat="49.02813" lon="1.11826">
        <ele>88.599998</ele>
        <time>2015-07-19T06:27:33Z</time>
      </trkpt>
      <trkpt lat="49.02817" lon="1.11813">
        <ele>89.400002</ele>
        <time>2015-07-19T06:27:36Z</time>
      </trkpt>
      <trkpt lat="49.02824" lon="1.11801">
        <ele>90.099998</ele>
        <time>2015-07-19T06:27:39Z</time>
      </trkpt>
      <trkpt lat="49.02832" lon="1.11791">
        <ele>90.900002</ele>
        <time>2015-07-19T06:27:42Z</time>
      </trkpt>
      <trkpt lat="49.0284" lon="1.11781">
        <ele>91.599998</ele>
        <time>2015-07-19T06:27:45Z</time>
      </trkpt>
      <trkpt lat="49.02848" lon="1.11771">
        <ele>92.300003</ele>
        <time>2015-07-19T06:27:48Z</time>
      </trkpt>
      <trkpt lat="49.02857" lon="1.11763">
        <ele>93</ele>
        <time>2015-07-19T06:27:51Z</time>
      </trkpt>
      <trkpt lat="49.02867" lon="1.11754">
        <ele>93.5</ele>
        <time>2015-07-19T06:27:54Z</time>
      </trkpt>
      <trkpt lat="49.02879" lon="1.11749">
        <ele>94</ele>
        <time>2015-07-19T06:27:57Z</time>
      </trkpt>
      <trkpt lat="49.02889" lon="1.11746">
        <ele>94.400002</ele>
        <time>2015-07-19T06:28:00Z</time>
      </trkpt>
      <trkpt lat="49.02899" lon="1.11738">
        <ele>94.800003</ele>
        <time>2015-07-19T06:28:03Z</time>
      </trkpt>
      <trkpt lat="49.02908" lon="1.11728">
        <ele>95.199997</ele>
        <time>2015-07-19T06:28:06Z</time>
      </trkpt>
      <trkpt lat="49.02916" lon="1.11718">
        <ele>95.800003</ele>
        <time>2015-07-19T06:28:09Z</time>
      </trkpt>
      <trkpt lat="49.02923" lon="1.11707">
        <ele>96.300003</ele>
        <time>2015-07-19T06:28:12Z</time>
      </trkpt>
      <trkpt lat="49.0293" lon="1.11696">
        <ele>96.900002</ele>
        <time>2015-07-19T06:28:15Z</time>
      </trkpt>
      <trkpt lat="49.02937" lon="1.11686">
        <ele>97.599998</ele>
        <time>2015-07-19T06:28:18Z</time>
      </trkpt>
      <trkpt lat="49.02945" lon="1.11676">
        <ele>98.199997</ele>
        <time>2015-07-19T06:28:21Z</time>
      </trkpt>
      <trkpt lat="49.02952" lon="1.11667">
        <ele>98.800003</ele>
        <time>2015-07-19T06:28:24Z</time>
      </trkpt>
      <trkpt lat="49.0296" lon="1.11657">
        <ele>99.400002</ele>
        <time>2015-07-19T06:28:27Z</time>
      </trkpt>
      <trkpt lat="49.02967" lon="1.11646">
        <ele>100</ele>
        <time>2015-07-19T06:28:30Z</time>
      </trkpt>
      <trkpt lat="49.02975" lon="1.11634">
        <ele>100.599998</ele>
        <time>2015-07-19T06:28:33Z</time>
      </trkpt>
      <trkpt lat="49.02983" lon="1.11623">
        <ele>101</ele>
        <time>2015-07-19T06:28:36Z</time>
      </trkpt>
      <trkpt lat="49.0299" lon="1.11611">
        <ele>101.5</ele>
        <time>2015-07-19T06:28:39Z</time>
      </trkpt>
      <trkpt lat="49.02996" lon="1.11598">
        <ele>102</ele>
        <time>2015-07-19T06:28:42Z</time>
      </trkpt>
      <trkpt lat="49.03001" lon="1.11584">
        <ele>102.599998</ele>
        <time>2015-07-19T06:28:45Z</time>
      </trkpt>
      <trkpt lat="49.03004" lon="1.11569">
        <ele>103.099998</ele>
        <time>2015-07-19T06:28:48Z</time>
      </trkpt>
      <trkpt lat="49.03008" lon="1.11555">
        <ele>103.699997</ele>
        <time>2015-07-19T06:28:51Z</time>
      </trkpt>
      <trkpt lat="49.03012" lon="1.11541">
        <ele>104.300003</ele>
        <time>2015-07-19T06:28:54Z</time>
      </trkpt>
      <trkpt lat="49.03017" lon="1.11528">
        <ele>104.900002</ele>
        <time>2015-07-19T06:28:57Z</time>
      </trkpt>
      <trkpt lat="49.03021" lon="1.11513">
        <ele>105.5</ele>
        <time>2015-07-19T06:29:00Z</time>
      </trkpt>
      <trkpt lat="49.03025" lon="1.115">
        <ele>106.199997</ele>
        <time>2015-07-19T06:29:03Z</time>
      </trkpt>
      <trkpt lat="49.0303" lon="1.11486">
        <ele>106.800003</ele>
        <time>2015-07-19T06:29:06Z</time>
      </trkpt>
      <trkpt lat="49.03034" lon="1.11472">
        <ele>107.5</ele>
        <time>2015-07-19T06:29:09Z</time>
      </trkpt>
      <trkpt lat="49.03038" lon="1.11457">
        <ele>108.199997</ele>
        <time>2015-07-19T06:29:12Z</time>
      </trkpt>
      <trkpt lat="49.03042" lon="1.11443">
        <ele>108.900002</ele>
        <time>2015-07-19T06:29:15Z</time>
      </trkpt>
      <trkpt lat="49.03045" lon="1.11429">
        <ele>109.599998</ele>
        <time>2015-07-19T06:29:18Z</time>
      </trkpt>
      <trkpt lat="49.03048" lon="1.11414">
        <ele>110.300003</ele>
        <time>2015-07-19T06:29:21Z</time>
      </trkpt>
      <trkpt lat="49.03052" lon="1.114">
        <ele>111.099998</ele>
        <time>2015-07-19T06:29:24Z</time>
      </trkpt>
      <trkpt lat="49.03056" lon="1.11385">
        <ele>111.900002</ele>
        <time>2015-07-19T06:29:27Z</time>
      </trkpt>
      <trkpt lat="49.0306" lon="1.1137">
        <ele>112.599998</ele>
        <time>2015-07-19T06:29:30Z</time>
      </trkpt>
      <trkpt lat="49.03064" lon="1.11356">
        <ele>113.300003</ele>
        <time>2015-07-19T06:29:33Z</time>
      </trkpt>
      <trkpt lat="49.03068" lon="1.11341">
        <ele>114.099998</ele>
        <time>2015-07-19T06:29:36Z</time>
      </trkpt>
      <trkpt lat="49.03073" lon="1.11327">
        <ele>114.800003</ele>
        <time>2015-07-19T06:29:39Z</time>
      </trkpt>
      <trkpt lat="49.0308" lon="1.11313">
        <ele>115.5</ele>
        <time>2015-07-19T06:29:42Z</time>
      </trkpt>
      <trkpt lat="49.03089" lon="1.11301">
        <ele>116.199997</ele>
        <time>2015-07-19T06:29:45Z</time>
      </trkpt>
      <trkpt lat="49.03097" lon="1.11289">
        <ele>116.800003</ele>
        <time>2015-07-19T06:29:48Z</time>
      </trkpt>
      <trkpt lat="49.03106" lon="1.11277">
        <ele>117.5</ele>
        <time>2015-07-19T06:29:51Z</time>
      </trkpt>
      <trkpt lat="49.03116" lon="1.11266">
        <ele>118</ele>
        <time>2015-07-19T06:29:54Z</time>
      </trkpt>
      <trkpt lat="49.03125" lon="1.11254">
        <ele>118.599998</ele>
        <time>2015-07-19T06:29:57Z</time>
      </trkpt>
      <trkpt lat="49.03135" lon="1.11244">
        <ele>119.199997</ele>
        <time>2015-07-19T06:30:00Z</time>
      </trkpt>
      <trkpt lat="49.03145" lon="1.11233">
        <ele>119.800003</ele>
        <time>2015-07-19T06:30:03Z</time>
      </trkpt>
      <trkpt lat="49.03155" lon="1.11223">
        <ele>120.5</ele>
        <time>2015-07-19T06:30:06Z</time>
      </trkpt>
      <trkpt lat="49.03166" lon="1.11212">
        <ele>121.099998</ele>
        <time>2015-07-19T06:30:09Z</time>
      </trkpt>
      <trkpt lat="49.03176" lon="1.112">
        <ele>121.699997</ele>
        <time>2015-07-19T06:30:12Z</time>
      </trkpt>
      <trkpt lat="49.03186" lon="1.11187">
        <ele>122.300003</ele>
        <time>2015-07-19T06:30:15Z</time>
      </trkpt>
      <trkpt lat="49.03196" lon="1.11174">
        <ele>122.800003</ele>
        <time>2015-07-19T06:30:18Z</time>
      </trkpt>
      <trkpt lat="49.03206" lon="1.11161">
        <ele>123.300003</ele>
        <time>2015-07-19T06:30:21Z</time>
      </trkpt>
      <trkpt lat="49.03216" lon="1.11148">
        <ele>123.800003</ele>
        <time>2015-07-19T06:30:24Z</time>
      </trkpt>
      <trkpt lat="49.03226" lon="1.11135">
        <ele>124.199997</ele>
        <time>2015-07-19T06:30:27Z</time>
      </trkpt>
      <trkpt lat="49.03236" lon="1.11123">
        <ele>124.699997</ele>
        <time>2015-07-19T06:30:30Z</time>
      </trkpt>
      <trkpt lat="49.03246" lon="1.11112">
        <ele>125.099998</ele>
        <time>2015-07-19T06:30:33Z</time>
      </trkpt>
      <trkpt lat="49.03258" lon="1.11101">
        <ele>125.5</ele>
        <time>2015-07-19T06:30:36Z</time>
      </trkpt>
      <trkpt lat="49.03266" lon="1.11093">
        <ele>125.699997</ele>
        <time>2015-07-19T06:30:38Z</time>
      </trkpt>
      <trkpt lat="49.03277" lon="1.11091">
        <ele>126.099998</ele>
        <time>2015-07-19T06:30:41Z</time>
      </trkpt>
      <trkpt lat="49.03289" lon="1.11084">
        <ele>126.400002</ele>
        <time>2015-07-19T06:30:44Z</time>
      </trkpt>
      <trkpt lat="49.033" lon="1.11073">
        <ele>126.800003</ele>
        <time>2015-07-19T06:30:47Z</time>
      </trkpt>
      <trkpt lat="49.03311" lon="1.11061">
        <ele>127.099998</ele>
        <time>2015-07-19T06:30:50Z</time>
      </trkpt>
      <trkpt lat="49.0332" lon="1.11048">
        <ele>127.300003</ele>
        <time>2015-07-19T06:30:53Z</time>
      </trkpt>
      <trkpt lat="49.03328" lon="1.11033">
        <ele>127.699997</ele>
        <time>2015-07-19T06:30:56Z</time>
      </trkpt>
      <trkpt lat="49.03336" lon="1.1102">
        <ele>128</ele>
        <time>2015-07-19T06:30:59Z</time>
      </trkpt>
      <trkpt lat="49.03345" lon="1.11007">
        <ele>128.300003</ele>
        <time>2015-07-19T06:31:02Z</time>
      </trkpt>
      <trkpt lat="49.03355" lon="1.10994">
        <ele>128.600006</ele>
        <time>2015-07-19T06:31:05Z</time>
      </trkpt>
      <trkpt lat="49.03364" lon="1.10981">
        <ele>128.800003</ele>
        <time>2015-07-19T06:31:08Z</time>
      </trkpt>
      <trkpt lat="49.03373" lon="1.10969">
        <ele>129.100006</ele>
        <time>2015-07-19T06:31:11Z</time>
      </trkpt>
      <trkpt lat="49.03379" lon="1.10955">
        <ele>129.399994</ele>
        <time>2015-07-19T06:31:14Z</time>
      </trkpt>
      <trkpt lat="49.03376" lon="1.10939">
        <ele>129.699997</ele>
        <time>2015-07-19T06:31:18Z</time>
      </trkpt>
      <trkpt lat="49.0337" lon="1.10924">
        <ele>130</ele>
        <time>2015-07-19T06:31:22Z</time>
      </trkpt>
      <trkpt lat="49.03364" lon="1.10911">
        <ele>130.399994</ele>
        <time>2015-07-19T06:31:26Z</time>
      </trkpt>
      <trkpt lat="49.03359" lon="1.10898">
        <ele>130.800003</ele>
        <time>2015-07-19T06:31:30Z</time>
      </trkpt>
      <trkpt lat="49.03353" lon="1.10883">
        <ele>131.199997</ele>
        <time>2015-07-19T06:31:34Z</time>
      </trkpt>
      <trkpt lat="49.03346" lon="1.10868">
        <ele>131.600006</ele>
        <time>2015-07-19T06:31:38Z</time>
      </trkpt>
      <trkpt lat="49.03342" lon="1.10855">
        <ele>132</ele>
        <time>2015-07-19T06:31:41Z</time>
      </trkpt>
      <trkpt lat="49.03336" lon="1.10843">
        <ele>132.5</ele>
        <time>2015-07-19T06:31:45Z</time>
      </trkpt>
      <trkpt lat="49.03331" lon="1.10831">
        <ele>133</ele>
        <time>2015-07-19T06:31:50Z</time>
      </trkpt>
      <trkpt lat="49.03327" lon="1.10818">
        <ele>133.699997</ele>
        <time>2015-07-19T06:31:58Z</time>
      </trkpt>
      <trkpt lat="49.03321" lon="1.10805">
        <ele>134.899994</ele>
        <time>2015-07-19T06:33:02Z</time>
      </trkpt>
      <trkpt lat="49.03316" lon="1.10791">
        <ele>135</ele>
        <time>2015-07-19T06:33:06Z</time>
      </trkpt>
      <trkpt lat="49.0331" lon="1.10776">
        <ele>135.100006</ele>
        <time>2015-07-19T06:33:10Z</time>
      </trkpt>
      <trkpt lat="49.03305" lon="1.10759">
        <ele>135.300003</ele>
        <time>2015-07-19T06:33:14Z</time>
      </trkpt>
      <trkpt lat="49.03303" lon="1.10745">
        <ele>135.399994</ele>
        <time>2015-07-19T06:33:17Z</time>
      </trkpt>
      <trkpt lat="49.03305" lon="1.1073">
        <ele>135.5</ele>
        <time>2015-07-19T06:33:20Z</time>
      </trkpt>
      <trkpt lat="49.03309" lon="1.10715">
        <ele>135.600006</ele>
        <time>2015-07-19T06:33:23Z</time>
      </trkpt>
      <trkpt lat="49.03315" lon="1.10699">
        <ele>135.699997</ele>
        <time>2015-07-19T06:33:26Z</time>
      </trkpt>
      <trkpt lat="49.03321" lon="1.10688">
        <ele>135.699997</ele>
        <time>2015-07-19T06:33:28Z</time>
      </trkpt>
      <trkpt lat="49.03328" lon="1.10678">
        <ele>135.699997</ele>
        <time>2015-07-19T06:33:30Z</time>
      </trkpt>
      <trkpt lat="49.03335" lon="1.10665">
        <ele>135.699997</ele>
        <time>2015-07-19T06:33:32Z</time>
      </trkpt>
      <trkpt lat="49.0334" lon="1.1065">
        <ele>135.600006</ele>
        <time>2015-07-19T06:33:34Z</time>
      </trkpt>
      <trkpt lat="49.03345" lon="1.10634">
        <ele>135.5</ele>
        <time>2015-07-19T06:33:36Z</time>
      </trkpt>
      <trkpt lat="49.0335" lon="1.10618">
        <ele>135.399994</ele>
        <time>2015-07-19T06:33:38Z</time>
      </trkpt>
      <trkpt lat="49.03355" lon="1.10605">
        <ele>135.300003</ele>
        <time>2015-07-19T06:33:40Z</time>
      </trkpt>
      <trkpt lat="49.03361" lon="1.10591">
        <ele>135.199997</ele>
        <time>2015-07-19T06:33:42Z</time>
      </trkpt>
      <trkpt lat="49.03366" lon="1.10577">
        <ele>135.199997</ele>
        <time>2015-07-19T06:33:44Z</time>
      </trkpt>
      <trkpt lat="49.03372" lon="1.10565">
        <ele>135.100006</ele>
        <time>2015-07-19T06:33:46Z</time>
      </trkpt>
      <trkpt lat="49.03378" lon="1.10552">
        <ele>135</ele>
        <time>2015-07-19T06:33:48Z</time>
      </trkpt>
      <trkpt lat="49.03384" lon="1.1054">
        <ele>135</ele>
        <time>2015-07-19T06:33:50Z</time>
      </trkpt>
      <trkpt lat="49.03391" lon="1.10527">
        <ele>134.899994</ele>
        <time>2015-07-19T06:33:52Z</time>
      </trkpt>
      <trkpt lat="49.03396" lon="1.10512">
        <ele>134.899994</ele>
        <time>2015-07-19T06:33:54Z</time>
      </trkpt>
      <trkpt lat="49.03401" lon="1.10499">
        <ele>134.899994</ele>
        <time>2015-07-19T06:33:56Z</time>
      </trkpt>
      <trkpt lat="49.03405" lon="1.10482">
        <ele>134.800003</ele>
        <time>2015-07-19T06:33:58Z</time>
      </trkpt>
      <trkpt lat="49.03408" lon="1.10464">
        <ele>134.800003</ele>
        <time>2015-07-19T06:34:00Z</time>
      </trkpt>
      <trkpt lat="49.03407" lon="1.10444">
        <ele>134.800003</ele>
        <time>2015-07-19T06:34:02Z</time>
      </trkpt>
      <trkpt lat="49.03403" lon="1.10424">
        <ele>134.800003</ele>
        <time>2015-07-19T06:34:04Z</time>
      </trkpt>
      <trkpt lat="49.03397" lon="1.10407">
        <ele>134.699997</ele>
        <time>2015-07-19T06:34:06Z</time>
      </trkpt>
      <trkpt lat="49.0339" lon="1.10391">
        <ele>134.699997</ele>
        <time>2015-07-19T06:34:08Z</time>
      </trkpt>
      <trkpt lat="49.03382" lon="1.10375">
        <ele>134.699997</ele>
        <time>2015-07-19T06:34:10Z</time>
      </trkpt>
      <trkpt lat="49.03374" lon="1.10362">
        <ele>134.699997</ele>
        <time>2015-07-19T06:34:12Z</time>
      </trkpt>
      <trkpt lat="49.03366" lon="1.1035">
        <ele>134.699997</ele>
        <time>2015-07-19T06:34:14Z</time>
      </trkpt>
      <trkpt lat="49.03357" lon="1.10338">
        <ele>134.699997</ele>
        <time>2015-07-19T06:34:16Z</time>
      </trkpt>
      <trkpt lat="49.03348" lon="1.10325">
        <ele>134.600006</ele>
        <time>2015-07-19T06:34:18Z</time>
      </trkpt>
      <trkpt lat="49.0334" lon="1.10312">
        <ele>134.600006</ele>
        <time>2015-07-19T06:34:20Z</time>
      </trkpt>
      <trkpt lat="49.03332" lon="1.10297">
        <ele>134.600006</ele>
        <time>2015-07-19T06:34:22Z</time>
      </trkpt>
      <trkpt lat="49.03326" lon="1.10281">
        <ele>134.600006</ele>
        <time>2015-07-19T06:34:24Z</time>
      </trkpt>
      <trkpt lat="49.03321" lon="1.10264">
        <ele>134.600006</ele>
        <time>2015-07-19T06:34:26Z</time>
      </trkpt>
      <trkpt lat="49.03318" lon="1.10245">
        <ele>134.600006</ele>
        <time>2015-07-19T06:34:28Z</time>
      </trkpt>
      <trkpt lat="49.03316" lon="1.10226">
        <ele>134.600006</ele>
        <time>2015-07-19T06:34:30Z</time>
      </trkpt>
      <trkpt lat="49.03316" lon="1.10208">
        <ele>134.600006</ele>
        <time>2015-07-19T06:34:32Z</time>
      </trkpt>
      <trkpt lat="49.03315" lon="1.1019">
        <ele>134.600006</ele>
        <time>2015-07-19T06:34:34Z</time>
      </trkpt>
      <trkpt lat="49.03314" lon="1.10171">
        <ele>134.600006</ele>
        <time>2015-07-19T06:34:36Z</time>
      </trkpt>
      <trkpt lat="49.03313" lon="1.10153">
        <ele>134.5</ele>
        <time>2015-07-19T06:34:38Z</time>
      </trkpt>
      <trkpt lat="49.03313" lon="1.10134">
        <ele>134.5</ele>
        <time>2015-07-19T06:34:40Z</time>
      </trkpt>
      <trkpt lat="49.03313" lon="1.10116">
        <ele>134.399994</ele>
        <time>2015-07-19T06:34:42Z</time>
      </trkpt>
      <trkpt lat="49.03312" lon="1.10098">
        <ele>134.399994</ele>
        <time>2015-07-19T06:34:44Z</time>
      </trkpt>
      <trkpt lat="49.0331" lon="1.1008">
        <ele>134.399994</ele>
        <time>2015-07-19T06:34:46Z</time>
      </trkpt>
      <trkpt lat="49.03307" lon="1.10063">
        <ele>134.399994</ele>
        <time>2015-07-19T06:34:48Z</time>
      </trkpt>
      <trkpt lat="49.03305" lon="1.10044">
        <ele>134.300003</ele>
        <time>2015-07-19T06:34:50Z</time>
      </trkpt>
      <trkpt lat="49.03302" lon="1.10026">
        <ele>134.300003</ele>
        <time>2015-07-19T06:34:52Z</time>
      </trkpt>
      <trkpt lat="49.033" lon="1.10009">
        <ele>134.300003</ele>
        <time>2015-07-19T06:34:54Z</time>
      </trkpt>
      <trkpt lat="49.03298" lon="1.09991">
        <ele>134.199997</ele>
        <time>2015-07-19T06:34:56Z</time>
      </trkpt>
      <trkpt lat="49.03296" lon="1.09974">
        <ele>134.100006</ele>
        <time>2015-07-19T06:34:58Z</time>
      </trkpt>
      <trkpt lat="49.03294" lon="1.09957">
        <ele>134</ele>
        <time>2015-07-19T06:35:00Z</time>
      </trkpt>
      <trkpt lat="49.03292" lon="1.09941">
        <ele>133.800003</ele>
        <time>2015-07-19T06:35:02Z</time>
      </trkpt>
      <trkpt lat="49.03291" lon="1.09925">
        <ele>133.699997</ele>
        <time>2015-07-19T06:35:04Z</time>
      </trkpt>
      <trkpt lat="49.0329" lon="1.09909">
        <ele>133.600006</ele>
        <time>2015-07-19T06:35:06Z</time>
      </trkpt>
      <trkpt lat="49.03292" lon="1.09894">
        <ele>133.5</ele>
        <time>2015-07-19T06:35:08Z</time>
      </trkpt>
      <trkpt lat="49.03293" lon="1.0988">
        <ele>133.399994</ele>
        <time>2015-07-19T06:35:10Z</time>
      </trkpt>
      <trkpt lat="49.03292" lon="1.09861">
        <ele>133.199997</ele>
        <time>2015-07-19T06:35:13Z</time>
      </trkpt>
      <trkpt lat="49.03292" lon="1.09846">
        <ele>133.100006</ele>
        <time>2015-07-19T06:35:16Z</time>
      </trkpt>
      <trkpt lat="49.03289" lon="1.09829">
        <ele>133</ele>
        <time>2015-07-19T06:35:20Z</time>
      </trkpt>
      <trkpt lat="49.03292" lon="1.09813">
        <ele>132.899994</ele>
        <time>2015-07-19T06:35:23Z</time>
      </trkpt>
      <trkpt lat="49.03295" lon="1.09793">
        <ele>132.899994</ele>
        <time>2015-07-19T06:35:26Z</time>
      </trkpt>
      <trkpt lat="49.03295" lon="1.09779">
        <ele>132.899994</ele>
        <time>2015-07-19T06:35:28Z</time>
      </trkpt>
      <trkpt lat="49.03293" lon="1.09765">
        <ele>132.800003</ele>
        <time>2015-07-19T06:35:30Z</time>
      </trkpt>
      <trkpt lat="49.03292" lon="1.0975">
        <ele>132.800003</ele>
        <time>2015-07-19T06:35:32Z</time>
      </trkpt>
      <trkpt lat="49.03292" lon="1.09733">
        <ele>132.800003</ele>
        <time>2015-07-19T06:35:34Z</time>
      </trkpt>
      <trkpt lat="49.03293" lon="1.09716">
        <ele>132.699997</ele>
        <time>2015-07-19T06:35:36Z</time>
      </trkpt>
      <trkpt lat="49.03294" lon="1.09701">
        <ele>132.699997</ele>
        <time>2015-07-19T06:35:38Z</time>
      </trkpt>
      <trkpt lat="49.03295" lon="1.09685">
        <ele>132.699997</ele>
        <time>2015-07-19T06:35:40Z</time>
      </trkpt>
      <trkpt lat="49.03297" lon="1.0967">
        <ele>132.699997</ele>
        <time>2015-07-19T06:35:42Z</time>
      </trkpt>
      <trkpt lat="49.03298" lon="1.09655">
        <ele>132.699997</ele>
        <time>2015-07-19T06:35:44Z</time>
      </trkpt>
      <trkpt lat="49.033" lon="1.0964">
        <ele>132.600006</ele>
        <time>2015-07-19T06:35:46Z</time>
      </trkpt>
      <trkpt lat="49.03302" lon="1.09625">
        <ele>132.600006</ele>
        <time>2015-07-19T06:35:48Z</time>
      </trkpt>
      <trkpt lat="49.03304" lon="1.0961">
        <ele>132.600006</ele>
        <time>2015-07-19T06:35:50Z</time>
      </trkpt>
      <trkpt lat="49.03305" lon="1.09594">
        <ele>132.600006</ele>
        <time>2015-07-19T06:35:52Z</time>
      </trkpt>
      <trkpt lat="49.03307" lon="1.09578">
        <ele>132.600006</ele>
        <time>2015-07-19T06:35:54Z</time>
      </trkpt>
      <trkpt lat="49.03309" lon="1.09564">
        <ele>132.600006</ele>
        <time>2015-07-19T06:35:56Z</time>
      </trkpt>
      <trkpt lat="49.03311" lon="1.09549">
        <ele>132.600006</ele>
        <time>2015-07-19T06:35:58Z</time>
      </trkpt>
      <trkpt lat="49.03313" lon="1.09534">
        <ele>132.600006</ele>
        <time>2015-07-19T06:36:00Z</time>
      </trkpt>
      <trkpt lat="49.03317" lon="1.0952">
        <ele>132.600006</ele>
        <time>2015-07-19T06:36:02Z</time>
      </trkpt>
      <trkpt lat="49.03321" lon="1.09506">
        <ele>132.699997</ele>
        <time>2015-07-19T06:36:04Z</time>
      </trkpt>
      <trkpt lat="49.03324" lon="1.09492">
        <ele>132.699997</ele>
        <time>2015-07-19T06:36:06Z</time>
      </trkpt>
      <trkpt lat="49.03328" lon="1.09478">
        <ele>132.699997</ele>
        <time>2015-07-19T06:36:08Z</time>
      </trkpt>
      <trkpt lat="49.03331" lon="1.09464">
        <ele>132.699997</ele>
        <time>2015-07-19T06:36:10Z</time>
      </trkpt>
      <trkpt lat="49.03334" lon="1.09449">
        <ele>132.899994</ele>
        <time>2015-07-19T06:36:12Z</time>
      </trkpt>
      <trkpt lat="49.03337" lon="1.09435">
        <ele>133</ele>
        <time>2015-07-19T06:36:14Z</time>
      </trkpt>
      <trkpt lat="49.0334" lon="1.09421">
        <ele>133.100006</ele>
        <time>2015-07-19T06:36:16Z</time>
      </trkpt>
      <trkpt lat="49.03343" lon="1.09407">
        <ele>133.300003</ele>
        <time>2015-07-19T06:36:18Z</time>
      </trkpt>
      <trkpt lat="49.03346" lon="1.09393">
        <ele>133.399994</ele>
        <time>2015-07-19T06:36:20Z</time>
      </trkpt>
      <trkpt lat="49.03348" lon="1.0938">
        <ele>133.5</ele>
        <time>2015-07-19T06:36:22Z</time>
      </trkpt>
      <trkpt lat="49.03351" lon="1.09366">
        <ele>133.600006</ele>
        <time>2015-07-19T06:36:24Z</time>
      </trkpt>
      <trkpt lat="49.03354" lon="1.09348">
        <ele>133.800003</ele>
        <time>2015-07-19T06:36:27Z</time>
      </trkpt>
      <trkpt lat="49.03357" lon="1.09333">
        <ele>134</ele>
        <time>2015-07-19T06:36:30Z</time>
      </trkpt>
      <trkpt lat="49.0335" lon="1.09323">
        <ele>134.199997</ele>
        <time>2015-07-19T06:36:33Z</time>
      </trkpt>
      <trkpt lat="49.03337" lon="1.09321">
        <ele>134.399994</ele>
        <time>2015-07-19T06:36:36Z</time>
      </trkpt>
      <trkpt lat="49.03328" lon="1.0932">
        <ele>134.5</ele>
        <time>2015-07-19T06:36:38Z</time>
      </trkpt>
      <trkpt lat="49.03319" lon="1.0932">
        <ele>134.5</ele>
        <time>2015-07-19T06:36:40Z</time>
      </trkpt>
      <trkpt lat="49.03309" lon="1.0932">
        <ele>134.399994</ele>
        <time>2015-07-19T06:36:42Z</time>
      </trkpt>
      <trkpt lat="49.033" lon="1.0932">
        <ele>134.399994</ele>
        <time>2015-07-19T06:36:44Z</time>
      </trkpt>
      <trkpt lat="49.03289" lon="1.0932">
        <ele>134.399994</ele>
        <time>2015-07-19T06:36:46Z</time>
      </trkpt>
      <trkpt lat="49.03278" lon="1.09321">
        <ele>134.399994</ele>
        <time>2015-07-19T06:36:48Z</time>
      </trkpt>
      <trkpt lat="49.03266" lon="1.09322">
        <ele>134.300003</ele>
        <time>2015-07-19T06:36:50Z</time>
      </trkpt>
      <trkpt lat="49.03255" lon="1.09322">
        <ele>134.199997</ele>
        <time>2015-07-19T06:36:52Z</time>
      </trkpt>
      <trkpt lat="49.03244" lon="1.09322">
        <ele>134.100006</ele>
        <time>2015-07-19T06:36:54Z</time>
      </trkpt>
      <trkpt lat="49.03232" lon="1.09323">
        <ele>133.899994</ele>
        <time>2015-07-19T06:36:56Z</time>
      </trkpt>
      <trkpt lat="49.03221" lon="1.09323">
        <ele>133.699997</ele>
        <time>2015-07-19T06:36:58Z</time>
      </trkpt>
      <trkpt lat="49.03209" lon="1.09322">
        <ele>133.5</ele>
        <time>2015-07-19T06:37:00Z</time>
      </trkpt>
      <trkpt lat="49.03198" lon="1.09322">
        <ele>133.300003</ele>
        <time>2015-07-19T06:37:02Z</time>
      </trkpt>
      <trkpt lat="49.03187" lon="1.09322">
        <ele>133.100006</ele>
        <time>2015-07-19T06:37:04Z</time>
      </trkpt>
      <trkpt lat="49.03177" lon="1.0932">
        <ele>132.899994</ele>
        <time>2015-07-19T06:37:06Z</time>
      </trkpt>
      <trkpt lat="49.03167" lon="1.0932">
        <ele>132.600006</ele>
        <time>2015-07-19T06:37:08Z</time>
      </trkpt>
      <trkpt lat="49.03157" lon="1.09319">
        <ele>132.300003</ele>
        <time>2015-07-19T06:37:10Z</time>
      </trkpt>
      <trkpt lat="49.03147" lon="1.09318">
        <ele>132.100006</ele>
        <time>2015-07-19T06:37:12Z</time>
      </trkpt>
      <trkpt lat="49.03137" lon="1.09317">
        <ele>131.899994</ele>
        <time>2015-07-19T06:37:14Z</time>
      </trkpt>
      <trkpt lat="49.03127" lon="1.09317">
        <ele>131.699997</ele>
        <time>2015-07-19T06:37:16Z</time>
      </trkpt>
      <trkpt lat="49.03118" lon="1.09316">
        <ele>131.5</ele>
        <time>2015-07-19T06:37:18Z</time>
      </trkpt>
      <trkpt lat="49.03108" lon="1.09316">
        <ele>131.399994</ele>
        <time>2015-07-19T06:37:20Z</time>
      </trkpt>
      <trkpt lat="49.03098" lon="1.09317">
        <ele>131.199997</ele>
        <time>2015-07-19T06:37:22Z</time>
      </trkpt>
      <trkpt lat="49.03088" lon="1.09316">
        <ele>131.100006</ele>
        <time>2015-07-19T06:37:24Z</time>
      </trkpt>
      <trkpt lat="49.03078" lon="1.09316">
        <ele>131</ele>
        <time>2015-07-19T06:37:26Z</time>
      </trkpt>
      <trkpt lat="49.03068" lon="1.09316">
        <ele>131</ele>
        <time>2015-07-19T06:37:28Z</time>
      </trkpt>
      <trkpt lat="49.03058" lon="1.09316">
        <ele>130.899994</ele>
        <time>2015-07-19T06:37:30Z</time>
      </trkpt>
      <trkpt lat="49.03049" lon="1.09315">
        <ele>130.800003</ele>
        <time>2015-07-19T06:37:32Z</time>
      </trkpt>
      <trkpt lat="49.03039" lon="1.09315">
        <ele>130.699997</ele>
        <time>2015-07-19T06:37:34Z</time>
      </trkpt>
      <trkpt lat="49.0303" lon="1.09315">
        <ele>130.699997</ele>
        <time>2015-07-19T06:37:36Z</time>
      </trkpt>
      <trkpt lat="49.0302" lon="1.09315">
        <ele>130.600006</ele>
        <time>2015-07-19T06:37:38Z</time>
      </trkpt>
      <trkpt lat="49.03007" lon="1.09315">
        <ele>130.600006</ele>
        <time>2015-07-19T06:37:41Z</time>
      </trkpt>
      <trkpt lat="49.02995" lon="1.09315">
        <ele>130.5</ele>
        <time>2015-07-19T06:37:44Z</time>
      </trkpt>
      <trkpt lat="49.02981" lon="1.09314">
        <ele>130.5</ele>
        <time>2015-07-19T06:37:47Z</time>
      </trkpt>
      <trkpt lat="49.02969" lon="1.09314">
        <ele>130.699997</ele>
        <time>2015-07-19T06:37:50Z</time>
      </trkpt>
      <trkpt lat="49.02957" lon="1.09315">
        <ele>130.899994</ele>
        <time>2015-07-19T06:37:53Z</time>
      </trkpt>
      <trkpt lat="49.02944" lon="1.09314">
        <ele>131.100006</ele>
        <time>2015-07-19T06:37:56Z</time>
      </trkpt>
      <trkpt lat="49.02931" lon="1.09313">
        <ele>131.300003</ele>
        <time>2015-07-19T06:37:59Z</time>
      </trkpt>
      <trkpt lat="49.02918" lon="1.09313">
        <ele>131.399994</ele>
        <time>2015-07-19T06:38:02Z</time>
      </trkpt>
      <trkpt lat="49.02905" lon="1.09313">
        <ele>131.5</ele>
        <time>2015-07-19T06:38:05Z</time>
      </trkpt>
      <trkpt lat="49.02896" lon="1.09314">
        <ele>131.600006</ele>
        <time>2015-07-19T06:38:07Z</time>
      </trkpt>
      <trkpt lat="49.02886" lon="1.09314">
        <ele>131.600006</ele>
        <time>2015-07-19T06:38:09Z</time>
      </trkpt>
      <trkpt lat="49.02877" lon="1.09314">
        <ele>131.699997</ele>
        <time>2015-07-19T06:38:11Z</time>
      </trkpt>
      <trkpt lat="49.02864" lon="1.09314">
        <ele>131.699997</ele>
        <time>2015-07-19T06:38:14Z</time>
      </trkpt>
      <trkpt lat="49.02855" lon="1.09315">
        <ele>131.800003</ele>
        <time>2015-07-19T06:38:16Z</time>
      </trkpt>
      <trkpt lat="49.02842" lon="1.09317">
        <ele>131.800003</ele>
        <time>2015-07-19T06:38:19Z</time>
      </trkpt>
      <trkpt lat="49.02832" lon="1.0932">
        <ele>131.800003</ele>
        <time>2015-07-19T06:38:21Z</time>
      </trkpt>
      <trkpt lat="49.02823" lon="1.09324">
        <ele>131.899994</ele>
        <time>2015-07-19T06:38:23Z</time>
      </trkpt>
      <trkpt lat="49.02814" lon="1.09329">
        <ele>131.899994</ele>
        <time>2015-07-19T06:38:25Z</time>
      </trkpt>
      <trkpt lat="49.02805" lon="1.09334">
        <ele>131.899994</ele>
        <time>2015-07-19T06:38:27Z</time>
      </trkpt>
      <trkpt lat="49.02797" lon="1.09339">
        <ele>131.899994</ele>
        <time>2015-07-19T06:38:29Z</time>
      </trkpt>
      <trkpt lat="49.02788" lon="1.09345">
        <ele>131.899994</ele>
        <time>2015-07-19T06:38:31Z</time>
      </trkpt>
      <trkpt lat="49.02778" lon="1.09351">
        <ele>131.800003</ele>
        <time>2015-07-19T06:38:33Z</time>
      </trkpt>
      <trkpt lat="49.02768" lon="1.09355">
        <ele>131.699997</ele>
        <time>2015-07-19T06:38:35Z</time>
      </trkpt>
      <trkpt lat="49.02758" lon="1.09344">
        <ele>131.5</ele>
        <time>2015-07-19T06:38:38Z</time>
      </trkpt>
      <trkpt lat="49.02759" lon="1.09329">
        <ele>131.399994</ele>
        <time>2015-07-19T06:38:40Z</time>
      </trkpt>
      <trkpt lat="49.02762" lon="1.09314">
        <ele>131.300003</ele>
        <time>2015-07-19T06:38:42Z</time>
      </trkpt>
      <trkpt lat="49.02764" lon="1.093">
        <ele>131.199997</ele>
        <time>2015-07-19T06:38:44Z</time>
      </trkpt>
      <trkpt lat="49.02768" lon="1.09281">
        <ele>131.100006</ele>
        <time>2015-07-19T06:38:47Z</time>
      </trkpt>
      <trkpt lat="49.0277" lon="1.09262">
        <ele>131</ele>
        <time>2015-07-19T06:38:50Z</time>
      </trkpt>
      <trkpt lat="49.02772" lon="1.09248">
        <ele>131</ele>
        <time>2015-07-19T06:38:52Z</time>
      </trkpt>
      <trkpt lat="49.02773" lon="1.09228">
        <ele>130.899994</ele>
        <time>2015-07-19T06:38:55Z</time>
      </trkpt>
      <trkpt lat="49.02772" lon="1.09208">
        <ele>130.899994</ele>
        <time>2015-07-19T06:38:58Z</time>
      </trkpt>
      <trkpt lat="49.02771" lon="1.09188">
        <ele>131</ele>
        <time>2015-07-19T06:39:01Z</time>
      </trkpt>
      <trkpt lat="49.02769" lon="1.09169">
        <ele>131.100006</ele>
        <time>2015-07-19T06:39:04Z</time>
      </trkpt>
      <trkpt lat="49.02767" lon="1.09149">
        <ele>131.100006</ele>
        <time>2015-07-19T06:39:07Z</time>
      </trkpt>
      <trkpt lat="49.02765" lon="1.09135">
        <ele>131.199997</ele>
        <time>2015-07-19T06:39:09Z</time>
      </trkpt>
      <trkpt lat="49.02763" lon="1.09121">
        <ele>131.199997</ele>
        <time>2015-07-19T06:39:11Z</time>
      </trkpt>
      <trkpt lat="49.0276" lon="1.09107">
        <ele>131.300003</ele>
        <time>2015-07-19T06:39:13Z</time>
      </trkpt>
      <trkpt lat="49.02758" lon="1.09093">
        <ele>131.300003</ele>
        <time>2015-07-19T06:39:15Z</time>
      </trkpt>
      <trkpt lat="49.02756" lon="1.09079">
        <ele>131.300003</ele>
        <time>2015-07-19T06:39:17Z</time>
      </trkpt>
      <trkpt lat="49.02754" lon="1.09064">
        <ele>131.300003</ele>
        <time>2015-07-19T06:39:19Z</time>
      </trkpt>
      <trkpt lat="49.02753" lon="1.0905">
        <ele>131.399994</ele>
        <time>2015-07-19T06:39:21Z</time>
      </trkpt>
      <trkpt lat="49.02752" lon="1.09036">
        <ele>131.399994</ele>
        <time>2015-07-19T06:39:23Z</time>
      </trkpt>
      <trkpt lat="49.02751" lon="1.09023">
        <ele>131.399994</ele>
        <time>2015-07-19T06:39:25Z</time>
      </trkpt>
      <trkpt lat="49.0275" lon="1.09009">
        <ele>131.399994</ele>
        <time>2015-07-19T06:39:27Z</time>
      </trkpt>
      <trkpt lat="49.0275" lon="1.08994">
        <ele>131.399994</ele>
        <time>2015-07-19T06:39:29Z</time>
      </trkpt>
      <trkpt lat="49.0275" lon="1.08981">
        <ele>131.399994</ele>
        <time>2015-07-19T06:39:31Z</time>
      </trkpt>
      <trkpt lat="49.0275" lon="1.08967">
        <ele>131.399994</ele>
        <time>2015-07-19T06:39:33Z</time>
      </trkpt>
      <trkpt lat="49.0275" lon="1.08952">
        <ele>131.5</ele>
        <time>2015-07-19T06:39:35Z</time>
      </trkpt>
      <trkpt lat="49.0275" lon="1.08938">
        <ele>131.5</ele>
        <time>2015-07-19T06:39:37Z</time>
      </trkpt>
      <trkpt lat="49.02749" lon="1.08924">
        <ele>131.399994</ele>
        <time>2015-07-19T06:39:39Z</time>
      </trkpt>
      <trkpt lat="49.02749" lon="1.08909">
        <ele>131.399994</ele>
        <time>2015-07-19T06:39:41Z</time>
      </trkpt>
      <trkpt lat="49.02749" lon="1.08895">
        <ele>131.399994</ele>
        <time>2015-07-19T06:39:43Z</time>
      </trkpt>
      <trkpt lat="49.02748" lon="1.0888">
        <ele>131.399994</ele>
        <time>2015-07-19T06:39:45Z</time>
      </trkpt>
      <trkpt lat="49.02748" lon="1.08866">
        <ele>131.399994</ele>
        <time>2015-07-19T06:39:47Z</time>
      </trkpt>
      <trkpt lat="49.02748" lon="1.08852">
        <ele>131.399994</ele>
        <time>2015-07-19T06:39:49Z</time>
      </trkpt>
      <trkpt lat="49.02748" lon="1.08837">
        <ele>131.399994</ele>
        <time>2015-07-19T06:39:51Z</time>
      </trkpt>
      <trkpt lat="49.02748" lon="1.08822">
        <ele>131.399994</ele>
        <time>2015-07-19T06:39:53Z</time>
      </trkpt>
      <trkpt lat="49.02748" lon="1.08807">
        <ele>131.399994</ele>
        <time>2015-07-19T06:39:55Z</time>
      </trkpt>
      <trkpt lat="49.02748" lon="1.08792">
        <ele>131.399994</ele>
        <time>2015-07-19T06:39:57Z</time>
      </trkpt>
      <trkpt lat="49.02748" lon="1.08777">
        <ele>131.399994</ele>
        <time>2015-07-19T06:39:59Z</time>
      </trkpt>
      <trkpt lat="49.02747" lon="1.08762">
        <ele>131.399994</ele>
        <time>2015-07-19T06:40:01Z</time>
      </trkpt>
      <trkpt lat="49.02747" lon="1.08747">
        <ele>131.399994</ele>
        <time>2015-07-19T06:40:03Z</time>
      </trkpt>
      <trkpt lat="49.02747" lon="1.08731">
        <ele>131.399994</ele>
        <time>2015-07-19T06:40:05Z</time>
      </trkpt>
      <trkpt lat="49.02746" lon="1.08717">
        <ele>131.399994</ele>
        <time>2015-07-19T06:40:07Z</time>
      </trkpt>
      <trkpt lat="49.02746" lon="1.08699">
        <ele>131.300003</ele>
        <time>2015-07-19T06:40:10Z</time>
      </trkpt>
      <trkpt lat="49.02746" lon="1.08681">
        <ele>131.300003</ele>
        <time>2015-07-19T06:40:13Z</time>
      </trkpt>
      <trkpt lat="49.02746" lon="1.08662">
        <ele>131.199997</ele>
        <time>2015-07-19T06:40:16Z</time>
      </trkpt>
      <trkpt lat="49.02746" lon="1.08648">
        <ele>131.199997</ele>
        <time>2015-07-19T06:40:18Z</time>
      </trkpt>
      <trkpt lat="49.02746" lon="1.08634">
        <ele>131.199997</ele>
        <time>2015-07-19T06:40:20Z</time>
      </trkpt>
      <trkpt lat="49.02746" lon="1.0862">
        <ele>131.100006</ele>
        <time>2015-07-19T06:40:22Z</time>
      </trkpt>
      <trkpt lat="49.02747" lon="1.086">
        <ele>131.100006</ele>
        <time>2015-07-19T06:40:25Z</time>
      </trkpt>
      <trkpt lat="49.02748" lon="1.0858">
        <ele>131.100006</ele>
        <time>2015-07-19T06:40:28Z</time>
      </trkpt>
      <trkpt lat="49.0275" lon="1.0856">
        <ele>131.100006</ele>
        <time>2015-07-19T06:40:31Z</time>
      </trkpt>
      <trkpt lat="49.02752" lon="1.0854">
        <ele>131.100006</ele>
        <time>2015-07-19T06:40:34Z</time>
      </trkpt>
      <trkpt lat="49.02755" lon="1.08521">
        <ele>131</ele>
        <time>2015-07-19T06:40:37Z</time>
      </trkpt>
      <trkpt lat="49.02757" lon="1.08507">
        <ele>131.100006</ele>
        <time>2015-07-19T06:40:39Z</time>
      </trkpt>
      <trkpt lat="49.02761" lon="1.08488">
        <ele>131.100006</ele>
        <time>2015-07-19T06:40:42Z</time>
      </trkpt>
      <trkpt lat="49.02766" lon="1.08471">
        <ele>131.100006</ele>
        <time>2015-07-19T06:40:45Z</time>
      </trkpt>
      <trkpt lat="49.02771" lon="1.08453">
        <ele>131.100006</ele>
        <time>2015-07-19T06:40:48Z</time>
      </trkpt>
      <trkpt lat="49.02776" lon="1.08436">
        <ele>131.100006</ele>
        <time>2015-07-19T06:40:51Z</time>
      </trkpt>
      <trkpt lat="49.02779" lon="1.08422">
        <ele>131.100006</ele>
        <time>2015-07-19T06:40:53Z</time>
      </trkpt>
      <trkpt lat="49.02782" lon="1.08408">
        <ele>131.100006</ele>
        <time>2015-07-19T06:40:55Z</time>
      </trkpt>
      <trkpt lat="49.02785" lon="1.08394">
        <ele>131.100006</ele>
        <time>2015-07-19T06:40:57Z</time>
      </trkpt>
      <trkpt lat="49.02788" lon="1.08381">
        <ele>131.100006</ele>
        <time>2015-07-19T06:40:59Z</time>
      </trkpt>
      <trkpt lat="49.02791" lon="1.08367">
        <ele>131.199997</ele>
        <time>2015-07-19T06:41:01Z</time>
      </trkpt>
      <trkpt lat="49.02793" lon="1.08352">
        <ele>131.199997</ele>
        <time>2015-07-19T06:41:03Z</time>
      </trkpt>
      <trkpt lat="49.02796" lon="1.08338">
        <ele>131.199997</ele>
        <time>2015-07-19T06:41:05Z</time>
      </trkpt>
      <trkpt lat="49.02799" lon="1.08324">
        <ele>131.199997</ele>
        <time>2015-07-19T06:41:07Z</time>
      </trkpt>
      <trkpt lat="49.02801" lon="1.0831">
        <ele>131.199997</ele>
        <time>2015-07-19T06:41:09Z</time>
      </trkpt>
      <trkpt lat="49.02803" lon="1.08296">
        <ele>131.199997</ele>
        <time>2015-07-19T06:41:11Z</time>
      </trkpt>
      <trkpt lat="49.02808" lon="1.08277">
        <ele>131.199997</ele>
        <time>2015-07-19T06:41:14Z</time>
      </trkpt>
      <trkpt lat="49.0281" lon="1.08263">
        <ele>131.199997</ele>
        <time>2015-07-19T06:41:16Z</time>
      </trkpt>
      <trkpt lat="49.02814" lon="1.08244">
        <ele>131.199997</ele>
        <time>2015-07-19T06:41:19Z</time>
      </trkpt>
      <trkpt lat="49.02818" lon="1.08231">
        <ele>131.199997</ele>
        <time>2015-07-19T06:41:21Z</time>
      </trkpt>
      <trkpt lat="49.02822" lon="1.08217">
        <ele>131.199997</ele>
        <time>2015-07-19T06:41:23Z</time>
      </trkpt>
      <trkpt lat="49.02825" lon="1.08204">
        <ele>131.199997</ele>
        <time>2015-07-19T06:41:25Z</time>
      </trkpt>
      <trkpt lat="49.0283" lon="1.08192">
        <ele>131.199997</ele>
        <time>2015-07-19T06:41:27Z</time>
      </trkpt>
      <trkpt lat="49.02836" lon="1.08174">
        <ele>131.199997</ele>
        <time>2015-07-19T06:41:30Z</time>
      </trkpt>
      <trkpt lat="49.02841" lon="1.08162">
        <ele>131.199997</ele>
        <time>2015-07-19T06:41:32Z</time>
      </trkpt>
      <trkpt lat="49.02846" lon="1.0815">
        <ele>131.300003</ele>
        <time>2015-07-19T06:41:34Z</time>
      </trkpt>
      <trkpt lat="49.0285" lon="1.08139">
        <ele>131.300003</ele>
        <time>2015-07-19T06:41:36Z</time>
      </trkpt>
      <trkpt lat="49.02857" lon="1.08121">
        <ele>131.300003</ele>
        <time>2015-07-19T06:41:39Z</time>
      </trkpt>
      <trkpt lat="49.02864" lon="1.08103">
        <ele>131.300003</ele>
        <time>2015-07-19T06:41:42Z</time>
      </trkpt>
      <trkpt lat="49.02869" lon="1.08091">
        <ele>131.399994</ele>
        <time>2015-07-19T06:41:44Z</time>
      </trkpt>
      <trkpt lat="49.02874" lon="1.08073">
        <ele>131.399994</ele>
        <time>2015-07-19T06:41:47Z</time>
      </trkpt>
      <trkpt lat="49.02878" lon="1.08054">
        <ele>131.5</ele>
        <time>2015-07-19T06:41:50Z</time>
      </trkpt>
      <trkpt lat="49.0288" lon="1.0804">
        <ele>131.5</ele>
        <time>2015-07-19T06:41:52Z</time>
      </trkpt>
      <trkpt lat="49.02881" lon="1.08026">
        <ele>131.600006</ele>
        <time>2015-07-19T06:41:54Z</time>
      </trkpt>
      <trkpt lat="49.02883" lon="1.08006">
        <ele>131.600006</ele>
        <time>2015-07-19T06:41:57Z</time>
      </trkpt>
      <trkpt lat="49.02884" lon="1.07992">
        <ele>131.600006</ele>
        <time>2015-07-19T06:41:59Z</time>
      </trkpt>
      <trkpt lat="49.02884" lon="1.07973">
        <ele>131.600006</ele>
        <time>2015-07-19T06:42:02Z</time>
      </trkpt>
      <trkpt lat="49.02885" lon="1.07953">
        <ele>131.699997</ele>
        <time>2015-07-19T06:42:05Z</time>
      </trkpt>
      <trkpt lat="49.02886" lon="1.07936">
        <ele>131.699997</ele>
        <time>2015-07-19T06:42:08Z</time>
      </trkpt>
      <trkpt lat="49.0289" lon="1.0792">
        <ele>131.699997</ele>
        <time>2015-07-19T06:42:12Z</time>
      </trkpt>
      <trkpt lat="49.02893" lon="1.07904">
        <ele>131.600006</ele>
        <time>2015-07-19T06:42:15Z</time>
      </trkpt>
      <trkpt lat="49.02897" lon="1.07885">
        <ele>131.5</ele>
        <time>2015-07-19T06:42:18Z</time>
      </trkpt>
      <trkpt lat="49.02899" lon="1.07871">
        <ele>131.5</ele>
        <time>2015-07-19T06:42:20Z</time>
      </trkpt>
      <trkpt lat="49.02901" lon="1.07852">
        <ele>131.5</ele>
        <time>2015-07-19T06:42:23Z</time>
      </trkpt>
      <trkpt lat="49.02905" lon="1.07836">
        <ele>131.399994</ele>
        <time>2015-07-19T06:42:25Z</time>
      </trkpt>
      <trkpt lat="49.02906" lon="1.07819">
        <ele>131.399994</ele>
        <time>2015-07-19T06:42:27Z</time>
      </trkpt>
      <trkpt lat="49.02907" lon="1.07799">
        <ele>131.399994</ele>
        <time>2015-07-19T06:42:29Z</time>
      </trkpt>
      <trkpt lat="49.02909" lon="1.0778">
        <ele>131.399994</ele>
        <time>2015-07-19T06:42:31Z</time>
      </trkpt>
      <trkpt lat="49.02912" lon="1.07763">
        <ele>131.399994</ele>
        <time>2015-07-19T06:42:33Z</time>
      </trkpt>
      <trkpt lat="49.02916" lon="1.07746">
        <ele>131.399994</ele>
        <time>2015-07-19T06:42:35Z</time>
      </trkpt>
      <trkpt lat="49.0292" lon="1.07731">
        <ele>131.300003</ele>
        <time>2015-07-19T06:42:37Z</time>
      </trkpt>
      <trkpt lat="49.02923" lon="1.07716">
        <ele>131.300003</ele>
        <time>2015-07-19T06:42:39Z</time>
      </trkpt>
      <trkpt lat="49.02927" lon="1.07701">
        <ele>131.300003</ele>
        <time>2015-07-19T06:42:41Z</time>
      </trkpt>
      <trkpt lat="49.0293" lon="1.07686">
        <ele>131.199997</ele>
        <time>2015-07-19T06:42:43Z</time>
      </trkpt>
      <trkpt lat="49.02933" lon="1.07671">
        <ele>131.199997</ele>
        <time>2015-07-19T06:42:45Z</time>
      </trkpt>
      <trkpt lat="49.02935" lon="1.07656">
        <ele>131.100006</ele>
        <time>2015-07-19T06:42:47Z</time>
      </trkpt>
      <trkpt lat="49.02938" lon="1.0764">
        <ele>131.100006</ele>
        <time>2015-07-19T06:42:49Z</time>
      </trkpt>
      <trkpt lat="49.0294" lon="1.07625">
        <ele>131</ele>
        <time>2015-07-19T06:42:51Z</time>
      </trkpt>
      <trkpt lat="49.02942" lon="1.07609">
        <ele>130.899994</ele>
        <time>2015-07-19T06:42:53Z</time>
      </trkpt>
      <trkpt lat="49.02943" lon="1.07594">
        <ele>130.699997</ele>
        <time>2015-07-19T06:42:55Z</time>
      </trkpt>
      <trkpt lat="49.02944" lon="1.07579">
        <ele>130.600006</ele>
        <time>2015-07-19T06:42:57Z</time>
      </trkpt>
      <trkpt lat="49.02945" lon="1.07564">
        <ele>130.5</ele>
        <time>2015-07-19T06:42:59Z</time>
      </trkpt>
      <trkpt lat="49.02946" lon="1.07549">
        <ele>130.399994</ele>
        <time>2015-07-19T06:43:01Z</time>
      </trkpt>
      <trkpt lat="49.02946" lon="1.07534">
        <ele>130.300003</ele>
        <time>2015-07-19T06:43:03Z</time>
      </trkpt>
      <trkpt lat="49.02947" lon="1.07518">
        <ele>130.199997</ele>
        <time>2015-07-19T06:43:05Z</time>
      </trkpt>
      <trkpt lat="49.02948" lon="1.07502">
        <ele>130.199997</ele>
        <time>2015-07-19T06:43:07Z</time>
      </trkpt>
      <trkpt lat="49.02948" lon="1.07486">
        <ele>130</ele>
        <time>2015-07-19T06:43:09Z</time>
      </trkpt>
      <trkpt lat="49.02948" lon="1.07471">
        <ele>129.899994</ele>
        <time>2015-07-19T06:43:11Z</time>
      </trkpt>
      <trkpt lat="49.02948" lon="1.07456">
        <ele>129.800003</ele>
        <time>2015-07-19T06:43:13Z</time>
      </trkpt>
      <trkpt lat="49.02945" lon="1.0744">
        <ele>129.699997</ele>
        <time>2015-07-19T06:43:15Z</time>
      </trkpt>
      <trkpt lat="49.02943" lon="1.07425">
        <ele>129.600006</ele>
        <time>2015-07-19T06:43:17Z</time>
      </trkpt>
      <trkpt lat="49.0294" lon="1.0741">
        <ele>129.5</ele>
        <time>2015-07-19T06:43:19Z</time>
      </trkpt>
      <trkpt lat="49.02938" lon="1.07394">
        <ele>129.5</ele>
        <time>2015-07-19T06:43:21Z</time>
      </trkpt>
      <trkpt lat="49.02936" lon="1.07379">
        <ele>129.399994</ele>
        <time>2015-07-19T06:43:23Z</time>
      </trkpt>
      <trkpt lat="49.02933" lon="1.07363">
        <ele>129.399994</ele>
        <time>2015-07-19T06:43:25Z</time>
      </trkpt>
      <trkpt lat="49.0293" lon="1.07348">
        <ele>129.300003</ele>
        <time>2015-07-19T06:43:27Z</time>
      </trkpt>
      <trkpt lat="49.02928" lon="1.07332">
        <ele>129.300003</ele>
        <time>2015-07-19T06:43:29Z</time>
      </trkpt>
      <trkpt lat="49.02925" lon="1.07315">
        <ele>129.199997</ele>
        <time>2015-07-19T06:43:31Z</time>
      </trkpt>
      <trkpt lat="49.02922" lon="1.073">
        <ele>129.199997</ele>
        <time>2015-07-19T06:43:33Z</time>
      </trkpt>
      <trkpt lat="49.02919" lon="1.07284">
        <ele>129.199997</ele>
        <time>2015-07-19T06:43:35Z</time>
      </trkpt>
      <trkpt lat="49.02917" lon="1.0727">
        <ele>129.199997</ele>
        <time>2015-07-19T06:43:37Z</time>
      </trkpt>
      <trkpt lat="49.02915" lon="1.07255">
        <ele>129.100006</ele>
        <time>2015-07-19T06:43:39Z</time>
      </trkpt>
      <trkpt lat="49.02913" lon="1.0724">
        <ele>129.100006</ele>
        <time>2015-07-19T06:43:41Z</time>
      </trkpt>
      <trkpt lat="49.02911" lon="1.07225">
        <ele>129.100006</ele>
        <time>2015-07-19T06:43:43Z</time>
      </trkpt>
      <trkpt lat="49.02909" lon="1.0721">
        <ele>129.100006</ele>
        <time>2015-07-19T06:43:45Z</time>
      </trkpt>
      <trkpt lat="49.02908" lon="1.07196">
        <ele>129.100006</ele>
        <time>2015-07-19T06:43:47Z</time>
      </trkpt>
      <trkpt lat="49.02908" lon="1.07176">
        <ele>129.100006</ele>
        <time>2015-07-19T06:43:50Z</time>
      </trkpt>
      <trkpt lat="49.02909" lon="1.07161">
        <ele>129.100006</ele>
        <time>2015-07-19T06:43:52Z</time>
      </trkpt>
      <trkpt lat="49.02911" lon="1.07143">
        <ele>129</ele>
        <time>2015-07-19T06:43:55Z</time>
      </trkpt>
      <trkpt lat="49.02914" lon="1.07126">
        <ele>129</ele>
        <time>2015-07-19T06:43:57Z</time>
      </trkpt>
      <trkpt lat="49.02918" lon="1.07112">
        <ele>129</ele>
        <time>2015-07-19T06:43:59Z</time>
      </trkpt>
      <trkpt lat="49.02921" lon="1.07095">
        <ele>129</ele>
        <time>2015-07-19T06:44:01Z</time>
      </trkpt>
      <trkpt lat="49.02923" lon="1.07076">
        <ele>129</ele>
        <time>2015-07-19T06:44:03Z</time>
      </trkpt>
      <trkpt lat="49.02925" lon="1.07057">
        <ele>129</ele>
        <time>2015-07-19T06:44:05Z</time>
      </trkpt>
      <trkpt lat="49.0293" lon="1.07041">
        <ele>128.899994</ele>
        <time>2015-07-19T06:44:07Z</time>
      </trkpt>
      <trkpt lat="49.02933" lon="1.07021">
        <ele>128.800003</ele>
        <time>2015-07-19T06:44:09Z</time>
      </trkpt>
      <trkpt lat="49.02934" lon="1.07001">
        <ele>128.5</ele>
        <time>2015-07-19T06:44:12Z</time>
      </trkpt>
      <trkpt lat="49.02935" lon="1.06981">
        <ele>128.199997</ele>
        <time>2015-07-19T06:44:14Z</time>
      </trkpt>
      <trkpt lat="49.02935" lon="1.06963">
        <ele>127.800003</ele>
        <time>2015-07-19T06:44:16Z</time>
      </trkpt>
      <trkpt lat="49.02936" lon="1.06944">
        <ele>127.300003</ele>
        <time>2015-07-19T06:44:18Z</time>
      </trkpt>
      <trkpt lat="49.02939" lon="1.06927">
        <ele>126.800003</ele>
        <time>2015-07-19T06:44:20Z</time>
      </trkpt>
      <trkpt lat="49.0294" lon="1.06907">
        <ele>126.099998</ele>
        <time>2015-07-19T06:44:22Z</time>
      </trkpt>
      <trkpt lat="49.0294" lon="1.06886">
        <ele>125.400002</ele>
        <time>2015-07-19T06:44:24Z</time>
      </trkpt>
      <trkpt lat="49.02938" lon="1.06867">
        <ele>124.599998</ele>
        <time>2015-07-19T06:44:26Z</time>
      </trkpt>
      <trkpt lat="49.02936" lon="1.06845">
        <ele>123.900002</ele>
        <time>2015-07-19T06:44:28Z</time>
      </trkpt>
      <trkpt lat="49.02933" lon="1.06827">
        <ele>123.300003</ele>
        <time>2015-07-19T06:44:30Z</time>
      </trkpt>
      <trkpt lat="49.02931" lon="1.06809">
        <ele>122.699997</ele>
        <time>2015-07-19T06:44:32Z</time>
      </trkpt>
      <trkpt lat="49.02929" lon="1.06793">
        <ele>122.199997</ele>
        <time>2015-07-19T06:44:34Z</time>
      </trkpt>
      <trkpt lat="49.02926" lon="1.06775">
        <ele>121.800003</ele>
        <time>2015-07-19T06:44:36Z</time>
      </trkpt>
      <trkpt lat="49.02919" lon="1.06755">
        <ele>121.400002</ele>
        <time>2015-07-19T06:44:38Z</time>
      </trkpt>
      <trkpt lat="49.02914" lon="1.06741">
        <ele>121</ele>
        <time>2015-07-19T06:44:40Z</time>
      </trkpt>
      <trkpt lat="49.02908" lon="1.06727">
        <ele>120.599998</ele>
        <time>2015-07-19T06:44:42Z</time>
      </trkpt>
      <trkpt lat="49.02902" lon="1.06706">
        <ele>120.199997</ele>
        <time>2015-07-19T06:44:45Z</time>
      </trkpt>
      <trkpt lat="49.02896" lon="1.06692">
        <ele>119.900002</ele>
        <time>2015-07-19T06:44:47Z</time>
      </trkpt>
      <trkpt lat="49.0289" lon="1.06671">
        <ele>119.699997</ele>
        <time>2015-07-19T06:44:49Z</time>
      </trkpt>
      <trkpt lat="49.02883" lon="1.06649">
        <ele>119.5</ele>
        <time>2015-07-19T06:44:51Z</time>
      </trkpt>
      <trkpt lat="49.02879" lon="1.06631">
        <ele>119.199997</ele>
        <time>2015-07-19T06:44:53Z</time>
      </trkpt>
      <trkpt lat="49.02876" lon="1.06612">
        <ele>119.099998</ele>
        <time>2015-07-19T06:44:55Z</time>
      </trkpt>
      <trkpt lat="49.02874" lon="1.06593">
        <ele>118.900002</ele>
        <time>2015-07-19T06:44:57Z</time>
      </trkpt>
      <trkpt lat="49.0287" lon="1.06574">
        <ele>118.699997</ele>
        <time>2015-07-19T06:44:59Z</time>
      </trkpt>
      <trkpt lat="49.02866" lon="1.06556">
        <ele>118.599998</ele>
        <time>2015-07-19T06:45:01Z</time>
      </trkpt>
      <trkpt lat="49.02863" lon="1.06539">
        <ele>118.5</ele>
        <time>2015-07-19T06:45:03Z</time>
      </trkpt>
      <trkpt lat="49.0286" lon="1.06523">
        <ele>118.400002</ele>
        <time>2015-07-19T06:45:05Z</time>
      </trkpt>
      <trkpt lat="49.02856" lon="1.06507">
        <ele>118.300003</ele>
        <time>2015-07-19T06:45:07Z</time>
      </trkpt>
      <trkpt lat="49.02852" lon="1.06491">
        <ele>118.300003</ele>
        <time>2015-07-19T06:45:09Z</time>
      </trkpt>
      <trkpt lat="49.02848" lon="1.06477">
        <ele>118.300003</ele>
        <time>2015-07-19T06:45:11Z</time>
      </trkpt>
      <trkpt lat="49.02844" lon="1.06463">
        <ele>118.199997</ele>
        <time>2015-07-19T06:45:13Z</time>
      </trkpt>
      <trkpt lat="49.0284" lon="1.0645">
        <ele>118.199997</ele>
        <time>2015-07-19T06:45:15Z</time>
      </trkpt>
      <trkpt lat="49.02836" lon="1.06437">
        <ele>118.300003</ele>
        <time>2015-07-19T06:45:17Z</time>
      </trkpt>
      <trkpt lat="49.02831" lon="1.06418">
        <ele>118.400002</ele>
        <time>2015-07-19T06:45:20Z</time>
      </trkpt>
      <trkpt lat="49.02826" lon="1.064">
        <ele>118.5</ele>
        <time>2015-07-19T06:45:23Z</time>
      </trkpt>
      <trkpt lat="49.02821" lon="1.06383">
        <ele>118.900002</ele>
        <time>2015-07-19T06:45:26Z</time>
      </trkpt>
      <trkpt lat="49.02816" lon="1.06366">
        <ele>119.199997</ele>
        <time>2015-07-19T06:45:29Z</time>
      </trkpt>
      <trkpt lat="49.02812" lon="1.0635">
        <ele>119.599998</ele>
        <time>2015-07-19T06:45:32Z</time>
      </trkpt>
      <trkpt lat="49.02807" lon="1.06334">
        <ele>120</ele>
        <time>2015-07-19T06:45:35Z</time>
      </trkpt>
      <trkpt lat="49.02802" lon="1.06317">
        <ele>120.400002</ele>
        <time>2015-07-19T06:45:38Z</time>
      </trkpt>
      <trkpt lat="49.02798" lon="1.06299">
        <ele>120.800003</ele>
        <time>2015-07-19T06:45:41Z</time>
      </trkpt>
      <trkpt lat="49.02794" lon="1.06282">
        <ele>121.199997</ele>
        <time>2015-07-19T06:45:44Z</time>
      </trkpt>
      <trkpt lat="49.0279" lon="1.06264">
        <ele>121.5</ele>
        <time>2015-07-19T06:45:47Z</time>
      </trkpt>
      <trkpt lat="49.02786" lon="1.06246">
        <ele>121.800003</ele>
        <time>2015-07-19T06:45:50Z</time>
      </trkpt>
      <trkpt lat="49.02782" lon="1.06228">
        <ele>122</ele>
        <time>2015-07-19T06:45:53Z</time>
      </trkpt>
      <trkpt lat="49.02779" lon="1.0621">
        <ele>122.300003</ele>
        <time>2015-07-19T06:45:56Z</time>
      </trkpt>
      <trkpt lat="49.02777" lon="1.06193">
        <ele>122.599998</ele>
        <time>2015-07-19T06:45:59Z</time>
      </trkpt>
      <trkpt lat="49.02776" lon="1.06179">
        <ele>122.800003</ele>
        <time>2015-07-19T06:46:02Z</time>
      </trkpt>
      <trkpt lat="49.02775" lon="1.06164">
        <ele>123.099998</ele>
        <time>2015-07-19T06:46:06Z</time>
      </trkpt>
      <trkpt lat="49.02772" lon="1.06148">
        <ele>123.300003</ele>
        <time>2015-07-19T06:46:09Z</time>
      </trkpt>
      <trkpt lat="49.02771" lon="1.06134">
        <ele>123.5</ele>
        <time>2015-07-19T06:46:12Z</time>
      </trkpt>
      <trkpt lat="49.02769" lon="1.06118">
        <ele>123.699997</ele>
        <time>2015-07-19T06:46:15Z</time>
      </trkpt>
      <trkpt lat="49.02768" lon="1.06101">
        <ele>123.800003</ele>
        <time>2015-07-19T06:46:18Z</time>
      </trkpt>
      <trkpt lat="49.02767" lon="1.06084">
        <ele>124</ele>
        <time>2015-07-19T06:46:21Z</time>
      </trkpt>
      <trkpt lat="49.02766" lon="1.06066">
        <ele>124.199997</ele>
        <time>2015-07-19T06:46:24Z</time>
      </trkpt>
      <trkpt lat="49.02764" lon="1.0605">
        <ele>124.5</ele>
        <time>2015-07-19T06:46:27Z</time>
      </trkpt>
      <trkpt lat="49.02763" lon="1.06032">
        <ele>124.599998</ele>
        <time>2015-07-19T06:46:30Z</time>
      </trkpt>
      <trkpt lat="49.02762" lon="1.06014">
        <ele>124.800003</ele>
        <time>2015-07-19T06:46:33Z</time>
      </trkpt>
      <trkpt lat="49.02761" lon="1.05996">
        <ele>125.099998</ele>
        <time>2015-07-19T06:46:36Z</time>
      </trkpt>
      <trkpt lat="49.0276" lon="1.05979">
        <ele>125.300003</ele>
        <time>2015-07-19T06:46:39Z</time>
      </trkpt>
      <trkpt lat="49.02758" lon="1.05961">
        <ele>125.5</ele>
        <time>2015-07-19T06:46:42Z</time>
      </trkpt>
      <trkpt lat="49.02757" lon="1.05943">
        <ele>125.599998</ele>
        <time>2015-07-19T06:46:45Z</time>
      </trkpt>
      <trkpt lat="49.02755" lon="1.05924">
        <ele>125.800003</ele>
        <time>2015-07-19T06:46:48Z</time>
      </trkpt>
      <trkpt lat="49.02754" lon="1.05905">
        <ele>126</ele>
        <time>2015-07-19T06:46:51Z</time>
      </trkpt>
      <trkpt lat="49.02753" lon="1.05886">
        <ele>126.199997</ele>
        <time>2015-07-19T06:46:54Z</time>
      </trkpt>
      <trkpt lat="49.02751" lon="1.05867">
        <ele>126.300003</ele>
        <time>2015-07-19T06:46:57Z</time>
      </trkpt>
      <trkpt lat="49.02749" lon="1.05848">
        <ele>126.5</ele>
        <time>2015-07-19T06:47:00Z</time>
      </trkpt>
      <trkpt lat="49.02747" lon="1.05829">
        <ele>126.599998</ele>
        <time>2015-07-19T06:47:03Z</time>
      </trkpt>
      <trkpt lat="49.02745" lon="1.05812">
        <ele>126.800003</ele>
        <time>2015-07-19T06:47:06Z</time>
      </trkpt>
      <trkpt lat="49.02743" lon="1.05795">
        <ele>127</ele>
        <time>2015-07-19T06:47:09Z</time>
      </trkpt>
      <trkpt lat="49.02742" lon="1.05778">
        <ele>127.099998</ele>
        <time>2015-07-19T06:47:12Z</time>
      </trkpt>
      <trkpt lat="49.0274" lon="1.05759">
        <ele>127.300003</ele>
        <time>2015-07-19T06:47:15Z</time>
      </trkpt>
      <trkpt lat="49.02738" lon="1.05741">
        <ele>127.5</ele>
        <time>2015-07-19T06:47:18Z</time>
      </trkpt>
      <trkpt lat="49.02736" lon="1.05723">
        <ele>127.599998</ele>
        <time>2015-07-19T06:47:21Z</time>
      </trkpt>
      <trkpt lat="49.02734" lon="1.05705">
        <ele>127.800003</ele>
        <time>2015-07-19T06:47:24Z</time>
      </trkpt>
      <trkpt lat="49.02732" lon="1.05686">
        <ele>128</ele>
        <time>2015-07-19T06:47:27Z</time>
      </trkpt>
      <trkpt lat="49.0273" lon="1.05668">
        <ele>128.100006</ele>
        <time>2015-07-19T06:47:30Z</time>
      </trkpt>
      <trkpt lat="49.02727" lon="1.05649">
        <ele>128.199997</ele>
        <time>2015-07-19T06:47:33Z</time>
      </trkpt>
      <trkpt lat="49.02725" lon="1.05629">
        <ele>128.399994</ele>
        <time>2015-07-19T06:47:36Z</time>
      </trkpt>
      <trkpt lat="49.02724" lon="1.05615">
        <ele>128.399994</ele>
        <time>2015-07-19T06:47:38Z</time>
      </trkpt>
      <trkpt lat="49.02722" lon="1.05601">
        <ele>128.5</ele>
        <time>2015-07-19T06:47:40Z</time>
      </trkpt>
      <trkpt lat="49.0272" lon="1.05581">
        <ele>128.600006</ele>
        <time>2015-07-19T06:47:43Z</time>
      </trkpt>
      <trkpt lat="49.02719" lon="1.05561">
        <ele>128.699997</ele>
        <time>2015-07-19T06:47:46Z</time>
      </trkpt>
      <trkpt lat="49.02717" lon="1.05541">
        <ele>128.800003</ele>
        <time>2015-07-19T06:47:49Z</time>
      </trkpt>
      <trkpt lat="49.02716" lon="1.05521">
        <ele>129</ele>
        <time>2015-07-19T06:47:52Z</time>
      </trkpt>
      <trkpt lat="49.02715" lon="1.05501">
        <ele>129.100006</ele>
        <time>2015-07-19T06:47:55Z</time>
      </trkpt>
      <trkpt lat="49.02713" lon="1.05481">
        <ele>129.199997</ele>
        <time>2015-07-19T06:47:58Z</time>
      </trkpt>
      <trkpt lat="49.02711" lon="1.05461">
        <ele>129.300003</ele>
        <time>2015-07-19T06:48:01Z</time>
      </trkpt>
      <trkpt lat="49.0271" lon="1.05441">
        <ele>129.399994</ele>
        <time>2015-07-19T06:48:04Z</time>
      </trkpt>
      <trkpt lat="49.0271" lon="1.05427">
        <ele>129.399994</ele>
        <time>2015-07-19T06:48:06Z</time>
      </trkpt>
      <trkpt lat="49.02709" lon="1.05408">
        <ele>129.5</ele>
        <time>2015-07-19T06:48:09Z</time>
      </trkpt>
      <trkpt lat="49.02708" lon="1.05391">
        <ele>129.5</ele>
        <time>2015-07-19T06:48:12Z</time>
      </trkpt>
      <trkpt lat="49.02707" lon="1.05375">
        <ele>129.600006</ele>
        <time>2015-07-19T06:48:17Z</time>
      </trkpt>
      <trkpt lat="49.02708" lon="1.05359">
        <ele>127.900002</ele>
        <time>2015-07-19T06:54:44Z</time>
      </trkpt>
      <trkpt lat="49.02707" lon="1.05344">
        <ele>128</ele>
        <time>2015-07-19T06:54:47Z</time>
      </trkpt>
      <trkpt lat="49.02707" lon="1.05326">
        <ele>128</ele>
        <time>2015-07-19T06:54:50Z</time>
      </trkpt>
      <trkpt lat="49.02706" lon="1.05307">
        <ele>128</ele>
        <time>2015-07-19T06:54:53Z</time>
      </trkpt>
      <trkpt lat="49.02705" lon="1.05293">
        <ele>128</ele>
        <time>2015-07-19T06:54:55Z</time>
      </trkpt>
      <trkpt lat="49.02704" lon="1.05278">
        <ele>128</ele>
        <time>2015-07-19T06:54:57Z</time>
      </trkpt>
      <trkpt lat="49.02703" lon="1.05263">
        <ele>128</ele>
        <time>2015-07-19T06:54:59Z</time>
      </trkpt>
      <trkpt lat="49.02703" lon="1.05249">
        <ele>128</ele>
        <time>2015-07-19T06:55:01Z</time>
      </trkpt>
      <trkpt lat="49.02702" lon="1.05234">
        <ele>128.100006</ele>
        <time>2015-07-19T06:55:03Z</time>
      </trkpt>
      <trkpt lat="49.02702" lon="1.0522">
        <ele>128.100006</ele>
        <time>2015-07-19T06:55:05Z</time>
      </trkpt>
      <trkpt lat="49.02701" lon="1.05205">
        <ele>128.300003</ele>
        <time>2015-07-19T06:55:07Z</time>
      </trkpt>
      <trkpt lat="49.027" lon="1.05192">
        <ele>128.399994</ele>
        <time>2015-07-19T06:55:09Z</time>
      </trkpt>
      <trkpt lat="49.02699" lon="1.05178">
        <ele>128.5</ele>
        <time>2015-07-19T06:55:11Z</time>
      </trkpt>
      <trkpt lat="49.02699" lon="1.05164">
        <ele>128.600006</ele>
        <time>2015-07-19T06:55:13Z</time>
      </trkpt>
      <trkpt lat="49.02698" lon="1.0515">
        <ele>128.699997</ele>
        <time>2015-07-19T06:55:15Z</time>
      </trkpt>
      <trkpt lat="49.02697" lon="1.05136">
        <ele>128.699997</ele>
        <time>2015-07-19T06:55:17Z</time>
      </trkpt>
      <trkpt lat="49.02697" lon="1.05116">
        <ele>128.800003</ele>
        <time>2015-07-19T06:55:20Z</time>
      </trkpt>
      <trkpt lat="49.02696" lon="1.05097">
        <ele>128.899994</ele>
        <time>2015-07-19T06:55:23Z</time>
      </trkpt>
      <trkpt lat="49.02696" lon="1.05081">
        <ele>129</ele>
        <time>2015-07-19T06:55:26Z</time>
      </trkpt>
      <trkpt lat="49.02699" lon="1.05063">
        <ele>129</ele>
        <time>2015-07-19T06:55:29Z</time>
      </trkpt>
      <trkpt lat="49.02699" lon="1.05049">
        <ele>129.100006</ele>
        <time>2015-07-19T06:55:31Z</time>
      </trkpt>
      <trkpt lat="49.027" lon="1.05035">
        <ele>129.100006</ele>
        <time>2015-07-19T06:55:33Z</time>
      </trkpt>
      <trkpt lat="49.02702" lon="1.05021">
        <ele>129.100006</ele>
        <time>2015-07-19T06:55:35Z</time>
      </trkpt>
      <trkpt lat="49.02704" lon="1.05007">
        <ele>129.100006</ele>
        <time>2015-07-19T06:55:37Z</time>
      </trkpt>
      <trkpt lat="49.02705" lon="1.04993">
        <ele>129.199997</ele>
        <time>2015-07-19T06:55:39Z</time>
      </trkpt>
      <trkpt lat="49.02706" lon="1.04979">
        <ele>129.300003</ele>
        <time>2015-07-19T06:55:41Z</time>
      </trkpt>
      <trkpt lat="49.02708" lon="1.04966">
        <ele>129.300003</ele>
        <time>2015-07-19T06:55:43Z</time>
      </trkpt>
      <trkpt lat="49.02709" lon="1.04951">
        <ele>129.399994</ele>
        <time>2015-07-19T06:55:45Z</time>
      </trkpt>
      <trkpt lat="49.0271" lon="1.04937">
        <ele>129.5</ele>
        <time>2015-07-19T06:55:47Z</time>
      </trkpt>
      <trkpt lat="49.02711" lon="1.04923">
        <ele>129.600006</ele>
        <time>2015-07-19T06:55:49Z</time>
      </trkpt>
      <trkpt lat="49.02712" lon="1.04909">
        <ele>129.699997</ele>
        <time>2015-07-19T06:55:51Z</time>
      </trkpt>
      <trkpt lat="49.02714" lon="1.04895">
        <ele>129.800003</ele>
        <time>2015-07-19T06:55:53Z</time>
      </trkpt>
      <trkpt lat="49.02717" lon="1.04882">
        <ele>129.899994</ele>
        <time>2015-07-19T06:55:55Z</time>
      </trkpt>
      <trkpt lat="49.02722" lon="1.04863">
        <ele>130</ele>
        <time>2015-07-19T06:55:58Z</time>
      </trkpt>
      <trkpt lat="49.02726" lon="1.0485">
        <ele>130</ele>
        <time>2015-07-19T06:56:00Z</time>
      </trkpt>
      <trkpt lat="49.02731" lon="1.04832">
        <ele>130.100006</ele>
        <time>2015-07-19T06:56:03Z</time>
      </trkpt>
      <trkpt lat="49.02734" lon="1.04819">
        <ele>130.199997</ele>
        <time>2015-07-19T06:56:05Z</time>
      </trkpt>
      <trkpt lat="49.02738" lon="1.04801">
        <ele>130.399994</ele>
        <time>2015-07-19T06:56:08Z</time>
      </trkpt>
      <trkpt lat="49.0274" lon="1.04786">
        <ele>130.5</ele>
        <time>2015-07-19T06:56:11Z</time>
      </trkpt>
      <trkpt lat="49.0274" lon="1.04768">
        <ele>130.600006</ele>
        <time>2015-07-19T06:56:14Z</time>
      </trkpt>
      <trkpt lat="49.02734" lon="1.0475">
        <ele>130.699997</ele>
        <time>2015-07-19T06:56:17Z</time>
      </trkpt>
      <trkpt lat="49.02725" lon="1.04735">
        <ele>130.899994</ele>
        <time>2015-07-19T06:56:20Z</time>
      </trkpt>
      <trkpt lat="49.02714" lon="1.04729">
        <ele>131</ele>
        <time>2015-07-19T06:56:23Z</time>
      </trkpt>
      <trkpt lat="49.02702" lon="1.04728">
        <ele>131.199997</ele>
        <time>2015-07-19T06:56:26Z</time>
      </trkpt>
      <trkpt lat="49.02691" lon="1.04726">
        <ele>131.399994</ele>
        <time>2015-07-19T06:56:29Z</time>
      </trkpt>
      <trkpt lat="49.02681" lon="1.04723">
        <ele>131.699997</ele>
        <time>2015-07-19T06:56:32Z</time>
      </trkpt>
      <trkpt lat="49.02671" lon="1.04725">
        <ele>132</ele>
        <time>2015-07-19T06:56:37Z</time>
      </trkpt>
      <trkpt lat="49.02659" lon="1.04727">
        <ele>132.699997</ele>
        <time>2015-07-19T06:56:59Z</time>
      </trkpt>
      <trkpt lat="49.02647" lon="1.04733">
        <ele>132.800003</ele>
        <time>2015-07-19T06:57:02Z</time>
      </trkpt>
      <trkpt lat="49.02637" lon="1.04736">
        <ele>132.800003</ele>
        <time>2015-07-19T06:57:04Z</time>
      </trkpt>
      <trkpt lat="49.02625" lon="1.04742">
        <ele>132.899994</ele>
        <time>2015-07-19T06:57:07Z</time>
      </trkpt>
      <trkpt lat="49.02614" lon="1.04753">
        <ele>133</ele>
        <time>2015-07-19T06:57:10Z</time>
      </trkpt>
      <trkpt lat="49.02606" lon="1.0476">
        <ele>133.100006</ele>
        <time>2015-07-19T06:57:12Z</time>
      </trkpt>
      <trkpt lat="49.02597" lon="1.04766">
        <ele>133.100006</ele>
        <time>2015-07-19T06:57:14Z</time>
      </trkpt>
      <trkpt lat="49.02589" lon="1.04774">
        <ele>133.199997</ele>
        <time>2015-07-19T06:57:16Z</time>
      </trkpt>
      <trkpt lat="49.02578" lon="1.04782">
        <ele>133.300003</ele>
        <time>2015-07-19T06:57:18Z</time>
      </trkpt>
      <trkpt lat="49.02567" lon="1.04786">
        <ele>133.399994</ele>
        <time>2015-07-19T06:57:20Z</time>
      </trkpt>
      <trkpt lat="49.02557" lon="1.04789">
        <ele>133.5</ele>
        <time>2015-07-19T06:57:22Z</time>
      </trkpt>
      <trkpt lat="49.02546" lon="1.04792">
        <ele>133.600006</ele>
        <time>2015-07-19T06:57:24Z</time>
      </trkpt>
      <trkpt lat="49.02536" lon="1.04794">
        <ele>133.800003</ele>
        <time>2015-07-19T06:57:26Z</time>
      </trkpt>
      <trkpt lat="49.02525" lon="1.04798">
        <ele>134</ele>
        <time>2015-07-19T06:57:28Z</time>
      </trkpt>
      <trkpt lat="49.02516" lon="1.04804">
        <ele>134.199997</ele>
        <time>2015-07-19T06:57:30Z</time>
      </trkpt>
      <trkpt lat="49.02507" lon="1.0481">
        <ele>134.399994</ele>
        <time>2015-07-19T06:57:32Z</time>
      </trkpt>
      <trkpt lat="49.02497" lon="1.04816">
        <ele>134.600006</ele>
        <time>2015-07-19T06:57:34Z</time>
      </trkpt>
      <trkpt lat="49.02488" lon="1.04819">
        <ele>134.899994</ele>
        <time>2015-07-19T06:57:36Z</time>
      </trkpt>
      <trkpt lat="49.02478" lon="1.0482">
        <ele>135.100006</ele>
        <time>2015-07-19T06:57:38Z</time>
      </trkpt>
      <trkpt lat="49.02469" lon="1.04821">
        <ele>135.300003</ele>
        <time>2015-07-19T06:57:40Z</time>
      </trkpt>
      <trkpt lat="49.02455" lon="1.04821">
        <ele>135.600006</ele>
        <time>2015-07-19T06:57:43Z</time>
      </trkpt>
      <trkpt lat="49.02446" lon="1.04822">
        <ele>135.899994</ele>
        <time>2015-07-19T06:57:45Z</time>
      </trkpt>
      <trkpt lat="49.02437" lon="1.04821">
        <ele>136.100006</ele>
        <time>2015-07-19T06:57:47Z</time>
      </trkpt>
      <trkpt lat="49.02428" lon="1.0482">
        <ele>136.399994</ele>
        <time>2015-07-19T06:57:49Z</time>
      </trkpt>
      <trkpt lat="49.02419" lon="1.04818">
        <ele>136.600006</ele>
        <time>2015-07-19T06:57:51Z</time>
      </trkpt>
      <trkpt lat="49.02409" lon="1.04816">
        <ele>136.800003</ele>
        <time>2015-07-19T06:57:53Z</time>
      </trkpt>
      <trkpt lat="49.024" lon="1.04813">
        <ele>136.899994</ele>
        <time>2015-07-19T06:57:55Z</time>
      </trkpt>
      <trkpt lat="49.0239" lon="1.04811">
        <ele>137.100006</ele>
        <time>2015-07-19T06:57:57Z</time>
      </trkpt>
      <trkpt lat="49.0238" lon="1.0481">
        <ele>137.199997</ele>
        <time>2015-07-19T06:57:59Z</time>
      </trkpt>
      <trkpt lat="49.0237" lon="1.04811">
        <ele>137.399994</ele>
        <time>2015-07-19T06:58:01Z</time>
      </trkpt>
      <trkpt lat="49.0236" lon="1.04814">
        <ele>137.5</ele>
        <time>2015-07-19T06:58:03Z</time>
      </trkpt>
      <trkpt lat="49.0235" lon="1.04818">
        <ele>137.699997</ele>
        <time>2015-07-19T06:58:05Z</time>
      </trkpt>
      <trkpt lat="49.02339" lon="1.04824">
        <ele>137.800003</ele>
        <time>2015-07-19T06:58:07Z</time>
      </trkpt>
      <trkpt lat="49.02329" lon="1.04829">
        <ele>137.899994</ele>
        <time>2015-07-19T06:58:09Z</time>
      </trkpt>
      <trkpt lat="49.02319" lon="1.04832">
        <ele>138</ele>
        <time>2015-07-19T06:58:11Z</time>
      </trkpt>
      <trkpt lat="49.02308" lon="1.04835">
        <ele>138</ele>
        <time>2015-07-19T06:58:13Z</time>
      </trkpt>
      <trkpt lat="49.02297" lon="1.04838">
        <ele>138</ele>
        <time>2015-07-19T06:58:15Z</time>
      </trkpt>
      <trkpt lat="49.02286" lon="1.04839">
        <ele>137.899994</ele>
        <time>2015-07-19T06:58:17Z</time>
      </trkpt>
      <trkpt lat="49.02274" lon="1.04839">
        <ele>137.899994</ele>
        <time>2015-07-19T06:58:19Z</time>
      </trkpt>
      <trkpt lat="49.02263" lon="1.04836">
        <ele>137.800003</ele>
        <time>2015-07-19T06:58:21Z</time>
      </trkpt>
      <trkpt lat="49.02253" lon="1.04831">
        <ele>137.699997</ele>
        <time>2015-07-19T06:58:23Z</time>
      </trkpt>
      <trkpt lat="49.02245" lon="1.04819">
        <ele>137.5</ele>
        <time>2015-07-19T06:58:25Z</time>
      </trkpt>
      <trkpt lat="49.02237" lon="1.04811">
        <ele>137.399994</ele>
        <time>2015-07-19T06:58:27Z</time>
      </trkpt>
      <trkpt lat="49.02227" lon="1.04805">
        <ele>137.300003</ele>
        <time>2015-07-19T06:58:29Z</time>
      </trkpt>
      <trkpt lat="49.02218" lon="1.04799">
        <ele>137.199997</ele>
        <time>2015-07-19T06:58:31Z</time>
      </trkpt>
      <trkpt lat="49.02207" lon="1.04794">
        <ele>137.100006</ele>
        <time>2015-07-19T06:58:33Z</time>
      </trkpt>
      <trkpt lat="49.02196" lon="1.04789">
        <ele>137</ele>
        <time>2015-07-19T06:58:35Z</time>
      </trkpt>
      <trkpt lat="49.02185" lon="1.04786">
        <ele>137</ele>
        <time>2015-07-19T06:58:37Z</time>
      </trkpt>
      <trkpt lat="49.02174" lon="1.04784">
        <ele>136.899994</ele>
        <time>2015-07-19T06:58:39Z</time>
      </trkpt>
      <trkpt lat="49.02164" lon="1.04784">
        <ele>136.899994</ele>
        <time>2015-07-19T06:58:41Z</time>
      </trkpt>
      <trkpt lat="49.02154" lon="1.04782">
        <ele>136.800003</ele>
        <time>2015-07-19T06:58:43Z</time>
      </trkpt>
      <trkpt lat="49.02145" lon="1.04781">
        <ele>136.699997</ele>
        <time>2015-07-19T06:58:45Z</time>
      </trkpt>
      <trkpt lat="49.02135" lon="1.04779">
        <ele>136.5</ele>
        <time>2015-07-19T06:58:47Z</time>
      </trkpt>
      <trkpt lat="49.02126" lon="1.04779">
        <ele>136.399994</ele>
        <time>2015-07-19T06:58:49Z</time>
      </trkpt>
      <trkpt lat="49.02116" lon="1.04777">
        <ele>136.300003</ele>
        <time>2015-07-19T06:58:51Z</time>
      </trkpt>
      <trkpt lat="49.02106" lon="1.04775">
        <ele>136.100006</ele>
        <time>2015-07-19T06:58:53Z</time>
      </trkpt>
      <trkpt lat="49.02096" lon="1.04773">
        <ele>136</ele>
        <time>2015-07-19T06:58:55Z</time>
      </trkpt>
      <trkpt lat="49.02086" lon="1.0477">
        <ele>135.899994</ele>
        <time>2015-07-19T06:58:57Z</time>
      </trkpt>
      <trkpt lat="49.02076" lon="1.04766">
        <ele>135.800003</ele>
        <time>2015-07-19T06:58:59Z</time>
      </trkpt>
      <trkpt lat="49.02066" lon="1.0476">
        <ele>135.600006</ele>
        <time>2015-07-19T06:59:01Z</time>
      </trkpt>
      <trkpt lat="49.02056" lon="1.04752">
        <ele>135.399994</ele>
        <time>2015-07-19T06:59:03Z</time>
      </trkpt>
      <trkpt lat="49.02047" lon="1.04744">
        <ele>135.300003</ele>
        <time>2015-07-19T06:59:05Z</time>
      </trkpt>
      <trkpt lat="49.02037" lon="1.04733">
        <ele>135.100006</ele>
        <time>2015-07-19T06:59:07Z</time>
      </trkpt>
      <trkpt lat="49.02028" lon="1.04723">
        <ele>134.899994</ele>
        <time>2015-07-19T06:59:09Z</time>
      </trkpt>
      <trkpt lat="49.02019" lon="1.04713">
        <ele>134.600006</ele>
        <time>2015-07-19T06:59:11Z</time>
      </trkpt>
      <trkpt lat="49.02011" lon="1.04703">
        <ele>134.300003</ele>
        <time>2015-07-19T06:59:13Z</time>
      </trkpt>
      <trkpt lat="49.02002" lon="1.04692">
        <ele>134</ele>
        <time>2015-07-19T06:59:15Z</time>
      </trkpt>
      <trkpt lat="49.01993" lon="1.04683">
        <ele>133.699997</ele>
        <time>2015-07-19T06:59:17Z</time>
      </trkpt>
      <trkpt lat="49.01983" lon="1.04675">
        <ele>133.5</ele>
        <time>2015-07-19T06:59:19Z</time>
      </trkpt>
      <trkpt lat="49.01973" lon="1.04667">
        <ele>133.199997</ele>
        <time>2015-07-19T06:59:21Z</time>
      </trkpt>
      <trkpt lat="49.01962" lon="1.0466">
        <ele>132.899994</ele>
        <time>2015-07-19T06:59:23Z</time>
      </trkpt>
      <trkpt lat="49.01951" lon="1.04653">
        <ele>132.5</ele>
        <time>2015-07-19T06:59:25Z</time>
      </trkpt>
      <trkpt lat="49.0194" lon="1.04646">
        <ele>132.199997</ele>
        <time>2015-07-19T06:59:27Z</time>
      </trkpt>
      <trkpt lat="49.0193" lon="1.04637">
        <ele>131.800003</ele>
        <time>2015-07-19T06:59:29Z</time>
      </trkpt>
      <trkpt lat="49.01922" lon="1.04628">
        <ele>131.300003</ele>
        <time>2015-07-19T06:59:31Z</time>
      </trkpt>
      <trkpt lat="49.0191" lon="1.04618">
        <ele>130.399994</ele>
        <time>2015-07-19T06:59:34Z</time>
      </trkpt>
      <trkpt lat="49.019" lon="1.04608">
        <ele>129.800003</ele>
        <time>2015-07-19T06:59:36Z</time>
      </trkpt>
      <trkpt lat="49.01887" lon="1.04598">
        <ele>128.800003</ele>
        <time>2015-07-19T06:59:39Z</time>
      </trkpt>
      <trkpt lat="49.01877" lon="1.04591">
        <ele>128.300003</ele>
        <time>2015-07-19T06:59:41Z</time>
      </trkpt>
      <trkpt lat="49.01869" lon="1.04585">
        <ele>127.699997</ele>
        <time>2015-07-19T06:59:43Z</time>
      </trkpt>
      <trkpt lat="49.0186" lon="1.04576">
        <ele>127.199997</ele>
        <time>2015-07-19T06:59:45Z</time>
      </trkpt>
      <trkpt lat="49.01849" lon="1.04565">
        <ele>126.699997</ele>
        <time>2015-07-19T06:59:47Z</time>
      </trkpt>
      <trkpt lat="49.0184" lon="1.04553">
        <ele>125.900002</ele>
        <time>2015-07-19T06:59:50Z</time>
      </trkpt>
      <trkpt lat="49.01838" lon="1.04535">
        <ele>125</ele>
        <time>2015-07-19T06:59:54Z</time>
      </trkpt>
      <trkpt lat="49.01837" lon="1.04518">
        <ele>124.300003</ele>
        <time>2015-07-19T06:59:57Z</time>
      </trkpt>
      <trkpt lat="49.01837" lon="1.04497">
        <ele>123.300003</ele>
        <time>2015-07-19T07:00:00Z</time>
      </trkpt>
      <trkpt lat="49.01837" lon="1.04482">
        <ele>122.699997</ele>
        <time>2015-07-19T07:00:02Z</time>
      </trkpt>
      <trkpt lat="49.01841" lon="1.04466">
        <ele>122</ele>
        <time>2015-07-19T07:00:04Z</time>
      </trkpt>
      <trkpt lat="49.01844" lon="1.04446">
        <ele>121.199997</ele>
        <time>2015-07-19T07:00:07Z</time>
      </trkpt>
      <trkpt lat="49.01847" lon="1.04431">
        <ele>120.800003</ele>
        <time>2015-07-19T07:00:09Z</time>
      </trkpt>
      <trkpt lat="49.01849" lon="1.04414">
        <ele>120.400002</ele>
        <time>2015-07-19T07:00:11Z</time>
      </trkpt>
      <trkpt lat="49.01851" lon="1.04399">
        <ele>120.199997</ele>
        <time>2015-07-19T07:00:13Z</time>
      </trkpt>
      <trkpt lat="49.01853" lon="1.04379">
        <ele>120.099998</ele>
        <time>2015-07-19T07:00:15Z</time>
      </trkpt>
      <trkpt lat="49.01853" lon="1.04362">
        <ele>120.099998</ele>
        <time>2015-07-19T07:00:17Z</time>
      </trkpt>
      <trkpt lat="49.01853" lon="1.04347">
        <ele>120.199997</ele>
        <time>2015-07-19T07:00:19Z</time>
      </trkpt>
      <trkpt lat="49.01852" lon="1.04332">
        <ele>120.199997</ele>
        <time>2015-07-19T07:00:21Z</time>
      </trkpt>
      <trkpt lat="49.01851" lon="1.04313">
        <ele>120.300003</ele>
        <time>2015-07-19T07:00:24Z</time>
      </trkpt>
      <trkpt lat="49.0185" lon="1.04292">
        <ele>120.400002</ele>
        <time>2015-07-19T07:00:27Z</time>
      </trkpt>
      <trkpt lat="49.0185" lon="1.04272">
        <ele>120.400002</ele>
        <time>2015-07-19T07:00:30Z</time>
      </trkpt>
      <trkpt lat="49.01847" lon="1.04257">
        <ele>120.5</ele>
        <time>2015-07-19T07:00:32Z</time>
      </trkpt>
      <trkpt lat="49.01845" lon="1.0424">
        <ele>120.5</ele>
        <time>2015-07-19T07:00:34Z</time>
      </trkpt>
      <trkpt lat="49.01844" lon="1.04223">
        <ele>120.599998</ele>
        <time>2015-07-19T07:00:36Z</time>
      </trkpt>
      <trkpt lat="49.01844" lon="1.04206">
        <ele>120.599998</ele>
        <time>2015-07-19T07:00:38Z</time>
      </trkpt>
      <trkpt lat="49.01854" lon="1.04196">
        <ele>120.699997</ele>
        <time>2015-07-19T07:00:41Z</time>
      </trkpt>
      <trkpt lat="49.01867" lon="1.04189">
        <ele>120.699997</ele>
        <time>2015-07-19T07:00:44Z</time>
      </trkpt>
      <trkpt lat="49.01869" lon="1.04174">
        <ele>120.800003</ele>
        <time>2015-07-19T07:00:46Z</time>
      </trkpt>
      <trkpt lat="49.01869" lon="1.0416">
        <ele>120.900002</ele>
        <time>2015-07-19T07:00:48Z</time>
      </trkpt>
      <trkpt lat="49.01869" lon="1.04145">
        <ele>121</ele>
        <time>2015-07-19T07:00:50Z</time>
      </trkpt>
      <trkpt lat="49.01869" lon="1.04129">
        <ele>121.099998</ele>
        <time>2015-07-19T07:00:52Z</time>
      </trkpt>
      <trkpt lat="49.01869" lon="1.04114">
        <ele>121.199997</ele>
        <time>2015-07-19T07:00:54Z</time>
      </trkpt>
      <trkpt lat="49.01869" lon="1.04099">
        <ele>121.199997</ele>
        <time>2015-07-19T07:00:56Z</time>
      </trkpt>
      <trkpt lat="49.0187" lon="1.04085">
        <ele>121.300003</ele>
        <time>2015-07-19T07:00:58Z</time>
      </trkpt>
      <trkpt lat="49.0187" lon="1.0407">
        <ele>121.400002</ele>
        <time>2015-07-19T07:01:00Z</time>
      </trkpt>
      <trkpt lat="49.01871" lon="1.04055">
        <ele>121.400002</ele>
        <time>2015-07-19T07:01:02Z</time>
      </trkpt>
      <trkpt lat="49.01872" lon="1.04037">
        <ele>121.5</ele>
        <time>2015-07-19T07:01:05Z</time>
      </trkpt>
      <trkpt lat="49.01875" lon="1.0402">
        <ele>121.699997</ele>
        <time>2015-07-19T07:01:08Z</time>
      </trkpt>
      <trkpt lat="49.01879" lon="1.04005">
        <ele>121.900002</ele>
        <time>2015-07-19T07:01:11Z</time>
      </trkpt>
      <trkpt lat="49.01891" lon="1.04">
        <ele>122.099998</ele>
        <time>2015-07-19T07:01:14Z</time>
      </trkpt>
      <trkpt lat="49.01904" lon="1.03996">
        <ele>122.300003</ele>
        <time>2015-07-19T07:01:17Z</time>
      </trkpt>
      <trkpt lat="49.01915" lon="1.03992">
        <ele>122.599998</ele>
        <time>2015-07-19T07:01:20Z</time>
      </trkpt>
      <trkpt lat="49.01926" lon="1.03987">
        <ele>122.900002</ele>
        <time>2015-07-19T07:01:23Z</time>
      </trkpt>
      <trkpt lat="49.01937" lon="1.03984">
        <ele>123.300003</ele>
        <time>2015-07-19T07:01:26Z</time>
      </trkpt>
      <trkpt lat="49.01948" lon="1.0398">
        <ele>123.699997</ele>
        <time>2015-07-19T07:01:29Z</time>
      </trkpt>
      <trkpt lat="49.01959" lon="1.03974">
        <ele>124.199997</ele>
        <time>2015-07-19T07:01:32Z</time>
      </trkpt>
      <trkpt lat="49.01969" lon="1.03969">
        <ele>124.599998</ele>
        <time>2015-07-19T07:01:35Z</time>
      </trkpt>
      <trkpt lat="49.0198" lon="1.03962">
        <ele>125</ele>
        <time>2015-07-19T07:01:38Z</time>
      </trkpt>
      <trkpt lat="49.01991" lon="1.03956">
        <ele>125.300003</ele>
        <time>2015-07-19T07:01:41Z</time>
      </trkpt>
      <trkpt lat="49.02002" lon="1.03951">
        <ele>125.699997</ele>
        <time>2015-07-19T07:01:44Z</time>
      </trkpt>
      <trkpt lat="49.02012" lon="1.03945">
        <ele>126.099998</ele>
        <time>2015-07-19T07:01:47Z</time>
      </trkpt>
      <trkpt lat="49.02023" lon="1.03939">
        <ele>126.400002</ele>
        <time>2015-07-19T07:01:50Z</time>
      </trkpt>
      <trkpt lat="49.02034" lon="1.03932">
        <ele>126.800003</ele>
        <time>2015-07-19T07:01:53Z</time>
      </trkpt>
      <trkpt lat="49.02045" lon="1.03926">
        <ele>127.199997</ele>
        <time>2015-07-19T07:01:56Z</time>
      </trkpt>
      <trkpt lat="49.02056" lon="1.0392">
        <ele>127.599998</ele>
        <time>2015-07-19T07:01:59Z</time>
      </trkpt>
      <trkpt lat="49.02066" lon="1.03914">
        <ele>128</ele>
        <time>2015-07-19T07:02:02Z</time>
      </trkpt>
      <trkpt lat="49.02077" lon="1.03907">
        <ele>128.300003</ele>
        <time>2015-07-19T07:02:05Z</time>
      </trkpt>
      <trkpt lat="49.02088" lon="1.03901">
        <ele>128.800003</ele>
        <time>2015-07-19T07:02:08Z</time>
      </trkpt>
      <trkpt lat="49.02097" lon="1.03893">
        <ele>129.199997</ele>
        <time>2015-07-19T07:02:11Z</time>
      </trkpt>
      <trkpt lat="49.02107" lon="1.03884">
        <ele>129.600006</ele>
        <time>2015-07-19T07:02:14Z</time>
      </trkpt>
      <trkpt lat="49.02117" lon="1.03876">
        <ele>130</ele>
        <time>2015-07-19T07:02:17Z</time>
      </trkpt>
      <trkpt lat="49.02127" lon="1.03867">
        <ele>130.300003</ele>
        <time>2015-07-19T07:02:20Z</time>
      </trkpt>
      <trkpt lat="49.02136" lon="1.03857">
        <ele>130.699997</ele>
        <time>2015-07-19T07:02:23Z</time>
      </trkpt>
      <trkpt lat="49.02146" lon="1.03848">
        <ele>131.199997</ele>
        <time>2015-07-19T07:02:26Z</time>
      </trkpt>
      <trkpt lat="49.02154" lon="1.03839">
        <ele>131.600006</ele>
        <time>2015-07-19T07:02:29Z</time>
      </trkpt>
      <trkpt lat="49.02163" lon="1.03829">
        <ele>132</ele>
        <time>2015-07-19T07:02:32Z</time>
      </trkpt>
      <trkpt lat="49.02171" lon="1.03819">
        <ele>132.399994</ele>
        <time>2015-07-19T07:02:35Z</time>
      </trkpt>
      <trkpt lat="49.02179" lon="1.0381">
        <ele>132.800003</ele>
        <time>2015-07-19T07:02:38Z</time>
      </trkpt>
      <trkpt lat="49.02187" lon="1.03801">
        <ele>133.300003</ele>
        <time>2015-07-19T07:02:41Z</time>
      </trkpt>
      <trkpt lat="49.02195" lon="1.0379">
        <ele>133.800003</ele>
        <time>2015-07-19T07:02:44Z</time>
      </trkpt>
      <trkpt lat="49.02204" lon="1.03781">
        <ele>134.300003</ele>
        <time>2015-07-19T07:02:47Z</time>
      </trkpt>
      <trkpt lat="49.02213" lon="1.03772">
        <ele>134.800003</ele>
        <time>2015-07-19T07:02:50Z</time>
      </trkpt>
      <trkpt lat="49.02222" lon="1.03764">
        <ele>135.300003</ele>
        <time>2015-07-19T07:02:53Z</time>
      </trkpt>
      <trkpt lat="49.02232" lon="1.03756">
        <ele>135.800003</ele>
        <time>2015-07-19T07:02:56Z</time>
      </trkpt>
      <trkpt lat="49.02242" lon="1.03747">
        <ele>136.399994</ele>
        <time>2015-07-19T07:02:59Z</time>
      </trkpt>
      <trkpt lat="49.02251" lon="1.03738">
        <ele>136.899994</ele>
        <time>2015-07-19T07:03:02Z</time>
      </trkpt>
      <trkpt lat="49.02261" lon="1.03728">
        <ele>137.5</ele>
        <time>2015-07-19T07:03:05Z</time>
      </trkpt>
      <trkpt lat="49.0227" lon="1.03717">
        <ele>138</ele>
        <time>2015-07-19T07:03:08Z</time>
      </trkpt>
      <trkpt lat="49.02279" lon="1.03708">
        <ele>138.600006</ele>
        <time>2015-07-19T07:03:11Z</time>
      </trkpt>
      <trkpt lat="49.02288" lon="1.03698">
        <ele>139.300003</ele>
        <time>2015-07-19T07:03:14Z</time>
      </trkpt>
      <trkpt lat="49.02296" lon="1.03688">
        <ele>139.800003</ele>
        <time>2015-07-19T07:03:17Z</time>
      </trkpt>
      <trkpt lat="49.02305" lon="1.03678">
        <ele>140.199997</ele>
        <time>2015-07-19T07:03:20Z</time>
      </trkpt>
      <trkpt lat="49.02315" lon="1.03669">
        <ele>140.600006</ele>
        <time>2015-07-19T07:03:23Z</time>
      </trkpt>
      <trkpt lat="49.02325" lon="1.0366">
        <ele>140.899994</ele>
        <time>2015-07-19T07:03:26Z</time>
      </trkpt>
      <trkpt lat="49.02334" lon="1.03654">
        <ele>141.300003</ele>
        <time>2015-07-19T07:03:29Z</time>
      </trkpt>
      <trkpt lat="49.02345" lon="1.03652">
        <ele>141.600006</ele>
        <time>2015-07-19T07:03:32Z</time>
      </trkpt>
      <trkpt lat="49.02355" lon="1.0365">
        <ele>141.899994</ele>
        <time>2015-07-19T07:03:35Z</time>
      </trkpt>
      <trkpt lat="49.02367" lon="1.03646">
        <ele>142.100006</ele>
        <time>2015-07-19T07:03:38Z</time>
      </trkpt>
      <trkpt lat="49.02379" lon="1.0364">
        <ele>142.300003</ele>
        <time>2015-07-19T07:03:41Z</time>
      </trkpt>
      <trkpt lat="49.0239" lon="1.0363">
        <ele>142.5</ele>
        <time>2015-07-19T07:03:44Z</time>
      </trkpt>
      <trkpt lat="49.02401" lon="1.03618">
        <ele>142.600006</ele>
        <time>2015-07-19T07:03:47Z</time>
      </trkpt>
      <trkpt lat="49.02408" lon="1.03609">
        <ele>142.699997</ele>
        <time>2015-07-19T07:03:49Z</time>
      </trkpt>
      <trkpt lat="49.02419" lon="1.03597">
        <ele>142.800003</ele>
        <time>2015-07-19T07:03:52Z</time>
      </trkpt>
      <trkpt lat="49.02429" lon="1.03584">
        <ele>142.899994</ele>
        <time>2015-07-19T07:03:55Z</time>
      </trkpt>
      <trkpt lat="49.02439" lon="1.03573">
        <ele>142.899994</ele>
        <time>2015-07-19T07:03:58Z</time>
      </trkpt>
      <trkpt lat="49.02448" lon="1.0356">
        <ele>143</ele>
        <time>2015-07-19T07:04:01Z</time>
      </trkpt>
      <trkpt lat="49.02452" lon="1.03544">
        <ele>143</ele>
        <time>2015-07-19T07:04:04Z</time>
      </trkpt>
      <trkpt lat="49.0245" lon="1.03525">
        <ele>143.100006</ele>
        <time>2015-07-19T07:04:07Z</time>
      </trkpt>
      <trkpt lat="49.02445" lon="1.03507">
        <ele>143.100006</ele>
        <time>2015-07-19T07:04:10Z</time>
      </trkpt>
      <trkpt lat="49.0244" lon="1.0349">
        <ele>143.100006</ele>
        <time>2015-07-19T07:04:13Z</time>
      </trkpt>
      <trkpt lat="49.02435" lon="1.03472">
        <ele>143.199997</ele>
        <time>2015-07-19T07:04:16Z</time>
      </trkpt>
      <trkpt lat="49.02429" lon="1.03453">
        <ele>143.199997</ele>
        <time>2015-07-19T07:04:19Z</time>
      </trkpt>
      <trkpt lat="49.02425" lon="1.0344">
        <ele>143.199997</ele>
        <time>2015-07-19T07:04:21Z</time>
      </trkpt>
      <trkpt lat="49.02419" lon="1.03423">
        <ele>143.199997</ele>
        <time>2015-07-19T07:04:24Z</time>
      </trkpt>
      <trkpt lat="49.02412" lon="1.03407">
        <ele>143.199997</ele>
        <time>2015-07-19T07:04:27Z</time>
      </trkpt>
      <trkpt lat="49.02408" lon="1.03389">
        <ele>143.199997</ele>
        <time>2015-07-19T07:04:30Z</time>
      </trkpt>
      <trkpt lat="49.02406" lon="1.03375">
        <ele>143.199997</ele>
        <time>2015-07-19T07:04:32Z</time>
      </trkpt>
      <trkpt lat="49.02406" lon="1.0336">
        <ele>143.199997</ele>
        <time>2015-07-19T07:04:34Z</time>
      </trkpt>
      <trkpt lat="49.02409" lon="1.03344">
        <ele>143.100006</ele>
        <time>2015-07-19T07:04:36Z</time>
      </trkpt>
      <trkpt lat="49.02414" lon="1.0333">
        <ele>143</ele>
        <time>2015-07-19T07:04:38Z</time>
      </trkpt>
      <trkpt lat="49.02417" lon="1.03314">
        <ele>142.899994</ele>
        <time>2015-07-19T07:04:40Z</time>
      </trkpt>
      <trkpt lat="49.02418" lon="1.03299">
        <ele>142.800003</ele>
        <time>2015-07-19T07:04:42Z</time>
      </trkpt>
      <trkpt lat="49.02418" lon="1.03282">
        <ele>142.600006</ele>
        <time>2015-07-19T07:04:44Z</time>
      </trkpt>
      <trkpt lat="49.02417" lon="1.03266">
        <ele>142.399994</ele>
        <time>2015-07-19T07:04:46Z</time>
      </trkpt>
      <trkpt lat="49.02415" lon="1.03251">
        <ele>142.300003</ele>
        <time>2015-07-19T07:04:48Z</time>
      </trkpt>
      <trkpt lat="49.02412" lon="1.03233">
        <ele>142.100006</ele>
        <time>2015-07-19T07:04:50Z</time>
      </trkpt>
      <trkpt lat="49.02408" lon="1.03216">
        <ele>141.800003</ele>
        <time>2015-07-19T07:04:52Z</time>
      </trkpt>
      <trkpt lat="49.02405" lon="1.032">
        <ele>141.5</ele>
        <time>2015-07-19T07:04:54Z</time>
      </trkpt>
      <trkpt lat="49.02401" lon="1.03181">
        <ele>141.300003</ele>
        <time>2015-07-19T07:04:56Z</time>
      </trkpt>
      <trkpt lat="49.02396" lon="1.03162">
        <ele>141</ele>
        <time>2015-07-19T07:04:58Z</time>
      </trkpt>
      <trkpt lat="49.02389" lon="1.03143">
        <ele>140.600006</ele>
        <time>2015-07-19T07:05:00Z</time>
      </trkpt>
      <trkpt lat="49.02382" lon="1.03125">
        <ele>140.199997</ele>
        <time>2015-07-19T07:05:02Z</time>
      </trkpt>
      <trkpt lat="49.02374" lon="1.03106">
        <ele>139.800003</ele>
        <time>2015-07-19T07:05:04Z</time>
      </trkpt>
      <trkpt lat="49.02367" lon="1.03087">
        <ele>139.399994</ele>
        <time>2015-07-19T07:05:06Z</time>
      </trkpt>
      <trkpt lat="49.02359" lon="1.03069">
        <ele>139.100006</ele>
        <time>2015-07-19T07:05:08Z</time>
      </trkpt>
      <trkpt lat="49.02353" lon="1.03052">
        <ele>138.699997</ele>
        <time>2015-07-19T07:05:10Z</time>
      </trkpt>
      <trkpt lat="49.02346" lon="1.03036">
        <ele>138.399994</ele>
        <time>2015-07-19T07:05:12Z</time>
      </trkpt>
      <trkpt lat="49.0234" lon="1.0302">
        <ele>138.199997</ele>
        <time>2015-07-19T07:05:14Z</time>
      </trkpt>
      <trkpt lat="49.02334" lon="1.03004">
        <ele>137.899994</ele>
        <time>2015-07-19T07:05:16Z</time>
      </trkpt>
      <trkpt lat="49.02329" lon="1.02988">
        <ele>137.699997</ele>
        <time>2015-07-19T07:05:18Z</time>
      </trkpt>
      <trkpt lat="49.02323" lon="1.02971">
        <ele>137.5</ele>
        <time>2015-07-19T07:05:20Z</time>
      </trkpt>
      <trkpt lat="49.02318" lon="1.02955">
        <ele>137.399994</ele>
        <time>2015-07-19T07:05:22Z</time>
      </trkpt>
      <trkpt lat="49.02314" lon="1.02938">
        <ele>137.199997</ele>
        <time>2015-07-19T07:05:24Z</time>
      </trkpt>
      <trkpt lat="49.0231" lon="1.0292">
        <ele>137.100006</ele>
        <time>2015-07-19T07:05:26Z</time>
      </trkpt>
      <trkpt lat="49.02307" lon="1.02903">
        <ele>137</ele>
        <time>2015-07-19T07:05:28Z</time>
      </trkpt>
      <trkpt lat="49.02304" lon="1.02885">
        <ele>136.899994</ele>
        <time>2015-07-19T07:05:30Z</time>
      </trkpt>
      <trkpt lat="49.023" lon="1.02869">
        <ele>136.800003</ele>
        <time>2015-07-19T07:05:32Z</time>
      </trkpt>
      <trkpt lat="49.02294" lon="1.02857">
        <ele>136.699997</ele>
        <time>2015-07-19T07:05:34Z</time>
      </trkpt>
      <trkpt lat="49.02284" lon="1.02849">
        <ele>136.699997</ele>
        <time>2015-07-19T07:05:36Z</time>
      </trkpt>
      <trkpt lat="49.02274" lon="1.02841">
        <ele>136.699997</ele>
        <time>2015-07-19T07:05:38Z</time>
      </trkpt>
      <trkpt lat="49.02265" lon="1.02833">
        <ele>136.699997</ele>
        <time>2015-07-19T07:05:40Z</time>
      </trkpt>
      <trkpt lat="49.02256" lon="1.02825">
        <ele>136.699997</ele>
        <time>2015-07-19T07:05:42Z</time>
      </trkpt>
      <trkpt lat="49.02246" lon="1.02817">
        <ele>136.800003</ele>
        <time>2015-07-19T07:05:44Z</time>
      </trkpt>
      <trkpt lat="49.02238" lon="1.02808">
        <ele>136.899994</ele>
        <time>2015-07-19T07:05:46Z</time>
      </trkpt>
      <trkpt lat="49.0223" lon="1.02797">
        <ele>136.899994</ele>
        <time>2015-07-19T07:05:48Z</time>
      </trkpt>
      <trkpt lat="49.02222" lon="1.02787">
        <ele>137</ele>
        <time>2015-07-19T07:05:50Z</time>
      </trkpt>
      <trkpt lat="49.02214" lon="1.02777">
        <ele>137</ele>
        <time>2015-07-19T07:05:52Z</time>
      </trkpt>
      <trkpt lat="49.02206" lon="1.02766">
        <ele>137.100006</ele>
        <time>2015-07-19T07:05:54Z</time>
      </trkpt>
      <trkpt lat="49.02199" lon="1.02757">
        <ele>137.100006</ele>
        <time>2015-07-19T07:05:56Z</time>
      </trkpt>
      <trkpt lat="49.02192" lon="1.02747">
        <ele>137.100006</ele>
        <time>2015-07-19T07:05:58Z</time>
      </trkpt>
      <trkpt lat="49.02184" lon="1.02737">
        <ele>137.199997</ele>
        <time>2015-07-19T07:06:00Z</time>
      </trkpt>
      <trkpt lat="49.02177" lon="1.02727">
        <ele>137.199997</ele>
        <time>2015-07-19T07:06:02Z</time>
      </trkpt>
      <trkpt lat="49.0217" lon="1.02717">
        <ele>137.300003</ele>
        <time>2015-07-19T07:06:04Z</time>
      </trkpt>
      <trkpt lat="49.02162" lon="1.02707">
        <ele>137.300003</ele>
        <time>2015-07-19T07:06:06Z</time>
      </trkpt>
      <trkpt lat="49.02155" lon="1.02697">
        <ele>137.399994</ele>
        <time>2015-07-19T07:06:08Z</time>
      </trkpt>
      <trkpt lat="49.02148" lon="1.02687">
        <ele>137.399994</ele>
        <time>2015-07-19T07:06:10Z</time>
      </trkpt>
      <trkpt lat="49.02141" lon="1.02677">
        <ele>137.5</ele>
        <time>2015-07-19T07:06:12Z</time>
      </trkpt>
      <trkpt lat="49.02133" lon="1.02668">
        <ele>137.5</ele>
        <time>2015-07-19T07:06:14Z</time>
      </trkpt>
      <trkpt lat="49.02126" lon="1.02658">
        <ele>137.600006</ele>
        <time>2015-07-19T07:06:16Z</time>
      </trkpt>
      <trkpt lat="49.02119" lon="1.02649">
        <ele>137.600006</ele>
        <time>2015-07-19T07:06:18Z</time>
      </trkpt>
      <trkpt lat="49.02112" lon="1.0264">
        <ele>137.699997</ele>
        <time>2015-07-19T07:06:20Z</time>
      </trkpt>
      <trkpt lat="49.02105" lon="1.0263">
        <ele>137.699997</ele>
        <time>2015-07-19T07:06:22Z</time>
      </trkpt>
      <trkpt lat="49.02098" lon="1.02619">
        <ele>137.699997</ele>
        <time>2015-07-19T07:06:24Z</time>
      </trkpt>
      <trkpt lat="49.02091" lon="1.02609">
        <ele>137.800003</ele>
        <time>2015-07-19T07:06:26Z</time>
      </trkpt>
      <trkpt lat="49.02084" lon="1.02598">
        <ele>137.800003</ele>
        <time>2015-07-19T07:06:28Z</time>
      </trkpt>
      <trkpt lat="49.02077" lon="1.02586">
        <ele>137.800003</ele>
        <time>2015-07-19T07:06:30Z</time>
      </trkpt>
      <trkpt lat="49.02071" lon="1.02575">
        <ele>137.899994</ele>
        <time>2015-07-19T07:06:32Z</time>
      </trkpt>
      <trkpt lat="49.02064" lon="1.02565">
        <ele>137.899994</ele>
        <time>2015-07-19T07:06:34Z</time>
      </trkpt>
      <trkpt lat="49.02057" lon="1.02554">
        <ele>138</ele>
        <time>2015-07-19T07:06:36Z</time>
      </trkpt>
      <trkpt lat="49.0205" lon="1.02543">
        <ele>138.100006</ele>
        <time>2015-07-19T07:06:38Z</time>
      </trkpt>
      <trkpt lat="49.02043" lon="1.02533">
        <ele>138.199997</ele>
        <time>2015-07-19T07:06:40Z</time>
      </trkpt>
      <trkpt lat="49.02036" lon="1.02522">
        <ele>138.199997</ele>
        <time>2015-07-19T07:06:42Z</time>
      </trkpt>
      <trkpt lat="49.0203" lon="1.02511">
        <ele>138.300003</ele>
        <time>2015-07-19T07:06:44Z</time>
      </trkpt>
      <trkpt lat="49.02023" lon="1.025">
        <ele>138.300003</ele>
        <time>2015-07-19T07:06:46Z</time>
      </trkpt>
      <trkpt lat="49.02016" lon="1.02489">
        <ele>138.300003</ele>
        <time>2015-07-19T07:06:48Z</time>
      </trkpt>
      <trkpt lat="49.02009" lon="1.02479">
        <ele>138.399994</ele>
        <time>2015-07-19T07:06:50Z</time>
      </trkpt>
      <trkpt lat="49.02003" lon="1.02468">
        <ele>138.399994</ele>
        <time>2015-07-19T07:06:52Z</time>
      </trkpt>
      <trkpt lat="49.01996" lon="1.02458">
        <ele>138.5</ele>
        <time>2015-07-19T07:06:54Z</time>
      </trkpt>
      <trkpt lat="49.0199" lon="1.02449">
        <ele>138.5</ele>
        <time>2015-07-19T07:06:56Z</time>
      </trkpt>
      <trkpt lat="49.01983" lon="1.02438">
        <ele>138.5</ele>
        <time>2015-07-19T07:06:58Z</time>
      </trkpt>
      <trkpt lat="49.01977" lon="1.02428">
        <ele>138.600006</ele>
        <time>2015-07-19T07:07:00Z</time>
      </trkpt>
      <trkpt lat="49.0197" lon="1.02417">
        <ele>138.600006</ele>
        <time>2015-07-19T07:07:02Z</time>
      </trkpt>
      <trkpt lat="49.01963" lon="1.02407">
        <ele>138.600006</ele>
        <time>2015-07-19T07:07:04Z</time>
      </trkpt>
      <trkpt lat="49.01955" lon="1.02398">
        <ele>138.600006</ele>
        <time>2015-07-19T07:07:06Z</time>
      </trkpt>
      <trkpt lat="49.01947" lon="1.02389">
        <ele>138.600006</ele>
        <time>2015-07-19T07:07:08Z</time>
      </trkpt>
      <trkpt lat="49.01939" lon="1.0238">
        <ele>138.699997</ele>
        <time>2015-07-19T07:07:10Z</time>
      </trkpt>
      <trkpt lat="49.01931" lon="1.02372">
        <ele>138.699997</ele>
        <time>2015-07-19T07:07:12Z</time>
      </trkpt>
      <trkpt lat="49.01923" lon="1.02363">
        <ele>138.699997</ele>
        <time>2015-07-19T07:07:14Z</time>
      </trkpt>
      <trkpt lat="49.01916" lon="1.02354">
        <ele>138.699997</ele>
        <time>2015-07-19T07:07:16Z</time>
      </trkpt>
      <trkpt lat="49.01908" lon="1.02345">
        <ele>138.699997</ele>
        <time>2015-07-19T07:07:18Z</time>
      </trkpt>
      <trkpt lat="49.019" lon="1.02334">
        <ele>138.699997</ele>
        <time>2015-07-19T07:07:20Z</time>
      </trkpt>
      <trkpt lat="49.01891" lon="1.02324">
        <ele>138.699997</ele>
        <time>2015-07-19T07:07:22Z</time>
      </trkpt>
      <trkpt lat="49.01883" lon="1.02312">
        <ele>138.699997</ele>
        <time>2015-07-19T07:07:24Z</time>
      </trkpt>
      <trkpt lat="49.01876" lon="1.023">
        <ele>138.600006</ele>
        <time>2015-07-19T07:07:26Z</time>
      </trkpt>
      <trkpt lat="49.01868" lon="1.02288">
        <ele>138.399994</ele>
        <time>2015-07-19T07:07:28Z</time>
      </trkpt>
      <trkpt lat="49.01861" lon="1.02276">
        <ele>138.300003</ele>
        <time>2015-07-19T07:07:30Z</time>
      </trkpt>
      <trkpt lat="49.01853" lon="1.02263">
        <ele>138.100006</ele>
        <time>2015-07-19T07:07:32Z</time>
      </trkpt>
      <trkpt lat="49.01846" lon="1.02249">
        <ele>138</ele>
        <time>2015-07-19T07:07:34Z</time>
      </trkpt>
      <trkpt lat="49.01839" lon="1.02235">
        <ele>137.899994</ele>
        <time>2015-07-19T07:07:36Z</time>
      </trkpt>
      <trkpt lat="49.01833" lon="1.02221">
        <ele>137.800003</ele>
        <time>2015-07-19T07:07:38Z</time>
      </trkpt>
      <trkpt lat="49.01826" lon="1.02207">
        <ele>137.699997</ele>
        <time>2015-07-19T07:07:40Z</time>
      </trkpt>
      <trkpt lat="49.01821" lon="1.02192">
        <ele>137.600006</ele>
        <time>2015-07-19T07:07:42Z</time>
      </trkpt>
      <trkpt lat="49.01815" lon="1.02179">
        <ele>137.399994</ele>
        <time>2015-07-19T07:07:44Z</time>
      </trkpt>
      <trkpt lat="49.01808" lon="1.02165">
        <ele>137.300003</ele>
        <time>2015-07-19T07:07:46Z</time>
      </trkpt>
      <trkpt lat="49.01802" lon="1.02151">
        <ele>137.100006</ele>
        <time>2015-07-19T07:07:48Z</time>
      </trkpt>
      <trkpt lat="49.01796" lon="1.02138">
        <ele>137</ele>
        <time>2015-07-19T07:07:50Z</time>
      </trkpt>
      <trkpt lat="49.0179" lon="1.02124">
        <ele>136.899994</ele>
        <time>2015-07-19T07:07:52Z</time>
      </trkpt>
      <trkpt lat="49.01784" lon="1.02111">
        <ele>136.800003</ele>
        <time>2015-07-19T07:07:54Z</time>
      </trkpt>
      <trkpt lat="49.01779" lon="1.02098">
        <ele>136.699997</ele>
        <time>2015-07-19T07:07:56Z</time>
      </trkpt>
      <trkpt lat="49.01774" lon="1.02085">
        <ele>136.5</ele>
        <time>2015-07-19T07:07:58Z</time>
      </trkpt>
      <trkpt lat="49.01769" lon="1.02072">
        <ele>136.300003</ele>
        <time>2015-07-19T07:08:00Z</time>
      </trkpt>
      <trkpt lat="49.01764" lon="1.02059">
        <ele>136.199997</ele>
        <time>2015-07-19T07:08:02Z</time>
      </trkpt>
      <trkpt lat="49.01759" lon="1.02047">
        <ele>136</ele>
        <time>2015-07-19T07:08:04Z</time>
      </trkpt>
      <trkpt lat="49.01754" lon="1.02034">
        <ele>135.899994</ele>
        <time>2015-07-19T07:08:06Z</time>
      </trkpt>
      <trkpt lat="49.0175" lon="1.0202">
        <ele>135.800003</ele>
        <time>2015-07-19T07:08:08Z</time>
      </trkpt>
      <trkpt lat="49.01745" lon="1.02007">
        <ele>135.699997</ele>
        <time>2015-07-19T07:08:10Z</time>
      </trkpt>
      <trkpt lat="49.01741" lon="1.01994">
        <ele>135.699997</ele>
        <time>2015-07-19T07:08:12Z</time>
      </trkpt>
      <trkpt lat="49.01737" lon="1.01981">
        <ele>135.600006</ele>
        <time>2015-07-19T07:08:14Z</time>
      </trkpt>
      <trkpt lat="49.01734" lon="1.01968">
        <ele>135.600006</ele>
        <time>2015-07-19T07:08:16Z</time>
      </trkpt>
      <trkpt lat="49.0173" lon="1.01955">
        <ele>135.5</ele>
        <time>2015-07-19T07:08:18Z</time>
      </trkpt>
      <trkpt lat="49.01726" lon="1.01942">
        <ele>135.5</ele>
        <time>2015-07-19T07:08:20Z</time>
      </trkpt>
      <trkpt lat="49.01721" lon="1.01924">
        <ele>135.600006</ele>
        <time>2015-07-19T07:08:23Z</time>
      </trkpt>
      <trkpt lat="49.01715" lon="1.01907">
        <ele>135.699997</ele>
        <time>2015-07-19T07:08:26Z</time>
      </trkpt>
      <trkpt lat="49.0171" lon="1.0189">
        <ele>135.699997</ele>
        <time>2015-07-19T07:08:29Z</time>
      </trkpt>
      <trkpt lat="49.01704" lon="1.01873">
        <ele>135.800003</ele>
        <time>2015-07-19T07:08:32Z</time>
      </trkpt>
      <trkpt lat="49.01698" lon="1.01855">
        <ele>135.800003</ele>
        <time>2015-07-19T07:08:35Z</time>
      </trkpt>
      <trkpt lat="49.01693" lon="1.01837">
        <ele>135.800003</ele>
        <time>2015-07-19T07:08:38Z</time>
      </trkpt>
      <trkpt lat="49.01687" lon="1.01819">
        <ele>135.899994</ele>
        <time>2015-07-19T07:08:41Z</time>
      </trkpt>
      <trkpt lat="49.01682" lon="1.01801">
        <ele>135.899994</ele>
        <time>2015-07-19T07:08:44Z</time>
      </trkpt>
      <trkpt lat="49.01677" lon="1.01789">
        <ele>135.899994</ele>
        <time>2015-07-19T07:08:46Z</time>
      </trkpt>
      <trkpt lat="49.01673" lon="1.01776">
        <ele>135.899994</ele>
        <time>2015-07-19T07:08:48Z</time>
      </trkpt>
      <trkpt lat="49.01669" lon="1.01763">
        <ele>135.899994</ele>
        <time>2015-07-19T07:08:50Z</time>
      </trkpt>
      <trkpt lat="49.01665" lon="1.01751">
        <ele>135.899994</ele>
        <time>2015-07-19T07:08:52Z</time>
      </trkpt>
      <trkpt lat="49.01659" lon="1.01733">
        <ele>135.899994</ele>
        <time>2015-07-19T07:08:55Z</time>
      </trkpt>
      <trkpt lat="49.01653" lon="1.01715">
        <ele>136</ele>
        <time>2015-07-19T07:08:58Z</time>
      </trkpt>
      <trkpt lat="49.01647" lon="1.01697">
        <ele>136</ele>
        <time>2015-07-19T07:09:01Z</time>
      </trkpt>
      <trkpt lat="49.01641" lon="1.0168">
        <ele>136</ele>
        <time>2015-07-19T07:09:04Z</time>
      </trkpt>
      <trkpt lat="49.01635" lon="1.01663">
        <ele>136</ele>
        <time>2015-07-19T07:09:07Z</time>
      </trkpt>
      <trkpt lat="49.01629" lon="1.01645">
        <ele>136</ele>
        <time>2015-07-19T07:09:10Z</time>
      </trkpt>
      <trkpt lat="49.01622" lon="1.01627">
        <ele>136</ele>
        <time>2015-07-19T07:09:13Z</time>
      </trkpt>
      <trkpt lat="49.01618" lon="1.01615">
        <ele>136</ele>
        <time>2015-07-19T07:09:15Z</time>
      </trkpt>
      <trkpt lat="49.01613" lon="1.01603">
        <ele>136</ele>
        <time>2015-07-19T07:09:17Z</time>
      </trkpt>
      <trkpt lat="49.01609" lon="1.01591">
        <ele>136</ele>
        <time>2015-07-19T07:09:19Z</time>
      </trkpt>
      <trkpt lat="49.01604" lon="1.01578">
        <ele>136</ele>
        <time>2015-07-19T07:09:21Z</time>
      </trkpt>
      <trkpt lat="49.01599" lon="1.01566">
        <ele>136</ele>
        <time>2015-07-19T07:09:23Z</time>
      </trkpt>
      <trkpt lat="49.01594" lon="1.01554">
        <ele>136</ele>
        <time>2015-07-19T07:09:25Z</time>
      </trkpt>
      <trkpt lat="49.01588" lon="1.01542">
        <ele>136</ele>
        <time>2015-07-19T07:09:27Z</time>
      </trkpt>
      <trkpt lat="49.01581" lon="1.01525">
        <ele>136</ele>
        <time>2015-07-19T07:09:30Z</time>
      </trkpt>
      <trkpt lat="49.01574" lon="1.0151">
        <ele>136</ele>
        <time>2015-07-19T07:09:33Z</time>
      </trkpt>
      <trkpt lat="49.01567" lon="1.01496">
        <ele>135.899994</ele>
        <time>2015-07-19T07:09:36Z</time>
      </trkpt>
      <trkpt lat="49.01559" lon="1.01483">
        <ele>135.800003</ele>
        <time>2015-07-19T07:09:39Z</time>
      </trkpt>
      <trkpt lat="49.01552" lon="1.01471">
        <ele>135.699997</ele>
        <time>2015-07-19T07:09:43Z</time>
      </trkpt>
      <trkpt lat="49.01546" lon="1.01459">
        <ele>135.199997</ele>
        <time>2015-07-19T07:11:21Z</time>
      </trkpt>
      <trkpt lat="49.01539" lon="1.01448">
        <ele>135</ele>
        <time>2015-07-19T07:12:13Z</time>
      </trkpt>
      <trkpt lat="49.01531" lon="1.01436">
        <ele>135</ele>
        <time>2015-07-19T07:12:17Z</time>
      </trkpt>
      <trkpt lat="49.01524" lon="1.01424">
        <ele>135</ele>
        <time>2015-07-19T07:12:20Z</time>
      </trkpt>
      <trkpt lat="49.01517" lon="1.01413">
        <ele>135</ele>
        <time>2015-07-19T07:12:23Z</time>
      </trkpt>
      <trkpt lat="49.0151" lon="1.01401">
        <ele>135</ele>
        <time>2015-07-19T07:12:26Z</time>
      </trkpt>
      <trkpt lat="49.01502" lon="1.0139">
        <ele>135</ele>
        <time>2015-07-19T07:12:29Z</time>
      </trkpt>
      <trkpt lat="49.01495" lon="1.01379">
        <ele>135</ele>
        <time>2015-07-19T07:12:32Z</time>
      </trkpt>
      <trkpt lat="49.01487" lon="1.01365">
        <ele>135</ele>
        <time>2015-07-19T07:12:35Z</time>
      </trkpt>
      <trkpt lat="49.01479" lon="1.01351">
        <ele>134.899994</ele>
        <time>2015-07-19T07:12:38Z</time>
      </trkpt>
      <trkpt lat="49.01472" lon="1.01341">
        <ele>134.899994</ele>
        <time>2015-07-19T07:12:40Z</time>
      </trkpt>
      <trkpt lat="49.01465" lon="1.01331">
        <ele>134.899994</ele>
        <time>2015-07-19T07:12:42Z</time>
      </trkpt>
      <trkpt lat="49.01459" lon="1.0132">
        <ele>134.899994</ele>
        <time>2015-07-19T07:12:44Z</time>
      </trkpt>
      <trkpt lat="49.01449" lon="1.01306">
        <ele>134.899994</ele>
        <time>2015-07-19T07:12:47Z</time>
      </trkpt>
      <trkpt lat="49.01441" lon="1.01293">
        <ele>134.899994</ele>
        <time>2015-07-19T07:12:50Z</time>
      </trkpt>
      <trkpt lat="49.01434" lon="1.01283">
        <ele>134.899994</ele>
        <time>2015-07-19T07:12:53Z</time>
      </trkpt>
      <trkpt lat="49.01425" lon="1.01271">
        <ele>134.899994</ele>
        <time>2015-07-19T07:12:56Z</time>
      </trkpt>
      <trkpt lat="49.01415" lon="1.01257">
        <ele>134.899994</ele>
        <time>2015-07-19T07:12:59Z</time>
      </trkpt>
      <trkpt lat="49.01407" lon="1.01242">
        <ele>134.899994</ele>
        <time>2015-07-19T07:13:01Z</time>
      </trkpt>
      <trkpt lat="49.01401" lon="1.01229">
        <ele>134.899994</ele>
        <time>2015-07-19T07:13:02Z</time>
      </trkpt>
      <trkpt lat="49.01395" lon="1.01217">
        <ele>134.899994</ele>
        <time>2015-07-19T07:13:04Z</time>
      </trkpt>
      <trkpt lat="49.01388" lon="1.01205">
        <ele>134.899994</ele>
        <time>2015-07-19T07:13:06Z</time>
      </trkpt>
      <trkpt lat="49.01379" lon="1.01192">
        <ele>134.899994</ele>
        <time>2015-07-19T07:13:08Z</time>
      </trkpt>
      <trkpt lat="49.01371" lon="1.0118">
        <ele>134.800003</ele>
        <time>2015-07-19T07:13:10Z</time>
      </trkpt>
      <trkpt lat="49.01365" lon="1.0117">
        <ele>134.800003</ele>
        <time>2015-07-19T07:13:12Z</time>
      </trkpt>
      <trkpt lat="49.01358" lon="1.01155">
        <ele>134.699997</ele>
        <time>2015-07-19T07:13:14Z</time>
      </trkpt>
      <trkpt lat="49.01352" lon="1.01143">
        <ele>134.600006</ele>
        <time>2015-07-19T07:13:16Z</time>
      </trkpt>
      <trkpt lat="49.01347" lon="1.01132">
        <ele>134.5</ele>
        <time>2015-07-19T07:13:17Z</time>
      </trkpt>
      <trkpt lat="49.0134" lon="1.01116">
        <ele>134.300003</ele>
        <time>2015-07-19T07:13:19Z</time>
      </trkpt>
      <trkpt lat="49.01334" lon="1.01104">
        <ele>134</ele>
        <time>2015-07-19T07:13:21Z</time>
      </trkpt>
      <trkpt lat="49.01328" lon="1.01094">
        <ele>133.800003</ele>
        <time>2015-07-19T07:13:23Z</time>
      </trkpt>
      <trkpt lat="49.01318" lon="1.01074">
        <ele>133.5</ele>
        <time>2015-07-19T07:13:25Z</time>
      </trkpt>
      <trkpt lat="49.0131" lon="1.01057">
        <ele>133.199997</ele>
        <time>2015-07-19T07:13:27Z</time>
      </trkpt>
      <trkpt lat="49.01301" lon="1.01042">
        <ele>132.899994</ele>
        <time>2015-07-19T07:13:29Z</time>
      </trkpt>
      <trkpt lat="49.01293" lon="1.01025">
        <ele>132.5</ele>
        <time>2015-07-19T07:13:31Z</time>
      </trkpt>
      <trkpt lat="49.01285" lon="1.01012">
        <ele>132.100006</ele>
        <time>2015-07-19T07:13:33Z</time>
      </trkpt>
      <trkpt lat="49.01276" lon="1.00999">
        <ele>131.699997</ele>
        <time>2015-07-19T07:13:35Z</time>
      </trkpt>
      <trkpt lat="49.01266" lon="1.00993">
        <ele>131.199997</ele>
        <time>2015-07-19T07:13:37Z</time>
      </trkpt>
      <trkpt lat="49.01255" lon="1.00991">
        <ele>130.699997</ele>
        <time>2015-07-19T07:13:39Z</time>
      </trkpt>
      <trkpt lat="49.01245" lon="1.00988">
        <ele>130.300003</ele>
        <time>2015-07-19T07:13:41Z</time>
      </trkpt>
      <trkpt lat="49.01234" lon="1.00983">
        <ele>129.899994</ele>
        <time>2015-07-19T07:13:43Z</time>
      </trkpt>
      <trkpt lat="49.01224" lon="1.0098">
        <ele>129.5</ele>
        <time>2015-07-19T07:13:45Z</time>
      </trkpt>
      <trkpt lat="49.01214" lon="1.00976">
        <ele>129.199997</ele>
        <time>2015-07-19T07:13:47Z</time>
      </trkpt>
      <trkpt lat="49.01203" lon="1.0097">
        <ele>128.699997</ele>
        <time>2015-07-19T07:13:50Z</time>
      </trkpt>
      <trkpt lat="49.01199" lon="1.00957">
        <ele>128.399994</ele>
        <time>2015-07-19T07:13:53Z</time>
      </trkpt>
      <trkpt lat="49.01197" lon="1.00939">
        <ele>128.100006</ele>
        <time>2015-07-19T07:13:56Z</time>
      </trkpt>
      <trkpt lat="49.01195" lon="1.00919">
        <ele>127.800003</ele>
        <time>2015-07-19T07:13:59Z</time>
      </trkpt>
      <trkpt lat="49.01192" lon="1.00899">
        <ele>127.599998</ele>
        <time>2015-07-19T07:14:02Z</time>
      </trkpt>
      <trkpt lat="49.0119" lon="1.00884">
        <ele>127.5</ele>
        <time>2015-07-19T07:14:04Z</time>
      </trkpt>
      <trkpt lat="49.01188" lon="1.0087">
        <ele>127.400002</ele>
        <time>2015-07-19T07:14:06Z</time>
      </trkpt>
      <trkpt lat="49.01186" lon="1.00856">
        <ele>127.300003</ele>
        <time>2015-07-19T07:14:08Z</time>
      </trkpt>
      <trkpt lat="49.01185" lon="1.00842">
        <ele>127.300003</ele>
        <time>2015-07-19T07:14:10Z</time>
      </trkpt>
      <trkpt lat="49.01183" lon="1.00828">
        <ele>127.300003</ele>
        <time>2015-07-19T07:14:12Z</time>
      </trkpt>
      <trkpt lat="49.01182" lon="1.00814">
        <ele>127.5</ele>
        <time>2015-07-19T07:14:14Z</time>
      </trkpt>
      <trkpt lat="49.0118" lon="1.008">
        <ele>127.599998</ele>
        <time>2015-07-19T07:14:16Z</time>
      </trkpt>
      <trkpt lat="49.01178" lon="1.00787">
        <ele>127.699997</ele>
        <time>2015-07-19T07:14:18Z</time>
      </trkpt>
      <trkpt lat="49.01177" lon="1.00773">
        <ele>127.800003</ele>
        <time>2015-07-19T07:14:20Z</time>
      </trkpt>
      <trkpt lat="49.01174" lon="1.00753">
        <ele>127.900002</ele>
        <time>2015-07-19T07:14:23Z</time>
      </trkpt>
      <trkpt lat="49.01173" lon="1.00739">
        <ele>128</ele>
        <time>2015-07-19T07:14:25Z</time>
      </trkpt>
      <trkpt lat="49.01171" lon="1.00725">
        <ele>128.100006</ele>
        <time>2015-07-19T07:14:27Z</time>
      </trkpt>
      <trkpt lat="49.01169" lon="1.00712">
        <ele>128.199997</ele>
        <time>2015-07-19T07:14:29Z</time>
      </trkpt>
      <trkpt lat="49.01168" lon="1.00698">
        <ele>128.300003</ele>
        <time>2015-07-19T07:14:31Z</time>
      </trkpt>
      <trkpt lat="49.01166" lon="1.00684">
        <ele>128.399994</ele>
        <time>2015-07-19T07:14:33Z</time>
      </trkpt>
      <trkpt lat="49.01164" lon="1.0067">
        <ele>128.5</ele>
        <time>2015-07-19T07:14:35Z</time>
      </trkpt>
      <trkpt lat="49.01163" lon="1.00656">
        <ele>128.600006</ele>
        <time>2015-07-19T07:14:37Z</time>
      </trkpt>
      <trkpt lat="49.01162" lon="1.00641">
        <ele>128.699997</ele>
        <time>2015-07-19T07:14:39Z</time>
      </trkpt>
      <trkpt lat="49.0116" lon="1.00628">
        <ele>128.800003</ele>
        <time>2015-07-19T07:14:41Z</time>
      </trkpt>
      <trkpt lat="49.01158" lon="1.00614">
        <ele>128.899994</ele>
        <time>2015-07-19T07:14:43Z</time>
      </trkpt>
      <trkpt lat="49.01157" lon="1.006">
        <ele>129.100006</ele>
        <time>2015-07-19T07:14:45Z</time>
      </trkpt>
      <trkpt lat="49.01155" lon="1.00586">
        <ele>129.199997</ele>
        <time>2015-07-19T07:14:47Z</time>
      </trkpt>
      <trkpt lat="49.01153" lon="1.00572">
        <ele>129.300003</ele>
        <time>2015-07-19T07:14:49Z</time>
      </trkpt>
      <trkpt lat="49.01152" lon="1.00558">
        <ele>129.5</ele>
        <time>2015-07-19T07:14:51Z</time>
      </trkpt>
      <trkpt lat="49.0115" lon="1.00537">
        <ele>129.600006</ele>
        <time>2015-07-19T07:14:54Z</time>
      </trkpt>
      <trkpt lat="49.01148" lon="1.00523">
        <ele>129.699997</ele>
        <time>2015-07-19T07:14:56Z</time>
      </trkpt>
      <trkpt lat="49.01146" lon="1.00509">
        <ele>129.899994</ele>
        <time>2015-07-19T07:14:58Z</time>
      </trkpt>
      <trkpt lat="49.01145" lon="1.00495">
        <ele>130</ele>
        <time>2015-07-19T07:15:00Z</time>
      </trkpt>
      <trkpt lat="49.01143" lon="1.00481">
        <ele>130.100006</ele>
        <time>2015-07-19T07:15:02Z</time>
      </trkpt>
      <trkpt lat="49.01142" lon="1.00466">
        <ele>130.199997</ele>
        <time>2015-07-19T07:15:04Z</time>
      </trkpt>
      <trkpt lat="49.0114" lon="1.00452">
        <ele>130.300003</ele>
        <time>2015-07-19T07:15:06Z</time>
      </trkpt>
      <trkpt lat="49.01137" lon="1.00432">
        <ele>130.399994</ele>
        <time>2015-07-19T07:15:09Z</time>
      </trkpt>
      <trkpt lat="49.01136" lon="1.00414">
        <ele>130.5</ele>
        <time>2015-07-19T07:15:12Z</time>
      </trkpt>
      <trkpt lat="49.01133" lon="1.00394">
        <ele>130.699997</ele>
        <time>2015-07-19T07:15:15Z</time>
      </trkpt>
      <trkpt lat="49.01131" lon="1.0038">
        <ele>130.800003</ele>
        <time>2015-07-19T07:15:17Z</time>
      </trkpt>
      <trkpt lat="49.0113" lon="1.00366">
        <ele>130.800003</ele>
        <time>2015-07-19T07:15:19Z</time>
      </trkpt>
      <trkpt lat="49.01128" lon="1.00351">
        <ele>130.899994</ele>
        <time>2015-07-19T07:15:21Z</time>
      </trkpt>
      <trkpt lat="49.01126" lon="1.00337">
        <ele>131</ele>
        <time>2015-07-19T07:15:23Z</time>
      </trkpt>
      <trkpt lat="49.01125" lon="1.00322">
        <ele>131</ele>
        <time>2015-07-19T07:15:25Z</time>
      </trkpt>
      <trkpt lat="49.01123" lon="1.00307">
        <ele>131</ele>
        <time>2015-07-19T07:15:27Z</time>
      </trkpt>
      <trkpt lat="49.01121" lon="1.00292">
        <ele>131.100006</ele>
        <time>2015-07-19T07:15:29Z</time>
      </trkpt>
      <trkpt lat="49.0112" lon="1.00277">
        <ele>131.100006</ele>
        <time>2015-07-19T07:15:31Z</time>
      </trkpt>
      <trkpt lat="49.01118" lon="1.00261">
        <ele>131.100006</ele>
        <time>2015-07-19T07:15:33Z</time>
      </trkpt>
      <trkpt lat="49.01116" lon="1.00246">
        <ele>131.199997</ele>
        <time>2015-07-19T07:15:35Z</time>
      </trkpt>
      <trkpt lat="49.01114" lon="1.0023">
        <ele>131.199997</ele>
        <time>2015-07-19T07:15:37Z</time>
      </trkpt>
      <trkpt lat="49.01112" lon="1.00214">
        <ele>131.199997</ele>
        <time>2015-07-19T07:15:39Z</time>
      </trkpt>
      <trkpt lat="49.0111" lon="1.00199">
        <ele>131.199997</ele>
        <time>2015-07-19T07:15:41Z</time>
      </trkpt>
      <trkpt lat="49.01108" lon="1.00183">
        <ele>131.199997</ele>
        <time>2015-07-19T07:15:43Z</time>
      </trkpt>
      <trkpt lat="49.01106" lon="1.00167">
        <ele>131.300003</ele>
        <time>2015-07-19T07:15:45Z</time>
      </trkpt>
      <trkpt lat="49.01105" lon="1.00151">
        <ele>131.300003</ele>
        <time>2015-07-19T07:15:47Z</time>
      </trkpt>
      <trkpt lat="49.01103" lon="1.00136">
        <ele>131.300003</ele>
        <time>2015-07-19T07:15:49Z</time>
      </trkpt>
      <trkpt lat="49.01101" lon="1.0012">
        <ele>131.300003</ele>
        <time>2015-07-19T07:15:51Z</time>
      </trkpt>
      <trkpt lat="49.01099" lon="1.00105">
        <ele>131.300003</ele>
        <time>2015-07-19T07:15:53Z</time>
      </trkpt>
      <trkpt lat="49.01097" lon="1.0009">
        <ele>131.399994</ele>
        <time>2015-07-19T07:15:55Z</time>
      </trkpt>
      <trkpt lat="49.01095" lon="1.00074">
        <ele>131.399994</ele>
        <time>2015-07-19T07:15:57Z</time>
      </trkpt>
      <trkpt lat="49.01094" lon="1.00059">
        <ele>131.399994</ele>
        <time>2015-07-19T07:15:59Z</time>
      </trkpt>
      <trkpt lat="49.01092" lon="1.00043">
        <ele>131.5</ele>
        <time>2015-07-19T07:16:01Z</time>
      </trkpt>
      <trkpt lat="49.0109" lon="1.00027">
        <ele>131.5</ele>
        <time>2015-07-19T07:16:03Z</time>
      </trkpt>
      <trkpt lat="49.01088" lon="1.00011">
        <ele>131.5</ele>
        <time>2015-07-19T07:16:05Z</time>
      </trkpt>
      <trkpt lat="49.01086" lon="0.99996">
        <ele>131.600006</ele>
        <time>2015-07-19T07:16:07Z</time>
      </trkpt>
      <trkpt lat="49.01084" lon="0.9998">
        <ele>131.699997</ele>
        <time>2015-07-19T07:16:09Z</time>
      </trkpt>
      <trkpt lat="49.01082" lon="0.99965">
        <ele>131.800003</ele>
        <time>2015-07-19T07:16:11Z</time>
      </trkpt>
      <trkpt lat="49.0108" lon="0.99949">
        <ele>131.899994</ele>
        <time>2015-07-19T07:16:13Z</time>
      </trkpt>
      <trkpt lat="49.01078" lon="0.99934">
        <ele>131.899994</ele>
        <time>2015-07-19T07:16:15Z</time>
      </trkpt>
      <trkpt lat="49.01076" lon="0.99919">
        <ele>132</ele>
        <time>2015-07-19T07:16:17Z</time>
      </trkpt>
      <trkpt lat="49.01074" lon="0.99905">
        <ele>132</ele>
        <time>2015-07-19T07:16:19Z</time>
      </trkpt>
      <trkpt lat="49.01073" lon="0.9989">
        <ele>132.100006</ele>
        <time>2015-07-19T07:16:21Z</time>
      </trkpt>
      <trkpt lat="49.01073" lon="0.99876">
        <ele>132.100006</ele>
        <time>2015-07-19T07:16:23Z</time>
      </trkpt>
      <trkpt lat="49.01074" lon="0.99861">
        <ele>132.100006</ele>
        <time>2015-07-19T07:16:25Z</time>
      </trkpt>
      <trkpt lat="49.01073" lon="0.99846">
        <ele>132.199997</ele>
        <time>2015-07-19T07:16:27Z</time>
      </trkpt>
      <trkpt lat="49.01072" lon="0.99832">
        <ele>132.199997</ele>
        <time>2015-07-19T07:16:29Z</time>
      </trkpt>
      <trkpt lat="49.01071" lon="0.99818">
        <ele>132.199997</ele>
        <time>2015-07-19T07:16:31Z</time>
      </trkpt>
      <trkpt lat="49.01069" lon="0.99803">
        <ele>132.199997</ele>
        <time>2015-07-19T07:16:33Z</time>
      </trkpt>
      <trkpt lat="49.01067" lon="0.99788">
        <ele>132.300003</ele>
        <time>2015-07-19T07:16:35Z</time>
      </trkpt>
      <trkpt lat="49.01065" lon="0.99774">
        <ele>132.300003</ele>
        <time>2015-07-19T07:16:37Z</time>
      </trkpt>
      <trkpt lat="49.01063" lon="0.99759">
        <ele>132.300003</ele>
        <time>2015-07-19T07:16:39Z</time>
      </trkpt>
      <trkpt lat="49.01061" lon="0.99745">
        <ele>132.399994</ele>
        <time>2015-07-19T07:16:41Z</time>
      </trkpt>
      <trkpt lat="49.01059" lon="0.9973">
        <ele>132.399994</ele>
        <time>2015-07-19T07:16:43Z</time>
      </trkpt>
      <trkpt lat="49.01057" lon="0.99716">
        <ele>132.399994</ele>
        <time>2015-07-19T07:16:45Z</time>
      </trkpt>
      <trkpt lat="49.01055" lon="0.99703">
        <ele>132.5</ele>
        <time>2015-07-19T07:16:47Z</time>
      </trkpt>
      <trkpt lat="49.01052" lon="0.99683">
        <ele>132.5</ele>
        <time>2015-07-19T07:16:50Z</time>
      </trkpt>
      <trkpt lat="49.01041" lon="0.99674">
        <ele>132.5</ele>
        <time>2015-07-19T07:16:53Z</time>
      </trkpt>
      <trkpt lat="49.01028" lon="0.99673">
        <ele>132.600006</ele>
        <time>2015-07-19T07:16:56Z</time>
      </trkpt>
      <trkpt lat="49.01015" lon="0.9967">
        <ele>132.600006</ele>
        <time>2015-07-19T07:16:59Z</time>
      </trkpt>
      <trkpt lat="49.01006" lon="0.99665">
        <ele>132.600006</ele>
        <time>2015-07-19T07:17:01Z</time>
      </trkpt>
      <trkpt lat="49.00997" lon="0.99659">
        <ele>132.600006</ele>
        <time>2015-07-19T07:17:03Z</time>
      </trkpt>
      <trkpt lat="49.00988" lon="0.99651">
        <ele>132.600006</ele>
        <time>2015-07-19T07:17:05Z</time>
      </trkpt>
      <trkpt lat="49.00979" lon="0.99645">
        <ele>132.5</ele>
        <time>2015-07-19T07:17:07Z</time>
      </trkpt>
      <trkpt lat="49.0097" lon="0.99639">
        <ele>132.5</ele>
        <time>2015-07-19T07:17:09Z</time>
      </trkpt>
      <trkpt lat="49.0096" lon="0.99633">
        <ele>132.300003</ele>
        <time>2015-07-19T07:17:11Z</time>
      </trkpt>
      <trkpt lat="49.00952" lon="0.9963">
        <ele>132.199997</ele>
        <time>2015-07-19T07:17:13Z</time>
      </trkpt>
      <trkpt lat="49.00939" lon="0.99627">
        <ele>132</ele>
        <time>2015-07-19T07:17:16Z</time>
      </trkpt>
      <trkpt lat="49.00927" lon="0.99624">
        <ele>131.699997</ele>
        <time>2015-07-19T07:17:19Z</time>
      </trkpt>
      <trkpt lat="49.00914" lon="0.99624">
        <ele>131.5</ele>
        <time>2015-07-19T07:17:22Z</time>
      </trkpt>
      <trkpt lat="49.00904" lon="0.99623">
        <ele>131.399994</ele>
        <time>2015-07-19T07:17:24Z</time>
      </trkpt>
      <trkpt lat="49.00895" lon="0.9962">
        <ele>131.199997</ele>
        <time>2015-07-19T07:17:26Z</time>
      </trkpt>
      <trkpt lat="49.00886" lon="0.99619">
        <ele>131.100006</ele>
        <time>2015-07-19T07:17:28Z</time>
      </trkpt>
      <trkpt lat="49.00876" lon="0.99617">
        <ele>130.899994</ele>
        <time>2015-07-19T07:17:30Z</time>
      </trkpt>
      <trkpt lat="49.00866" lon="0.99615">
        <ele>130.699997</ele>
        <time>2015-07-19T07:17:32Z</time>
      </trkpt>
      <trkpt lat="49.00856" lon="0.99613">
        <ele>130.5</ele>
        <time>2015-07-19T07:17:34Z</time>
      </trkpt>
      <trkpt lat="49.00846" lon="0.9961">
        <ele>130.399994</ele>
        <time>2015-07-19T07:17:36Z</time>
      </trkpt>
      <trkpt lat="49.00836" lon="0.99608">
        <ele>130.199997</ele>
        <time>2015-07-19T07:17:38Z</time>
      </trkpt>
      <trkpt lat="49.00826" lon="0.99606">
        <ele>130.100006</ele>
        <time>2015-07-19T07:17:40Z</time>
      </trkpt>
      <trkpt lat="49.00816" lon="0.99603">
        <ele>130</ele>
        <time>2015-07-19T07:17:42Z</time>
      </trkpt>
      <trkpt lat="49.00806" lon="0.996">
        <ele>129.899994</ele>
        <time>2015-07-19T07:17:44Z</time>
      </trkpt>
      <trkpt lat="49.00796" lon="0.99597">
        <ele>129.800003</ele>
        <time>2015-07-19T07:17:46Z</time>
      </trkpt>
      <trkpt lat="49.00786" lon="0.99594">
        <ele>129.800003</ele>
        <time>2015-07-19T07:17:48Z</time>
      </trkpt>
      <trkpt lat="49.00776" lon="0.99591">
        <ele>129.800003</ele>
        <time>2015-07-19T07:17:50Z</time>
      </trkpt>
      <trkpt lat="49.00766" lon="0.99588">
        <ele>129.800003</ele>
        <time>2015-07-19T07:17:52Z</time>
      </trkpt>
      <trkpt lat="49.00756" lon="0.99584">
        <ele>129.800003</ele>
        <time>2015-07-19T07:17:54Z</time>
      </trkpt>
      <trkpt lat="49.00747" lon="0.99581">
        <ele>129.800003</ele>
        <time>2015-07-19T07:17:56Z</time>
      </trkpt>
      <trkpt lat="49.00737" lon="0.99577">
        <ele>129.800003</ele>
        <time>2015-07-19T07:17:58Z</time>
      </trkpt>
      <trkpt lat="49.00727" lon="0.99574">
        <ele>129.899994</ele>
        <time>2015-07-19T07:18:00Z</time>
      </trkpt>
      <trkpt lat="49.00717" lon="0.9957">
        <ele>129.899994</ele>
        <time>2015-07-19T07:18:02Z</time>
      </trkpt>
      <trkpt lat="49.00707" lon="0.99565">
        <ele>130</ele>
        <time>2015-07-19T07:18:04Z</time>
      </trkpt>
      <trkpt lat="49.00697" lon="0.99559">
        <ele>130</ele>
        <time>2015-07-19T07:18:06Z</time>
      </trkpt>
      <trkpt lat="49.00688" lon="0.99551">
        <ele>130.100006</ele>
        <time>2015-07-19T07:18:08Z</time>
      </trkpt>
      <trkpt lat="49.00682" lon="0.99539">
        <ele>130.100006</ele>
        <time>2015-07-19T07:18:10Z</time>
      </trkpt>
      <trkpt lat="49.00677" lon="0.99524">
        <ele>130.199997</ele>
        <time>2015-07-19T07:18:12Z</time>
      </trkpt>
      <trkpt lat="49.00674" lon="0.99509">
        <ele>130.300003</ele>
        <time>2015-07-19T07:18:14Z</time>
      </trkpt>
      <trkpt lat="49.00671" lon="0.99496">
        <ele>130.399994</ele>
        <time>2015-07-19T07:18:16Z</time>
      </trkpt>
      <trkpt lat="49.00671" lon="0.99478">
        <ele>130.5</ele>
        <time>2015-07-19T07:18:19Z</time>
      </trkpt>
      <trkpt lat="49.00682" lon="0.99466">
        <ele>130.5</ele>
        <time>2015-07-19T07:18:22Z</time>
      </trkpt>
      <trkpt lat="49.00691" lon="0.99458">
        <ele>130.600006</ele>
        <time>2015-07-19T07:18:24Z</time>
      </trkpt>
      <trkpt lat="49.007" lon="0.9945">
        <ele>130.600006</ele>
        <time>2015-07-19T07:18:26Z</time>
      </trkpt>
      <trkpt lat="49.0071" lon="0.9944">
        <ele>130.699997</ele>
        <time>2015-07-19T07:18:28Z</time>
      </trkpt>
      <trkpt lat="49.00719" lon="0.99431">
        <ele>130.699997</ele>
        <time>2015-07-19T07:18:30Z</time>
      </trkpt>
      <trkpt lat="49.00727" lon="0.99422">
        <ele>130.699997</ele>
        <time>2015-07-19T07:18:32Z</time>
      </trkpt>
      <trkpt lat="49.00734" lon="0.99413">
        <ele>130.699997</ele>
        <time>2015-07-19T07:18:34Z</time>
      </trkpt>
      <trkpt lat="49.00741" lon="0.99401">
        <ele>130.800003</ele>
        <time>2015-07-19T07:18:36Z</time>
      </trkpt>
      <trkpt lat="49.00748" lon="0.99387">
        <ele>130.800003</ele>
        <time>2015-07-19T07:18:38Z</time>
      </trkpt>
      <trkpt lat="49.00753" lon="0.99372">
        <ele>130.800003</ele>
        <time>2015-07-19T07:18:40Z</time>
      </trkpt>
      <trkpt lat="49.00757" lon="0.99356">
        <ele>130.800003</ele>
        <time>2015-07-19T07:18:42Z</time>
      </trkpt>
      <trkpt lat="49.0076" lon="0.99342">
        <ele>130.800003</ele>
        <time>2015-07-19T07:18:44Z</time>
      </trkpt>
      <trkpt lat="49.00756" lon="0.99326">
        <ele>130.800003</ele>
        <time>2015-07-19T07:18:47Z</time>
      </trkpt>
      <trkpt lat="49.00743" lon="0.99321">
        <ele>130.800003</ele>
        <time>2015-07-19T07:18:50Z</time>
      </trkpt>
      <trkpt lat="49.00733" lon="0.99317">
        <ele>130.699997</ele>
        <time>2015-07-19T07:18:52Z</time>
      </trkpt>
      <trkpt lat="49.00723" lon="0.99314">
        <ele>130.600006</ele>
        <time>2015-07-19T07:18:54Z</time>
      </trkpt>
      <trkpt lat="49.00712" lon="0.99311">
        <ele>130.5</ele>
        <time>2015-07-19T07:18:56Z</time>
      </trkpt>
      <trkpt lat="49.00702" lon="0.99309">
        <ele>130.5</ele>
        <time>2015-07-19T07:18:58Z</time>
      </trkpt>
      <trkpt lat="49.00692" lon="0.99307">
        <ele>130.399994</ele>
        <time>2015-07-19T07:19:00Z</time>
      </trkpt>
      <trkpt lat="49.00682" lon="0.99306">
        <ele>130.300003</ele>
        <time>2015-07-19T07:19:02Z</time>
      </trkpt>
      <trkpt lat="49.00672" lon="0.99306">
        <ele>130.300003</ele>
        <time>2015-07-19T07:19:04Z</time>
      </trkpt>
      <trkpt lat="49.00662" lon="0.99307">
        <ele>130.300003</ele>
        <time>2015-07-19T07:19:06Z</time>
      </trkpt>
      <trkpt lat="49.00652" lon="0.99307">
        <ele>130.300003</ele>
        <time>2015-07-19T07:19:08Z</time>
      </trkpt>
      <trkpt lat="49.00641" lon="0.99307">
        <ele>130.300003</ele>
        <time>2015-07-19T07:19:10Z</time>
      </trkpt>
      <trkpt lat="49.00631" lon="0.99308">
        <ele>130.300003</ele>
        <time>2015-07-19T07:19:12Z</time>
      </trkpt>
      <trkpt lat="49.00621" lon="0.99308">
        <ele>130.300003</ele>
        <time>2015-07-19T07:19:14Z</time>
      </trkpt>
      <trkpt lat="49.00611" lon="0.99308">
        <ele>130.300003</ele>
        <time>2015-07-19T07:19:16Z</time>
      </trkpt>
      <trkpt lat="49.00598" lon="0.99309">
        <ele>130.399994</ele>
        <time>2015-07-19T07:19:19Z</time>
      </trkpt>
      <trkpt lat="49.0059" lon="0.99301">
        <ele>130.5</ele>
        <time>2015-07-19T07:19:22Z</time>
      </trkpt>
      <trkpt lat="49.00587" lon="0.99284">
        <ele>130.600006</ele>
        <time>2015-07-19T07:19:25Z</time>
      </trkpt>
      <trkpt lat="49.00586" lon="0.9927">
        <ele>130.600006</ele>
        <time>2015-07-19T07:19:27Z</time>
      </trkpt>
      <trkpt lat="49.00584" lon="0.99254">
        <ele>130.699997</ele>
        <time>2015-07-19T07:19:29Z</time>
      </trkpt>
      <trkpt lat="49.00582" lon="0.99239">
        <ele>130.699997</ele>
        <time>2015-07-19T07:19:31Z</time>
      </trkpt>
      <trkpt lat="49.0058" lon="0.99224">
        <ele>130.699997</ele>
        <time>2015-07-19T07:19:33Z</time>
      </trkpt>
      <trkpt lat="49.00579" lon="0.99209">
        <ele>130.800003</ele>
        <time>2015-07-19T07:19:35Z</time>
      </trkpt>
      <trkpt lat="49.00578" lon="0.99194">
        <ele>130.800003</ele>
        <time>2015-07-19T07:19:37Z</time>
      </trkpt>
      <trkpt lat="49.00577" lon="0.99179">
        <ele>130.800003</ele>
        <time>2015-07-19T07:19:39Z</time>
      </trkpt>
      <trkpt lat="49.00576" lon="0.99164">
        <ele>130.899994</ele>
        <time>2015-07-19T07:19:41Z</time>
      </trkpt>
      <trkpt lat="49.00573" lon="0.99149">
        <ele>130.899994</ele>
        <time>2015-07-19T07:19:43Z</time>
      </trkpt>
      <trkpt lat="49.00568" lon="0.99136">
        <ele>130.899994</ele>
        <time>2015-07-19T07:19:45Z</time>
      </trkpt>
      <trkpt lat="49.0056" lon="0.99124">
        <ele>130.899994</ele>
        <time>2015-07-19T07:19:47Z</time>
      </trkpt>
      <trkpt lat="49.00553" lon="0.99113">
        <ele>130.899994</ele>
        <time>2015-07-19T07:19:49Z</time>
      </trkpt>
      <trkpt lat="49.00545" lon="0.99102">
        <ele>130.899994</ele>
        <time>2015-07-19T07:19:51Z</time>
      </trkpt>
      <trkpt lat="49.00538" lon="0.9909">
        <ele>130.899994</ele>
        <time>2015-07-19T07:19:53Z</time>
      </trkpt>
      <trkpt lat="49.0053" lon="0.99081">
        <ele>130.899994</ele>
        <time>2015-07-19T07:19:55Z</time>
      </trkpt>
      <trkpt lat="49.00523" lon="0.99073">
        <ele>131</ele>
        <time>2015-07-19T07:19:57Z</time>
      </trkpt>
      <trkpt lat="49.00512" lon="0.99061">
        <ele>131</ele>
        <time>2015-07-19T07:20:00Z</time>
      </trkpt>
      <trkpt lat="49.00505" lon="0.99053">
        <ele>131</ele>
        <time>2015-07-19T07:20:02Z</time>
      </trkpt>
      <trkpt lat="49.00497" lon="0.99045">
        <ele>131</ele>
        <time>2015-07-19T07:20:04Z</time>
      </trkpt>
      <trkpt lat="49.00487" lon="0.99034">
        <ele>131</ele>
        <time>2015-07-19T07:20:07Z</time>
      </trkpt>
      <trkpt lat="49.0048" lon="0.99025">
        <ele>131</ele>
        <time>2015-07-19T07:20:09Z</time>
      </trkpt>
      <trkpt lat="49.00469" lon="0.99013">
        <ele>131</ele>
        <time>2015-07-19T07:20:12Z</time>
      </trkpt>
      <trkpt lat="49.00459" lon="0.98998">
        <ele>131</ele>
        <time>2015-07-19T07:20:15Z</time>
      </trkpt>
      <trkpt lat="49.00451" lon="0.98989">
        <ele>131</ele>
        <time>2015-07-19T07:20:17Z</time>
      </trkpt>
      <trkpt lat="49.00442" lon="0.98978">
        <ele>131</ele>
        <time>2015-07-19T07:20:19Z</time>
      </trkpt>
      <trkpt lat="49.00432" lon="0.98973">
        <ele>131</ele>
        <time>2015-07-19T07:20:21Z</time>
      </trkpt>
      <trkpt lat="49.00423" lon="0.98967">
        <ele>131</ele>
        <time>2015-07-19T07:20:23Z</time>
      </trkpt>
      <trkpt lat="49.00414" lon="0.9896">
        <ele>131</ele>
        <time>2015-07-19T07:20:25Z</time>
      </trkpt>
      <trkpt lat="49.00405" lon="0.98954">
        <ele>131</ele>
        <time>2015-07-19T07:20:27Z</time>
      </trkpt>
      <trkpt lat="49.00395" lon="0.98948">
        <ele>131</ele>
        <time>2015-07-19T07:20:29Z</time>
      </trkpt>
      <trkpt lat="49.00381" lon="0.98943">
        <ele>131</ele>
        <time>2015-07-19T07:20:32Z</time>
      </trkpt>
      <trkpt lat="49.00368" lon="0.98936">
        <ele>131</ele>
        <time>2015-07-19T07:20:35Z</time>
      </trkpt>
      <trkpt lat="49.00358" lon="0.98931">
        <ele>131.100006</ele>
        <time>2015-07-19T07:20:37Z</time>
      </trkpt>
      <trkpt lat="49.00345" lon="0.98925">
        <ele>131.100006</ele>
        <time>2015-07-19T07:20:40Z</time>
      </trkpt>
      <trkpt lat="49.00336" lon="0.98922">
        <ele>131.100006</ele>
        <time>2015-07-19T07:20:42Z</time>
      </trkpt>
      <trkpt lat="49.00331" lon="0.98911">
        <ele>131.100006</ele>
        <time>2015-07-19T07:20:44Z</time>
      </trkpt>
      <trkpt lat="49.00329" lon="0.98895">
        <ele>131.199997</ele>
        <time>2015-07-19T07:20:47Z</time>
      </trkpt>
      <trkpt lat="49.00326" lon="0.98876">
        <ele>131.199997</ele>
        <time>2015-07-19T07:20:50Z</time>
      </trkpt>
      <trkpt lat="49.00324" lon="0.98863">
        <ele>131.100006</ele>
        <time>2015-07-19T07:20:52Z</time>
      </trkpt>
      <trkpt lat="49.00321" lon="0.98847">
        <ele>131</ele>
        <time>2015-07-19T07:20:54Z</time>
      </trkpt>
      <trkpt lat="49.00319" lon="0.98831">
        <ele>130.800003</ele>
        <time>2015-07-19T07:20:56Z</time>
      </trkpt>
      <trkpt lat="49.00316" lon="0.98815">
        <ele>130.699997</ele>
        <time>2015-07-19T07:20:58Z</time>
      </trkpt>
      <trkpt lat="49.00313" lon="0.98799">
        <ele>130.600006</ele>
        <time>2015-07-19T07:21:00Z</time>
      </trkpt>
      <trkpt lat="49.00312" lon="0.98783">
        <ele>130.399994</ele>
        <time>2015-07-19T07:21:02Z</time>
      </trkpt>
      <trkpt lat="49.00311" lon="0.98768">
        <ele>130.300003</ele>
        <time>2015-07-19T07:21:04Z</time>
      </trkpt>
      <trkpt lat="49.00308" lon="0.98753">
        <ele>130.199997</ele>
        <time>2015-07-19T07:21:06Z</time>
      </trkpt>
      <trkpt lat="49.00308" lon="0.98734">
        <ele>130.100006</ele>
        <time>2015-07-19T07:21:08Z</time>
      </trkpt>
      <trkpt lat="49.00308" lon="0.98716">
        <ele>129.899994</ele>
        <time>2015-07-19T07:21:10Z</time>
      </trkpt>
      <trkpt lat="49.00309" lon="0.98698">
        <ele>129.699997</ele>
        <time>2015-07-19T07:21:12Z</time>
      </trkpt>
      <trkpt lat="49.0031" lon="0.98681">
        <ele>129.600006</ele>
        <time>2015-07-19T07:21:14Z</time>
      </trkpt>
      <trkpt lat="49.00311" lon="0.98662">
        <ele>129.5</ele>
        <time>2015-07-19T07:21:16Z</time>
      </trkpt>
      <trkpt lat="49.00312" lon="0.9864">
        <ele>129.300003</ele>
        <time>2015-07-19T07:21:18Z</time>
      </trkpt>
      <trkpt lat="49.0031" lon="0.98619">
        <ele>129.199997</ele>
        <time>2015-07-19T07:21:20Z</time>
      </trkpt>
      <trkpt lat="49.00306" lon="0.986">
        <ele>129.100006</ele>
        <time>2015-07-19T07:21:22Z</time>
      </trkpt>
      <trkpt lat="49.00303" lon="0.9858">
        <ele>128.800003</ele>
        <time>2015-07-19T07:21:24Z</time>
      </trkpt>
      <trkpt lat="49.00299" lon="0.98559">
        <ele>128.399994</ele>
        <time>2015-07-19T07:21:26Z</time>
      </trkpt>
      <trkpt lat="49.00293" lon="0.98536">
        <ele>128</ele>
        <time>2015-07-19T07:21:28Z</time>
      </trkpt>
      <trkpt lat="49.00289" lon="0.98522">
        <ele>127.800003</ele>
        <time>2015-07-19T07:21:29Z</time>
      </trkpt>
      <trkpt lat="49.00284" lon="0.985">
        <ele>127.199997</ele>
        <time>2015-07-19T07:21:31Z</time>
      </trkpt>
      <trkpt lat="49.00281" lon="0.98486">
        <ele>126.900002</ele>
        <time>2015-07-19T07:21:32Z</time>
      </trkpt>
      <trkpt lat="49.00275" lon="0.98463">
        <ele>126.199997</ele>
        <time>2015-07-19T07:21:34Z</time>
      </trkpt>
      <trkpt lat="49.00269" lon="0.98439">
        <ele>125.400002</ele>
        <time>2015-07-19T07:21:36Z</time>
      </trkpt>
      <trkpt lat="49.00264" lon="0.98422">
        <ele>124.900002</ele>
        <time>2015-07-19T07:21:37Z</time>
      </trkpt>
      <trkpt lat="49.00261" lon="0.98405">
        <ele>124.400002</ele>
        <time>2015-07-19T07:21:38Z</time>
      </trkpt>
      <trkpt lat="49.00258" lon="0.9839">
        <ele>123.900002</ele>
        <time>2015-07-19T07:21:39Z</time>
      </trkpt>
      <trkpt lat="49.00254" lon="0.98373">
        <ele>123.400002</ele>
        <time>2015-07-19T07:21:40Z</time>
      </trkpt>
      <trkpt lat="49.00251" lon="0.98358">
        <ele>123</ele>
        <time>2015-07-19T07:21:41Z</time>
      </trkpt>
      <trkpt lat="49.00248" lon="0.98343">
        <ele>122.5</ele>
        <time>2015-07-19T07:21:42Z</time>
      </trkpt>
      <trkpt lat="49.00246" lon="0.98329">
        <ele>122</ele>
        <time>2015-07-19T07:21:43Z</time>
      </trkpt>
      <trkpt lat="49.00242" lon="0.98303">
        <ele>121.199997</ele>
        <time>2015-07-19T07:21:45Z</time>
      </trkpt>
      <trkpt lat="49.00238" lon="0.98279">
        <ele>120.5</ele>
        <time>2015-07-19T07:21:47Z</time>
      </trkpt>
      <trkpt lat="49.00234" lon="0.98256">
        <ele>119.800003</ele>
        <time>2015-07-19T07:21:49Z</time>
      </trkpt>
      <trkpt lat="49.00231" lon="0.98235">
        <ele>119.300003</ele>
        <time>2015-07-19T07:21:51Z</time>
      </trkpt>
      <trkpt lat="49.00227" lon="0.98217">
        <ele>118.699997</ele>
        <time>2015-07-19T07:21:53Z</time>
      </trkpt>
      <trkpt lat="49.00224" lon="0.98199">
        <ele>118.300003</ele>
        <time>2015-07-19T07:21:55Z</time>
      </trkpt>
      <trkpt lat="49.00221" lon="0.98182">
        <ele>118</ele>
        <time>2015-07-19T07:21:57Z</time>
      </trkpt>
      <trkpt lat="49.00217" lon="0.98165">
        <ele>117.800003</ele>
        <time>2015-07-19T07:21:59Z</time>
      </trkpt>
      <trkpt lat="49.00213" lon="0.98149">
        <ele>117.699997</ele>
        <time>2015-07-19T07:22:01Z</time>
      </trkpt>
      <trkpt lat="49.00208" lon="0.98133">
        <ele>117.599998</ele>
        <time>2015-07-19T07:22:03Z</time>
      </trkpt>
      <trkpt lat="49.00204" lon="0.98116">
        <ele>117.599998</ele>
        <time>2015-07-19T07:22:05Z</time>
      </trkpt>
      <trkpt lat="49.00199" lon="0.981">
        <ele>117.599998</ele>
        <time>2015-07-19T07:22:07Z</time>
      </trkpt>
      <trkpt lat="49.00194" lon="0.98084">
        <ele>117.800003</ele>
        <time>2015-07-19T07:22:09Z</time>
      </trkpt>
      <trkpt lat="49.00188" lon="0.98069">
        <ele>118</ele>
        <time>2015-07-19T07:22:11Z</time>
      </trkpt>
      <trkpt lat="49.00183" lon="0.98054">
        <ele>118.199997</ele>
        <time>2015-07-19T07:22:13Z</time>
      </trkpt>
      <trkpt lat="49.00178" lon="0.98038">
        <ele>118.5</ele>
        <time>2015-07-19T07:22:15Z</time>
      </trkpt>
      <trkpt lat="49.00173" lon="0.98022">
        <ele>118.800003</ele>
        <time>2015-07-19T07:22:17Z</time>
      </trkpt>
      <trkpt lat="49.00167" lon="0.98005">
        <ele>119.099998</ele>
        <time>2015-07-19T07:22:19Z</time>
      </trkpt>
      <trkpt lat="49.00162" lon="0.97988">
        <ele>119.5</ele>
        <time>2015-07-19T07:22:21Z</time>
      </trkpt>
      <trkpt lat="49.00156" lon="0.97971">
        <ele>119.800003</ele>
        <time>2015-07-19T07:22:23Z</time>
      </trkpt>
      <trkpt lat="49.00151" lon="0.97955">
        <ele>120.199997</ele>
        <time>2015-07-19T07:22:25Z</time>
      </trkpt>
      <trkpt lat="49.00146" lon="0.9794">
        <ele>120.5</ele>
        <time>2015-07-19T07:22:27Z</time>
      </trkpt>
      <trkpt lat="49.00141" lon="0.97925">
        <ele>120.900002</ele>
        <time>2015-07-19T07:22:29Z</time>
      </trkpt>
      <trkpt lat="49.00137" lon="0.97911">
        <ele>121.199997</ele>
        <time>2015-07-19T07:22:31Z</time>
      </trkpt>
      <trkpt lat="49.00132" lon="0.97896">
        <ele>121.599998</ele>
        <time>2015-07-19T07:22:33Z</time>
      </trkpt>
      <trkpt lat="49.00128" lon="0.97882">
        <ele>122</ele>
        <time>2015-07-19T07:22:35Z</time>
      </trkpt>
      <trkpt lat="49.00124" lon="0.97868">
        <ele>122.400002</ele>
        <time>2015-07-19T07:22:37Z</time>
      </trkpt>
      <trkpt lat="49.0012" lon="0.97854">
        <ele>122.800003</ele>
        <time>2015-07-19T07:22:39Z</time>
      </trkpt>
      <trkpt lat="49.00115" lon="0.97841">
        <ele>123.199997</ele>
        <time>2015-07-19T07:22:41Z</time>
      </trkpt>
      <trkpt lat="49.00111" lon="0.97828">
        <ele>123.699997</ele>
        <time>2015-07-19T07:22:43Z</time>
      </trkpt>
      <trkpt lat="49.00107" lon="0.97815">
        <ele>124</ele>
        <time>2015-07-19T07:22:45Z</time>
      </trkpt>
      <trkpt lat="49.00102" lon="0.97802">
        <ele>124.400002</ele>
        <time>2015-07-19T07:22:47Z</time>
      </trkpt>
      <trkpt lat="49.00098" lon="0.97789">
        <ele>124.699997</ele>
        <time>2015-07-19T07:22:49Z</time>
      </trkpt>
      <trkpt lat="49.00092" lon="0.97777">
        <ele>125.099998</ele>
        <time>2015-07-19T07:22:51Z</time>
      </trkpt>
      <trkpt lat="49.00086" lon="0.97765">
        <ele>125.400002</ele>
        <time>2015-07-19T07:22:53Z</time>
      </trkpt>
      <trkpt lat="49.00079" lon="0.97754">
        <ele>125.699997</ele>
        <time>2015-07-19T07:22:55Z</time>
      </trkpt>
      <trkpt lat="49.00072" lon="0.97744">
        <ele>126</ele>
        <time>2015-07-19T07:22:57Z</time>
      </trkpt>
      <trkpt lat="49.00065" lon="0.97733">
        <ele>126.300003</ele>
        <time>2015-07-19T07:22:59Z</time>
      </trkpt>
      <trkpt lat="49.00058" lon="0.97723">
        <ele>126.599998</ele>
        <time>2015-07-19T07:23:01Z</time>
      </trkpt>
      <trkpt lat="49.00051" lon="0.97712">
        <ele>126.900002</ele>
        <time>2015-07-19T07:23:03Z</time>
      </trkpt>
      <trkpt lat="49.00045" lon="0.977">
        <ele>127.199997</ele>
        <time>2015-07-19T07:23:05Z</time>
      </trkpt>
      <trkpt lat="49.0004" lon="0.97688">
        <ele>127.599998</ele>
        <time>2015-07-19T07:23:07Z</time>
      </trkpt>
      <trkpt lat="49.00035" lon="0.9767">
        <ele>128.100006</ele>
        <time>2015-07-19T07:23:10Z</time>
      </trkpt>
      <trkpt lat="49.00026" lon="0.97661">
        <ele>128.699997</ele>
        <time>2015-07-19T07:23:13Z</time>
      </trkpt>
      <trkpt lat="49.00019" lon="0.97674">
        <ele>129.100006</ele>
        <time>2015-07-19T07:23:16Z</time>
      </trkpt>
      <trkpt lat="49.00012" lon="0.97687">
        <ele>129.600006</ele>
        <time>2015-07-19T07:23:19Z</time>
      </trkpt>
      <trkpt lat="49.00003" lon="0.97701">
        <ele>130</ele>
        <time>2015-07-19T07:23:22Z</time>
      </trkpt>
      <trkpt lat="48.99995" lon="0.97717">
        <ele>130.300003</ele>
        <time>2015-07-19T07:23:25Z</time>
      </trkpt>
      <trkpt lat="48.99988" lon="0.97727">
        <ele>130.600006</ele>
        <time>2015-07-19T07:23:27Z</time>
      </trkpt>
      <trkpt lat="48.99981" lon="0.97737">
        <ele>130.899994</ele>
        <time>2015-07-19T07:23:29Z</time>
      </trkpt>
      <trkpt lat="48.99974" lon="0.97747">
        <ele>131.100006</ele>
        <time>2015-07-19T07:23:31Z</time>
      </trkpt>
      <trkpt lat="48.99966" lon="0.97758">
        <ele>131.300003</ele>
        <time>2015-07-19T07:23:33Z</time>
      </trkpt>
      <trkpt lat="48.99958" lon="0.97769">
        <ele>131.5</ele>
        <time>2015-07-19T07:23:35Z</time>
      </trkpt>
      <trkpt lat="48.9995" lon="0.97779">
        <ele>131.699997</ele>
        <time>2015-07-19T07:23:37Z</time>
      </trkpt>
      <trkpt lat="48.99941" lon="0.9779">
        <ele>131.800003</ele>
        <time>2015-07-19T07:23:39Z</time>
      </trkpt>
      <trkpt lat="48.99933" lon="0.97801">
        <ele>131.899994</ele>
        <time>2015-07-19T07:23:41Z</time>
      </trkpt>
      <trkpt lat="48.99924" lon="0.97812">
        <ele>132.100006</ele>
        <time>2015-07-19T07:23:43Z</time>
      </trkpt>
      <trkpt lat="48.99915" lon="0.97822">
        <ele>132.199997</ele>
        <time>2015-07-19T07:23:45Z</time>
      </trkpt>
      <trkpt lat="48.99906" lon="0.97833">
        <ele>132.300003</ele>
        <time>2015-07-19T07:23:47Z</time>
      </trkpt>
      <trkpt lat="48.99897" lon="0.97845">
        <ele>132.399994</ele>
        <time>2015-07-19T07:23:49Z</time>
      </trkpt>
      <trkpt lat="48.99887" lon="0.97856">
        <ele>132.399994</ele>
        <time>2015-07-19T07:23:51Z</time>
      </trkpt>
      <trkpt lat="48.99878" lon="0.97868">
        <ele>132.399994</ele>
        <time>2015-07-19T07:23:53Z</time>
      </trkpt>
      <trkpt lat="48.99868" lon="0.9788">
        <ele>132.300003</ele>
        <time>2015-07-19T07:23:55Z</time>
      </trkpt>
      <trkpt lat="48.99858" lon="0.97892">
        <ele>132.199997</ele>
        <time>2015-07-19T07:23:57Z</time>
      </trkpt>
      <trkpt lat="48.99849" lon="0.97904">
        <ele>132.100006</ele>
        <time>2015-07-19T07:23:59Z</time>
      </trkpt>
      <trkpt lat="48.99839" lon="0.97916">
        <ele>132</ele>
        <time>2015-07-19T07:24:01Z</time>
      </trkpt>
      <trkpt lat="48.9983" lon="0.97928">
        <ele>132</ele>
        <time>2015-07-19T07:24:03Z</time>
      </trkpt>
      <trkpt lat="48.99822" lon="0.97941">
        <ele>131.899994</ele>
        <time>2015-07-19T07:24:05Z</time>
      </trkpt>
      <trkpt lat="48.99814" lon="0.97956">
        <ele>131.800003</ele>
        <time>2015-07-19T07:24:07Z</time>
      </trkpt>
      <trkpt lat="48.99808" lon="0.97969">
        <ele>131.800003</ele>
        <time>2015-07-19T07:24:09Z</time>
      </trkpt>
      <trkpt lat="48.99803" lon="0.97986">
        <ele>131.699997</ele>
        <time>2015-07-19T07:24:11Z</time>
      </trkpt>
      <trkpt lat="48.99797" lon="0.98">
        <ele>131.600006</ele>
        <time>2015-07-19T07:24:13Z</time>
      </trkpt>
      <trkpt lat="48.99791" lon="0.98015">
        <ele>131.399994</ele>
        <time>2015-07-19T07:24:16Z</time>
      </trkpt>
      <trkpt lat="48.99787" lon="0.9803">
        <ele>131.199997</ele>
        <time>2015-07-19T07:24:18Z</time>
      </trkpt>
      <trkpt lat="48.99783" lon="0.98049">
        <ele>130.899994</ele>
        <time>2015-07-19T07:24:20Z</time>
      </trkpt>
      <trkpt lat="48.99777" lon="0.9807">
        <ele>130.699997</ele>
        <time>2015-07-19T07:24:22Z</time>
      </trkpt>
      <trkpt lat="48.9977" lon="0.98089">
        <ele>130.399994</ele>
        <time>2015-07-19T07:24:24Z</time>
      </trkpt>
      <trkpt lat="48.99763" lon="0.98103">
        <ele>130</ele>
        <time>2015-07-19T07:24:26Z</time>
      </trkpt>
      <trkpt lat="48.99754" lon="0.98126">
        <ele>129.5</ele>
        <time>2015-07-19T07:24:28Z</time>
      </trkpt>
      <trkpt lat="48.99749" lon="0.98142">
        <ele>129.199997</ele>
        <time>2015-07-19T07:24:29Z</time>
      </trkpt>
      <trkpt lat="48.99743" lon="0.98153">
        <ele>128.899994</ele>
        <time>2015-07-19T07:24:30Z</time>
      </trkpt>
      <trkpt lat="48.99737" lon="0.98165">
        <ele>128.600006</ele>
        <time>2015-07-19T07:24:31Z</time>
      </trkpt>
      <trkpt lat="48.99731" lon="0.98176">
        <ele>128.300003</ele>
        <time>2015-07-19T07:24:32Z</time>
      </trkpt>
      <trkpt lat="48.99719" lon="0.98192">
        <ele>127.699997</ele>
        <time>2015-07-19T07:24:34Z</time>
      </trkpt>
      <trkpt lat="48.99705" lon="0.98199">
        <ele>127.099998</ele>
        <time>2015-07-19T07:24:36Z</time>
      </trkpt>
      <trkpt lat="48.99691" lon="0.98205">
        <ele>126.5</ele>
        <time>2015-07-19T07:24:38Z</time>
      </trkpt>
      <trkpt lat="48.99678" lon="0.98211">
        <ele>126.099998</ele>
        <time>2015-07-19T07:24:40Z</time>
      </trkpt>
      <trkpt lat="48.99666" lon="0.98217">
        <ele>125.699997</ele>
        <time>2015-07-19T07:24:42Z</time>
      </trkpt>
      <trkpt lat="48.99655" lon="0.98223">
        <ele>125.300003</ele>
        <time>2015-07-19T07:24:44Z</time>
      </trkpt>
      <trkpt lat="48.99645" lon="0.9823">
        <ele>125</ele>
        <time>2015-07-19T07:24:46Z</time>
      </trkpt>
      <trkpt lat="48.99636" lon="0.98236">
        <ele>124.800003</ele>
        <time>2015-07-19T07:24:48Z</time>
      </trkpt>
      <trkpt lat="48.99627" lon="0.98242">
        <ele>124.599998</ele>
        <time>2015-07-19T07:24:50Z</time>
      </trkpt>
      <trkpt lat="48.99618" lon="0.98249">
        <ele>124.400002</ele>
        <time>2015-07-19T07:24:52Z</time>
      </trkpt>
      <trkpt lat="48.99608" lon="0.98255">
        <ele>124.300003</ele>
        <time>2015-07-19T07:24:54Z</time>
      </trkpt>
      <trkpt lat="48.99597" lon="0.98263">
        <ele>124.199997</ele>
        <time>2015-07-19T07:24:56Z</time>
      </trkpt>
      <trkpt lat="48.99586" lon="0.9827">
        <ele>124.199997</ele>
        <time>2015-07-19T07:24:58Z</time>
      </trkpt>
      <trkpt lat="48.99575" lon="0.98276">
        <ele>124.099998</ele>
        <time>2015-07-19T07:25:00Z</time>
      </trkpt>
      <trkpt lat="48.99563" lon="0.98282">
        <ele>124.099998</ele>
        <time>2015-07-19T07:25:02Z</time>
      </trkpt>
      <trkpt lat="48.99551" lon="0.98288">
        <ele>124</ele>
        <time>2015-07-19T07:25:04Z</time>
      </trkpt>
      <trkpt lat="48.99539" lon="0.98294">
        <ele>124</ele>
        <time>2015-07-19T07:25:06Z</time>
      </trkpt>
      <trkpt lat="48.99528" lon="0.98301">
        <ele>123.900002</ele>
        <time>2015-07-19T07:25:08Z</time>
      </trkpt>
      <trkpt lat="48.99516" lon="0.98308">
        <ele>123.900002</ele>
        <time>2015-07-19T07:25:10Z</time>
      </trkpt>
      <trkpt lat="48.99506" lon="0.98316">
        <ele>123.900002</ele>
        <time>2015-07-19T07:25:12Z</time>
      </trkpt>
      <trkpt lat="48.99495" lon="0.98325">
        <ele>123.900002</ele>
        <time>2015-07-19T07:25:14Z</time>
      </trkpt>
      <trkpt lat="48.99483" lon="0.98334">
        <ele>123.800003</ele>
        <time>2015-07-19T07:25:16Z</time>
      </trkpt>
      <trkpt lat="48.99472" lon="0.98344">
        <ele>123.699997</ele>
        <time>2015-07-19T07:25:18Z</time>
      </trkpt>
      <trkpt lat="48.9946" lon="0.98353">
        <ele>123.599998</ele>
        <time>2015-07-19T07:25:20Z</time>
      </trkpt>
      <trkpt lat="48.99449" lon="0.98362">
        <ele>123.5</ele>
        <time>2015-07-19T07:25:22Z</time>
      </trkpt>
      <trkpt lat="48.99437" lon="0.98371">
        <ele>123.400002</ele>
        <time>2015-07-19T07:25:24Z</time>
      </trkpt>
      <trkpt lat="48.99426" lon="0.9838">
        <ele>123.300003</ele>
        <time>2015-07-19T07:25:26Z</time>
      </trkpt>
      <trkpt lat="48.99415" lon="0.9839">
        <ele>123.099998</ele>
        <time>2015-07-19T07:25:28Z</time>
      </trkpt>
      <trkpt lat="48.99405" lon="0.98401">
        <ele>123</ele>
        <time>2015-07-19T07:25:30Z</time>
      </trkpt>
      <trkpt lat="48.99393" lon="0.98412">
        <ele>122.800003</ele>
        <time>2015-07-19T07:25:32Z</time>
      </trkpt>
      <trkpt lat="48.99381" lon="0.98424">
        <ele>122.5</ele>
        <time>2015-07-19T07:25:34Z</time>
      </trkpt>
      <trkpt lat="48.99369" lon="0.98436">
        <ele>122.300003</ele>
        <time>2015-07-19T07:25:36Z</time>
      </trkpt>
      <trkpt lat="48.99358" lon="0.98448">
        <ele>122</ele>
        <time>2015-07-19T07:25:38Z</time>
      </trkpt>
      <trkpt lat="48.99346" lon="0.98459">
        <ele>121.800003</ele>
        <time>2015-07-19T07:25:40Z</time>
      </trkpt>
      <trkpt lat="48.99333" lon="0.98469">
        <ele>121.599998</ele>
        <time>2015-07-19T07:25:42Z</time>
      </trkpt>
      <trkpt lat="48.99321" lon="0.98476">
        <ele>121.300003</ele>
        <time>2015-07-19T07:25:44Z</time>
      </trkpt>
      <trkpt lat="48.99308" lon="0.9848">
        <ele>121</ele>
        <time>2015-07-19T07:25:46Z</time>
      </trkpt>
      <trkpt lat="48.99295" lon="0.98481">
        <ele>120.800003</ele>
        <time>2015-07-19T07:25:48Z</time>
      </trkpt>
      <trkpt lat="48.99282" lon="0.98481">
        <ele>120.5</ele>
        <time>2015-07-19T07:25:50Z</time>
      </trkpt>
      <trkpt lat="48.9927" lon="0.98479">
        <ele>120.300003</ele>
        <time>2015-07-19T07:25:52Z</time>
      </trkpt>
      <trkpt lat="48.99258" lon="0.98475">
        <ele>120.099998</ele>
        <time>2015-07-19T07:25:54Z</time>
      </trkpt>
      <trkpt lat="48.99246" lon="0.98471">
        <ele>119.900002</ele>
        <time>2015-07-19T07:25:56Z</time>
      </trkpt>
      <trkpt lat="48.99235" lon="0.98468">
        <ele>119.800003</ele>
        <time>2015-07-19T07:25:58Z</time>
      </trkpt>
      <trkpt lat="48.99224" lon="0.98464">
        <ele>119.699997</ele>
        <time>2015-07-19T07:26:00Z</time>
      </trkpt>
      <trkpt lat="48.99213" lon="0.98459">
        <ele>119.5</ele>
        <time>2015-07-19T07:26:02Z</time>
      </trkpt>
      <trkpt lat="48.99202" lon="0.98455">
        <ele>119.400002</ele>
        <time>2015-07-19T07:26:04Z</time>
      </trkpt>
      <trkpt lat="48.99192" lon="0.9845">
        <ele>119.400002</ele>
        <time>2015-07-19T07:26:06Z</time>
      </trkpt>
      <trkpt lat="48.99181" lon="0.98444">
        <ele>119.300003</ele>
        <time>2015-07-19T07:26:08Z</time>
      </trkpt>
      <trkpt lat="48.99171" lon="0.98439">
        <ele>119.300003</ele>
        <time>2015-07-19T07:26:10Z</time>
      </trkpt>
      <trkpt lat="48.99161" lon="0.98433">
        <ele>119.300003</ele>
        <time>2015-07-19T07:26:12Z</time>
      </trkpt>
      <trkpt lat="48.99151" lon="0.98426">
        <ele>119.300003</ele>
        <time>2015-07-19T07:26:14Z</time>
      </trkpt>
      <trkpt lat="48.99142" lon="0.98419">
        <ele>119.400002</ele>
        <time>2015-07-19T07:26:16Z</time>
      </trkpt>
      <trkpt lat="48.99132" lon="0.98412">
        <ele>119.5</ele>
        <time>2015-07-19T07:26:18Z</time>
      </trkpt>
      <trkpt lat="48.99123" lon="0.98405">
        <ele>119.599998</ele>
        <time>2015-07-19T07:26:20Z</time>
      </trkpt>
      <trkpt lat="48.99114" lon="0.98396">
        <ele>119.699997</ele>
        <time>2015-07-19T07:26:22Z</time>
      </trkpt>
      <trkpt lat="48.99105" lon="0.98387">
        <ele>119.800003</ele>
        <time>2015-07-19T07:26:24Z</time>
      </trkpt>
      <trkpt lat="48.99095" lon="0.9838">
        <ele>119.900002</ele>
        <time>2015-07-19T07:26:26Z</time>
      </trkpt>
      <trkpt lat="48.99086" lon="0.98372">
        <ele>120</ele>
        <time>2015-07-19T07:26:28Z</time>
      </trkpt>
      <trkpt lat="48.99076" lon="0.98364">
        <ele>120</ele>
        <time>2015-07-19T07:26:30Z</time>
      </trkpt>
      <trkpt lat="48.99066" lon="0.98358">
        <ele>120</ele>
        <time>2015-07-19T07:26:32Z</time>
      </trkpt>
      <trkpt lat="48.99056" lon="0.98353">
        <ele>120.099998</ele>
        <time>2015-07-19T07:26:34Z</time>
      </trkpt>
      <trkpt lat="48.99047" lon="0.98348">
        <ele>120.199997</ele>
        <time>2015-07-19T07:26:36Z</time>
      </trkpt>
      <trkpt lat="48.99037" lon="0.98344">
        <ele>120.199997</ele>
        <time>2015-07-19T07:26:38Z</time>
      </trkpt>
      <trkpt lat="48.99026" lon="0.98341">
        <ele>120.400002</ele>
        <time>2015-07-19T07:26:40Z</time>
      </trkpt>
      <trkpt lat="48.99016" lon="0.98337">
        <ele>120.5</ele>
        <time>2015-07-19T07:26:42Z</time>
      </trkpt>
      <trkpt lat="48.99006" lon="0.98332">
        <ele>120.699997</ele>
        <time>2015-07-19T07:26:44Z</time>
      </trkpt>
      <trkpt lat="48.98997" lon="0.98328">
        <ele>120.800003</ele>
        <time>2015-07-19T07:26:46Z</time>
      </trkpt>
      <trkpt lat="48.98987" lon="0.98323">
        <ele>121</ele>
        <time>2015-07-19T07:26:48Z</time>
      </trkpt>
      <trkpt lat="48.98977" lon="0.98317">
        <ele>121.199997</ele>
        <time>2015-07-19T07:26:50Z</time>
      </trkpt>
      <trkpt lat="48.98968" lon="0.98311">
        <ele>121.300003</ele>
        <time>2015-07-19T07:26:52Z</time>
      </trkpt>
      <trkpt lat="48.98959" lon="0.98304">
        <ele>121.5</ele>
        <time>2015-07-19T07:26:54Z</time>
      </trkpt>
      <trkpt lat="48.9895" lon="0.98298">
        <ele>121.699997</ele>
        <time>2015-07-19T07:26:56Z</time>
      </trkpt>
      <trkpt lat="48.98941" lon="0.98291">
        <ele>121.800003</ele>
        <time>2015-07-19T07:26:58Z</time>
      </trkpt>
      <trkpt lat="48.98933" lon="0.98284">
        <ele>121.900002</ele>
        <time>2015-07-19T07:27:00Z</time>
      </trkpt>
      <trkpt lat="48.98924" lon="0.98278">
        <ele>122</ele>
        <time>2015-07-19T07:27:02Z</time>
      </trkpt>
      <trkpt lat="48.98916" lon="0.98271">
        <ele>122.199997</ele>
        <time>2015-07-19T07:27:04Z</time>
      </trkpt>
      <trkpt lat="48.98908" lon="0.98265">
        <ele>122.400002</ele>
        <time>2015-07-19T07:27:06Z</time>
      </trkpt>
      <trkpt lat="48.989" lon="0.98257">
        <ele>122.599998</ele>
        <time>2015-07-19T07:27:08Z</time>
      </trkpt>
      <trkpt lat="48.98892" lon="0.9825">
        <ele>122.900002</ele>
        <time>2015-07-19T07:27:10Z</time>
      </trkpt>
      <trkpt lat="48.98884" lon="0.98243">
        <ele>123.199997</ele>
        <time>2015-07-19T07:27:12Z</time>
      </trkpt>
      <trkpt lat="48.98877" lon="0.98235">
        <ele>123.400002</ele>
        <time>2015-07-19T07:27:14Z</time>
      </trkpt>
      <trkpt lat="48.98869" lon="0.98228">
        <ele>123.599998</ele>
        <time>2015-07-19T07:27:16Z</time>
      </trkpt>
      <trkpt lat="48.98861" lon="0.9822">
        <ele>123.800003</ele>
        <time>2015-07-19T07:27:18Z</time>
      </trkpt>
      <trkpt lat="48.98853" lon="0.98211">
        <ele>124</ele>
        <time>2015-07-19T07:27:20Z</time>
      </trkpt>
      <trkpt lat="48.98846" lon="0.98202">
        <ele>124.099998</ele>
        <time>2015-07-19T07:27:22Z</time>
      </trkpt>
      <trkpt lat="48.98838" lon="0.98194">
        <ele>124.300003</ele>
        <time>2015-07-19T07:27:24Z</time>
      </trkpt>
      <trkpt lat="48.9883" lon="0.98186">
        <ele>124.400002</ele>
        <time>2015-07-19T07:27:26Z</time>
      </trkpt>
      <trkpt lat="48.98821" lon="0.98178">
        <ele>124.5</ele>
        <time>2015-07-19T07:27:28Z</time>
      </trkpt>
      <trkpt lat="48.98813" lon="0.98171">
        <ele>124.599998</ele>
        <time>2015-07-19T07:27:30Z</time>
      </trkpt>
      <trkpt lat="48.98804" lon="0.98164">
        <ele>124.699997</ele>
        <time>2015-07-19T07:27:32Z</time>
      </trkpt>
      <trkpt lat="48.98795" lon="0.98159">
        <ele>124.800003</ele>
        <time>2015-07-19T07:27:34Z</time>
      </trkpt>
      <trkpt lat="48.98785" lon="0.98154">
        <ele>125</ele>
        <time>2015-07-19T07:27:36Z</time>
      </trkpt>
      <trkpt lat="48.98776" lon="0.98148">
        <ele>125.099998</ele>
        <time>2015-07-19T07:27:38Z</time>
      </trkpt>
      <trkpt lat="48.98766" lon="0.98143">
        <ele>125.199997</ele>
        <time>2015-07-19T07:27:40Z</time>
      </trkpt>
      <trkpt lat="48.98756" lon="0.98138">
        <ele>125.400002</ele>
        <time>2015-07-19T07:27:42Z</time>
      </trkpt>
      <trkpt lat="48.98747" lon="0.98133">
        <ele>125.5</ele>
        <time>2015-07-19T07:27:44Z</time>
      </trkpt>
      <trkpt lat="48.98738" lon="0.98128">
        <ele>125.599998</ele>
        <time>2015-07-19T07:27:46Z</time>
      </trkpt>
      <trkpt lat="48.98728" lon="0.98123">
        <ele>125.699997</ele>
        <time>2015-07-19T07:27:48Z</time>
      </trkpt>
      <trkpt lat="48.98719" lon="0.98118">
        <ele>125.800003</ele>
        <time>2015-07-19T07:27:50Z</time>
      </trkpt>
      <trkpt lat="48.9871" lon="0.98112">
        <ele>126</ele>
        <time>2015-07-19T07:27:52Z</time>
      </trkpt>
      <trkpt lat="48.98701" lon="0.98105">
        <ele>126.199997</ele>
        <time>2015-07-19T07:27:54Z</time>
      </trkpt>
      <trkpt lat="48.98692" lon="0.98098">
        <ele>126.400002</ele>
        <time>2015-07-19T07:27:56Z</time>
      </trkpt>
      <trkpt lat="48.98683" lon="0.98091">
        <ele>126.599998</ele>
        <time>2015-07-19T07:27:58Z</time>
      </trkpt>
      <trkpt lat="48.98674" lon="0.98084">
        <ele>126.699997</ele>
        <time>2015-07-19T07:28:00Z</time>
      </trkpt>
      <trkpt lat="48.98665" lon="0.98076">
        <ele>126.900002</ele>
        <time>2015-07-19T07:28:02Z</time>
      </trkpt>
      <trkpt lat="48.98656" lon="0.98069">
        <ele>127.099998</ele>
        <time>2015-07-19T07:28:04Z</time>
      </trkpt>
      <trkpt lat="48.98646" lon="0.98063">
        <ele>127.300003</ele>
        <time>2015-07-19T07:28:06Z</time>
      </trkpt>
      <trkpt lat="48.98638" lon="0.98057">
        <ele>127.400002</ele>
        <time>2015-07-19T07:28:08Z</time>
      </trkpt>
      <trkpt lat="48.98629" lon="0.98051">
        <ele>127.599998</ele>
        <time>2015-07-19T07:28:10Z</time>
      </trkpt>
      <trkpt lat="48.98621" lon="0.98045">
        <ele>127.900002</ele>
        <time>2015-07-19T07:28:12Z</time>
      </trkpt>
      <trkpt lat="48.98609" lon="0.98039">
        <ele>128.199997</ele>
        <time>2015-07-19T07:28:15Z</time>
      </trkpt>
      <trkpt lat="48.98598" lon="0.98034">
        <ele>128.5</ele>
        <time>2015-07-19T07:28:18Z</time>
      </trkpt>
      <trkpt lat="48.98587" lon="0.98028">
        <ele>128.699997</ele>
        <time>2015-07-19T07:28:21Z</time>
      </trkpt>
      <trkpt lat="48.98578" lon="0.98024">
        <ele>128.800003</ele>
        <time>2015-07-19T07:28:23Z</time>
      </trkpt>
      <trkpt lat="48.98569" lon="0.98018">
        <ele>129</ele>
        <time>2015-07-19T07:28:25Z</time>
      </trkpt>
      <trkpt lat="48.9856" lon="0.98012">
        <ele>129.199997</ele>
        <time>2015-07-19T07:28:27Z</time>
      </trkpt>
      <trkpt lat="48.98551" lon="0.98006">
        <ele>129.399994</ele>
        <time>2015-07-19T07:28:29Z</time>
      </trkpt>
      <trkpt lat="48.98542" lon="0.98">
        <ele>129.699997</ele>
        <time>2015-07-19T07:28:31Z</time>
      </trkpt>
      <trkpt lat="48.98533" lon="0.97993">
        <ele>130</ele>
        <time>2015-07-19T07:28:33Z</time>
      </trkpt>
      <trkpt lat="48.98524" lon="0.97986">
        <ele>130.199997</ele>
        <time>2015-07-19T07:28:35Z</time>
      </trkpt>
      <trkpt lat="48.98516" lon="0.97979">
        <ele>130.399994</ele>
        <time>2015-07-19T07:28:37Z</time>
      </trkpt>
      <trkpt lat="48.98507" lon="0.97971">
        <ele>130.699997</ele>
        <time>2015-07-19T07:28:39Z</time>
      </trkpt>
      <trkpt lat="48.98499" lon="0.97964">
        <ele>131</ele>
        <time>2015-07-19T07:28:41Z</time>
      </trkpt>
      <trkpt lat="48.9849" lon="0.97957">
        <ele>131.199997</ele>
        <time>2015-07-19T07:28:43Z</time>
      </trkpt>
      <trkpt lat="48.9848" lon="0.97953">
        <ele>131.5</ele>
        <time>2015-07-19T07:28:45Z</time>
      </trkpt>
      <trkpt lat="48.98471" lon="0.97951">
        <ele>131.699997</ele>
        <time>2015-07-19T07:28:47Z</time>
      </trkpt>
      <trkpt lat="48.98461" lon="0.97951">
        <ele>131.899994</ele>
        <time>2015-07-19T07:28:49Z</time>
      </trkpt>
      <trkpt lat="48.98451" lon="0.97953">
        <ele>132</ele>
        <time>2015-07-19T07:28:51Z</time>
      </trkpt>
      <trkpt lat="48.98442" lon="0.97956">
        <ele>132.199997</ele>
        <time>2015-07-19T07:28:53Z</time>
      </trkpt>
      <trkpt lat="48.98432" lon="0.9796">
        <ele>132.399994</ele>
        <time>2015-07-19T07:28:55Z</time>
      </trkpt>
      <trkpt lat="48.98422" lon="0.97965">
        <ele>132.600006</ele>
        <time>2015-07-19T07:28:57Z</time>
      </trkpt>
      <trkpt lat="48.98413" lon="0.9797">
        <ele>132.699997</ele>
        <time>2015-07-19T07:28:59Z</time>
      </trkpt>
      <trkpt lat="48.98403" lon="0.97975">
        <ele>132.899994</ele>
        <time>2015-07-19T07:29:01Z</time>
      </trkpt>
      <trkpt lat="48.98393" lon="0.97982">
        <ele>133.100006</ele>
        <time>2015-07-19T07:29:03Z</time>
      </trkpt>
      <trkpt lat="48.98383" lon="0.97988">
        <ele>133.199997</ele>
        <time>2015-07-19T07:29:05Z</time>
      </trkpt>
      <trkpt lat="48.98373" lon="0.97993">
        <ele>133.399994</ele>
        <time>2015-07-19T07:29:07Z</time>
      </trkpt>
      <trkpt lat="48.98362" lon="0.97997">
        <ele>133.5</ele>
        <time>2015-07-19T07:29:09Z</time>
      </trkpt>
      <trkpt lat="48.98352" lon="0.97998">
        <ele>133.600006</ele>
        <time>2015-07-19T07:29:11Z</time>
      </trkpt>
      <trkpt lat="48.98344" lon="0.97989">
        <ele>133.800003</ele>
        <time>2015-07-19T07:29:13Z</time>
      </trkpt>
      <trkpt lat="48.98341" lon="0.97974">
        <ele>134</ele>
        <time>2015-07-19T07:29:15Z</time>
      </trkpt>
      <trkpt lat="48.98341" lon="0.97958">
        <ele>134.100006</ele>
        <time>2015-07-19T07:29:17Z</time>
      </trkpt>
      <trkpt lat="48.9834" lon="0.9794">
        <ele>134.199997</ele>
        <time>2015-07-19T07:29:19Z</time>
      </trkpt>
      <trkpt lat="48.98338" lon="0.97922">
        <ele>134.300003</ele>
        <time>2015-07-19T07:29:21Z</time>
      </trkpt>
      <trkpt lat="48.98332" lon="0.97905">
        <ele>134.399994</ele>
        <time>2015-07-19T07:29:23Z</time>
      </trkpt>
      <trkpt lat="48.98325" lon="0.9789">
        <ele>134.5</ele>
        <time>2015-07-19T07:29:25Z</time>
      </trkpt>
      <trkpt lat="48.98317" lon="0.97875">
        <ele>134.600006</ele>
        <time>2015-07-19T07:29:27Z</time>
      </trkpt>
      <trkpt lat="48.98309" lon="0.97863">
        <ele>134.600006</ele>
        <time>2015-07-19T07:29:29Z</time>
      </trkpt>
      <trkpt lat="48.98302" lon="0.97848">
        <ele>134.699997</ele>
        <time>2015-07-19T07:29:31Z</time>
      </trkpt>
      <trkpt lat="48.98303" lon="0.9783">
        <ele>134.699997</ele>
        <time>2015-07-19T07:29:33Z</time>
      </trkpt>
      <trkpt lat="48.98307" lon="0.97811">
        <ele>134.800003</ele>
        <time>2015-07-19T07:29:35Z</time>
      </trkpt>
      <trkpt lat="48.98311" lon="0.97791">
        <ele>134.800003</ele>
        <time>2015-07-19T07:29:37Z</time>
      </trkpt>
      <trkpt lat="48.98314" lon="0.97771">
        <ele>134.800003</ele>
        <time>2015-07-19T07:29:39Z</time>
      </trkpt>
      <trkpt lat="48.98317" lon="0.97751">
        <ele>134.899994</ele>
        <time>2015-07-19T07:29:41Z</time>
      </trkpt>
      <trkpt lat="48.98321" lon="0.97732">
        <ele>134.899994</ele>
        <time>2015-07-19T07:29:43Z</time>
      </trkpt>
      <trkpt lat="48.98324" lon="0.97713">
        <ele>134.899994</ele>
        <time>2015-07-19T07:29:45Z</time>
      </trkpt>
      <trkpt lat="48.98328" lon="0.97694">
        <ele>134.899994</ele>
        <time>2015-07-19T07:29:47Z</time>
      </trkpt>
      <trkpt lat="48.98332" lon="0.97676">
        <ele>134.899994</ele>
        <time>2015-07-19T07:29:49Z</time>
      </trkpt>
      <trkpt lat="48.98336" lon="0.97658">
        <ele>135</ele>
        <time>2015-07-19T07:29:51Z</time>
      </trkpt>
      <trkpt lat="48.9834" lon="0.97641">
        <ele>135</ele>
        <time>2015-07-19T07:29:53Z</time>
      </trkpt>
      <trkpt lat="48.98343" lon="0.97624">
        <ele>135</ele>
        <time>2015-07-19T07:29:55Z</time>
      </trkpt>
      <trkpt lat="48.98346" lon="0.9761">
        <ele>135.100006</ele>
        <time>2015-07-19T07:29:57Z</time>
      </trkpt>
      <trkpt lat="48.98349" lon="0.97597">
        <ele>135.199997</ele>
        <time>2015-07-19T07:29:59Z</time>
      </trkpt>
      <trkpt lat="48.98354" lon="0.97585">
        <ele>135.199997</ele>
        <time>2015-07-19T07:30:01Z</time>
      </trkpt>
      <trkpt lat="48.98363" lon="0.97576">
        <ele>135.300003</ele>
        <time>2015-07-19T07:30:03Z</time>
      </trkpt>
      <trkpt lat="48.98374" lon="0.97568">
        <ele>135.300003</ele>
        <time>2015-07-19T07:30:05Z</time>
      </trkpt>
      <trkpt lat="48.98385" lon="0.97559">
        <ele>135.399994</ele>
        <time>2015-07-19T07:30:07Z</time>
      </trkpt>
      <trkpt lat="48.98398" lon="0.9755">
        <ele>135.399994</ele>
        <time>2015-07-19T07:30:09Z</time>
      </trkpt>
      <trkpt lat="48.9841" lon="0.97542">
        <ele>135.399994</ele>
        <time>2015-07-19T07:30:11Z</time>
      </trkpt>
      <trkpt lat="48.98422" lon="0.97531">
        <ele>135.5</ele>
        <time>2015-07-19T07:30:13Z</time>
      </trkpt>
      <trkpt lat="48.98434" lon="0.97521">
        <ele>135.600006</ele>
        <time>2015-07-19T07:30:15Z</time>
      </trkpt>
      <trkpt lat="48.98446" lon="0.9751">
        <ele>135.600006</ele>
        <time>2015-07-19T07:30:17Z</time>
      </trkpt>
      <trkpt lat="48.98457" lon="0.975">
        <ele>135.699997</ele>
        <time>2015-07-19T07:30:19Z</time>
      </trkpt>
      <trkpt lat="48.98469" lon="0.97489">
        <ele>135.800003</ele>
        <time>2015-07-19T07:30:21Z</time>
      </trkpt>
      <trkpt lat="48.9848" lon="0.9748">
        <ele>135.800003</ele>
        <time>2015-07-19T07:30:23Z</time>
      </trkpt>
      <trkpt lat="48.98491" lon="0.97472">
        <ele>135.899994</ele>
        <time>2015-07-19T07:30:25Z</time>
      </trkpt>
      <trkpt lat="48.98502" lon="0.97463">
        <ele>136</ele>
        <time>2015-07-19T07:30:27Z</time>
      </trkpt>
      <trkpt lat="48.98514" lon="0.97454">
        <ele>136</ele>
        <time>2015-07-19T07:30:29Z</time>
      </trkpt>
      <trkpt lat="48.98524" lon="0.97446">
        <ele>136.100006</ele>
        <time>2015-07-19T07:30:31Z</time>
      </trkpt>
      <trkpt lat="48.98533" lon="0.97435">
        <ele>136.199997</ele>
        <time>2015-07-19T07:30:33Z</time>
      </trkpt>
      <trkpt lat="48.98538" lon="0.97419">
        <ele>136.199997</ele>
        <time>2015-07-19T07:30:35Z</time>
      </trkpt>
      <trkpt lat="48.98542" lon="0.97402">
        <ele>136.300003</ele>
        <time>2015-07-19T07:30:37Z</time>
      </trkpt>
      <trkpt lat="48.98546" lon="0.97387">
        <ele>136.300003</ele>
        <time>2015-07-19T07:30:39Z</time>
      </trkpt>
      <trkpt lat="48.98549" lon="0.97371">
        <ele>136.300003</ele>
        <time>2015-07-19T07:30:41Z</time>
      </trkpt>
      <trkpt lat="48.98552" lon="0.97355">
        <ele>136.399994</ele>
        <time>2015-07-19T07:30:43Z</time>
      </trkpt>
      <trkpt lat="48.98555" lon="0.97338">
        <ele>136.399994</ele>
        <time>2015-07-19T07:30:45Z</time>
      </trkpt>
      <trkpt lat="48.98557" lon="0.97321">
        <ele>136.5</ele>
        <time>2015-07-19T07:30:47Z</time>
      </trkpt>
      <trkpt lat="48.9856" lon="0.97306">
        <ele>136.600006</ele>
        <time>2015-07-19T07:30:49Z</time>
      </trkpt>
      <trkpt lat="48.98563" lon="0.97291">
        <ele>136.600006</ele>
        <time>2015-07-19T07:30:51Z</time>
      </trkpt>
      <trkpt lat="48.98565" lon="0.97275">
        <ele>136.699997</ele>
        <time>2015-07-19T07:30:53Z</time>
      </trkpt>
      <trkpt lat="48.98568" lon="0.97258">
        <ele>136.699997</ele>
        <time>2015-07-19T07:30:55Z</time>
      </trkpt>
      <trkpt lat="48.9857" lon="0.97242">
        <ele>136.699997</ele>
        <time>2015-07-19T07:30:57Z</time>
      </trkpt>
      <trkpt lat="48.98572" lon="0.97226">
        <ele>136.800003</ele>
        <time>2015-07-19T07:30:59Z</time>
      </trkpt>
      <trkpt lat="48.98575" lon="0.9721">
        <ele>136.800003</ele>
        <time>2015-07-19T07:31:01Z</time>
      </trkpt>
      <trkpt lat="48.98579" lon="0.97194">
        <ele>136.800003</ele>
        <time>2015-07-19T07:31:03Z</time>
      </trkpt>
      <trkpt lat="48.98586" lon="0.97182">
        <ele>136.800003</ele>
        <time>2015-07-19T07:31:05Z</time>
      </trkpt>
      <trkpt lat="48.98594" lon="0.97166">
        <ele>136.899994</ele>
        <time>2015-07-19T07:31:08Z</time>
      </trkpt>
      <trkpt lat="48.98601" lon="0.9715">
        <ele>136.899994</ele>
        <time>2015-07-19T07:31:11Z</time>
      </trkpt>
      <trkpt lat="48.98608" lon="0.97135">
        <ele>136.899994</ele>
        <time>2015-07-19T07:31:14Z</time>
      </trkpt>
      <trkpt lat="48.98612" lon="0.97122">
        <ele>136.899994</ele>
        <time>2015-07-19T07:31:17Z</time>
      </trkpt>
      <trkpt lat="48.98616" lon="0.97108">
        <ele>136.899994</ele>
        <time>2015-07-19T07:31:20Z</time>
      </trkpt>
      <trkpt lat="48.98619" lon="0.97094">
        <ele>137</ele>
        <time>2015-07-19T07:31:23Z</time>
      </trkpt>
      <trkpt lat="48.98622" lon="0.97078">
        <ele>137</ele>
        <time>2015-07-19T07:31:26Z</time>
      </trkpt>
      <trkpt lat="48.98624" lon="0.97065">
        <ele>137</ele>
        <time>2015-07-19T07:31:28Z</time>
      </trkpt>
      <trkpt lat="48.98625" lon="0.97049">
        <ele>137</ele>
        <time>2015-07-19T07:31:30Z</time>
      </trkpt>
      <trkpt lat="48.98624" lon="0.9703">
        <ele>137.100006</ele>
        <time>2015-07-19T07:31:33Z</time>
      </trkpt>
      <trkpt lat="48.98614" lon="0.97024">
        <ele>137.199997</ele>
        <time>2015-07-19T07:31:36Z</time>
      </trkpt>
      <trkpt lat="48.98605" lon="0.97027">
        <ele>137.199997</ele>
        <time>2015-07-19T07:31:38Z</time>
      </trkpt>
      <trkpt lat="48.98592" lon="0.97032">
        <ele>137.300003</ele>
        <time>2015-07-19T07:31:40Z</time>
      </trkpt>
      <trkpt lat="48.9858" lon="0.97038">
        <ele>137.199997</ele>
        <time>2015-07-19T07:31:42Z</time>
      </trkpt>
      <trkpt lat="48.98567" lon="0.97044">
        <ele>137.100006</ele>
        <time>2015-07-19T07:31:44Z</time>
      </trkpt>
      <trkpt lat="48.98556" lon="0.9705">
        <ele>137</ele>
        <time>2015-07-19T07:31:46Z</time>
      </trkpt>
      <trkpt lat="48.98545" lon="0.97056">
        <ele>137</ele>
        <time>2015-07-19T07:31:48Z</time>
      </trkpt>
      <trkpt lat="48.98535" lon="0.9706">
        <ele>136.800003</ele>
        <time>2015-07-19T07:31:50Z</time>
      </trkpt>
      <trkpt lat="48.98525" lon="0.97066">
        <ele>136.600006</ele>
        <time>2015-07-19T07:31:52Z</time>
      </trkpt>
      <trkpt lat="48.98515" lon="0.97071">
        <ele>136.300003</ele>
        <time>2015-07-19T07:31:54Z</time>
      </trkpt>
      <trkpt lat="48.98504" lon="0.97075">
        <ele>136.100006</ele>
        <time>2015-07-19T07:31:56Z</time>
      </trkpt>
      <trkpt lat="48.98494" lon="0.97078">
        <ele>135.899994</ele>
        <time>2015-07-19T07:31:58Z</time>
      </trkpt>
      <trkpt lat="48.98484" lon="0.97081">
        <ele>135.600006</ele>
        <time>2015-07-19T07:32:00Z</time>
      </trkpt>
      <trkpt lat="48.98474" lon="0.97083">
        <ele>135.399994</ele>
        <time>2015-07-19T07:32:02Z</time>
      </trkpt>
      <trkpt lat="48.98463" lon="0.97084">
        <ele>135.199997</ele>
        <time>2015-07-19T07:32:04Z</time>
      </trkpt>
      <trkpt lat="48.98453" lon="0.97086">
        <ele>134.899994</ele>
        <time>2015-07-19T07:32:06Z</time>
      </trkpt>
      <trkpt lat="48.98443" lon="0.97087">
        <ele>134.699997</ele>
        <time>2015-07-19T07:32:08Z</time>
      </trkpt>
      <trkpt lat="48.98433" lon="0.97089">
        <ele>134.399994</ele>
        <time>2015-07-19T07:32:10Z</time>
      </trkpt>
      <trkpt lat="48.98423" lon="0.97091">
        <ele>134.199997</ele>
        <time>2015-07-19T07:32:12Z</time>
      </trkpt>
      <trkpt lat="48.98412" lon="0.97093">
        <ele>134</ele>
        <time>2015-07-19T07:32:14Z</time>
      </trkpt>
      <trkpt lat="48.98401" lon="0.97093">
        <ele>133.800003</ele>
        <time>2015-07-19T07:32:16Z</time>
      </trkpt>
      <trkpt lat="48.98391" lon="0.97094">
        <ele>133.600006</ele>
        <time>2015-07-19T07:32:18Z</time>
      </trkpt>
      <trkpt lat="48.98382" lon="0.97094">
        <ele>133.5</ele>
        <time>2015-07-19T07:32:20Z</time>
      </trkpt>
      <trkpt lat="48.9837" lon="0.97094">
        <ele>133.199997</ele>
        <time>2015-07-19T07:32:23Z</time>
      </trkpt>
      <trkpt lat="48.98361" lon="0.97083">
        <ele>133</ele>
        <time>2015-07-19T07:32:27Z</time>
      </trkpt>
      <trkpt lat="48.98359" lon="0.97064">
        <ele>132.899994</ele>
        <time>2015-07-19T07:32:30Z</time>
      </trkpt>
      <trkpt lat="48.98359" lon="0.9705">
        <ele>132.800003</ele>
        <time>2015-07-19T07:32:32Z</time>
      </trkpt>
      <trkpt lat="48.98358" lon="0.97029">
        <ele>132.699997</ele>
        <time>2015-07-19T07:32:35Z</time>
      </trkpt>
      <trkpt lat="48.98358" lon="0.97013">
        <ele>132.600006</ele>
        <time>2015-07-19T07:32:37Z</time>
      </trkpt>
      <trkpt lat="48.98358" lon="0.96997">
        <ele>132.600006</ele>
        <time>2015-07-19T07:32:39Z</time>
      </trkpt>
      <trkpt lat="48.98356" lon="0.96982">
        <ele>132.699997</ele>
        <time>2015-07-19T07:32:41Z</time>
      </trkpt>
      <trkpt lat="48.98355" lon="0.96967">
        <ele>132.699997</ele>
        <time>2015-07-19T07:32:43Z</time>
      </trkpt>
      <trkpt lat="48.98355" lon="0.96952">
        <ele>132.699997</ele>
        <time>2015-07-19T07:32:45Z</time>
      </trkpt>
      <trkpt lat="48.98354" lon="0.96935">
        <ele>132.800003</ele>
        <time>2015-07-19T07:32:47Z</time>
      </trkpt>
      <trkpt lat="48.98353" lon="0.96919">
        <ele>132.800003</ele>
        <time>2015-07-19T07:32:49Z</time>
      </trkpt>
      <trkpt lat="48.98351" lon="0.96903">
        <ele>132.899994</ele>
        <time>2015-07-19T07:32:51Z</time>
      </trkpt>
      <trkpt lat="48.98348" lon="0.96886">
        <ele>133</ele>
        <time>2015-07-19T07:32:53Z</time>
      </trkpt>
      <trkpt lat="48.98346" lon="0.96868">
        <ele>133.100006</ele>
        <time>2015-07-19T07:32:55Z</time>
      </trkpt>
      <trkpt lat="48.98345" lon="0.96853">
        <ele>133.100006</ele>
        <time>2015-07-19T07:32:57Z</time>
      </trkpt>
      <trkpt lat="48.98344" lon="0.96837">
        <ele>133.199997</ele>
        <time>2015-07-19T07:32:59Z</time>
      </trkpt>
      <trkpt lat="48.98344" lon="0.96819">
        <ele>133.300003</ele>
        <time>2015-07-19T07:33:01Z</time>
      </trkpt>
      <trkpt lat="48.98346" lon="0.96802">
        <ele>133.300003</ele>
        <time>2015-07-19T07:33:03Z</time>
      </trkpt>
      <trkpt lat="48.98348" lon="0.96788">
        <ele>133.300003</ele>
        <time>2015-07-19T07:33:05Z</time>
      </trkpt>
      <trkpt lat="48.9835" lon="0.9677">
        <ele>133.399994</ele>
        <time>2015-07-19T07:33:07Z</time>
      </trkpt>
      <trkpt lat="48.98352" lon="0.96754">
        <ele>133.600006</ele>
        <time>2015-07-19T07:33:09Z</time>
      </trkpt>
      <trkpt lat="48.98353" lon="0.96738">
        <ele>133.699997</ele>
        <time>2015-07-19T07:33:11Z</time>
      </trkpt>
      <trkpt lat="48.98354" lon="0.96723">
        <ele>133.800003</ele>
        <time>2015-07-19T07:33:13Z</time>
      </trkpt>
      <trkpt lat="48.98354" lon="0.96708">
        <ele>133.899994</ele>
        <time>2015-07-19T07:33:15Z</time>
      </trkpt>
      <trkpt lat="48.98355" lon="0.9669">
        <ele>134</ele>
        <time>2015-07-19T07:33:17Z</time>
      </trkpt>
      <trkpt lat="48.98358" lon="0.96673">
        <ele>134.100006</ele>
        <time>2015-07-19T07:33:19Z</time>
      </trkpt>
      <trkpt lat="48.98363" lon="0.96659">
        <ele>134.199997</ele>
        <time>2015-07-19T07:33:21Z</time>
      </trkpt>
      <trkpt lat="48.98367" lon="0.96643">
        <ele>134.199997</ele>
        <time>2015-07-19T07:33:23Z</time>
      </trkpt>
      <trkpt lat="48.98359" lon="0.96628">
        <ele>134.100006</ele>
        <time>2015-07-19T07:33:26Z</time>
      </trkpt>
      <trkpt lat="48.98349" lon="0.9663">
        <ele>133.899994</ele>
        <time>2015-07-19T07:33:28Z</time>
      </trkpt>
      <trkpt lat="48.98339" lon="0.96634">
        <ele>133.800003</ele>
        <time>2015-07-19T07:33:30Z</time>
      </trkpt>
      <trkpt lat="48.98328" lon="0.96637">
        <ele>133.699997</ele>
        <time>2015-07-19T07:33:32Z</time>
      </trkpt>
      <trkpt lat="48.98316" lon="0.96641">
        <ele>133.5</ele>
        <time>2015-07-19T07:33:34Z</time>
      </trkpt>
      <trkpt lat="48.98306" lon="0.96644">
        <ele>133.300003</ele>
        <time>2015-07-19T07:33:36Z</time>
      </trkpt>
      <trkpt lat="48.98295" lon="0.96647">
        <ele>133.100006</ele>
        <time>2015-07-19T07:33:38Z</time>
      </trkpt>
      <trkpt lat="48.98283" lon="0.96651">
        <ele>132.899994</ele>
        <time>2015-07-19T07:33:40Z</time>
      </trkpt>
      <trkpt lat="48.98271" lon="0.96654">
        <ele>132.699997</ele>
        <time>2015-07-19T07:33:42Z</time>
      </trkpt>
      <trkpt lat="48.98258" lon="0.96658">
        <ele>132.5</ele>
        <time>2015-07-19T07:33:44Z</time>
      </trkpt>
      <trkpt lat="48.98244" lon="0.96663">
        <ele>132.199997</ele>
        <time>2015-07-19T07:33:46Z</time>
      </trkpt>
      <trkpt lat="48.9823" lon="0.96668">
        <ele>132</ele>
        <time>2015-07-19T07:33:48Z</time>
      </trkpt>
      <trkpt lat="48.98215" lon="0.96672">
        <ele>131.699997</ele>
        <time>2015-07-19T07:33:50Z</time>
      </trkpt>
      <trkpt lat="48.98201" lon="0.96675">
        <ele>131.399994</ele>
        <time>2015-07-19T07:33:52Z</time>
      </trkpt>
      <trkpt lat="48.98187" lon="0.96677">
        <ele>131.100006</ele>
        <time>2015-07-19T07:33:54Z</time>
      </trkpt>
      <trkpt lat="48.98173" lon="0.96676">
        <ele>130.800003</ele>
        <time>2015-07-19T07:33:56Z</time>
      </trkpt>
      <trkpt lat="48.98158" lon="0.96673">
        <ele>130.300003</ele>
        <time>2015-07-19T07:33:58Z</time>
      </trkpt>
      <trkpt lat="48.98142" lon="0.96667">
        <ele>129.699997</ele>
        <time>2015-07-19T07:34:00Z</time>
      </trkpt>
      <trkpt lat="48.98126" lon="0.96655">
        <ele>129.199997</ele>
        <time>2015-07-19T07:34:02Z</time>
      </trkpt>
      <trkpt lat="48.9811" lon="0.96643">
        <ele>128.600006</ele>
        <time>2015-07-19T07:34:04Z</time>
      </trkpt>
      <trkpt lat="48.98102" lon="0.96638">
        <ele>128.199997</ele>
        <time>2015-07-19T07:34:05Z</time>
      </trkpt>
      <trkpt lat="48.98084" lon="0.96638">
        <ele>127.5</ele>
        <time>2015-07-19T07:34:07Z</time>
      </trkpt>
      <trkpt lat="48.98066" lon="0.96642">
        <ele>126.699997</ele>
        <time>2015-07-19T07:34:09Z</time>
      </trkpt>
      <trkpt lat="48.98058" lon="0.96646">
        <ele>126.300003</ele>
        <time>2015-07-19T07:34:10Z</time>
      </trkpt>
      <trkpt lat="48.98049" lon="0.9665">
        <ele>125.900002</ele>
        <time>2015-07-19T07:34:11Z</time>
      </trkpt>
      <trkpt lat="48.98031" lon="0.96657">
        <ele>125</ele>
        <time>2015-07-19T07:34:13Z</time>
      </trkpt>
      <trkpt lat="48.98022" lon="0.96661">
        <ele>124.599998</ele>
        <time>2015-07-19T07:34:14Z</time>
      </trkpt>
      <trkpt lat="48.98014" lon="0.96665">
        <ele>124.300003</ele>
        <time>2015-07-19T07:34:15Z</time>
      </trkpt>
      <trkpt lat="48.97996" lon="0.96671">
        <ele>123.599998</ele>
        <time>2015-07-19T07:34:17Z</time>
      </trkpt>
      <trkpt lat="48.97979" lon="0.96676">
        <ele>123</ele>
        <time>2015-07-19T07:34:19Z</time>
      </trkpt>
      <trkpt lat="48.97963" lon="0.96681">
        <ele>122.400002</ele>
        <time>2015-07-19T07:34:21Z</time>
      </trkpt>
      <trkpt lat="48.97948" lon="0.96685">
        <ele>121.900002</ele>
        <time>2015-07-19T07:34:23Z</time>
      </trkpt>
      <trkpt lat="48.97932" lon="0.96688">
        <ele>121.5</ele>
        <time>2015-07-19T07:34:25Z</time>
      </trkpt>
      <trkpt lat="48.97915" lon="0.96689">
        <ele>121</ele>
        <time>2015-07-19T07:34:27Z</time>
      </trkpt>
      <trkpt lat="48.97899" lon="0.9669">
        <ele>120.599998</ele>
        <time>2015-07-19T07:34:29Z</time>
      </trkpt>
      <trkpt lat="48.97882" lon="0.96692">
        <ele>120.099998</ele>
        <time>2015-07-19T07:34:31Z</time>
      </trkpt>
      <trkpt lat="48.97866" lon="0.96693">
        <ele>119.699997</ele>
        <time>2015-07-19T07:34:33Z</time>
      </trkpt>
      <trkpt lat="48.9785" lon="0.96694">
        <ele>119.199997</ele>
        <time>2015-07-19T07:34:35Z</time>
      </trkpt>
      <trkpt lat="48.97835" lon="0.96692">
        <ele>118.699997</ele>
        <time>2015-07-19T07:34:37Z</time>
      </trkpt>
      <trkpt lat="48.97824" lon="0.96679">
        <ele>118.099998</ele>
        <time>2015-07-19T07:34:39Z</time>
      </trkpt>
      <trkpt lat="48.97819" lon="0.96658">
        <ele>117.400002</ele>
        <time>2015-07-19T07:34:41Z</time>
      </trkpt>
      <trkpt lat="48.97817" lon="0.96641">
        <ele>116.699997</ele>
        <time>2015-07-19T07:34:43Z</time>
      </trkpt>
      <trkpt lat="48.97817" lon="0.96627">
        <ele>114.099998</ele>
        <time>2015-07-19T07:34:51Z</time>
      </trkpt>
      <trkpt lat="48.97818" lon="0.96643">
        <ele>111.300003</ele>
        <time>2015-07-19T07:35:07Z</time>
      </trkpt>
      <trkpt lat="48.97823" lon="0.9663">
        <ele>110.900002</ele>
        <time>2015-07-19T07:35:15Z</time>
      </trkpt>
      <trkpt lat="48.97824" lon="0.96616">
        <ele>111</ele>
        <time>2015-07-19T07:35:18Z</time>
      </trkpt>
      <trkpt lat="48.97826" lon="0.96601">
        <ele>111.199997</ele>
        <time>2015-07-19T07:35:21Z</time>
      </trkpt>
      <trkpt lat="48.97829" lon="0.96587">
        <ele>111.5</ele>
        <time>2015-07-19T07:35:24Z</time>
      </trkpt>
      <trkpt lat="48.97836" lon="0.96575">
        <ele>111.900002</ele>
        <time>2015-07-19T07:35:27Z</time>
      </trkpt>
      <trkpt lat="48.97842" lon="0.96562">
        <ele>112.400002</ele>
        <time>2015-07-19T07:35:30Z</time>
      </trkpt>
      <trkpt lat="48.9785" lon="0.96553">
        <ele>113</ele>
        <time>2015-07-19T07:35:33Z</time>
      </trkpt>
      <trkpt lat="48.9786" lon="0.96543">
        <ele>113.699997</ele>
        <time>2015-07-19T07:35:36Z</time>
      </trkpt>
      <trkpt lat="48.9787" lon="0.96538">
        <ele>114.300003</ele>
        <time>2015-07-19T07:35:39Z</time>
      </trkpt>
      <trkpt lat="48.97881" lon="0.96537">
        <ele>115.099998</ele>
        <time>2015-07-19T07:35:42Z</time>
      </trkpt>
      <trkpt lat="48.97892" lon="0.96537">
        <ele>116.300003</ele>
        <time>2015-07-19T07:35:47Z</time>
      </trkpt>
      <trkpt lat="48.97903" lon="0.96539">
        <ele>117.099998</ele>
        <time>2015-07-19T07:35:50Z</time>
      </trkpt>
      <trkpt lat="48.97913" lon="0.9654">
        <ele>117.900002</ele>
        <time>2015-07-19T07:35:53Z</time>
      </trkpt>
      <trkpt lat="48.97926" lon="0.96538">
        <ele>118.5</ele>
        <time>2015-07-19T07:35:55Z</time>
      </trkpt>
      <trkpt lat="48.97935" lon="0.96536">
        <ele>119</ele>
        <time>2015-07-19T07:35:57Z</time>
      </trkpt>
      <trkpt lat="48.97948" lon="0.9653">
        <ele>119.699997</ele>
        <time>2015-07-19T07:36:00Z</time>
      </trkpt>
      <trkpt lat="48.97957" lon="0.96521">
        <ele>120.5</ele>
        <time>2015-07-19T07:36:03Z</time>
      </trkpt>
      <trkpt lat="48.97964" lon="0.96508">
        <ele>121.300003</ele>
        <time>2015-07-19T07:36:06Z</time>
      </trkpt>
      <trkpt lat="48.97968" lon="0.96491">
        <ele>122</ele>
        <time>2015-07-19T07:36:09Z</time>
      </trkpt>
      <trkpt lat="48.9797" lon="0.96477">
        <ele>122.699997</ele>
        <time>2015-07-19T07:36:12Z</time>
      </trkpt>
      <trkpt lat="48.97966" lon="0.96461">
        <ele>123.599998</ele>
        <time>2015-07-19T07:36:16Z</time>
      </trkpt>
      <trkpt lat="48.97962" lon="0.96448">
        <ele>124.300003</ele>
        <time>2015-07-19T07:36:19Z</time>
      </trkpt>
      <trkpt lat="48.97958" lon="0.96434">
        <ele>124.900002</ele>
        <time>2015-07-19T07:36:22Z</time>
      </trkpt>
      <trkpt lat="48.97956" lon="0.96419">
        <ele>125.400002</ele>
        <time>2015-07-19T07:36:25Z</time>
      </trkpt>
      <trkpt lat="48.97955" lon="0.96404">
        <ele>126</ele>
        <time>2015-07-19T07:36:28Z</time>
      </trkpt>
      <trkpt lat="48.9796" lon="0.96386">
        <ele>126.5</ele>
        <time>2015-07-19T07:36:31Z</time>
      </trkpt>
      <trkpt lat="48.97966" lon="0.96373">
        <ele>127.099998</ele>
        <time>2015-07-19T07:36:34Z</time>
      </trkpt>
      <trkpt lat="48.97972" lon="0.9636">
        <ele>127.599998</ele>
        <time>2015-07-19T07:36:37Z</time>
      </trkpt>
      <trkpt lat="48.97979" lon="0.96349">
        <ele>128.300003</ele>
        <time>2015-07-19T07:36:40Z</time>
      </trkpt>
      <trkpt lat="48.97985" lon="0.96334">
        <ele>128.800003</ele>
        <time>2015-07-19T07:36:43Z</time>
      </trkpt>
      <trkpt lat="48.97993" lon="0.96319">
        <ele>129.300003</ele>
        <time>2015-07-19T07:36:46Z</time>
      </trkpt>
      <trkpt lat="48.98001" lon="0.96307">
        <ele>129.699997</ele>
        <time>2015-07-19T07:36:49Z</time>
      </trkpt>
      <trkpt lat="48.98008" lon="0.96295">
        <ele>130.199997</ele>
        <time>2015-07-19T07:36:52Z</time>
      </trkpt>
      <trkpt lat="48.98017" lon="0.96277">
        <ele>130.600006</ele>
        <time>2015-07-19T07:36:55Z</time>
      </trkpt>
      <trkpt lat="48.98025" lon="0.96265">
        <ele>131.100006</ele>
        <time>2015-07-19T07:36:58Z</time>
      </trkpt>
      <trkpt lat="48.98033" lon="0.96255">
        <ele>131.399994</ele>
        <time>2015-07-19T07:37:01Z</time>
      </trkpt>
      <trkpt lat="48.98043" lon="0.96242">
        <ele>131.800003</ele>
        <time>2015-07-19T07:37:04Z</time>
      </trkpt>
      <trkpt lat="48.98051" lon="0.96233">
        <ele>132.100006</ele>
        <time>2015-07-19T07:37:06Z</time>
      </trkpt>
      <trkpt lat="48.98062" lon="0.96219">
        <ele>132.5</ele>
        <time>2015-07-19T07:37:09Z</time>
      </trkpt>
      <trkpt lat="48.9807" lon="0.96207">
        <ele>132.800003</ele>
        <time>2015-07-19T07:37:12Z</time>
      </trkpt>
      <trkpt lat="48.98077" lon="0.96196">
        <ele>133.100006</ele>
        <time>2015-07-19T07:37:15Z</time>
      </trkpt>
      <trkpt lat="48.9808" lon="0.96179">
        <ele>133.399994</ele>
        <time>2015-07-19T07:37:18Z</time>
      </trkpt>
      <trkpt lat="48.98084" lon="0.96166">
        <ele>133.699997</ele>
        <time>2015-07-19T07:37:20Z</time>
      </trkpt>
      <trkpt lat="48.98091" lon="0.9615">
        <ele>134</ele>
        <time>2015-07-19T07:37:23Z</time>
      </trkpt>
      <trkpt lat="48.98095" lon="0.96137">
        <ele>134.300003</ele>
        <time>2015-07-19T07:37:25Z</time>
      </trkpt>
      <trkpt lat="48.98103" lon="0.96122">
        <ele>134.699997</ele>
        <time>2015-07-19T07:37:28Z</time>
      </trkpt>
      <trkpt lat="48.98111" lon="0.96108">
        <ele>135</ele>
        <time>2015-07-19T07:37:31Z</time>
      </trkpt>
      <trkpt lat="48.98117" lon="0.96096">
        <ele>135.199997</ele>
        <time>2015-07-19T07:37:33Z</time>
      </trkpt>
      <trkpt lat="48.98124" lon="0.96079">
        <ele>135.5</ele>
        <time>2015-07-19T07:37:36Z</time>
      </trkpt>
      <trkpt lat="48.98132" lon="0.96065">
        <ele>135.899994</ele>
        <time>2015-07-19T07:37:39Z</time>
      </trkpt>
      <trkpt lat="48.98137" lon="0.96053">
        <ele>136.100006</ele>
        <time>2015-07-19T07:37:41Z</time>
      </trkpt>
      <trkpt lat="48.98143" lon="0.96043">
        <ele>136.399994</ele>
        <time>2015-07-19T07:37:43Z</time>
      </trkpt>
      <trkpt lat="48.98149" lon="0.96032">
        <ele>136.600006</ele>
        <time>2015-07-19T07:37:45Z</time>
      </trkpt>
      <trkpt lat="48.98159" lon="0.96026">
        <ele>136.899994</ele>
        <time>2015-07-19T07:37:48Z</time>
      </trkpt>
      <trkpt lat="48.98169" lon="0.96036">
        <ele>137.100006</ele>
        <time>2015-07-19T07:37:51Z</time>
      </trkpt>
      <trkpt lat="48.98177" lon="0.96044">
        <ele>137.300003</ele>
        <time>2015-07-19T07:37:53Z</time>
      </trkpt>
      <trkpt lat="48.98185" lon="0.96051">
        <ele>137.399994</ele>
        <time>2015-07-19T07:37:55Z</time>
      </trkpt>
      <trkpt lat="48.98194" lon="0.96058">
        <ele>137.5</ele>
        <time>2015-07-19T07:37:57Z</time>
      </trkpt>
      <trkpt lat="48.98203" lon="0.96064">
        <ele>137.600006</ele>
        <time>2015-07-19T07:37:59Z</time>
      </trkpt>
      <trkpt lat="48.98214" lon="0.9607">
        <ele>137.699997</ele>
        <time>2015-07-19T07:38:01Z</time>
      </trkpt>
      <trkpt lat="48.98224" lon="0.96076">
        <ele>137.699997</ele>
        <time>2015-07-19T07:38:03Z</time>
      </trkpt>
      <trkpt lat="48.98235" lon="0.96085">
        <ele>137.800003</ele>
        <time>2015-07-19T07:38:05Z</time>
      </trkpt>
      <trkpt lat="48.98244" lon="0.96095">
        <ele>137.899994</ele>
        <time>2015-07-19T07:38:07Z</time>
      </trkpt>
      <trkpt lat="48.98252" lon="0.96108">
        <ele>137.899994</ele>
        <time>2015-07-19T07:38:09Z</time>
      </trkpt>
      <trkpt lat="48.98259" lon="0.96123">
        <ele>138</ele>
        <time>2015-07-19T07:38:11Z</time>
      </trkpt>
      <trkpt lat="48.98265" lon="0.9614">
        <ele>137.899994</ele>
        <time>2015-07-19T07:38:13Z</time>
      </trkpt>
      <trkpt lat="48.98271" lon="0.96157">
        <ele>137.899994</ele>
        <time>2015-07-19T07:38:15Z</time>
      </trkpt>
      <trkpt lat="48.98276" lon="0.96174">
        <ele>137.899994</ele>
        <time>2015-07-19T07:38:17Z</time>
      </trkpt>
      <trkpt lat="48.98282" lon="0.96191">
        <ele>137.800003</ele>
        <time>2015-07-19T07:38:19Z</time>
      </trkpt>
      <trkpt lat="48.98287" lon="0.96209">
        <ele>137.699997</ele>
        <time>2015-07-19T07:38:21Z</time>
      </trkpt>
      <trkpt lat="48.98292" lon="0.96224">
        <ele>137.600006</ele>
        <time>2015-07-19T07:38:23Z</time>
      </trkpt>
      <trkpt lat="48.98299" lon="0.96235">
        <ele>137.5</ele>
        <time>2015-07-19T07:38:25Z</time>
      </trkpt>
      <trkpt lat="48.98306" lon="0.96245">
        <ele>137.399994</ele>
        <time>2015-07-19T07:38:27Z</time>
      </trkpt>
      <trkpt lat="48.98312" lon="0.9626">
        <ele>137.300003</ele>
        <time>2015-07-19T07:38:30Z</time>
      </trkpt>
      <trkpt lat="48.98306" lon="0.96246">
        <ele>136.699997</ele>
        <time>2015-07-19T07:38:44Z</time>
      </trkpt>
      <trkpt lat="48.983" lon="0.9623">
        <ele>136.600006</ele>
        <time>2015-07-19T07:38:47Z</time>
      </trkpt>
      <trkpt lat="48.98294" lon="0.96217">
        <ele>136.5</ele>
        <time>2015-07-19T07:38:49Z</time>
      </trkpt>
      <trkpt lat="48.98289" lon="0.96202">
        <ele>136.5</ele>
        <time>2015-07-19T07:38:51Z</time>
      </trkpt>
      <trkpt lat="48.98285" lon="0.96186">
        <ele>136.399994</ele>
        <time>2015-07-19T07:38:53Z</time>
      </trkpt>
      <trkpt lat="48.9828" lon="0.9617">
        <ele>136.399994</ele>
        <time>2015-07-19T07:38:55Z</time>
      </trkpt>
      <trkpt lat="48.98276" lon="0.96153">
        <ele>136.399994</ele>
        <time>2015-07-19T07:38:57Z</time>
      </trkpt>
      <trkpt lat="48.98271" lon="0.96137">
        <ele>136.399994</ele>
        <time>2015-07-19T07:38:59Z</time>
      </trkpt>
      <trkpt lat="48.98266" lon="0.96123">
        <ele>136.300003</ele>
        <time>2015-07-19T07:39:01Z</time>
      </trkpt>
      <trkpt lat="48.9826" lon="0.96108">
        <ele>136.300003</ele>
        <time>2015-07-19T07:39:03Z</time>
      </trkpt>
      <trkpt lat="48.98254" lon="0.96095">
        <ele>136.399994</ele>
        <time>2015-07-19T07:39:05Z</time>
      </trkpt>
      <trkpt lat="48.98246" lon="0.96084">
        <ele>136.5</ele>
        <time>2015-07-19T07:39:07Z</time>
      </trkpt>
      <trkpt lat="48.98237" lon="0.96074">
        <ele>136.5</ele>
        <time>2015-07-19T07:39:09Z</time>
      </trkpt>
      <trkpt lat="48.98227" lon="0.96066">
        <ele>136.600006</ele>
        <time>2015-07-19T07:39:11Z</time>
      </trkpt>
      <trkpt lat="48.98217" lon="0.9606">
        <ele>136.699997</ele>
        <time>2015-07-19T07:39:13Z</time>
      </trkpt>
      <trkpt lat="48.98207" lon="0.96053">
        <ele>136.800003</ele>
        <time>2015-07-19T07:39:15Z</time>
      </trkpt>
      <trkpt lat="48.98197" lon="0.96045">
        <ele>136.899994</ele>
        <time>2015-07-19T07:39:17Z</time>
      </trkpt>
      <trkpt lat="48.98188" lon="0.96036">
        <ele>137</ele>
        <time>2015-07-19T07:39:19Z</time>
      </trkpt>
      <trkpt lat="48.98179" lon="0.96027">
        <ele>137.199997</ele>
        <time>2015-07-19T07:39:21Z</time>
      </trkpt>
      <trkpt lat="48.9817" lon="0.96018">
        <ele>137.399994</ele>
        <time>2015-07-19T07:39:23Z</time>
      </trkpt>
      <trkpt lat="48.98161" lon="0.96006">
        <ele>137.5</ele>
        <time>2015-07-19T07:39:25Z</time>
      </trkpt>
      <trkpt lat="48.98153" lon="0.95994">
        <ele>137.699997</ele>
        <time>2015-07-19T07:39:27Z</time>
      </trkpt>
      <trkpt lat="48.98145" lon="0.95981">
        <ele>137.800003</ele>
        <time>2015-07-19T07:39:29Z</time>
      </trkpt>
      <trkpt lat="48.98139" lon="0.95967">
        <ele>137.899994</ele>
        <time>2015-07-19T07:39:31Z</time>
      </trkpt>
      <trkpt lat="48.98134" lon="0.95951">
        <ele>138</ele>
        <time>2015-07-19T07:39:33Z</time>
      </trkpt>
      <trkpt lat="48.9813" lon="0.95936">
        <ele>138.100006</ele>
        <time>2015-07-19T07:39:35Z</time>
      </trkpt>
      <trkpt lat="48.98127" lon="0.9592">
        <ele>138.100006</ele>
        <time>2015-07-19T07:39:37Z</time>
      </trkpt>
      <trkpt lat="48.98125" lon="0.95904">
        <ele>138.199997</ele>
        <time>2015-07-19T07:39:39Z</time>
      </trkpt>
      <trkpt lat="48.98124" lon="0.9589">
        <ele>138.199997</ele>
        <time>2015-07-19T07:39:41Z</time>
      </trkpt>
      <trkpt lat="48.98122" lon="0.9587">
        <ele>138.199997</ele>
        <time>2015-07-19T07:39:44Z</time>
      </trkpt>
      <trkpt lat="48.98113" lon="0.95859">
        <ele>138.100006</ele>
        <time>2015-07-19T07:39:48Z</time>
      </trkpt>
      <trkpt lat="48.981" lon="0.95852">
        <ele>138.100006</ele>
        <time>2015-07-19T07:39:51Z</time>
      </trkpt>
      <trkpt lat="48.9809" lon="0.95842">
        <ele>138.100006</ele>
        <time>2015-07-19T07:39:53Z</time>
      </trkpt>
      <trkpt lat="48.9808" lon="0.95832">
        <ele>138.100006</ele>
        <time>2015-07-19T07:39:55Z</time>
      </trkpt>
      <trkpt lat="48.98069" lon="0.95822">
        <ele>138.100006</ele>
        <time>2015-07-19T07:39:57Z</time>
      </trkpt>
      <trkpt lat="48.98059" lon="0.95812">
        <ele>138</ele>
        <time>2015-07-19T07:39:59Z</time>
      </trkpt>
      <trkpt lat="48.98048" lon="0.95801">
        <ele>138</ele>
        <time>2015-07-19T07:40:01Z</time>
      </trkpt>
      <trkpt lat="48.98038" lon="0.95792">
        <ele>137.899994</ele>
        <time>2015-07-19T07:40:03Z</time>
      </trkpt>
      <trkpt lat="48.98027" lon="0.95781">
        <ele>137.800003</ele>
        <time>2015-07-19T07:40:05Z</time>
      </trkpt>
      <trkpt lat="48.98017" lon="0.95771">
        <ele>137.699997</ele>
        <time>2015-07-19T07:40:07Z</time>
      </trkpt>
      <trkpt lat="48.98006" lon="0.95762">
        <ele>137.600006</ele>
        <time>2015-07-19T07:40:09Z</time>
      </trkpt>
      <trkpt lat="48.97996" lon="0.95751">
        <ele>137.5</ele>
        <time>2015-07-19T07:40:11Z</time>
      </trkpt>
      <trkpt lat="48.97985" lon="0.95742">
        <ele>137.399994</ele>
        <time>2015-07-19T07:40:13Z</time>
      </trkpt>
      <trkpt lat="48.97975" lon="0.95731">
        <ele>137.300003</ele>
        <time>2015-07-19T07:40:15Z</time>
      </trkpt>
      <trkpt lat="48.97965" lon="0.95722">
        <ele>137.199997</ele>
        <time>2015-07-19T07:40:17Z</time>
      </trkpt>
      <trkpt lat="48.97955" lon="0.95713">
        <ele>137.100006</ele>
        <time>2015-07-19T07:40:19Z</time>
      </trkpt>
      <trkpt lat="48.97946" lon="0.9571">
        <ele>137</ele>
        <time>2015-07-19T07:40:21Z</time>
      </trkpt>
      <trkpt lat="48.97938" lon="0.957">
        <ele>136.899994</ele>
        <time>2015-07-19T07:40:24Z</time>
      </trkpt>
      <trkpt lat="48.97929" lon="0.95691">
        <ele>136.800003</ele>
        <time>2015-07-19T07:40:27Z</time>
      </trkpt>
      <trkpt lat="48.97919" lon="0.95683">
        <ele>136.199997</ele>
        <time>2015-07-19T07:40:32Z</time>
      </trkpt>
      <trkpt lat="48.97911" lon="0.95677">
        <ele>135.300003</ele>
        <time>2015-07-19T07:40:35Z</time>
      </trkpt>
      <trkpt lat="48.97906" lon="0.95661">
        <ele>132.5</ele>
        <time>2015-07-19T07:40:42Z</time>
      </trkpt>
      <trkpt lat="48.97909" lon="0.95643">
        <ele>131.199997</ele>
        <time>2015-07-19T07:40:46Z</time>
      </trkpt>
      <trkpt lat="48.97912" lon="0.95626">
        <ele>130.5</ele>
        <time>2015-07-19T07:40:49Z</time>
      </trkpt>
      <trkpt lat="48.97915" lon="0.95611">
        <ele>129.899994</ele>
        <time>2015-07-19T07:40:52Z</time>
      </trkpt>
      <trkpt lat="48.97919" lon="0.95595">
        <ele>129.5</ele>
        <time>2015-07-19T07:40:55Z</time>
      </trkpt>
      <trkpt lat="48.97923" lon="0.95579">
        <ele>129.300003</ele>
        <time>2015-07-19T07:40:58Z</time>
      </trkpt>
      <trkpt lat="48.97927" lon="0.95562">
        <ele>129.100006</ele>
        <time>2015-07-19T07:41:01Z</time>
      </trkpt>
      <trkpt lat="48.97931" lon="0.95546">
        <ele>129</ele>
        <time>2015-07-19T07:41:04Z</time>
      </trkpt>
      <trkpt lat="48.97933" lon="0.95529">
        <ele>128.899994</ele>
        <time>2015-07-19T07:41:07Z</time>
      </trkpt>
      <trkpt lat="48.97937" lon="0.95514">
        <ele>128.800003</ele>
        <time>2015-07-19T07:41:10Z</time>
      </trkpt>
      <trkpt lat="48.97945" lon="0.95501">
        <ele>128.899994</ele>
        <time>2015-07-19T07:41:14Z</time>
      </trkpt>
      <trkpt lat="48.97951" lon="0.9549">
        <ele>128.899994</ele>
        <time>2015-07-19T07:41:17Z</time>
      </trkpt>
      <trkpt lat="48.97958" lon="0.95474">
        <ele>129.300003</ele>
        <time>2015-07-19T07:41:21Z</time>
      </trkpt>
      <trkpt lat="48.97965" lon="0.95459">
        <ele>129.5</ele>
        <time>2015-07-19T07:41:24Z</time>
      </trkpt>
      <trkpt lat="48.97974" lon="0.95453">
        <ele>130.100006</ele>
        <time>2015-07-19T07:41:28Z</time>
      </trkpt>
      <trkpt lat="48.97983" lon="0.95456">
        <ele>131.100006</ele>
        <time>2015-07-19T07:41:33Z</time>
      </trkpt>
      <trkpt lat="48.97996" lon="0.95457">
        <ele>131.899994</ele>
        <time>2015-07-19T07:41:37Z</time>
      </trkpt>
      <trkpt lat="48.97988" lon="0.95446">
        <ele>133.300003</ele>
        <time>2015-07-19T07:41:46Z</time>
      </trkpt>
      <trkpt lat="48.97977" lon="0.95445">
        <ele>133.600006</ele>
        <time>2015-07-19T07:41:49Z</time>
      </trkpt>
      <trkpt lat="48.97968" lon="0.95455">
        <ele>133.699997</ele>
        <time>2015-07-19T07:41:52Z</time>
      </trkpt>
      <trkpt lat="48.97961" lon="0.9547">
        <ele>133.5</ele>
        <time>2015-07-19T07:41:55Z</time>
      </trkpt>
      <trkpt lat="48.97955" lon="0.95483">
        <ele>133.100006</ele>
        <time>2015-07-19T07:41:57Z</time>
      </trkpt>
      <trkpt lat="48.97949" lon="0.95493">
        <ele>132.600006</ele>
        <time>2015-07-19T07:42:00Z</time>
      </trkpt>
      <trkpt lat="48.97941" lon="0.95502">
        <ele>132</ele>
        <time>2015-07-19T07:42:04Z</time>
      </trkpt>
      <trkpt lat="48.97939" lon="0.95488">
        <ele>131.5</ele>
        <time>2015-07-19T07:42:08Z</time>
      </trkpt>
      <trkpt lat="48.97938" lon="0.95474">
        <ele>131.199997</ele>
        <time>2015-07-19T07:42:11Z</time>
      </trkpt>
      <trkpt lat="48.97936" lon="0.95461">
        <ele>131.100006</ele>
        <time>2015-07-19T07:42:14Z</time>
      </trkpt>
      <trkpt lat="48.97935" lon="0.95445">
        <ele>131</ele>
        <time>2015-07-19T07:42:17Z</time>
      </trkpt>
      <trkpt lat="48.97935" lon="0.95429">
        <ele>131.100006</ele>
        <time>2015-07-19T07:42:20Z</time>
      </trkpt>
      <trkpt lat="48.97935" lon="0.95414">
        <ele>131.100006</ele>
        <time>2015-07-19T07:42:23Z</time>
      </trkpt>
      <trkpt lat="48.97934" lon="0.954">
        <ele>131.199997</ele>
        <time>2015-07-19T07:42:26Z</time>
      </trkpt>
      <trkpt lat="48.97933" lon="0.95386">
        <ele>131.5</ele>
        <time>2015-07-19T07:42:29Z</time>
      </trkpt>
      <trkpt lat="48.97934" lon="0.9537">
        <ele>131.800003</ele>
        <time>2015-07-19T07:42:32Z</time>
      </trkpt>
      <trkpt lat="48.97934" lon="0.95355">
        <ele>132</ele>
        <time>2015-07-19T07:42:35Z</time>
      </trkpt>
      <trkpt lat="48.97934" lon="0.9534">
        <ele>132.199997</ele>
        <time>2015-07-19T07:42:38Z</time>
      </trkpt>
      <trkpt lat="48.97935" lon="0.95325">
        <ele>132.5</ele>
        <time>2015-07-19T07:42:41Z</time>
      </trkpt>
      <trkpt lat="48.97937" lon="0.95309">
        <ele>132.699997</ele>
        <time>2015-07-19T07:42:44Z</time>
      </trkpt>
      <trkpt lat="48.97939" lon="0.95293">
        <ele>133</ele>
        <time>2015-07-19T07:42:47Z</time>
      </trkpt>
      <trkpt lat="48.97941" lon="0.95277">
        <ele>133.199997</ele>
        <time>2015-07-19T07:42:50Z</time>
      </trkpt>
      <trkpt lat="48.97945" lon="0.95262">
        <ele>133.5</ele>
        <time>2015-07-19T07:42:53Z</time>
      </trkpt>
      <trkpt lat="48.97949" lon="0.95246">
        <ele>133.600006</ele>
        <time>2015-07-19T07:42:56Z</time>
      </trkpt>
      <trkpt lat="48.97953" lon="0.9523">
        <ele>133.800003</ele>
        <time>2015-07-19T07:42:59Z</time>
      </trkpt>
      <trkpt lat="48.97957" lon="0.95214">
        <ele>134</ele>
        <time>2015-07-19T07:43:02Z</time>
      </trkpt>
      <trkpt lat="48.97961" lon="0.95198">
        <ele>134.300003</ele>
        <time>2015-07-19T07:43:05Z</time>
      </trkpt>
      <trkpt lat="48.97964" lon="0.95182">
        <ele>134.600006</ele>
        <time>2015-07-19T07:43:08Z</time>
      </trkpt>
      <trkpt lat="48.97968" lon="0.95165">
        <ele>134.899994</ele>
        <time>2015-07-19T07:43:11Z</time>
      </trkpt>
      <trkpt lat="48.97973" lon="0.95149">
        <ele>135.199997</ele>
        <time>2015-07-19T07:43:14Z</time>
      </trkpt>
      <trkpt lat="48.97978" lon="0.95135">
        <ele>135.5</ele>
        <time>2015-07-19T07:43:17Z</time>
      </trkpt>
      <trkpt lat="48.97984" lon="0.95121">
        <ele>135.899994</ele>
        <time>2015-07-19T07:43:21Z</time>
      </trkpt>
      <trkpt lat="48.97978" lon="0.95109">
        <ele>136.300003</ele>
        <time>2015-07-19T07:43:28Z</time>
      </trkpt>
      <trkpt lat="48.9797" lon="0.95103">
        <ele>136.5</ele>
        <time>2015-07-19T07:43:31Z</time>
      </trkpt>
      <trkpt lat="48.97959" lon="0.95096">
        <ele>136.600006</ele>
        <time>2015-07-19T07:43:34Z</time>
      </trkpt>
      <trkpt lat="48.97948" lon="0.95089">
        <ele>136.699997</ele>
        <time>2015-07-19T07:43:37Z</time>
      </trkpt>
      <trkpt lat="48.97938" lon="0.95082">
        <ele>136.699997</ele>
        <time>2015-07-19T07:43:40Z</time>
      </trkpt>
      <trkpt lat="48.97929" lon="0.95075">
        <ele>136.800003</ele>
        <time>2015-07-19T07:43:43Z</time>
      </trkpt>
      <trkpt lat="48.97918" lon="0.95068">
        <ele>136.899994</ele>
        <time>2015-07-19T07:43:46Z</time>
      </trkpt>
      <trkpt lat="48.97906" lon="0.95059">
        <ele>136.899994</ele>
        <time>2015-07-19T07:43:49Z</time>
      </trkpt>
      <trkpt lat="48.97897" lon="0.95053">
        <ele>136.899994</ele>
        <time>2015-07-19T07:43:51Z</time>
      </trkpt>
      <trkpt lat="48.97889" lon="0.95047">
        <ele>136.899994</ele>
        <time>2015-07-19T07:43:53Z</time>
      </trkpt>
      <trkpt lat="48.9788" lon="0.95042">
        <ele>137</ele>
        <time>2015-07-19T07:43:55Z</time>
      </trkpt>
      <trkpt lat="48.97872" lon="0.95035">
        <ele>137</ele>
        <time>2015-07-19T07:43:57Z</time>
      </trkpt>
      <trkpt lat="48.97863" lon="0.9503">
        <ele>137.100006</ele>
        <time>2015-07-19T07:43:59Z</time>
      </trkpt>
      <trkpt lat="48.97854" lon="0.95023">
        <ele>137.199997</ele>
        <time>2015-07-19T07:44:01Z</time>
      </trkpt>
      <trkpt lat="48.97845" lon="0.95017">
        <ele>137.300003</ele>
        <time>2015-07-19T07:44:03Z</time>
      </trkpt>
      <trkpt lat="48.97836" lon="0.95011">
        <ele>137.300003</ele>
        <time>2015-07-19T07:44:05Z</time>
      </trkpt>
      <trkpt lat="48.97827" lon="0.95005">
        <ele>137.399994</ele>
        <time>2015-07-19T07:44:07Z</time>
      </trkpt>
      <trkpt lat="48.97818" lon="0.94998">
        <ele>137.5</ele>
        <time>2015-07-19T07:44:09Z</time>
      </trkpt>
      <trkpt lat="48.97808" lon="0.94992">
        <ele>137.5</ele>
        <time>2015-07-19T07:44:11Z</time>
      </trkpt>
      <trkpt lat="48.97799" lon="0.94986">
        <ele>137.600006</ele>
        <time>2015-07-19T07:44:13Z</time>
      </trkpt>
      <trkpt lat="48.97789" lon="0.9498">
        <ele>137.800003</ele>
        <time>2015-07-19T07:44:15Z</time>
      </trkpt>
      <trkpt lat="48.9778" lon="0.94973">
        <ele>137.899994</ele>
        <time>2015-07-19T07:44:17Z</time>
      </trkpt>
      <trkpt lat="48.9777" lon="0.94967">
        <ele>138</ele>
        <time>2015-07-19T07:44:19Z</time>
      </trkpt>
      <trkpt lat="48.9776" lon="0.9496">
        <ele>138.199997</ele>
        <time>2015-07-19T07:44:21Z</time>
      </trkpt>
      <trkpt lat="48.9775" lon="0.94954">
        <ele>138.300003</ele>
        <time>2015-07-19T07:44:23Z</time>
      </trkpt>
      <trkpt lat="48.97741" lon="0.94947">
        <ele>138.399994</ele>
        <time>2015-07-19T07:44:25Z</time>
      </trkpt>
      <trkpt lat="48.97731" lon="0.94941">
        <ele>138.600006</ele>
        <time>2015-07-19T07:44:27Z</time>
      </trkpt>
      <trkpt lat="48.97722" lon="0.94935">
        <ele>138.899994</ele>
        <time>2015-07-19T07:44:29Z</time>
      </trkpt>
      <trkpt lat="48.97712" lon="0.94929">
        <ele>139.100006</ele>
        <time>2015-07-19T07:44:31Z</time>
      </trkpt>
      <trkpt lat="48.97702" lon="0.94924">
        <ele>139.300003</ele>
        <time>2015-07-19T07:44:33Z</time>
      </trkpt>
      <trkpt lat="48.97692" lon="0.94918">
        <ele>139.5</ele>
        <time>2015-07-19T07:44:35Z</time>
      </trkpt>
      <trkpt lat="48.97682" lon="0.94913">
        <ele>139.699997</ele>
        <time>2015-07-19T07:44:37Z</time>
      </trkpt>
      <trkpt lat="48.97671" lon="0.94908">
        <ele>139.899994</ele>
        <time>2015-07-19T07:44:39Z</time>
      </trkpt>
      <trkpt lat="48.97661" lon="0.94904">
        <ele>140.100006</ele>
        <time>2015-07-19T07:44:41Z</time>
      </trkpt>
      <trkpt lat="48.9765" lon="0.949">
        <ele>140.300003</ele>
        <time>2015-07-19T07:44:43Z</time>
      </trkpt>
      <trkpt lat="48.97639" lon="0.94896">
        <ele>140.5</ele>
        <time>2015-07-19T07:44:45Z</time>
      </trkpt>
      <trkpt lat="48.97629" lon="0.94893">
        <ele>140.699997</ele>
        <time>2015-07-19T07:44:47Z</time>
      </trkpt>
      <trkpt lat="48.97618" lon="0.9489">
        <ele>140.800003</ele>
        <time>2015-07-19T07:44:49Z</time>
      </trkpt>
      <trkpt lat="48.97607" lon="0.94887">
        <ele>141</ele>
        <time>2015-07-19T07:44:51Z</time>
      </trkpt>
      <trkpt lat="48.97596" lon="0.94885">
        <ele>141.100006</ele>
        <time>2015-07-19T07:44:53Z</time>
      </trkpt>
      <trkpt lat="48.97585" lon="0.94882">
        <ele>141.300003</ele>
        <time>2015-07-19T07:44:55Z</time>
      </trkpt>
      <trkpt lat="48.97574" lon="0.94881">
        <ele>141.5</ele>
        <time>2015-07-19T07:44:57Z</time>
      </trkpt>
      <trkpt lat="48.97563" lon="0.94881">
        <ele>141.600006</ele>
        <time>2015-07-19T07:44:59Z</time>
      </trkpt>
      <trkpt lat="48.97555" lon="0.94889">
        <ele>141.699997</ele>
        <time>2015-07-19T07:45:01Z</time>
      </trkpt>
      <trkpt lat="48.9755" lon="0.94904">
        <ele>141.800003</ele>
        <time>2015-07-19T07:45:03Z</time>
      </trkpt>
      <trkpt lat="48.97548" lon="0.94921">
        <ele>141.899994</ele>
        <time>2015-07-19T07:45:05Z</time>
      </trkpt>
      <trkpt lat="48.97547" lon="0.94939">
        <ele>142</ele>
        <time>2015-07-19T07:45:07Z</time>
      </trkpt>
      <trkpt lat="48.97546" lon="0.94957">
        <ele>142.100006</ele>
        <time>2015-07-19T07:45:09Z</time>
      </trkpt>
      <trkpt lat="48.97545" lon="0.94976">
        <ele>142.100006</ele>
        <time>2015-07-19T07:45:11Z</time>
      </trkpt>
      <trkpt lat="48.97545" lon="0.94994">
        <ele>142.199997</ele>
        <time>2015-07-19T07:45:13Z</time>
      </trkpt>
      <trkpt lat="48.97545" lon="0.95013">
        <ele>142.199997</ele>
        <time>2015-07-19T07:45:15Z</time>
      </trkpt>
      <trkpt lat="48.97545" lon="0.95032">
        <ele>142.300003</ele>
        <time>2015-07-19T07:45:17Z</time>
      </trkpt>
      <trkpt lat="48.97545" lon="0.9505">
        <ele>142.300003</ele>
        <time>2015-07-19T07:45:19Z</time>
      </trkpt>
      <trkpt lat="48.97544" lon="0.95069">
        <ele>142.300003</ele>
        <time>2015-07-19T07:45:21Z</time>
      </trkpt>
      <trkpt lat="48.97544" lon="0.95089">
        <ele>142.399994</ele>
        <time>2015-07-19T07:45:23Z</time>
      </trkpt>
      <trkpt lat="48.97544" lon="0.95108">
        <ele>142.399994</ele>
        <time>2015-07-19T07:45:25Z</time>
      </trkpt>
      <trkpt lat="48.97543" lon="0.95128">
        <ele>142.399994</ele>
        <time>2015-07-19T07:45:27Z</time>
      </trkpt>
      <trkpt lat="48.97542" lon="0.95147">
        <ele>142.399994</ele>
        <time>2015-07-19T07:45:29Z</time>
      </trkpt>
      <trkpt lat="48.97542" lon="0.95166">
        <ele>142.5</ele>
        <time>2015-07-19T07:45:31Z</time>
      </trkpt>
      <trkpt lat="48.97542" lon="0.95185">
        <ele>142.5</ele>
        <time>2015-07-19T07:45:33Z</time>
      </trkpt>
      <trkpt lat="48.97541" lon="0.95204">
        <ele>142.5</ele>
        <time>2015-07-19T07:45:35Z</time>
      </trkpt>
      <trkpt lat="48.97541" lon="0.95224">
        <ele>142.5</ele>
        <time>2015-07-19T07:45:37Z</time>
      </trkpt>
      <trkpt lat="48.97541" lon="0.95244">
        <ele>142.5</ele>
        <time>2015-07-19T07:45:39Z</time>
      </trkpt>
      <trkpt lat="48.9754" lon="0.95264">
        <ele>142.5</ele>
        <time>2015-07-19T07:45:41Z</time>
      </trkpt>
      <trkpt lat="48.9754" lon="0.95284">
        <ele>142.5</ele>
        <time>2015-07-19T07:45:43Z</time>
      </trkpt>
      <trkpt lat="48.97541" lon="0.95303">
        <ele>142.5</ele>
        <time>2015-07-19T07:45:45Z</time>
      </trkpt>
      <trkpt lat="48.97538" lon="0.9532">
        <ele>142.5</ele>
        <time>2015-07-19T07:45:47Z</time>
      </trkpt>
      <trkpt lat="48.97528" lon="0.95331">
        <ele>142.5</ele>
        <time>2015-07-19T07:45:49Z</time>
      </trkpt>
      <trkpt lat="48.97517" lon="0.95335">
        <ele>142.5</ele>
        <time>2015-07-19T07:45:51Z</time>
      </trkpt>
      <trkpt lat="48.97504" lon="0.95338">
        <ele>142.600006</ele>
        <time>2015-07-19T07:45:53Z</time>
      </trkpt>
      <trkpt lat="48.97491" lon="0.95341">
        <ele>142.600006</ele>
        <time>2015-07-19T07:45:55Z</time>
      </trkpt>
      <trkpt lat="48.97479" lon="0.95345">
        <ele>142.600006</ele>
        <time>2015-07-19T07:45:57Z</time>
      </trkpt>
      <trkpt lat="48.97466" lon="0.95348">
        <ele>142.600006</ele>
        <time>2015-07-19T07:45:59Z</time>
      </trkpt>
      <trkpt lat="48.97452" lon="0.95352">
        <ele>142.600006</ele>
        <time>2015-07-19T07:46:01Z</time>
      </trkpt>
      <trkpt lat="48.97439" lon="0.95356">
        <ele>142.600006</ele>
        <time>2015-07-19T07:46:03Z</time>
      </trkpt>
      <trkpt lat="48.97426" lon="0.9536">
        <ele>142.699997</ele>
        <time>2015-07-19T07:46:05Z</time>
      </trkpt>
      <trkpt lat="48.97414" lon="0.95363">
        <ele>142.699997</ele>
        <time>2015-07-19T07:46:07Z</time>
      </trkpt>
      <trkpt lat="48.97403" lon="0.95368">
        <ele>142.699997</ele>
        <time>2015-07-19T07:46:10Z</time>
      </trkpt>
      <trkpt lat="48.97394" lon="0.95366">
        <ele>142.399994</ele>
        <time>2015-07-19T07:46:25Z</time>
      </trkpt>
      <trkpt lat="48.97382" lon="0.95355">
        <ele>142.300003</ele>
        <time>2015-07-19T07:46:28Z</time>
      </trkpt>
      <trkpt lat="48.97373" lon="0.95345">
        <ele>142.300003</ele>
        <time>2015-07-19T07:46:30Z</time>
      </trkpt>
      <trkpt lat="48.97363" lon="0.95335">
        <ele>142.199997</ele>
        <time>2015-07-19T07:46:32Z</time>
      </trkpt>
      <trkpt lat="48.97353" lon="0.95324">
        <ele>142.199997</ele>
        <time>2015-07-19T07:46:34Z</time>
      </trkpt>
      <trkpt lat="48.97343" lon="0.95313">
        <ele>142.199997</ele>
        <time>2015-07-19T07:46:36Z</time>
      </trkpt>
      <trkpt lat="48.97332" lon="0.95302">
        <ele>142.100006</ele>
        <time>2015-07-19T07:46:38Z</time>
      </trkpt>
      <trkpt lat="48.9732" lon="0.95291">
        <ele>142.100006</ele>
        <time>2015-07-19T07:46:40Z</time>
      </trkpt>
      <trkpt lat="48.97309" lon="0.95279">
        <ele>142</ele>
        <time>2015-07-19T07:46:42Z</time>
      </trkpt>
      <trkpt lat="48.97298" lon="0.95268">
        <ele>142</ele>
        <time>2015-07-19T07:46:44Z</time>
      </trkpt>
      <trkpt lat="48.97286" lon="0.95257">
        <ele>141.899994</ele>
        <time>2015-07-19T07:46:46Z</time>
      </trkpt>
      <trkpt lat="48.97275" lon="0.95246">
        <ele>141.899994</ele>
        <time>2015-07-19T07:46:48Z</time>
      </trkpt>
      <trkpt lat="48.97265" lon="0.95234">
        <ele>141.800003</ele>
        <time>2015-07-19T07:46:50Z</time>
      </trkpt>
      <trkpt lat="48.97254" lon="0.95223">
        <ele>141.699997</ele>
        <time>2015-07-19T07:46:52Z</time>
      </trkpt>
      <trkpt lat="48.97245" lon="0.95213">
        <ele>141.600006</ele>
        <time>2015-07-19T07:46:54Z</time>
      </trkpt>
      <trkpt lat="48.97236" lon="0.952">
        <ele>141.5</ele>
        <time>2015-07-19T07:46:56Z</time>
      </trkpt>
      <trkpt lat="48.97228" lon="0.95186">
        <ele>141.399994</ele>
        <time>2015-07-19T07:46:58Z</time>
      </trkpt>
      <trkpt lat="48.9722" lon="0.95172">
        <ele>141.300003</ele>
        <time>2015-07-19T07:47:00Z</time>
      </trkpt>
      <trkpt lat="48.97213" lon="0.95157">
        <ele>141.199997</ele>
        <time>2015-07-19T07:47:02Z</time>
      </trkpt>
      <trkpt lat="48.97206" lon="0.95142">
        <ele>141.100006</ele>
        <time>2015-07-19T07:47:04Z</time>
      </trkpt>
      <trkpt lat="48.972" lon="0.95125">
        <ele>141</ele>
        <time>2015-07-19T07:47:06Z</time>
      </trkpt>
      <trkpt lat="48.97195" lon="0.95108">
        <ele>141</ele>
        <time>2015-07-19T07:47:08Z</time>
      </trkpt>
      <trkpt lat="48.97189" lon="0.95091">
        <ele>140.899994</ele>
        <time>2015-07-19T07:47:10Z</time>
      </trkpt>
      <trkpt lat="48.97184" lon="0.95074">
        <ele>140.899994</ele>
        <time>2015-07-19T07:47:12Z</time>
      </trkpt>
      <trkpt lat="48.97179" lon="0.95056">
        <ele>140.800003</ele>
        <time>2015-07-19T07:47:14Z</time>
      </trkpt>
      <trkpt lat="48.97175" lon="0.95039">
        <ele>140.800003</ele>
        <time>2015-07-19T07:47:16Z</time>
      </trkpt>
      <trkpt lat="48.97172" lon="0.95021">
        <ele>140.699997</ele>
        <time>2015-07-19T07:47:18Z</time>
      </trkpt>
      <trkpt lat="48.97169" lon="0.95003">
        <ele>140.600006</ele>
        <time>2015-07-19T07:47:20Z</time>
      </trkpt>
      <trkpt lat="48.97166" lon="0.94985">
        <ele>140.600006</ele>
        <time>2015-07-19T07:47:22Z</time>
      </trkpt>
      <trkpt lat="48.97163" lon="0.94967">
        <ele>140.5</ele>
        <time>2015-07-19T07:47:24Z</time>
      </trkpt>
      <trkpt lat="48.97162" lon="0.94948">
        <ele>140.300003</ele>
        <time>2015-07-19T07:47:26Z</time>
      </trkpt>
      <trkpt lat="48.9716" lon="0.94931">
        <ele>140.100006</ele>
        <time>2015-07-19T07:47:28Z</time>
      </trkpt>
      <trkpt lat="48.97152" lon="0.94923">
        <ele>139.699997</ele>
        <time>2015-07-19T07:47:31Z</time>
      </trkpt>
      <trkpt lat="48.97142" lon="0.94935">
        <ele>139.399994</ele>
        <time>2015-07-19T07:47:34Z</time>
      </trkpt>
      <trkpt lat="48.97132" lon="0.94943">
        <ele>139.199997</ele>
        <time>2015-07-19T07:47:36Z</time>
      </trkpt>
      <trkpt lat="48.97123" lon="0.9495">
        <ele>138.899994</ele>
        <time>2015-07-19T07:47:38Z</time>
      </trkpt>
      <trkpt lat="48.97112" lon="0.94954">
        <ele>138.699997</ele>
        <time>2015-07-19T07:47:40Z</time>
      </trkpt>
      <trkpt lat="48.97101" lon="0.94959">
        <ele>138.5</ele>
        <time>2015-07-19T07:47:42Z</time>
      </trkpt>
      <trkpt lat="48.9709" lon="0.94964">
        <ele>138.399994</ele>
        <time>2015-07-19T07:47:44Z</time>
      </trkpt>
      <trkpt lat="48.97078" lon="0.94972">
        <ele>138.199997</ele>
        <time>2015-07-19T07:47:46Z</time>
      </trkpt>
      <trkpt lat="48.97065" lon="0.9498">
        <ele>138.100006</ele>
        <time>2015-07-19T07:47:48Z</time>
      </trkpt>
      <trkpt lat="48.97051" lon="0.94991">
        <ele>138</ele>
        <time>2015-07-19T07:47:50Z</time>
      </trkpt>
      <trkpt lat="48.97037" lon="0.95001">
        <ele>137.899994</ele>
        <time>2015-07-19T07:47:52Z</time>
      </trkpt>
      <trkpt lat="48.97023" lon="0.95009">
        <ele>137.699997</ele>
        <time>2015-07-19T07:47:54Z</time>
      </trkpt>
      <trkpt lat="48.97008" lon="0.95018">
        <ele>137.5</ele>
        <time>2015-07-19T07:47:56Z</time>
      </trkpt>
      <trkpt lat="48.96993" lon="0.95026">
        <ele>137.199997</ele>
        <time>2015-07-19T07:47:58Z</time>
      </trkpt>
      <trkpt lat="48.96978" lon="0.95033">
        <ele>136.800003</ele>
        <time>2015-07-19T07:48:00Z</time>
      </trkpt>
      <trkpt lat="48.96962" lon="0.95041">
        <ele>136.399994</ele>
        <time>2015-07-19T07:48:02Z</time>
      </trkpt>
      <trkpt lat="48.96948" lon="0.95047">
        <ele>135.899994</ele>
        <time>2015-07-19T07:48:04Z</time>
      </trkpt>
      <trkpt lat="48.96932" lon="0.95053">
        <ele>135.5</ele>
        <time>2015-07-19T07:48:06Z</time>
      </trkpt>
      <trkpt lat="48.96917" lon="0.95058">
        <ele>134.899994</ele>
        <time>2015-07-19T07:48:08Z</time>
      </trkpt>
      <trkpt lat="48.96902" lon="0.95064">
        <ele>134.399994</ele>
        <time>2015-07-19T07:48:10Z</time>
      </trkpt>
      <trkpt lat="48.96886" lon="0.95067">
        <ele>133.800003</ele>
        <time>2015-07-19T07:48:12Z</time>
      </trkpt>
      <trkpt lat="48.96869" lon="0.9507">
        <ele>133.300003</ele>
        <time>2015-07-19T07:48:14Z</time>
      </trkpt>
      <trkpt lat="48.9686" lon="0.95073">
        <ele>133</ele>
        <time>2015-07-19T07:48:15Z</time>
      </trkpt>
      <trkpt lat="48.96844" lon="0.95079">
        <ele>132.399994</ele>
        <time>2015-07-19T07:48:17Z</time>
      </trkpt>
      <trkpt lat="48.96835" lon="0.95084">
        <ele>132.199997</ele>
        <time>2015-07-19T07:48:18Z</time>
      </trkpt>
      <trkpt lat="48.96827" lon="0.95089">
        <ele>131.899994</ele>
        <time>2015-07-19T07:48:19Z</time>
      </trkpt>
      <trkpt lat="48.96812" lon="0.951">
        <ele>131.399994</ele>
        <time>2015-07-19T07:48:21Z</time>
      </trkpt>
      <trkpt lat="48.96798" lon="0.95112">
        <ele>130.899994</ele>
        <time>2015-07-19T07:48:23Z</time>
      </trkpt>
      <trkpt lat="48.96784" lon="0.95124">
        <ele>130.399994</ele>
        <time>2015-07-19T07:48:25Z</time>
      </trkpt>
      <trkpt lat="48.96769" lon="0.95137">
        <ele>129.899994</ele>
        <time>2015-07-19T07:48:27Z</time>
      </trkpt>
      <trkpt lat="48.96755" lon="0.9515">
        <ele>129.399994</ele>
        <time>2015-07-19T07:48:29Z</time>
      </trkpt>
      <trkpt lat="48.96743" lon="0.95162">
        <ele>128.800003</ele>
        <time>2015-07-19T07:48:31Z</time>
      </trkpt>
      <trkpt lat="48.96729" lon="0.95174">
        <ele>128.199997</ele>
        <time>2015-07-19T07:48:33Z</time>
      </trkpt>
      <trkpt lat="48.96716" lon="0.95185">
        <ele>127.599998</ele>
        <time>2015-07-19T07:48:35Z</time>
      </trkpt>
      <trkpt lat="48.96705" lon="0.95188">
        <ele>127.099998</ele>
        <time>2015-07-19T07:48:37Z</time>
      </trkpt>
      <trkpt lat="48.96695" lon="0.95185">
        <ele>126.599998</ele>
        <time>2015-07-19T07:48:39Z</time>
      </trkpt>
      <trkpt lat="48.96683" lon="0.95189">
        <ele>125.900002</ele>
        <time>2015-07-19T07:48:41Z</time>
      </trkpt>
      <trkpt lat="48.96668" lon="0.95191">
        <ele>125.199997</ele>
        <time>2015-07-19T07:48:43Z</time>
      </trkpt>
      <trkpt lat="48.96657" lon="0.95201">
        <ele>124.300003</ele>
        <time>2015-07-19T07:48:45Z</time>
      </trkpt>
      <trkpt lat="48.96648" lon="0.95214">
        <ele>123.5</ele>
        <time>2015-07-19T07:48:47Z</time>
      </trkpt>
      <trkpt lat="48.96641" lon="0.95225">
        <ele>122.699997</ele>
        <time>2015-07-19T07:48:49Z</time>
      </trkpt>
      <trkpt lat="48.9663" lon="0.95232">
        <ele>121.400002</ele>
        <time>2015-07-19T07:48:52Z</time>
      </trkpt>
      <trkpt lat="48.9662" lon="0.95239">
        <ele>120.599998</ele>
        <time>2015-07-19T07:48:54Z</time>
      </trkpt>
      <trkpt lat="48.96608" lon="0.95246">
        <ele>119.699997</ele>
        <time>2015-07-19T07:48:56Z</time>
      </trkpt>
      <trkpt lat="48.96598" lon="0.95251">
        <ele>118.900002</ele>
        <time>2015-07-19T07:48:58Z</time>
      </trkpt>
      <trkpt lat="48.96587" lon="0.95254">
        <ele>117.900002</ele>
        <time>2015-07-19T07:49:00Z</time>
      </trkpt>
      <trkpt lat="48.96576" lon="0.95253">
        <ele>117</ele>
        <time>2015-07-19T07:49:02Z</time>
      </trkpt>
      <trkpt lat="48.96565" lon="0.95254">
        <ele>116.099998</ele>
        <time>2015-07-19T07:49:04Z</time>
      </trkpt>
      <trkpt lat="48.96553" lon="0.95253">
        <ele>115</ele>
        <time>2015-07-19T07:49:06Z</time>
      </trkpt>
      <trkpt lat="48.96542" lon="0.95256">
        <ele>114</ele>
        <time>2015-07-19T07:49:08Z</time>
      </trkpt>
      <trkpt lat="48.96525" lon="0.95249">
        <ele>112.800003</ele>
        <time>2015-07-19T07:49:10Z</time>
      </trkpt>
      <trkpt lat="48.96512" lon="0.95241">
        <ele>112.199997</ele>
        <time>2015-07-19T07:49:11Z</time>
      </trkpt>
      <trkpt lat="48.96503" lon="0.95239">
        <ele>111.599998</ele>
        <time>2015-07-19T07:49:12Z</time>
      </trkpt>
      <trkpt lat="48.96487" lon="0.9524">
        <ele>110.300003</ele>
        <time>2015-07-19T07:49:14Z</time>
      </trkpt>
      <trkpt lat="48.96476" lon="0.95242">
        <ele>109</ele>
        <time>2015-07-19T07:49:16Z</time>
      </trkpt>
      <trkpt lat="48.96468" lon="0.95255">
        <ele>107.400002</ele>
        <time>2015-07-19T07:49:19Z</time>
      </trkpt>
      <trkpt lat="48.96462" lon="0.95267">
        <ele>106.5</ele>
        <time>2015-07-19T07:49:21Z</time>
      </trkpt>
      <trkpt lat="48.96456" lon="0.95283">
        <ele>105.800003</ele>
        <time>2015-07-19T07:49:23Z</time>
      </trkpt>
      <trkpt lat="48.9645" lon="0.95299">
        <ele>105.099998</ele>
        <time>2015-07-19T07:49:25Z</time>
      </trkpt>
      <trkpt lat="48.96441" lon="0.95318">
        <ele>104.400002</ele>
        <time>2015-07-19T07:49:27Z</time>
      </trkpt>
      <trkpt lat="48.96434" lon="0.95336">
        <ele>103.900002</ele>
        <time>2015-07-19T07:49:29Z</time>
      </trkpt>
      <trkpt lat="48.96429" lon="0.95349">
        <ele>103.400002</ele>
        <time>2015-07-19T07:49:31Z</time>
      </trkpt>
      <trkpt lat="48.96426" lon="0.95364">
        <ele>103</ele>
        <time>2015-07-19T07:49:33Z</time>
      </trkpt>
      <trkpt lat="48.96421" lon="0.95379">
        <ele>102.699997</ele>
        <time>2015-07-19T07:49:35Z</time>
      </trkpt>
      <trkpt lat="48.96417" lon="0.95395">
        <ele>102.300003</ele>
        <time>2015-07-19T07:49:37Z</time>
      </trkpt>
      <trkpt lat="48.96412" lon="0.95408">
        <ele>102.099998</ele>
        <time>2015-07-19T07:49:39Z</time>
      </trkpt>
      <trkpt lat="48.96407" lon="0.95422">
        <ele>101.800003</ele>
        <time>2015-07-19T07:49:41Z</time>
      </trkpt>
      <trkpt lat="48.96402" lon="0.95434">
        <ele>101.599998</ele>
        <time>2015-07-19T07:49:43Z</time>
      </trkpt>
      <trkpt lat="48.96397" lon="0.95446">
        <ele>101.300003</ele>
        <time>2015-07-19T07:49:46Z</time>
      </trkpt>
      <trkpt lat="48.96387" lon="0.95451">
        <ele>101.099998</ele>
        <time>2015-07-19T07:49:49Z</time>
      </trkpt>
      <trkpt lat="48.96377" lon="0.95443">
        <ele>100.800003</ele>
        <time>2015-07-19T07:49:53Z</time>
      </trkpt>
      <trkpt lat="48.96366" lon="0.95441">
        <ele>100.699997</ele>
        <time>2015-07-19T07:49:56Z</time>
      </trkpt>
      <trkpt lat="48.96354" lon="0.95437">
        <ele>100.599998</ele>
        <time>2015-07-19T07:49:59Z</time>
      </trkpt>
      <trkpt lat="48.96341" lon="0.95431">
        <ele>100.5</ele>
        <time>2015-07-19T07:50:02Z</time>
      </trkpt>
      <trkpt lat="48.96332" lon="0.95427">
        <ele>100.400002</ele>
        <time>2015-07-19T07:50:04Z</time>
      </trkpt>
      <trkpt lat="48.96323" lon="0.95423">
        <ele>100.400002</ele>
        <time>2015-07-19T07:50:06Z</time>
      </trkpt>
      <trkpt lat="48.96313" lon="0.95418">
        <ele>100.300003</ele>
        <time>2015-07-19T07:50:08Z</time>
      </trkpt>
      <trkpt lat="48.96303" lon="0.95412">
        <ele>100.300003</ele>
        <time>2015-07-19T07:50:10Z</time>
      </trkpt>
      <trkpt lat="48.96293" lon="0.95405">
        <ele>100.300003</ele>
        <time>2015-07-19T07:50:12Z</time>
      </trkpt>
      <trkpt lat="48.96284" lon="0.95397">
        <ele>100.300003</ele>
        <time>2015-07-19T07:50:14Z</time>
      </trkpt>
      <trkpt lat="48.96275" lon="0.95388">
        <ele>100.199997</ele>
        <time>2015-07-19T07:50:16Z</time>
      </trkpt>
      <trkpt lat="48.96267" lon="0.95378">
        <ele>100.199997</ele>
        <time>2015-07-19T07:50:18Z</time>
      </trkpt>
      <trkpt lat="48.96259" lon="0.95368">
        <ele>100.199997</ele>
        <time>2015-07-19T07:50:20Z</time>
      </trkpt>
      <trkpt lat="48.96251" lon="0.95358">
        <ele>100.199997</ele>
        <time>2015-07-19T07:50:22Z</time>
      </trkpt>
      <trkpt lat="48.96243" lon="0.95347">
        <ele>100.199997</ele>
        <time>2015-07-19T07:50:24Z</time>
      </trkpt>
      <trkpt lat="48.96235" lon="0.95335">
        <ele>100.199997</ele>
        <time>2015-07-19T07:50:26Z</time>
      </trkpt>
      <trkpt lat="48.96227" lon="0.95325">
        <ele>100.199997</ele>
        <time>2015-07-19T07:50:28Z</time>
      </trkpt>
      <trkpt lat="48.9622" lon="0.95314">
        <ele>100.199997</ele>
        <time>2015-07-19T07:50:30Z</time>
      </trkpt>
      <trkpt lat="48.96212" lon="0.95303">
        <ele>100.199997</ele>
        <time>2015-07-19T07:50:32Z</time>
      </trkpt>
      <trkpt lat="48.96205" lon="0.95293">
        <ele>100.300003</ele>
        <time>2015-07-19T07:50:34Z</time>
      </trkpt>
      <trkpt lat="48.96196" lon="0.95282">
        <ele>100.300003</ele>
        <time>2015-07-19T07:50:37Z</time>
      </trkpt>
      <trkpt lat="48.96188" lon="0.95274">
        <ele>100.599998</ele>
        <time>2015-07-19T07:50:41Z</time>
      </trkpt>
      <trkpt lat="48.9618" lon="0.95265">
        <ele>101.099998</ele>
        <time>2015-07-19T07:50:46Z</time>
      </trkpt>
      <trkpt lat="48.96171" lon="0.95256">
        <ele>101.800003</ele>
        <time>2015-07-19T07:50:51Z</time>
      </trkpt>
      <trkpt lat="48.96164" lon="0.95245">
        <ele>102.599998</ele>
        <time>2015-07-19T07:50:55Z</time>
      </trkpt>
      <trkpt lat="48.96156" lon="0.95238">
        <ele>103.5</ele>
        <time>2015-07-19T07:50:59Z</time>
      </trkpt>
      <trkpt lat="48.96148" lon="0.95226">
        <ele>104.5</ele>
        <time>2015-07-19T07:51:03Z</time>
      </trkpt>
      <trkpt lat="48.96139" lon="0.95218">
        <ele>105.5</ele>
        <time>2015-07-19T07:51:07Z</time>
      </trkpt>
      <trkpt lat="48.96131" lon="0.95206">
        <ele>106.800003</ele>
        <time>2015-07-19T07:51:12Z</time>
      </trkpt>
      <trkpt lat="48.96123" lon="0.95199">
        <ele>107.800003</ele>
        <time>2015-07-19T07:51:16Z</time>
      </trkpt>
      <trkpt lat="48.96115" lon="0.95189">
        <ele>109.099998</ele>
        <time>2015-07-19T07:51:21Z</time>
      </trkpt>
      <trkpt lat="48.96107" lon="0.95177">
        <ele>110.400002</ele>
        <time>2015-07-19T07:51:26Z</time>
      </trkpt>
      <trkpt lat="48.96101" lon="0.95165">
        <ele>111.800003</ele>
        <time>2015-07-19T07:51:31Z</time>
      </trkpt>
      <trkpt lat="48.96095" lon="0.95154">
        <ele>112.800003</ele>
        <time>2015-07-19T07:51:35Z</time>
      </trkpt>
      <trkpt lat="48.9609" lon="0.95143">
        <ele>114.099998</ele>
        <time>2015-07-19T07:51:40Z</time>
      </trkpt>
      <trkpt lat="48.96083" lon="0.9513">
        <ele>115.900002</ele>
        <time>2015-07-19T07:51:47Z</time>
      </trkpt>
      <trkpt lat="48.96079" lon="0.95116">
        <ele>117.300003</ele>
        <time>2015-07-19T07:51:52Z</time>
      </trkpt>
      <trkpt lat="48.96075" lon="0.95103">
        <ele>118.699997</ele>
        <time>2015-07-19T07:51:57Z</time>
      </trkpt>
      <trkpt lat="48.96069" lon="0.9509">
        <ele>120.300003</ele>
        <time>2015-07-19T07:52:02Z</time>
      </trkpt>
      <trkpt lat="48.96065" lon="0.95077">
        <ele>121.5</ele>
        <time>2015-07-19T07:52:06Z</time>
      </trkpt>
      <trkpt lat="48.9606" lon="0.95063">
        <ele>123.099998</ele>
        <time>2015-07-19T07:52:11Z</time>
      </trkpt>
      <trkpt lat="48.96056" lon="0.95049">
        <ele>124.199997</ele>
        <time>2015-07-19T07:52:15Z</time>
      </trkpt>
      <trkpt lat="48.96051" lon="0.95035">
        <ele>125.300003</ele>
        <time>2015-07-19T07:52:19Z</time>
      </trkpt>
      <trkpt lat="48.96045" lon="0.95024">
        <ele>126.599998</ele>
        <time>2015-07-19T07:52:23Z</time>
      </trkpt>
      <trkpt lat="48.96039" lon="0.95013">
        <ele>127.900002</ele>
        <time>2015-07-19T07:52:27Z</time>
      </trkpt>
      <trkpt lat="48.96031" lon="0.95004">
        <ele>129.399994</ele>
        <time>2015-07-19T07:52:32Z</time>
      </trkpt>
      <trkpt lat="48.9603" lon="0.95019">
        <ele>131.199997</ele>
        <time>2015-07-19T07:52:39Z</time>
      </trkpt>
      <trkpt lat="48.96032" lon="0.95033">
        <ele>132</ele>
        <time>2015-07-19T07:52:44Z</time>
      </trkpt>
      <trkpt lat="48.96036" lon="0.9505">
        <ele>132.800003</ele>
        <time>2015-07-19T07:52:49Z</time>
      </trkpt>
      <trkpt lat="48.96039" lon="0.95065">
        <ele>133.399994</ele>
        <time>2015-07-19T07:52:54Z</time>
      </trkpt>
      <trkpt lat="48.96041" lon="0.9508">
        <ele>133.800003</ele>
        <time>2015-07-19T07:52:59Z</time>
      </trkpt>
      <trkpt lat="48.96045" lon="0.95093">
        <ele>134.100006</ele>
        <time>2015-07-19T07:53:04Z</time>
      </trkpt>
      <trkpt lat="48.96044" lon="0.95076">
        <ele>134.5</ele>
        <time>2015-07-19T07:53:11Z</time>
      </trkpt>
      <trkpt lat="48.96042" lon="0.95063">
        <ele>134.600006</ele>
        <time>2015-07-19T07:53:15Z</time>
      </trkpt>
      <trkpt lat="48.9604" lon="0.95078">
        <ele>134.800003</ele>
        <time>2015-07-19T07:53:21Z</time>
      </trkpt>
      <trkpt lat="48.96044" lon="0.95093">
        <ele>134.800003</ele>
        <time>2015-07-19T07:53:24Z</time>
      </trkpt>
      <trkpt lat="48.96047" lon="0.9511">
        <ele>134.899994</ele>
        <time>2015-07-19T07:53:27Z</time>
      </trkpt>
      <trkpt lat="48.96051" lon="0.95127">
        <ele>134.899994</ele>
        <time>2015-07-19T07:53:30Z</time>
      </trkpt>
      <trkpt lat="48.96055" lon="0.95145">
        <ele>135</ele>
        <time>2015-07-19T07:53:33Z</time>
      </trkpt>
      <trkpt lat="48.96059" lon="0.95164">
        <ele>135.100006</ele>
        <time>2015-07-19T07:53:36Z</time>
      </trkpt>
      <trkpt lat="48.96063" lon="0.95183">
        <ele>135.199997</ele>
        <time>2015-07-19T07:53:39Z</time>
      </trkpt>
      <trkpt lat="48.96066" lon="0.95203">
        <ele>135.199997</ele>
        <time>2015-07-19T07:53:42Z</time>
      </trkpt>
      <trkpt lat="48.96069" lon="0.95216">
        <ele>135.300003</ele>
        <time>2015-07-19T07:53:44Z</time>
      </trkpt>
      <trkpt lat="48.96072" lon="0.9523">
        <ele>135.399994</ele>
        <time>2015-07-19T07:53:46Z</time>
      </trkpt>
      <trkpt lat="48.96074" lon="0.95244">
        <ele>135.399994</ele>
        <time>2015-07-19T07:53:48Z</time>
      </trkpt>
      <trkpt lat="48.96075" lon="0.95259">
        <ele>135.5</ele>
        <time>2015-07-19T07:53:50Z</time>
      </trkpt>
      <trkpt lat="48.96078" lon="0.95274">
        <ele>135.5</ele>
        <time>2015-07-19T07:53:52Z</time>
      </trkpt>
      <trkpt lat="48.96081" lon="0.95288">
        <ele>135.600006</ele>
        <time>2015-07-19T07:53:54Z</time>
      </trkpt>
      <trkpt lat="48.96085" lon="0.95302">
        <ele>135.600006</ele>
        <time>2015-07-19T07:53:56Z</time>
      </trkpt>
      <trkpt lat="48.96088" lon="0.95316">
        <ele>135.699997</ele>
        <time>2015-07-19T07:53:58Z</time>
      </trkpt>
      <trkpt lat="48.96091" lon="0.9533">
        <ele>135.699997</ele>
        <time>2015-07-19T07:54:00Z</time>
      </trkpt>
      <trkpt lat="48.96094" lon="0.95344">
        <ele>135.800003</ele>
        <time>2015-07-19T07:54:02Z</time>
      </trkpt>
      <trkpt lat="48.96097" lon="0.95357">
        <ele>135.800003</ele>
        <time>2015-07-19T07:54:04Z</time>
      </trkpt>
      <trkpt lat="48.961" lon="0.95371">
        <ele>135.899994</ele>
        <time>2015-07-19T07:54:06Z</time>
      </trkpt>
      <trkpt lat="48.96103" lon="0.95386">
        <ele>136</ele>
        <time>2015-07-19T07:54:08Z</time>
      </trkpt>
      <trkpt lat="48.96105" lon="0.95401">
        <ele>136.199997</ele>
        <time>2015-07-19T07:54:10Z</time>
      </trkpt>
      <trkpt lat="48.96108" lon="0.95415">
        <ele>136.199997</ele>
        <time>2015-07-19T07:54:12Z</time>
      </trkpt>
      <trkpt lat="48.96111" lon="0.9543">
        <ele>136.300003</ele>
        <time>2015-07-19T07:54:14Z</time>
      </trkpt>
      <trkpt lat="48.96113" lon="0.95444">
        <ele>136.399994</ele>
        <time>2015-07-19T07:54:16Z</time>
      </trkpt>
      <trkpt lat="48.96116" lon="0.95459">
        <ele>136.5</ele>
        <time>2015-07-19T07:54:18Z</time>
      </trkpt>
      <trkpt lat="48.96119" lon="0.95474">
        <ele>136.600006</ele>
        <time>2015-07-19T07:54:20Z</time>
      </trkpt>
      <trkpt lat="48.96122" lon="0.95489">
        <ele>136.600006</ele>
        <time>2015-07-19T07:54:22Z</time>
      </trkpt>
      <trkpt lat="48.96125" lon="0.95504">
        <ele>136.699997</ele>
        <time>2015-07-19T07:54:24Z</time>
      </trkpt>
      <trkpt lat="48.96128" lon="0.95519">
        <ele>136.800003</ele>
        <time>2015-07-19T07:54:26Z</time>
      </trkpt>
      <trkpt lat="48.96131" lon="0.95534">
        <ele>136.800003</ele>
        <time>2015-07-19T07:54:28Z</time>
      </trkpt>
      <trkpt lat="48.96134" lon="0.9555">
        <ele>136.899994</ele>
        <time>2015-07-19T07:54:30Z</time>
      </trkpt>
      <trkpt lat="48.96137" lon="0.95565">
        <ele>137</ele>
        <time>2015-07-19T07:54:32Z</time>
      </trkpt>
      <trkpt lat="48.9614" lon="0.9558">
        <ele>137.100006</ele>
        <time>2015-07-19T07:54:34Z</time>
      </trkpt>
      <trkpt lat="48.96143" lon="0.95595">
        <ele>137.100006</ele>
        <time>2015-07-19T07:54:36Z</time>
      </trkpt>
      <trkpt lat="48.96147" lon="0.95609">
        <ele>137.199997</ele>
        <time>2015-07-19T07:54:38Z</time>
      </trkpt>
      <trkpt lat="48.9615" lon="0.95625">
        <ele>137.199997</ele>
        <time>2015-07-19T07:54:40Z</time>
      </trkpt>
      <trkpt lat="48.96153" lon="0.9564">
        <ele>137.300003</ele>
        <time>2015-07-19T07:54:42Z</time>
      </trkpt>
      <trkpt lat="48.96156" lon="0.95654">
        <ele>137.300003</ele>
        <time>2015-07-19T07:54:44Z</time>
      </trkpt>
      <trkpt lat="48.96159" lon="0.95669">
        <ele>137.300003</ele>
        <time>2015-07-19T07:54:46Z</time>
      </trkpt>
      <trkpt lat="48.96162" lon="0.95683">
        <ele>137.399994</ele>
        <time>2015-07-19T07:54:48Z</time>
      </trkpt>
      <trkpt lat="48.96165" lon="0.95696">
        <ele>137.399994</ele>
        <time>2015-07-19T07:54:50Z</time>
      </trkpt>
      <trkpt lat="48.96168" lon="0.9571">
        <ele>137.399994</ele>
        <time>2015-07-19T07:54:52Z</time>
      </trkpt>
      <trkpt lat="48.96171" lon="0.95723">
        <ele>137.5</ele>
        <time>2015-07-19T07:54:54Z</time>
      </trkpt>
      <trkpt lat="48.96174" lon="0.95737">
        <ele>137.5</ele>
        <time>2015-07-19T07:54:56Z</time>
      </trkpt>
      <trkpt lat="48.96178" lon="0.95755">
        <ele>137.699997</ele>
        <time>2015-07-19T07:54:59Z</time>
      </trkpt>
      <trkpt lat="48.96183" lon="0.95774">
        <ele>137.899994</ele>
        <time>2015-07-19T07:55:02Z</time>
      </trkpt>
      <trkpt lat="48.96185" lon="0.9579">
        <ele>138.100006</ele>
        <time>2015-07-19T07:55:05Z</time>
      </trkpt>
      <trkpt lat="48.96189" lon="0.95804">
        <ele>138.300003</ele>
        <time>2015-07-19T07:55:08Z</time>
      </trkpt>
      <trkpt lat="48.96193" lon="0.95819">
        <ele>138.699997</ele>
        <time>2015-07-19T07:55:12Z</time>
      </trkpt>
      <trkpt lat="48.96202" lon="0.95814">
        <ele>139.199997</ele>
        <time>2015-07-19T07:55:20Z</time>
      </trkpt>
      <trkpt lat="48.962" lon="0.95796">
        <ele>139.5</ele>
        <time>2015-07-19T07:55:26Z</time>
      </trkpt>
      <trkpt lat="48.96195" lon="0.95781">
        <ele>139.399994</ele>
        <time>2015-07-19T07:55:29Z</time>
      </trkpt>
      <trkpt lat="48.9619" lon="0.95761">
        <ele>139.300003</ele>
        <time>2015-07-19T07:55:32Z</time>
      </trkpt>
      <trkpt lat="48.9619" lon="0.95746">
        <ele>139.100006</ele>
        <time>2015-07-19T07:55:34Z</time>
      </trkpt>
      <trkpt lat="48.96194" lon="0.95728">
        <ele>138.600006</ele>
        <time>2015-07-19T07:55:37Z</time>
      </trkpt>
      <trkpt lat="48.96201" lon="0.95717">
        <ele>137.899994</ele>
        <time>2015-07-19T07:55:40Z</time>
      </trkpt>
      <trkpt lat="48.96211" lon="0.95711">
        <ele>136.800003</ele>
        <time>2015-07-19T07:55:44Z</time>
      </trkpt>
      <trkpt lat="48.96221" lon="0.95707">
        <ele>135.899994</ele>
        <time>2015-07-19T07:55:47Z</time>
      </trkpt>
      <trkpt lat="48.96231" lon="0.95702">
        <ele>135.300003</ele>
        <time>2015-07-19T07:55:49Z</time>
      </trkpt>
      <trkpt lat="48.96242" lon="0.95697">
        <ele>134.699997</ele>
        <time>2015-07-19T07:55:51Z</time>
      </trkpt>
      <trkpt lat="48.96253" lon="0.95695">
        <ele>134</ele>
        <time>2015-07-19T07:55:53Z</time>
      </trkpt>
      <trkpt lat="48.96265" lon="0.95691">
        <ele>133.199997</ele>
        <time>2015-07-19T07:55:55Z</time>
      </trkpt>
      <trkpt lat="48.9628" lon="0.95683">
        <ele>132.300003</ele>
        <time>2015-07-19T07:55:57Z</time>
      </trkpt>
      <trkpt lat="48.96294" lon="0.9568">
        <ele>130.699997</ele>
        <time>2015-07-19T07:56:00Z</time>
      </trkpt>
      <trkpt lat="48.96303" lon="0.95675">
        <ele>129.699997</ele>
        <time>2015-07-19T07:56:02Z</time>
      </trkpt>
      <trkpt lat="48.96313" lon="0.95671">
        <ele>128.600006</ele>
        <time>2015-07-19T07:56:04Z</time>
      </trkpt>
      <trkpt lat="48.96322" lon="0.95667">
        <ele>125.800003</ele>
        <time>2015-07-19T07:56:10Z</time>
      </trkpt>
      <trkpt lat="48.9633" lon="0.95659">
        <ele>121.599998</ele>
        <time>2015-07-19T07:56:24Z</time>
      </trkpt>
      <trkpt lat="48.96339" lon="0.95657">
        <ele>120.599998</ele>
        <time>2015-07-19T07:56:29Z</time>
      </trkpt>
      <trkpt lat="48.96351" lon="0.95653">
        <ele>119.900002</ele>
        <time>2015-07-19T07:56:32Z</time>
      </trkpt>
      <trkpt lat="48.96361" lon="0.95648">
        <ele>119.300003</ele>
        <time>2015-07-19T07:56:34Z</time>
      </trkpt>
      <trkpt lat="48.96368" lon="0.95641">
        <ele>118.5</ele>
        <time>2015-07-19T07:56:36Z</time>
      </trkpt>
      <trkpt lat="48.96377" lon="0.95635">
        <ele>117.699997</ele>
        <time>2015-07-19T07:56:38Z</time>
      </trkpt>
      <trkpt lat="48.96385" lon="0.95628">
        <ele>116.699997</ele>
        <time>2015-07-19T07:56:40Z</time>
      </trkpt>
      <trkpt lat="48.96393" lon="0.9562">
        <ele>115.699997</ele>
        <time>2015-07-19T07:56:42Z</time>
      </trkpt>
      <trkpt lat="48.96403" lon="0.95609">
        <ele>114.699997</ele>
        <time>2015-07-19T07:56:44Z</time>
      </trkpt>
      <trkpt lat="48.96417" lon="0.95596">
        <ele>113.699997</ele>
        <time>2015-07-19T07:56:46Z</time>
      </trkpt>
      <trkpt lat="48.96426" lon="0.95586">
        <ele>113.199997</ele>
        <time>2015-07-19T07:56:47Z</time>
      </trkpt>
      <trkpt lat="48.9644" lon="0.95571">
        <ele>112.099998</ele>
        <time>2015-07-19T07:56:49Z</time>
      </trkpt>
      <trkpt lat="48.9645" lon="0.95569">
        <ele>110.5</ele>
        <time>2015-07-19T07:56:52Z</time>
      </trkpt>
      <trkpt lat="48.96459" lon="0.9557">
        <ele>109.599998</ele>
        <time>2015-07-19T07:56:54Z</time>
      </trkpt>
      <trkpt lat="48.96469" lon="0.95574">
        <ele>108.699997</ele>
        <time>2015-07-19T07:56:56Z</time>
      </trkpt>
      <trkpt lat="48.96476" lon="0.9558">
        <ele>108</ele>
        <time>2015-07-19T07:56:58Z</time>
      </trkpt>
      <trkpt lat="48.96485" lon="0.95584">
        <ele>106.900002</ele>
        <time>2015-07-19T07:57:01Z</time>
      </trkpt>
      <trkpt lat="48.96499" lon="0.9559">
        <ele>106</ele>
        <time>2015-07-19T07:57:04Z</time>
      </trkpt>
      <trkpt lat="48.96508" lon="0.95594">
        <ele>105.400002</ele>
        <time>2015-07-19T07:57:06Z</time>
      </trkpt>
      <trkpt lat="48.96517" lon="0.95601">
        <ele>104.800003</ele>
        <time>2015-07-19T07:57:08Z</time>
      </trkpt>
      <trkpt lat="48.96527" lon="0.95602">
        <ele>104.300003</ele>
        <time>2015-07-19T07:57:10Z</time>
      </trkpt>
      <trkpt lat="48.96536" lon="0.95605">
        <ele>103.800003</ele>
        <time>2015-07-19T07:57:12Z</time>
      </trkpt>
      <trkpt lat="48.96547" lon="0.95613">
        <ele>103.199997</ele>
        <time>2015-07-19T07:57:15Z</time>
      </trkpt>
      <trkpt lat="48.96556" lon="0.95616">
        <ele>102.900002</ele>
        <time>2015-07-19T07:57:17Z</time>
      </trkpt>
      <trkpt lat="48.96566" lon="0.95617">
        <ele>102.400002</ele>
        <time>2015-07-19T07:57:20Z</time>
      </trkpt>
      <trkpt lat="48.96577" lon="0.95622">
        <ele>101.900002</ele>
        <time>2015-07-19T07:57:23Z</time>
      </trkpt>
      <trkpt lat="48.96593" lon="0.95627">
        <ele>101.599998</ele>
        <time>2015-07-19T07:57:26Z</time>
      </trkpt>
      <trkpt lat="48.96606" lon="0.95631">
        <ele>101.300003</ele>
        <time>2015-07-19T07:57:28Z</time>
      </trkpt>
      <trkpt lat="48.96618" lon="0.95634">
        <ele>101.099998</ele>
        <time>2015-07-19T07:57:30Z</time>
      </trkpt>
      <trkpt lat="48.96629" lon="0.95637">
        <ele>101</ele>
        <time>2015-07-19T07:57:32Z</time>
      </trkpt>
      <trkpt lat="48.9664" lon="0.95637">
        <ele>100.800003</ele>
        <time>2015-07-19T07:57:34Z</time>
      </trkpt>
      <trkpt lat="48.96651" lon="0.9564">
        <ele>100.699997</ele>
        <time>2015-07-19T07:57:36Z</time>
      </trkpt>
      <trkpt lat="48.96662" lon="0.95637">
        <ele>100.599998</ele>
        <time>2015-07-19T07:57:38Z</time>
      </trkpt>
      <trkpt lat="48.96676" lon="0.95641">
        <ele>100.5</ele>
        <time>2015-07-19T07:57:40Z</time>
      </trkpt>
      <trkpt lat="48.96687" lon="0.95642">
        <ele>100.400002</ele>
        <time>2015-07-19T07:57:42Z</time>
      </trkpt>
      <trkpt lat="48.967" lon="0.95645">
        <ele>100.300003</ele>
        <time>2015-07-19T07:57:44Z</time>
      </trkpt>
      <trkpt lat="48.96711" lon="0.95651">
        <ele>100.199997</ele>
        <time>2015-07-19T07:57:47Z</time>
      </trkpt>
      <trkpt lat="48.96722" lon="0.95656">
        <ele>100</ele>
        <time>2015-07-19T07:57:49Z</time>
      </trkpt>
      <trkpt lat="48.96734" lon="0.9566">
        <ele>99.900002</ele>
        <time>2015-07-19T07:57:51Z</time>
      </trkpt>
      <trkpt lat="48.96747" lon="0.95669">
        <ele>99.800003</ele>
        <time>2015-07-19T07:57:54Z</time>
      </trkpt>
      <trkpt lat="48.96758" lon="0.95677">
        <ele>99.699997</ele>
        <time>2015-07-19T07:57:57Z</time>
      </trkpt>
      <trkpt lat="48.96766" lon="0.95686">
        <ele>99.599998</ele>
        <time>2015-07-19T07:58:00Z</time>
      </trkpt>
      <trkpt lat="48.96773" lon="0.95701">
        <ele>99.599998</ele>
        <time>2015-07-19T07:58:03Z</time>
      </trkpt>
      <trkpt lat="48.9678" lon="0.95715">
        <ele>99.599998</ele>
        <time>2015-07-19T07:58:06Z</time>
      </trkpt>
      <trkpt lat="48.96787" lon="0.95727">
        <ele>99.699997</ele>
        <time>2015-07-19T07:58:09Z</time>
      </trkpt>
      <trkpt lat="48.96795" lon="0.95736">
        <ele>99.800003</ele>
        <time>2015-07-19T07:58:11Z</time>
      </trkpt>
      <trkpt lat="48.96803" lon="0.95742">
        <ele>99.900002</ele>
        <time>2015-07-19T07:58:13Z</time>
      </trkpt>
      <trkpt lat="48.96813" lon="0.95748">
        <ele>100.099998</ele>
        <time>2015-07-19T07:58:15Z</time>
      </trkpt>
      <trkpt lat="48.96822" lon="0.95759">
        <ele>100.400002</ele>
        <time>2015-07-19T07:58:18Z</time>
      </trkpt>
      <trkpt lat="48.96829" lon="0.95768">
        <ele>100.5</ele>
        <time>2015-07-19T07:58:20Z</time>
      </trkpt>
      <trkpt lat="48.96838" lon="0.95779">
        <ele>100.599998</ele>
        <time>2015-07-19T07:58:22Z</time>
      </trkpt>
      <trkpt lat="48.96848" lon="0.95793">
        <ele>100.800003</ele>
        <time>2015-07-19T07:58:25Z</time>
      </trkpt>
      <trkpt lat="48.96858" lon="0.95806">
        <ele>100.900002</ele>
        <time>2015-07-19T07:58:27Z</time>
      </trkpt>
      <trkpt lat="48.96869" lon="0.95819">
        <ele>100.900002</ele>
        <time>2015-07-19T07:58:29Z</time>
      </trkpt>
      <trkpt lat="48.96876" lon="0.95835">
        <ele>101</ele>
        <time>2015-07-19T07:58:31Z</time>
      </trkpt>
      <trkpt lat="48.96887" lon="0.9585">
        <ele>101</ele>
        <time>2015-07-19T07:58:33Z</time>
      </trkpt>
      <trkpt lat="48.96897" lon="0.95866">
        <ele>101</ele>
        <time>2015-07-19T07:58:35Z</time>
      </trkpt>
      <trkpt lat="48.96908" lon="0.95881">
        <ele>100.900002</ele>
        <time>2015-07-19T07:58:37Z</time>
      </trkpt>
      <trkpt lat="48.96914" lon="0.95899">
        <ele>100.800003</ele>
        <time>2015-07-19T07:58:39Z</time>
      </trkpt>
      <trkpt lat="48.96919" lon="0.95917">
        <ele>100.800003</ele>
        <time>2015-07-19T07:58:41Z</time>
      </trkpt>
      <trkpt lat="48.96922" lon="0.95934">
        <ele>100.699997</ele>
        <time>2015-07-19T07:58:43Z</time>
      </trkpt>
      <trkpt lat="48.96926" lon="0.9595">
        <ele>100.599998</ele>
        <time>2015-07-19T07:58:45Z</time>
      </trkpt>
      <trkpt lat="48.9693" lon="0.95966">
        <ele>100.699997</ele>
        <time>2015-07-19T07:58:47Z</time>
      </trkpt>
      <trkpt lat="48.96935" lon="0.9598">
        <ele>100.800003</ele>
        <time>2015-07-19T07:58:49Z</time>
      </trkpt>
      <trkpt lat="48.96938" lon="0.95994">
        <ele>100.900002</ele>
        <time>2015-07-19T07:58:51Z</time>
      </trkpt>
      <trkpt lat="48.96941" lon="0.96008">
        <ele>101</ele>
        <time>2015-07-19T07:58:53Z</time>
      </trkpt>
      <trkpt lat="48.96945" lon="0.96022">
        <ele>101.099998</ele>
        <time>2015-07-19T07:58:55Z</time>
      </trkpt>
      <trkpt lat="48.96948" lon="0.96036">
        <ele>101.199997</ele>
        <time>2015-07-19T07:58:57Z</time>
      </trkpt>
      <trkpt lat="48.96951" lon="0.96051">
        <ele>101.400002</ele>
        <time>2015-07-19T07:58:59Z</time>
      </trkpt>
      <trkpt lat="48.96952" lon="0.96065">
        <ele>101.599998</ele>
        <time>2015-07-19T07:59:01Z</time>
      </trkpt>
      <trkpt lat="48.96956" lon="0.96084">
        <ele>101.900002</ele>
        <time>2015-07-19T07:59:04Z</time>
      </trkpt>
      <trkpt lat="48.9696" lon="0.961">
        <ele>102.199997</ele>
        <time>2015-07-19T07:59:07Z</time>
      </trkpt>
      <trkpt lat="48.96965" lon="0.96116">
        <ele>102.5</ele>
        <time>2015-07-19T07:59:10Z</time>
      </trkpt>
      <trkpt lat="48.9697" lon="0.9613">
        <ele>103.099998</ele>
        <time>2015-07-19T07:59:14Z</time>
      </trkpt>
      <trkpt lat="48.96965" lon="0.96142">
        <ele>104.5</ele>
        <time>2015-07-19T07:59:22Z</time>
      </trkpt>
      <trkpt lat="48.96955" lon="0.96142">
        <ele>106</ele>
        <time>2015-07-19T07:59:30Z</time>
      </trkpt>
      <trkpt lat="48.96948" lon="0.96133">
        <ele>106.800003</ele>
        <time>2015-07-19T07:59:35Z</time>
      </trkpt>
      <trkpt lat="48.96939" lon="0.96125">
        <ele>107.800003</ele>
        <time>2015-07-19T07:59:41Z</time>
      </trkpt>
      <trkpt lat="48.96933" lon="0.96115">
        <ele>108.800003</ele>
        <time>2015-07-19T07:59:47Z</time>
      </trkpt>
      <trkpt lat="48.96927" lon="0.96104">
        <ele>110.199997</ele>
        <time>2015-07-19T08:00:00Z</time>
      </trkpt>
      <trkpt lat="48.9692" lon="0.96094">
        <ele>111.199997</ele>
        <time>2015-07-19T08:00:10Z</time>
      </trkpt>
      <trkpt lat="48.96916" lon="0.96082">
        <ele>111.699997</ele>
        <time>2015-07-19T08:00:16Z</time>
      </trkpt>
      <trkpt lat="48.96911" lon="0.96067">
        <ele>112.300003</ele>
        <time>2015-07-19T08:00:22Z</time>
      </trkpt>
      <trkpt lat="48.96907" lon="0.96055">
        <ele>112.699997</ele>
        <time>2015-07-19T08:00:26Z</time>
      </trkpt>
      <trkpt lat="48.96901" lon="0.96044">
        <ele>113.099998</ele>
        <time>2015-07-19T08:00:31Z</time>
      </trkpt>
      <trkpt lat="48.96892" lon="0.96036">
        <ele>113.5</ele>
        <time>2015-07-19T08:00:35Z</time>
      </trkpt>
      <trkpt lat="48.96886" lon="0.96022">
        <ele>114.099998</ele>
        <time>2015-07-19T08:00:39Z</time>
      </trkpt>
      <trkpt lat="48.96879" lon="0.9601">
        <ele>114.599998</ele>
        <time>2015-07-19T08:00:43Z</time>
      </trkpt>
      <trkpt lat="48.96873" lon="0.95998">
        <ele>115.099998</ele>
        <time>2015-07-19T08:00:47Z</time>
      </trkpt>
      <trkpt lat="48.96867" lon="0.95984">
        <ele>115.599998</ele>
        <time>2015-07-19T08:00:51Z</time>
      </trkpt>
      <trkpt lat="48.9686" lon="0.95995">
        <ele>117.099998</ele>
        <time>2015-07-19T08:01:00Z</time>
      </trkpt>
      <trkpt lat="48.96859" lon="0.96009">
        <ele>118.400002</ele>
        <time>2015-07-19T08:01:07Z</time>
      </trkpt>
      <trkpt lat="48.96857" lon="0.96023">
        <ele>119.699997</ele>
        <time>2015-07-19T08:01:13Z</time>
      </trkpt>
      <trkpt lat="48.96859" lon="0.96037">
        <ele>121.5</ele>
        <time>2015-07-19T08:01:20Z</time>
      </trkpt>
      <trkpt lat="48.96854" lon="0.9605">
        <ele>123.400002</ele>
        <time>2015-07-19T08:01:27Z</time>
      </trkpt>
      <trkpt lat="48.9685" lon="0.96062">
        <ele>125.400002</ele>
        <time>2015-07-19T08:01:34Z</time>
      </trkpt>
      <trkpt lat="48.9685" lon="0.96076">
        <ele>126.900002</ele>
        <time>2015-07-19T08:01:40Z</time>
      </trkpt>
      <trkpt lat="48.96846" lon="0.96091">
        <ele>128.399994</ele>
        <time>2015-07-19T08:01:47Z</time>
      </trkpt>
      <trkpt lat="48.96843" lon="0.96106">
        <ele>130.5</ele>
        <time>2015-07-19T08:02:08Z</time>
      </trkpt>
      <trkpt lat="48.96839" lon="0.96121">
        <ele>130.800003</ele>
        <time>2015-07-19T08:02:14Z</time>
      </trkpt>
      <trkpt lat="48.96839" lon="0.96137">
        <ele>131</ele>
        <time>2015-07-19T08:02:19Z</time>
      </trkpt>
      <trkpt lat="48.96836" lon="0.96155">
        <ele>131.100006</ele>
        <time>2015-07-19T08:02:23Z</time>
      </trkpt>
      <trkpt lat="48.96832" lon="0.9617">
        <ele>131.199997</ele>
        <time>2015-07-19T08:02:27Z</time>
      </trkpt>
      <trkpt lat="48.96831" lon="0.96184">
        <ele>131.300003</ele>
        <time>2015-07-19T08:02:30Z</time>
      </trkpt>
      <trkpt lat="48.96829" lon="0.962">
        <ele>131.5</ele>
        <time>2015-07-19T08:02:34Z</time>
      </trkpt>
      <trkpt lat="48.96829" lon="0.96216">
        <ele>131.600006</ele>
        <time>2015-07-19T08:02:38Z</time>
      </trkpt>
      <trkpt lat="48.96827" lon="0.9623">
        <ele>131.899994</ele>
        <time>2015-07-19T08:02:43Z</time>
      </trkpt>
      <trkpt lat="48.96826" lon="0.96245">
        <ele>132.199997</ele>
        <time>2015-07-19T08:02:47Z</time>
      </trkpt>
      <trkpt lat="48.96825" lon="0.96259">
        <ele>132.399994</ele>
        <time>2015-07-19T08:02:51Z</time>
      </trkpt>
      <trkpt lat="48.96822" lon="0.96273">
        <ele>132.800003</ele>
        <time>2015-07-19T08:02:55Z</time>
      </trkpt>
      <trkpt lat="48.9682" lon="0.96287">
        <ele>133.100006</ele>
        <time>2015-07-19T08:02:59Z</time>
      </trkpt>
      <trkpt lat="48.96815" lon="0.96305">
        <ele>133.300003</ele>
        <time>2015-07-19T08:03:02Z</time>
      </trkpt>
      <trkpt lat="48.96818" lon="0.9632">
        <ele>133.600006</ele>
        <time>2015-07-19T08:03:07Z</time>
      </trkpt>
      <trkpt lat="48.96825" lon="0.9633">
        <ele>133.800003</ele>
        <time>2015-07-19T08:03:11Z</time>
      </trkpt>
      <trkpt lat="48.96835" lon="0.9634">
        <ele>134</ele>
        <time>2015-07-19T08:03:16Z</time>
      </trkpt>
      <trkpt lat="48.96843" lon="0.96345">
        <ele>134.100006</ele>
        <time>2015-07-19T08:03:19Z</time>
      </trkpt>
      <trkpt lat="48.96854" lon="0.96356">
        <ele>134.100006</ele>
        <time>2015-07-19T08:03:23Z</time>
      </trkpt>
      <trkpt lat="48.96864" lon="0.96362">
        <ele>134.100006</ele>
        <time>2015-07-19T08:03:27Z</time>
      </trkpt>
      <trkpt lat="48.96876" lon="0.96363">
        <ele>134</ele>
        <time>2015-07-19T08:03:31Z</time>
      </trkpt>
      <trkpt lat="48.96887" lon="0.96369">
        <ele>133.800003</ele>
        <time>2015-07-19T08:03:34Z</time>
      </trkpt>
      <trkpt lat="48.96896" lon="0.96374">
        <ele>133.600006</ele>
        <time>2015-07-19T08:03:39Z</time>
      </trkpt>
      <trkpt lat="48.96899" lon="0.96389">
        <ele>133.399994</ele>
        <time>2015-07-19T08:03:47Z</time>
      </trkpt>
      <trkpt lat="48.96902" lon="0.96404">
        <ele>133.300003</ele>
        <time>2015-07-19T08:03:52Z</time>
      </trkpt>
      <trkpt lat="48.96907" lon="0.96417">
        <ele>133.199997</ele>
        <time>2015-07-19T08:03:55Z</time>
      </trkpt>
      <trkpt lat="48.96911" lon="0.96431">
        <ele>133</ele>
        <time>2015-07-19T08:03:59Z</time>
      </trkpt>
      <trkpt lat="48.96917" lon="0.96442">
        <ele>132.899994</ele>
        <time>2015-07-19T08:04:02Z</time>
      </trkpt>
      <trkpt lat="48.96925" lon="0.96458">
        <ele>132.800003</ele>
        <time>2015-07-19T08:04:07Z</time>
      </trkpt>
      <trkpt lat="48.96928" lon="0.96475">
        <ele>132.800003</ele>
        <time>2015-07-19T08:04:10Z</time>
      </trkpt>
      <trkpt lat="48.9693" lon="0.9649">
        <ele>132.800003</ele>
        <time>2015-07-19T08:04:13Z</time>
      </trkpt>
      <trkpt lat="48.96935" lon="0.96504">
        <ele>132.800003</ele>
        <time>2015-07-19T08:04:16Z</time>
      </trkpt>
      <trkpt lat="48.96941" lon="0.96519">
        <ele>132.899994</ele>
        <time>2015-07-19T08:04:19Z</time>
      </trkpt>
      <trkpt lat="48.96946" lon="0.96532">
        <ele>133</ele>
        <time>2015-07-19T08:04:21Z</time>
      </trkpt>
      <trkpt lat="48.96949" lon="0.96545">
        <ele>133.100006</ele>
        <time>2015-07-19T08:04:23Z</time>
      </trkpt>
      <trkpt lat="48.96958" lon="0.96563">
        <ele>133.300003</ele>
        <time>2015-07-19T08:04:26Z</time>
      </trkpt>
      <trkpt lat="48.96963" lon="0.96577">
        <ele>133.300003</ele>
        <time>2015-07-19T08:04:28Z</time>
      </trkpt>
      <trkpt lat="48.96972" lon="0.96589">
        <ele>133.399994</ele>
        <time>2015-07-19T08:04:30Z</time>
      </trkpt>
      <trkpt lat="48.96978" lon="0.96601">
        <ele>133.5</ele>
        <time>2015-07-19T08:04:32Z</time>
      </trkpt>
      <trkpt lat="48.96985" lon="0.96617">
        <ele>133.5</ele>
        <time>2015-07-19T08:04:35Z</time>
      </trkpt>
      <trkpt lat="48.9699" lon="0.96636">
        <ele>133.600006</ele>
        <time>2015-07-19T08:04:38Z</time>
      </trkpt>
      <trkpt lat="48.96996" lon="0.96648">
        <ele>133.600006</ele>
        <time>2015-07-19T08:04:40Z</time>
      </trkpt>
      <trkpt lat="48.97002" lon="0.96659">
        <ele>133.699997</ele>
        <time>2015-07-19T08:04:42Z</time>
      </trkpt>
      <trkpt lat="48.97008" lon="0.96671">
        <ele>133.699997</ele>
        <time>2015-07-19T08:04:44Z</time>
      </trkpt>
      <trkpt lat="48.97014" lon="0.96682">
        <ele>133.699997</ele>
        <time>2015-07-19T08:04:46Z</time>
      </trkpt>
      <trkpt lat="48.9702" lon="0.96695">
        <ele>133.699997</ele>
        <time>2015-07-19T08:04:48Z</time>
      </trkpt>
      <trkpt lat="48.97026" lon="0.96707">
        <ele>133.699997</ele>
        <time>2015-07-19T08:04:50Z</time>
      </trkpt>
      <trkpt lat="48.97032" lon="0.96718">
        <ele>133.800003</ele>
        <time>2015-07-19T08:04:52Z</time>
      </trkpt>
      <trkpt lat="48.97039" lon="0.9673">
        <ele>133.800003</ele>
        <time>2015-07-19T08:04:55Z</time>
      </trkpt>
      <trkpt lat="48.97046" lon="0.96741">
        <ele>133.800003</ele>
        <time>2015-07-19T08:04:58Z</time>
      </trkpt>
      <trkpt lat="48.97051" lon="0.96752">
        <ele>133.899994</ele>
        <time>2015-07-19T08:05:01Z</time>
      </trkpt>
      <trkpt lat="48.97056" lon="0.96767">
        <ele>134</ele>
        <time>2015-07-19T08:05:05Z</time>
      </trkpt>
      <trkpt lat="48.9706" lon="0.96779">
        <ele>134.100006</ele>
        <time>2015-07-19T08:05:08Z</time>
      </trkpt>
      <trkpt lat="48.97064" lon="0.96796">
        <ele>134.199997</ele>
        <time>2015-07-19T08:05:11Z</time>
      </trkpt>
      <trkpt lat="48.97069" lon="0.96811">
        <ele>134.199997</ele>
        <time>2015-07-19T08:05:15Z</time>
      </trkpt>
      <trkpt lat="48.97076" lon="0.96823">
        <ele>134.300003</ele>
        <time>2015-07-19T08:05:20Z</time>
      </trkpt>
      <trkpt lat="48.97083" lon="0.96833">
        <ele>134.399994</ele>
        <time>2015-07-19T08:05:26Z</time>
      </trkpt>
      <trkpt lat="48.97084" lon="0.9685">
        <ele>134.5</ele>
        <time>2015-07-19T08:05:39Z</time>
      </trkpt>
      <trkpt lat="48.97087" lon="0.96863">
        <ele>134.600006</ele>
        <time>2015-07-19T08:05:43Z</time>
      </trkpt>
      <trkpt lat="48.97093" lon="0.96878">
        <ele>134.600006</ele>
        <time>2015-07-19T08:05:47Z</time>
      </trkpt>
      <trkpt lat="48.97098" lon="0.9689">
        <ele>134.600006</ele>
        <time>2015-07-19T08:05:51Z</time>
      </trkpt>
      <trkpt lat="48.97101" lon="0.96904">
        <ele>134.600006</ele>
        <time>2015-07-19T08:05:55Z</time>
      </trkpt>
      <trkpt lat="48.97107" lon="0.96919">
        <ele>134.399994</ele>
        <time>2015-07-19T08:05:59Z</time>
      </trkpt>
      <trkpt lat="48.97113" lon="0.96931">
        <ele>134.300003</ele>
        <time>2015-07-19T08:06:02Z</time>
      </trkpt>
      <trkpt lat="48.97119" lon="0.96943">
        <ele>134.199997</ele>
        <time>2015-07-19T08:06:05Z</time>
      </trkpt>
      <trkpt lat="48.97123" lon="0.96958">
        <ele>134.100006</ele>
        <time>2015-07-19T08:06:09Z</time>
      </trkpt>
      <trkpt lat="48.97129" lon="0.96968">
        <ele>134.100006</ele>
        <time>2015-07-19T08:06:12Z</time>
      </trkpt>
      <trkpt lat="48.97133" lon="0.96982">
        <ele>134</ele>
        <time>2015-07-19T08:06:17Z</time>
      </trkpt>
      <trkpt lat="48.97132" lon="0.97">
        <ele>133.699997</ele>
        <time>2015-07-19T08:06:22Z</time>
      </trkpt>
      <trkpt lat="48.97128" lon="0.97012">
        <ele>132.899994</ele>
        <time>2015-07-19T08:06:28Z</time>
      </trkpt>
      <trkpt lat="48.97117" lon="0.97013">
        <ele>132.300003</ele>
        <time>2015-07-19T08:06:33Z</time>
      </trkpt>
      <trkpt lat="48.97107" lon="0.97009">
        <ele>131.899994</ele>
        <time>2015-07-19T08:06:38Z</time>
      </trkpt>
      <trkpt lat="48.97096" lon="0.97009">
        <ele>131.699997</ele>
        <time>2015-07-19T08:06:41Z</time>
      </trkpt>
      <trkpt lat="48.97085" lon="0.97005">
        <ele>131.5</ele>
        <time>2015-07-19T08:06:44Z</time>
      </trkpt>
      <trkpt lat="48.97074" lon="0.96999">
        <ele>131.399994</ele>
        <time>2015-07-19T08:06:48Z</time>
      </trkpt>
      <trkpt lat="48.97064" lon="0.96996">
        <ele>131.399994</ele>
        <time>2015-07-19T08:06:51Z</time>
      </trkpt>
      <trkpt lat="48.97052" lon="0.96993">
        <ele>131.399994</ele>
        <time>2015-07-19T08:06:54Z</time>
      </trkpt>
      <trkpt lat="48.97041" lon="0.96994">
        <ele>131.600006</ele>
        <time>2015-07-19T08:06:57Z</time>
      </trkpt>
      <trkpt lat="48.9703" lon="0.9699">
        <ele>131.699997</ele>
        <time>2015-07-19T08:07:00Z</time>
      </trkpt>
      <trkpt lat="48.97019" lon="0.96991">
        <ele>131.800003</ele>
        <time>2015-07-19T08:07:04Z</time>
      </trkpt>
      <trkpt lat="48.97009" lon="0.96991">
        <ele>131.899994</ele>
        <time>2015-07-19T08:07:07Z</time>
      </trkpt>
      <trkpt lat="48.96998" lon="0.96989">
        <ele>132</ele>
        <time>2015-07-19T08:07:11Z</time>
      </trkpt>
      <trkpt lat="48.96986" lon="0.96991">
        <ele>132</ele>
        <time>2015-07-19T08:07:14Z</time>
      </trkpt>
      <trkpt lat="48.96976" lon="0.96992">
        <ele>132</ele>
        <time>2015-07-19T08:07:17Z</time>
      </trkpt>
      <trkpt lat="48.96963" lon="0.96992">
        <ele>131.899994</ele>
        <time>2015-07-19T08:07:20Z</time>
      </trkpt>
      <trkpt lat="48.9695" lon="0.96994">
        <ele>131.800003</ele>
        <time>2015-07-19T08:07:23Z</time>
      </trkpt>
      <trkpt lat="48.9694" lon="0.96993">
        <ele>131.600006</ele>
        <time>2015-07-19T08:07:25Z</time>
      </trkpt>
      <trkpt lat="48.9693" lon="0.96993">
        <ele>131.300003</ele>
        <time>2015-07-19T08:07:28Z</time>
      </trkpt>
      <trkpt lat="48.9692" lon="0.96996">
        <ele>131</ele>
        <time>2015-07-19T08:07:31Z</time>
      </trkpt>
      <trkpt lat="48.9691" lon="0.97002">
        <ele>130.800003</ele>
        <time>2015-07-19T08:07:34Z</time>
      </trkpt>
      <trkpt lat="48.96899" lon="0.9701">
        <ele>130.800003</ele>
        <time>2015-07-19T08:07:37Z</time>
      </trkpt>
      <trkpt lat="48.96899" lon="0.97024">
        <ele>131.399994</ele>
        <time>2015-07-19T08:07:44Z</time>
      </trkpt>
      <trkpt lat="48.96904" lon="0.97039">
        <ele>131.800003</ele>
        <time>2015-07-19T08:07:48Z</time>
      </trkpt>
      <trkpt lat="48.96908" lon="0.97052">
        <ele>132.300003</ele>
        <time>2015-07-19T08:07:51Z</time>
      </trkpt>
      <trkpt lat="48.96911" lon="0.97065">
        <ele>132.800003</ele>
        <time>2015-07-19T08:07:54Z</time>
      </trkpt>
      <trkpt lat="48.96915" lon="0.97078">
        <ele>133.199997</ele>
        <time>2015-07-19T08:07:57Z</time>
      </trkpt>
      <trkpt lat="48.9692" lon="0.97092">
        <ele>133.600006</ele>
        <time>2015-07-19T08:08:00Z</time>
      </trkpt>
      <trkpt lat="48.96924" lon="0.97104">
        <ele>133.899994</ele>
        <time>2015-07-19T08:08:03Z</time>
      </trkpt>
      <trkpt lat="48.96929" lon="0.97119">
        <ele>134.199997</ele>
        <time>2015-07-19T08:08:06Z</time>
      </trkpt>
      <trkpt lat="48.96935" lon="0.97131">
        <ele>134.5</ele>
        <time>2015-07-19T08:08:09Z</time>
      </trkpt>
      <trkpt lat="48.9694" lon="0.97147">
        <ele>134.699997</ele>
        <time>2015-07-19T08:08:12Z</time>
      </trkpt>
      <trkpt lat="48.96943" lon="0.97161">
        <ele>134.899994</ele>
        <time>2015-07-19T08:08:15Z</time>
      </trkpt>
      <trkpt lat="48.96948" lon="0.97174">
        <ele>135</ele>
        <time>2015-07-19T08:08:19Z</time>
      </trkpt>
      <trkpt lat="48.96955" lon="0.97189">
        <ele>135.199997</ele>
        <time>2015-07-19T08:08:23Z</time>
      </trkpt>
      <trkpt lat="48.96963" lon="0.97201">
        <ele>135.300003</ele>
        <time>2015-07-19T08:08:27Z</time>
      </trkpt>
      <trkpt lat="48.96971" lon="0.97216">
        <ele>135.399994</ele>
        <time>2015-07-19T08:08:30Z</time>
      </trkpt>
      <trkpt lat="48.96978" lon="0.97228">
        <ele>135.300003</ele>
        <time>2015-07-19T08:08:32Z</time>
      </trkpt>
      <trkpt lat="48.96986" lon="0.97238">
        <ele>135.300003</ele>
        <time>2015-07-19T08:08:34Z</time>
      </trkpt>
      <trkpt lat="48.96991" lon="0.97252">
        <ele>135.199997</ele>
        <time>2015-07-19T08:08:36Z</time>
      </trkpt>
      <trkpt lat="48.96994" lon="0.97273">
        <ele>135.100006</ele>
        <time>2015-07-19T08:08:38Z</time>
      </trkpt>
      <trkpt lat="48.96998" lon="0.9729">
        <ele>134.899994</ele>
        <time>2015-07-19T08:08:40Z</time>
      </trkpt>
      <trkpt lat="48.97003" lon="0.97305">
        <ele>134.800003</ele>
        <time>2015-07-19T08:08:42Z</time>
      </trkpt>
      <trkpt lat="48.97009" lon="0.9732">
        <ele>134.699997</ele>
        <time>2015-07-19T08:08:44Z</time>
      </trkpt>
      <trkpt lat="48.97014" lon="0.97334">
        <ele>134.600006</ele>
        <time>2015-07-19T08:08:46Z</time>
      </trkpt>
      <trkpt lat="48.9702" lon="0.9735">
        <ele>134.399994</ele>
        <time>2015-07-19T08:08:49Z</time>
      </trkpt>
      <trkpt lat="48.97024" lon="0.97364">
        <ele>134.100006</ele>
        <time>2015-07-19T08:08:58Z</time>
      </trkpt>
      <trkpt lat="48.9702" lon="0.97378">
        <ele>134.100006</ele>
        <time>2015-07-19T08:09:02Z</time>
      </trkpt>
      <trkpt lat="48.97016" lon="0.97391">
        <ele>134</ele>
        <time>2015-07-19T08:09:06Z</time>
      </trkpt>
      <trkpt lat="48.97023" lon="0.9738">
        <ele>134</ele>
        <time>2015-07-19T08:09:18Z</time>
      </trkpt>
      <trkpt lat="48.97026" lon="0.97367">
        <ele>134</ele>
        <time>2015-07-19T08:09:21Z</time>
      </trkpt>
      <trkpt lat="48.97015" lon="0.97366">
        <ele>134</ele>
        <time>2015-07-19T08:09:29Z</time>
      </trkpt>
      <trkpt lat="48.97006" lon="0.97372">
        <ele>134</ele>
        <time>2015-07-19T08:09:32Z</time>
      </trkpt>
      <trkpt lat="48.96996" lon="0.97378">
        <ele>134</ele>
        <time>2015-07-19T08:09:35Z</time>
      </trkpt>
      <trkpt lat="48.96986" lon="0.97385">
        <ele>134</ele>
        <time>2015-07-19T08:09:38Z</time>
      </trkpt>
      <trkpt lat="48.96976" lon="0.97391">
        <ele>134.199997</ele>
        <time>2015-07-19T08:09:41Z</time>
      </trkpt>
      <trkpt lat="48.96965" lon="0.97398">
        <ele>134.399994</ele>
        <time>2015-07-19T08:09:44Z</time>
      </trkpt>
      <trkpt lat="48.96954" lon="0.97405">
        <ele>134.600006</ele>
        <time>2015-07-19T08:09:47Z</time>
      </trkpt>
      <trkpt lat="48.96943" lon="0.97413">
        <ele>134.899994</ele>
        <time>2015-07-19T08:09:50Z</time>
      </trkpt>
      <trkpt lat="48.96932" lon="0.97421">
        <ele>135.199997</ele>
        <time>2015-07-19T08:09:53Z</time>
      </trkpt>
      <trkpt lat="48.96921" lon="0.97429">
        <ele>135.5</ele>
        <time>2015-07-19T08:09:56Z</time>
      </trkpt>
      <trkpt lat="48.9691" lon="0.97436">
        <ele>135.800003</ele>
        <time>2015-07-19T08:09:59Z</time>
      </trkpt>
      <trkpt lat="48.96899" lon="0.97442">
        <ele>136.100006</ele>
        <time>2015-07-19T08:10:02Z</time>
      </trkpt>
      <trkpt lat="48.96888" lon="0.97448">
        <ele>136.600006</ele>
        <time>2015-07-19T08:10:05Z</time>
      </trkpt>
      <trkpt lat="48.96879" lon="0.97455">
        <ele>137.100006</ele>
        <time>2015-07-19T08:10:09Z</time>
      </trkpt>
      <trkpt lat="48.96867" lon="0.97463">
        <ele>137.5</ele>
        <time>2015-07-19T08:10:12Z</time>
      </trkpt>
      <trkpt lat="48.9686" lon="0.97473">
        <ele>138.100006</ele>
        <time>2015-07-19T08:10:17Z</time>
      </trkpt>
      <trkpt lat="48.96851" lon="0.9747">
        <ele>138.899994</ele>
        <time>2015-07-19T08:10:26Z</time>
      </trkpt>
      <trkpt lat="48.96842" lon="0.97475">
        <ele>139.199997</ele>
        <time>2015-07-19T08:10:30Z</time>
      </trkpt>
      <trkpt lat="48.96831" lon="0.97481">
        <ele>139.600006</ele>
        <time>2015-07-19T08:10:35Z</time>
      </trkpt>
      <trkpt lat="48.96821" lon="0.97487">
        <ele>140</ele>
        <time>2015-07-19T08:10:39Z</time>
      </trkpt>
      <trkpt lat="48.9681" lon="0.97493">
        <ele>140.5</ele>
        <time>2015-07-19T08:10:45Z</time>
      </trkpt>
      <trkpt lat="48.96802" lon="0.97499">
        <ele>140.899994</ele>
        <time>2015-07-19T08:10:48Z</time>
      </trkpt>
      <trkpt lat="48.96793" lon="0.97505">
        <ele>141.300003</ele>
        <time>2015-07-19T08:10:51Z</time>
      </trkpt>
      <trkpt lat="48.96782" lon="0.97513">
        <ele>142</ele>
        <time>2015-07-19T08:10:55Z</time>
      </trkpt>
      <trkpt lat="48.96772" lon="0.97518">
        <ele>142.300003</ele>
        <time>2015-07-19T08:10:58Z</time>
      </trkpt>
      <trkpt lat="48.96762" lon="0.97523">
        <ele>142.600006</ele>
        <time>2015-07-19T08:11:01Z</time>
      </trkpt>
      <trkpt lat="48.96752" lon="0.9753">
        <ele>142.899994</ele>
        <time>2015-07-19T08:11:05Z</time>
      </trkpt>
      <trkpt lat="48.9674" lon="0.97537">
        <ele>143.199997</ele>
        <time>2015-07-19T08:11:10Z</time>
      </trkpt>
      <trkpt lat="48.96731" lon="0.97542">
        <ele>143.300003</ele>
        <time>2015-07-19T08:11:12Z</time>
      </trkpt>
      <trkpt lat="48.96721" lon="0.97547">
        <ele>143.600006</ele>
        <time>2015-07-19T08:11:16Z</time>
      </trkpt>
      <trkpt lat="48.96712" lon="0.97553">
        <ele>143.800003</ele>
        <time>2015-07-19T08:11:20Z</time>
      </trkpt>
      <trkpt lat="48.96703" lon="0.9756">
        <ele>143.899994</ele>
        <time>2015-07-19T08:11:23Z</time>
      </trkpt>
      <trkpt lat="48.96694" lon="0.97567">
        <ele>144.100006</ele>
        <time>2015-07-19T08:11:26Z</time>
      </trkpt>
      <trkpt lat="48.96683" lon="0.97574">
        <ele>144.199997</ele>
        <time>2015-07-19T08:11:30Z</time>
      </trkpt>
      <trkpt lat="48.96672" lon="0.97581">
        <ele>144.399994</ele>
        <time>2015-07-19T08:11:33Z</time>
      </trkpt>
      <trkpt lat="48.96662" lon="0.97591">
        <ele>144.600006</ele>
        <time>2015-07-19T08:11:36Z</time>
      </trkpt>
      <trkpt lat="48.96661" lon="0.97608">
        <ele>144.800003</ele>
        <time>2015-07-19T08:11:40Z</time>
      </trkpt>
      <trkpt lat="48.96666" lon="0.97623">
        <ele>145.100006</ele>
        <time>2015-07-19T08:11:44Z</time>
      </trkpt>
      <trkpt lat="48.96671" lon="0.97639">
        <ele>145.199997</ele>
        <time>2015-07-19T08:11:48Z</time>
      </trkpt>
      <trkpt lat="48.96674" lon="0.97653">
        <ele>145.300003</ele>
        <time>2015-07-19T08:11:51Z</time>
      </trkpt>
      <trkpt lat="48.96679" lon="0.97665">
        <ele>145.399994</ele>
        <time>2015-07-19T08:11:53Z</time>
      </trkpt>
      <trkpt lat="48.96686" lon="0.97681">
        <ele>145.5</ele>
        <time>2015-07-19T08:11:56Z</time>
      </trkpt>
      <trkpt lat="48.96694" lon="0.97695">
        <ele>145.5</ele>
        <time>2015-07-19T08:11:59Z</time>
      </trkpt>
      <trkpt lat="48.967" lon="0.97707">
        <ele>145.5</ele>
        <time>2015-07-19T08:12:01Z</time>
      </trkpt>
      <trkpt lat="48.96708" lon="0.97722">
        <ele>145.600006</ele>
        <time>2015-07-19T08:12:04Z</time>
      </trkpt>
      <trkpt lat="48.96714" lon="0.9774">
        <ele>145.600006</ele>
        <time>2015-07-19T08:12:07Z</time>
      </trkpt>
      <trkpt lat="48.96719" lon="0.97758">
        <ele>145.699997</ele>
        <time>2015-07-19T08:12:10Z</time>
      </trkpt>
      <trkpt lat="48.96725" lon="0.97771">
        <ele>145.699997</ele>
        <time>2015-07-19T08:12:12Z</time>
      </trkpt>
      <trkpt lat="48.96731" lon="0.97786">
        <ele>145.699997</ele>
        <time>2015-07-19T08:12:15Z</time>
      </trkpt>
      <trkpt lat="48.96729" lon="0.978">
        <ele>145.699997</ele>
        <time>2015-07-19T08:12:17Z</time>
      </trkpt>
      <trkpt lat="48.96726" lon="0.97817">
        <ele>145.699997</ele>
        <time>2015-07-19T08:12:22Z</time>
      </trkpt>
      <trkpt lat="48.96724" lon="0.9783">
        <ele>145.600006</ele>
        <time>2015-07-19T08:12:26Z</time>
      </trkpt>
      <trkpt lat="48.9672" lon="0.97845">
        <ele>145.600006</ele>
        <time>2015-07-19T08:12:29Z</time>
      </trkpt>
      <trkpt lat="48.96729" lon="0.97859">
        <ele>145.600006</ele>
        <time>2015-07-19T08:12:31Z</time>
      </trkpt>
      <trkpt lat="48.96733" lon="0.97878">
        <ele>145.600006</ele>
        <time>2015-07-19T08:12:34Z</time>
      </trkpt>
      <trkpt lat="48.96736" lon="0.97893">
        <ele>145.600006</ele>
        <time>2015-07-19T08:12:36Z</time>
      </trkpt>
      <trkpt lat="48.9674" lon="0.97907">
        <ele>145.600006</ele>
        <time>2015-07-19T08:12:38Z</time>
      </trkpt>
      <trkpt lat="48.96742" lon="0.97921">
        <ele>145.600006</ele>
        <time>2015-07-19T08:12:40Z</time>
      </trkpt>
      <trkpt lat="48.96746" lon="0.9794">
        <ele>145.5</ele>
        <time>2015-07-19T08:12:42Z</time>
      </trkpt>
      <trkpt lat="48.96749" lon="0.97957">
        <ele>145.399994</ele>
        <time>2015-07-19T08:12:44Z</time>
      </trkpt>
      <trkpt lat="48.96756" lon="0.97973">
        <ele>145.300003</ele>
        <time>2015-07-19T08:12:46Z</time>
      </trkpt>
      <trkpt lat="48.96763" lon="0.9799">
        <ele>145.100006</ele>
        <time>2015-07-19T08:12:48Z</time>
      </trkpt>
      <trkpt lat="48.96771" lon="0.98002">
        <ele>144.899994</ele>
        <time>2015-07-19T08:12:50Z</time>
      </trkpt>
      <trkpt lat="48.96779" lon="0.98013">
        <ele>144.699997</ele>
        <time>2015-07-19T08:12:52Z</time>
      </trkpt>
      <trkpt lat="48.96786" lon="0.98026">
        <ele>144.5</ele>
        <time>2015-07-19T08:12:54Z</time>
      </trkpt>
      <trkpt lat="48.96782" lon="0.98044">
        <ele>144.199997</ele>
        <time>2015-07-19T08:12:56Z</time>
      </trkpt>
      <trkpt lat="48.96785" lon="0.9806">
        <ele>144</ele>
        <time>2015-07-19T08:12:59Z</time>
      </trkpt>
      <trkpt lat="48.9679" lon="0.98076">
        <ele>143.699997</ele>
        <time>2015-07-19T08:13:02Z</time>
      </trkpt>
      <trkpt lat="48.96794" lon="0.9809">
        <ele>143.5</ele>
        <time>2015-07-19T08:13:05Z</time>
      </trkpt>
      <trkpt lat="48.96805" lon="0.98091">
        <ele>143.300003</ele>
        <time>2015-07-19T08:13:09Z</time>
      </trkpt>
      <trkpt lat="48.96815" lon="0.98086">
        <ele>143.100006</ele>
        <time>2015-07-19T08:13:11Z</time>
      </trkpt>
      <trkpt lat="48.96825" lon="0.98079">
        <ele>142.899994</ele>
        <time>2015-07-19T08:13:14Z</time>
      </trkpt>
      <trkpt lat="48.96837" lon="0.98073">
        <ele>142.699997</ele>
        <time>2015-07-19T08:13:16Z</time>
      </trkpt>
      <trkpt lat="48.96847" lon="0.98065">
        <ele>142.600006</ele>
        <time>2015-07-19T08:13:18Z</time>
      </trkpt>
      <trkpt lat="48.96858" lon="0.98056">
        <ele>142.5</ele>
        <time>2015-07-19T08:13:21Z</time>
      </trkpt>
      <trkpt lat="48.96868" lon="0.98051">
        <ele>142.300003</ele>
        <time>2015-07-19T08:13:24Z</time>
      </trkpt>
      <trkpt lat="48.96878" lon="0.9805">
        <ele>142.300003</ele>
        <time>2015-07-19T08:13:26Z</time>
      </trkpt>
      <trkpt lat="48.9689" lon="0.98051">
        <ele>142.199997</ele>
        <time>2015-07-19T08:13:29Z</time>
      </trkpt>
      <trkpt lat="48.96903" lon="0.98054">
        <ele>142.100006</ele>
        <time>2015-07-19T08:13:32Z</time>
      </trkpt>
      <trkpt lat="48.96916" lon="0.98056">
        <ele>142</ele>
        <time>2015-07-19T08:13:35Z</time>
      </trkpt>
      <trkpt lat="48.96927" lon="0.98062">
        <ele>141.899994</ele>
        <time>2015-07-19T08:13:37Z</time>
      </trkpt>
      <trkpt lat="48.96936" lon="0.98066">
        <ele>141.699997</ele>
        <time>2015-07-19T08:13:39Z</time>
      </trkpt>
      <trkpt lat="48.96946" lon="0.98072">
        <ele>141.399994</ele>
        <time>2015-07-19T08:13:41Z</time>
      </trkpt>
      <trkpt lat="48.96956" lon="0.98081">
        <ele>141.199997</ele>
        <time>2015-07-19T08:13:43Z</time>
      </trkpt>
      <trkpt lat="48.96964" lon="0.98094">
        <ele>140.699997</ele>
        <time>2015-07-19T08:13:46Z</time>
      </trkpt>
      <trkpt lat="48.96974" lon="0.98107">
        <ele>140.300003</ele>
        <time>2015-07-19T08:13:48Z</time>
      </trkpt>
      <trkpt lat="48.9698" lon="0.98119">
        <ele>139.899994</ele>
        <time>2015-07-19T08:13:50Z</time>
      </trkpt>
      <trkpt lat="48.96983" lon="0.98133">
        <ele>139.5</ele>
        <time>2015-07-19T08:13:52Z</time>
      </trkpt>
      <trkpt lat="48.96987" lon="0.98146">
        <ele>139</ele>
        <time>2015-07-19T08:13:54Z</time>
      </trkpt>
      <trkpt lat="48.96992" lon="0.98164">
        <ele>138.300003</ele>
        <time>2015-07-19T08:13:57Z</time>
      </trkpt>
      <trkpt lat="48.96996" lon="0.9818">
        <ele>137.899994</ele>
        <time>2015-07-19T08:13:59Z</time>
      </trkpt>
      <trkpt lat="48.96997" lon="0.98194">
        <ele>137.5</ele>
        <time>2015-07-19T08:14:01Z</time>
      </trkpt>
      <trkpt lat="48.97001" lon="0.9821">
        <ele>136.800003</ele>
        <time>2015-07-19T08:14:05Z</time>
      </trkpt>
      <trkpt lat="48.97003" lon="0.98224">
        <ele>136.399994</ele>
        <time>2015-07-19T08:14:08Z</time>
      </trkpt>
      <trkpt lat="48.97013" lon="0.98228">
        <ele>136</ele>
        <time>2015-07-19T08:14:12Z</time>
      </trkpt>
      <trkpt lat="48.97022" lon="0.98231">
        <ele>135.800003</ele>
        <time>2015-07-19T08:14:18Z</time>
      </trkpt>
      <trkpt lat="48.97031" lon="0.98233">
        <ele>135.800003</ele>
        <time>2015-07-19T08:14:23Z</time>
      </trkpt>
      <trkpt lat="48.97041" lon="0.98232">
        <ele>135.899994</ele>
        <time>2015-07-19T08:14:41Z</time>
      </trkpt>
      <trkpt lat="48.9705" lon="0.98227">
        <ele>135.899994</ele>
        <time>2015-07-19T08:14:46Z</time>
      </trkpt>
      <trkpt lat="48.97061" lon="0.98221">
        <ele>135.899994</ele>
        <time>2015-07-19T08:14:49Z</time>
      </trkpt>
      <trkpt lat="48.9707" lon="0.98218">
        <ele>135.899994</ele>
        <time>2015-07-19T08:14:51Z</time>
      </trkpt>
      <trkpt lat="48.97079" lon="0.98213">
        <ele>135.899994</ele>
        <time>2015-07-19T08:14:54Z</time>
      </trkpt>
      <trkpt lat="48.9709" lon="0.98204">
        <ele>135.699997</ele>
        <time>2015-07-19T08:14:57Z</time>
      </trkpt>
      <trkpt lat="48.97102" lon="0.98198">
        <ele>135.300003</ele>
        <time>2015-07-19T08:15:00Z</time>
      </trkpt>
      <trkpt lat="48.97112" lon="0.98206">
        <ele>134.800003</ele>
        <time>2015-07-19T08:15:03Z</time>
      </trkpt>
      <trkpt lat="48.97117" lon="0.98218">
        <ele>134.399994</ele>
        <time>2015-07-19T08:15:05Z</time>
      </trkpt>
      <trkpt lat="48.97124" lon="0.98236">
        <ele>133.899994</ele>
        <time>2015-07-19T08:15:08Z</time>
      </trkpt>
      <trkpt lat="48.97129" lon="0.98251">
        <ele>133.399994</ele>
        <time>2015-07-19T08:15:11Z</time>
      </trkpt>
      <trkpt lat="48.97132" lon="0.9827">
        <ele>133.100006</ele>
        <time>2015-07-19T08:15:14Z</time>
      </trkpt>
      <trkpt lat="48.97139" lon="0.98281">
        <ele>132.899994</ele>
        <time>2015-07-19T08:15:16Z</time>
      </trkpt>
      <trkpt lat="48.97149" lon="0.98297">
        <ele>132.600006</ele>
        <time>2015-07-19T08:15:19Z</time>
      </trkpt>
      <trkpt lat="48.97154" lon="0.98312">
        <ele>132.5</ele>
        <time>2015-07-19T08:15:21Z</time>
      </trkpt>
      <trkpt lat="48.97159" lon="0.98324">
        <ele>132.300003</ele>
        <time>2015-07-19T08:15:23Z</time>
      </trkpt>
      <trkpt lat="48.97164" lon="0.98338">
        <ele>131.899994</ele>
        <time>2015-07-19T08:15:26Z</time>
      </trkpt>
      <trkpt lat="48.9717" lon="0.98351">
        <ele>131.5</ele>
        <time>2015-07-19T08:15:30Z</time>
      </trkpt>
      <trkpt lat="48.97177" lon="0.98361">
        <ele>131.199997</ele>
        <time>2015-07-19T08:15:35Z</time>
      </trkpt>
      <trkpt lat="48.97181" lon="0.98373">
        <ele>130.699997</ele>
        <time>2015-07-19T08:15:48Z</time>
      </trkpt>
      <trkpt lat="48.97185" lon="0.98388">
        <ele>130.5</ele>
        <time>2015-07-19T08:16:04Z</time>
      </trkpt>
      <trkpt lat="48.97189" lon="0.98404">
        <ele>130.5</ele>
        <time>2015-07-19T08:16:08Z</time>
      </trkpt>
      <trkpt lat="48.97193" lon="0.98416">
        <ele>130.5</ele>
        <time>2015-07-19T08:16:11Z</time>
      </trkpt>
      <trkpt lat="48.97198" lon="0.98431">
        <ele>130.600006</ele>
        <time>2015-07-19T08:16:14Z</time>
      </trkpt>
      <trkpt lat="48.97205" lon="0.98445">
        <ele>130.600006</ele>
        <time>2015-07-19T08:16:17Z</time>
      </trkpt>
      <trkpt lat="48.97212" lon="0.98459">
        <ele>130.5</ele>
        <time>2015-07-19T08:16:20Z</time>
      </trkpt>
      <trkpt lat="48.97219" lon="0.9847">
        <ele>130.399994</ele>
        <time>2015-07-19T08:16:23Z</time>
      </trkpt>
      <trkpt lat="48.9723" lon="0.98482">
        <ele>130.300003</ele>
        <time>2015-07-19T08:16:26Z</time>
      </trkpt>
      <trkpt lat="48.9724" lon="0.98489">
        <ele>130</ele>
        <time>2015-07-19T08:16:29Z</time>
      </trkpt>
      <trkpt lat="48.97248" lon="0.98498">
        <ele>129.699997</ele>
        <time>2015-07-19T08:16:32Z</time>
      </trkpt>
      <trkpt lat="48.97259" lon="0.98505">
        <ele>129.300003</ele>
        <time>2015-07-19T08:16:36Z</time>
      </trkpt>
      <trkpt lat="48.9727" lon="0.98515">
        <ele>129.100006</ele>
        <time>2015-07-19T08:16:39Z</time>
      </trkpt>
      <trkpt lat="48.97279" lon="0.98523">
        <ele>129</ele>
        <time>2015-07-19T08:16:41Z</time>
      </trkpt>
      <trkpt lat="48.97289" lon="0.98533">
        <ele>128.800003</ele>
        <time>2015-07-19T08:16:44Z</time>
      </trkpt>
      <trkpt lat="48.97303" lon="0.9854">
        <ele>128.600006</ele>
        <time>2015-07-19T08:16:47Z</time>
      </trkpt>
      <trkpt lat="48.97311" lon="0.98549">
        <ele>128.5</ele>
        <time>2015-07-19T08:16:49Z</time>
      </trkpt>
      <trkpt lat="48.97322" lon="0.98557">
        <ele>128.399994</ele>
        <time>2015-07-19T08:16:51Z</time>
      </trkpt>
      <trkpt lat="48.97331" lon="0.98566">
        <ele>128.300003</ele>
        <time>2015-07-19T08:16:53Z</time>
      </trkpt>
      <trkpt lat="48.9734" lon="0.98572">
        <ele>128.199997</ele>
        <time>2015-07-19T08:16:55Z</time>
      </trkpt>
      <trkpt lat="48.97349" lon="0.9858">
        <ele>128</ele>
        <time>2015-07-19T08:16:57Z</time>
      </trkpt>
      <trkpt lat="48.97359" lon="0.98586">
        <ele>127.800003</ele>
        <time>2015-07-19T08:17:00Z</time>
      </trkpt>
      <trkpt lat="48.97369" lon="0.98592">
        <ele>127.300003</ele>
        <time>2015-07-19T08:17:03Z</time>
      </trkpt>
      <trkpt lat="48.97379" lon="0.986">
        <ele>126.699997</ele>
        <time>2015-07-19T08:17:06Z</time>
      </trkpt>
      <trkpt lat="48.97386" lon="0.98612">
        <ele>126</ele>
        <time>2015-07-19T08:17:10Z</time>
      </trkpt>
      <trkpt lat="48.97391" lon="0.98626">
        <ele>125.300003</ele>
        <time>2015-07-19T08:17:14Z</time>
      </trkpt>
      <trkpt lat="48.97398" lon="0.98637">
        <ele>124.400002</ele>
        <time>2015-07-19T08:17:20Z</time>
      </trkpt>
      <trkpt lat="48.97405" lon="0.98646">
        <ele>123.300003</ele>
        <time>2015-07-19T08:17:29Z</time>
      </trkpt>
      <trkpt lat="48.97407" lon="0.98629">
        <ele>122.099998</ele>
        <time>2015-07-19T08:18:00Z</time>
      </trkpt>
      <trkpt lat="48.97399" lon="0.98616">
        <ele>122.099998</ele>
        <time>2015-07-19T08:18:05Z</time>
      </trkpt>
      <trkpt lat="48.97391" lon="0.98607">
        <ele>122.300003</ele>
        <time>2015-07-19T08:18:08Z</time>
      </trkpt>
      <trkpt lat="48.97383" lon="0.986">
        <ele>122.5</ele>
        <time>2015-07-19T08:18:11Z</time>
      </trkpt>
      <trkpt lat="48.97375" lon="0.98592">
        <ele>122.800003</ele>
        <time>2015-07-19T08:18:14Z</time>
      </trkpt>
      <trkpt lat="48.97365" lon="0.98585">
        <ele>123.099998</ele>
        <time>2015-07-19T08:18:18Z</time>
      </trkpt>
      <trkpt lat="48.97356" lon="0.9858">
        <ele>124.300003</ele>
        <time>2015-07-19T08:18:30Z</time>
      </trkpt>
      <trkpt lat="48.97346" lon="0.98579">
        <ele>125</ele>
        <time>2015-07-19T08:18:47Z</time>
      </trkpt>
      <trkpt lat="48.97336" lon="0.98572">
        <ele>125.099998</ele>
        <time>2015-07-19T08:18:51Z</time>
      </trkpt>
      <trkpt lat="48.97326" lon="0.98563">
        <ele>125.199997</ele>
        <time>2015-07-19T08:18:55Z</time>
      </trkpt>
      <trkpt lat="48.97316" lon="0.98553">
        <ele>125.300003</ele>
        <time>2015-07-19T08:18:59Z</time>
      </trkpt>
      <trkpt lat="48.97306" lon="0.98546">
        <ele>125.5</ele>
        <time>2015-07-19T08:19:02Z</time>
      </trkpt>
      <trkpt lat="48.97296" lon="0.98541">
        <ele>125.599998</ele>
        <time>2015-07-19T08:19:05Z</time>
      </trkpt>
      <trkpt lat="48.97287" lon="0.98542">
        <ele>125.800003</ele>
        <time>2015-07-19T08:19:11Z</time>
      </trkpt>
      <trkpt lat="48.97278" lon="0.98553">
        <ele>126.400002</ele>
        <time>2015-07-19T08:19:19Z</time>
      </trkpt>
      <trkpt lat="48.97269" lon="0.98559">
        <ele>126.699997</ele>
        <time>2015-07-19T08:19:22Z</time>
      </trkpt>
      <trkpt lat="48.97261" lon="0.98567">
        <ele>127.099998</ele>
        <time>2015-07-19T08:19:26Z</time>
      </trkpt>
      <trkpt lat="48.97249" lon="0.98572">
        <ele>127.300003</ele>
        <time>2015-07-19T08:19:29Z</time>
      </trkpt>
      <trkpt lat="48.97238" lon="0.98577">
        <ele>127.5</ele>
        <time>2015-07-19T08:19:31Z</time>
      </trkpt>
      <trkpt lat="48.97225" lon="0.98578">
        <ele>127.900002</ele>
        <time>2015-07-19T08:19:34Z</time>
      </trkpt>
      <trkpt lat="48.97215" lon="0.9858">
        <ele>128.199997</ele>
        <time>2015-07-19T08:19:37Z</time>
      </trkpt>
      <trkpt lat="48.97206" lon="0.98581">
        <ele>128.5</ele>
        <time>2015-07-19T08:19:40Z</time>
      </trkpt>
      <trkpt lat="48.97193" lon="0.98582">
        <ele>128.899994</ele>
        <time>2015-07-19T08:19:44Z</time>
      </trkpt>
      <trkpt lat="48.97183" lon="0.98584">
        <ele>129.100006</ele>
        <time>2015-07-19T08:19:46Z</time>
      </trkpt>
      <trkpt lat="48.97172" lon="0.98587">
        <ele>129.399994</ele>
        <time>2015-07-19T08:19:49Z</time>
      </trkpt>
      <trkpt lat="48.97161" lon="0.98594">
        <ele>129.699997</ele>
        <time>2015-07-19T08:19:52Z</time>
      </trkpt>
      <trkpt lat="48.97152" lon="0.986">
        <ele>130.100006</ele>
        <time>2015-07-19T08:19:56Z</time>
      </trkpt>
      <trkpt lat="48.97141" lon="0.98607">
        <ele>130.399994</ele>
        <time>2015-07-19T08:20:00Z</time>
      </trkpt>
      <trkpt lat="48.97131" lon="0.98609">
        <ele>130.699997</ele>
        <time>2015-07-19T08:20:05Z</time>
      </trkpt>
      <trkpt lat="48.97122" lon="0.98613">
        <ele>130.899994</ele>
        <time>2015-07-19T08:20:10Z</time>
      </trkpt>
      <trkpt lat="48.97111" lon="0.98617">
        <ele>131</ele>
        <time>2015-07-19T08:20:15Z</time>
      </trkpt>
      <trkpt lat="48.971" lon="0.98617">
        <ele>131.100006</ele>
        <time>2015-07-19T08:20:18Z</time>
      </trkpt>
      <trkpt lat="48.9709" lon="0.9862">
        <ele>131.199997</ele>
        <time>2015-07-19T08:20:21Z</time>
      </trkpt>
      <trkpt lat="48.97081" lon="0.98625">
        <ele>131.199997</ele>
        <time>2015-07-19T08:20:24Z</time>
      </trkpt>
      <trkpt lat="48.97074" lon="0.98633">
        <ele>131.199997</ele>
        <time>2015-07-19T08:20:26Z</time>
      </trkpt>
      <trkpt lat="48.97064" lon="0.98639">
        <ele>131.199997</ele>
        <time>2015-07-19T08:20:29Z</time>
      </trkpt>
      <trkpt lat="48.97054" lon="0.98646">
        <ele>131.199997</ele>
        <time>2015-07-19T08:20:32Z</time>
      </trkpt>
      <trkpt lat="48.97045" lon="0.9865">
        <ele>131.199997</ele>
        <time>2015-07-19T08:20:35Z</time>
      </trkpt>
      <trkpt lat="48.97036" lon="0.98657">
        <ele>131.199997</ele>
        <time>2015-07-19T08:20:39Z</time>
      </trkpt>
      <trkpt lat="48.97045" lon="0.98653">
        <ele>131.399994</ele>
        <time>2015-07-19T08:20:53Z</time>
      </trkpt>
      <trkpt lat="48.97056" lon="0.98659">
        <ele>131.399994</ele>
        <time>2015-07-19T08:20:57Z</time>
      </trkpt>
      <trkpt lat="48.97062" lon="0.9867">
        <ele>131.300003</ele>
        <time>2015-07-19T08:21:00Z</time>
      </trkpt>
      <trkpt lat="48.97069" lon="0.98683">
        <ele>131.100006</ele>
        <time>2015-07-19T08:21:04Z</time>
      </trkpt>
      <trkpt lat="48.97077" lon="0.98695">
        <ele>131</ele>
        <time>2015-07-19T08:21:08Z</time>
      </trkpt>
      <trkpt lat="48.97081" lon="0.98709">
        <ele>130.800003</ele>
        <time>2015-07-19T08:21:12Z</time>
      </trkpt>
      <trkpt lat="48.97089" lon="0.98719">
        <ele>130.600006</ele>
        <time>2015-07-19T08:21:15Z</time>
      </trkpt>
      <trkpt lat="48.97097" lon="0.98734">
        <ele>130.300003</ele>
        <time>2015-07-19T08:21:18Z</time>
      </trkpt>
      <trkpt lat="48.97106" lon="0.98744">
        <ele>130</ele>
        <time>2015-07-19T08:21:20Z</time>
      </trkpt>
      <trkpt lat="48.97113" lon="0.98755">
        <ele>129.600006</ele>
        <time>2015-07-19T08:21:22Z</time>
      </trkpt>
      <trkpt lat="48.97119" lon="0.98766">
        <ele>129.300003</ele>
        <time>2015-07-19T08:21:24Z</time>
      </trkpt>
      <trkpt lat="48.97125" lon="0.9878">
        <ele>128.899994</ele>
        <time>2015-07-19T08:21:27Z</time>
      </trkpt>
      <trkpt lat="48.97132" lon="0.98788">
        <ele>128.600006</ele>
        <time>2015-07-19T08:21:29Z</time>
      </trkpt>
      <trkpt lat="48.97142" lon="0.98798">
        <ele>128.100006</ele>
        <time>2015-07-19T08:21:32Z</time>
      </trkpt>
      <trkpt lat="48.97154" lon="0.988">
        <ele>127.400002</ele>
        <time>2015-07-19T08:21:35Z</time>
      </trkpt>
      <trkpt lat="48.97167" lon="0.98803">
        <ele>126.800003</ele>
        <time>2015-07-19T08:21:39Z</time>
      </trkpt>
      <trkpt lat="48.97179" lon="0.98806">
        <ele>126.599998</ele>
        <time>2015-07-19T08:21:42Z</time>
      </trkpt>
      <trkpt lat="48.97191" lon="0.98809">
        <ele>126.5</ele>
        <time>2015-07-19T08:21:45Z</time>
      </trkpt>
      <trkpt lat="48.97201" lon="0.98815">
        <ele>126.5</ele>
        <time>2015-07-19T08:21:47Z</time>
      </trkpt>
      <trkpt lat="48.9721" lon="0.98823">
        <ele>126.5</ele>
        <time>2015-07-19T08:21:49Z</time>
      </trkpt>
      <trkpt lat="48.97219" lon="0.98829">
        <ele>126.5</ele>
        <time>2015-07-19T08:21:51Z</time>
      </trkpt>
      <trkpt lat="48.97229" lon="0.98838">
        <ele>126.5</ele>
        <time>2015-07-19T08:21:53Z</time>
      </trkpt>
      <trkpt lat="48.97239" lon="0.98843">
        <ele>126.5</ele>
        <time>2015-07-19T08:21:55Z</time>
      </trkpt>
      <trkpt lat="48.97249" lon="0.98848">
        <ele>126.5</ele>
        <time>2015-07-19T08:21:57Z</time>
      </trkpt>
      <trkpt lat="48.97258" lon="0.98856">
        <ele>126.400002</ele>
        <time>2015-07-19T08:21:59Z</time>
      </trkpt>
      <trkpt lat="48.97269" lon="0.98861">
        <ele>126.199997</ele>
        <time>2015-07-19T08:22:01Z</time>
      </trkpt>
      <trkpt lat="48.97281" lon="0.98865">
        <ele>126</ele>
        <time>2015-07-19T08:22:04Z</time>
      </trkpt>
      <trkpt lat="48.9729" lon="0.98867">
        <ele>125.800003</ele>
        <time>2015-07-19T08:22:06Z</time>
      </trkpt>
      <trkpt lat="48.973" lon="0.98879">
        <ele>125.5</ele>
        <time>2015-07-19T08:22:09Z</time>
      </trkpt>
      <trkpt lat="48.97309" lon="0.98889">
        <ele>125.400002</ele>
        <time>2015-07-19T08:22:11Z</time>
      </trkpt>
      <trkpt lat="48.97317" lon="0.98895">
        <ele>125.099998</ele>
        <time>2015-07-19T08:22:13Z</time>
      </trkpt>
      <trkpt lat="48.97329" lon="0.98906">
        <ele>124.800003</ele>
        <time>2015-07-19T08:22:16Z</time>
      </trkpt>
      <trkpt lat="48.97341" lon="0.9891">
        <ele>124.599998</ele>
        <time>2015-07-19T08:22:18Z</time>
      </trkpt>
      <trkpt lat="48.97352" lon="0.98917">
        <ele>124</ele>
        <time>2015-07-19T08:22:21Z</time>
      </trkpt>
      <trkpt lat="48.97361" lon="0.98924">
        <ele>123.699997</ele>
        <time>2015-07-19T08:22:23Z</time>
      </trkpt>
      <trkpt lat="48.97371" lon="0.98928">
        <ele>123.400002</ele>
        <time>2015-07-19T08:22:25Z</time>
      </trkpt>
      <trkpt lat="48.97382" lon="0.98934">
        <ele>122.699997</ele>
        <time>2015-07-19T08:22:28Z</time>
      </trkpt>
      <trkpt lat="48.97393" lon="0.98941">
        <ele>122.300003</ele>
        <time>2015-07-19T08:22:30Z</time>
      </trkpt>
      <trkpt lat="48.97404" lon="0.98946">
        <ele>121.800003</ele>
        <time>2015-07-19T08:22:32Z</time>
      </trkpt>
      <trkpt lat="48.97416" lon="0.98946">
        <ele>121.099998</ele>
        <time>2015-07-19T08:22:35Z</time>
      </trkpt>
      <trkpt lat="48.97427" lon="0.98946">
        <ele>120.199997</ele>
        <time>2015-07-19T08:22:38Z</time>
      </trkpt>
      <trkpt lat="48.97439" lon="0.9895">
        <ele>118.599998</ele>
        <time>2015-07-19T08:22:44Z</time>
      </trkpt>
      <trkpt lat="48.97449" lon="0.98962">
        <ele>117.900002</ele>
        <time>2015-07-19T08:22:47Z</time>
      </trkpt>
      <trkpt lat="48.97458" lon="0.98973">
        <ele>117.099998</ele>
        <time>2015-07-19T08:22:50Z</time>
      </trkpt>
      <trkpt lat="48.97468" lon="0.9898">
        <ele>116.300003</ele>
        <time>2015-07-19T08:22:53Z</time>
      </trkpt>
      <trkpt lat="48.97477" lon="0.98982">
        <ele>115</ele>
        <time>2015-07-19T08:22:57Z</time>
      </trkpt>
      <trkpt lat="48.97487" lon="0.98986">
        <ele>114</ele>
        <time>2015-07-19T08:23:00Z</time>
      </trkpt>
      <trkpt lat="48.975" lon="0.98995">
        <ele>112.900002</ele>
        <time>2015-07-19T08:23:03Z</time>
      </trkpt>
      <trkpt lat="48.97512" lon="0.99001">
        <ele>112</ele>
        <time>2015-07-19T08:23:05Z</time>
      </trkpt>
      <trkpt lat="48.97522" lon="0.99006">
        <ele>110.800003</ele>
        <time>2015-07-19T08:23:08Z</time>
      </trkpt>
      <trkpt lat="48.97531" lon="0.99014">
        <ele>109.5</ele>
        <time>2015-07-19T08:23:11Z</time>
      </trkpt>
      <trkpt lat="48.97541" lon="0.9902">
        <ele>108.400002</ele>
        <time>2015-07-19T08:23:14Z</time>
      </trkpt>
      <trkpt lat="48.97549" lon="0.99025">
        <ele>107.300003</ele>
        <time>2015-07-19T08:23:17Z</time>
      </trkpt>
      <trkpt lat="48.9756" lon="0.99031">
        <ele>106.300003</ele>
        <time>2015-07-19T08:23:20Z</time>
      </trkpt>
      <trkpt lat="48.9757" lon="0.99036">
        <ele>104.599998</ele>
        <time>2015-07-19T08:23:26Z</time>
      </trkpt>
      <trkpt lat="48.97579" lon="0.9904">
        <ele>101.800003</ele>
        <time>2015-07-19T08:23:42Z</time>
      </trkpt>
      <trkpt lat="48.97588" lon="0.99044">
        <ele>100.599998</ele>
        <time>2015-07-19T08:23:53Z</time>
      </trkpt>
      <trkpt lat="48.97598" lon="0.99044">
        <ele>100.099998</ele>
        <time>2015-07-19T08:23:57Z</time>
      </trkpt>
      <trkpt lat="48.97607" lon="0.99047">
        <ele>97.599998</ele>
        <time>2015-07-19T08:24:16Z</time>
      </trkpt>
      <trkpt lat="48.97616" lon="0.99046">
        <ele>96.800003</ele>
        <time>2015-07-19T08:24:40Z</time>
      </trkpt>
      <trkpt lat="48.97625" lon="0.99045">
        <ele>94.900002</ele>
        <time>2015-07-19T08:30:03Z</time>
      </trkpt>
      <trkpt lat="48.9762" lon="0.99059">
        <ele>95.099998</ele>
        <time>2015-07-19T08:30:21Z</time>
      </trkpt>
      <trkpt lat="48.9762" lon="0.99075">
        <ele>95</ele>
        <time>2015-07-19T08:30:26Z</time>
      </trkpt>
      <trkpt lat="48.97624" lon="0.99089">
        <ele>94.800003</ele>
        <time>2015-07-19T08:30:29Z</time>
      </trkpt>
      <trkpt lat="48.97624" lon="0.99104">
        <ele>94.599998</ele>
        <time>2015-07-19T08:30:31Z</time>
      </trkpt>
      <trkpt lat="48.97626" lon="0.9912">
        <ele>94.099998</ele>
        <time>2015-07-19T08:30:34Z</time>
      </trkpt>
      <trkpt lat="48.97631" lon="0.99135">
        <ele>93.800003</ele>
        <time>2015-07-19T08:30:37Z</time>
      </trkpt>
      <trkpt lat="48.9763" lon="0.99151">
        <ele>93.099998</ele>
        <time>2015-07-19T08:30:41Z</time>
      </trkpt>
      <trkpt lat="48.97625" lon="0.99169">
        <ele>92.5</ele>
        <time>2015-07-19T08:30:44Z</time>
      </trkpt>
      <trkpt lat="48.97626" lon="0.99185">
        <ele>92.099998</ele>
        <time>2015-07-19T08:30:46Z</time>
      </trkpt>
      <trkpt lat="48.97631" lon="0.99197">
        <ele>91.599998</ele>
        <time>2015-07-19T08:30:48Z</time>
      </trkpt>
      <trkpt lat="48.97628" lon="0.99217">
        <ele>91</ele>
        <time>2015-07-19T08:30:51Z</time>
      </trkpt>
      <trkpt lat="48.97627" lon="0.99232">
        <ele>90.699997</ele>
        <time>2015-07-19T08:30:53Z</time>
      </trkpt>
      <trkpt lat="48.97627" lon="0.99252">
        <ele>90.199997</ele>
        <time>2015-07-19T08:30:56Z</time>
      </trkpt>
      <trkpt lat="48.97621" lon="0.99267">
        <ele>89.900002</ele>
        <time>2015-07-19T08:30:58Z</time>
      </trkpt>
      <trkpt lat="48.97619" lon="0.99283">
        <ele>89.599998</ele>
        <time>2015-07-19T08:31:00Z</time>
      </trkpt>
      <trkpt lat="48.9762" lon="0.99299">
        <ele>89.300003</ele>
        <time>2015-07-19T08:31:02Z</time>
      </trkpt>
      <trkpt lat="48.97617" lon="0.99319">
        <ele>89</ele>
        <time>2015-07-19T08:31:05Z</time>
      </trkpt>
      <trkpt lat="48.97616" lon="0.99336">
        <ele>88.699997</ele>
        <time>2015-07-19T08:31:08Z</time>
      </trkpt>
      <trkpt lat="48.97617" lon="0.99349">
        <ele>88.5</ele>
        <time>2015-07-19T08:31:10Z</time>
      </trkpt>
      <trkpt lat="48.97619" lon="0.99368">
        <ele>88.300003</ele>
        <time>2015-07-19T08:31:13Z</time>
      </trkpt>
      <trkpt lat="48.9762" lon="0.99389">
        <ele>88.199997</ele>
        <time>2015-07-19T08:31:16Z</time>
      </trkpt>
      <trkpt lat="48.9762" lon="0.99404">
        <ele>88</ele>
        <time>2015-07-19T08:31:18Z</time>
      </trkpt>
      <trkpt lat="48.97624" lon="0.99418">
        <ele>87.900002</ele>
        <time>2015-07-19T08:31:20Z</time>
      </trkpt>
      <trkpt lat="48.97624" lon="0.99437">
        <ele>87.800003</ele>
        <time>2015-07-19T08:31:23Z</time>
      </trkpt>
      <trkpt lat="48.97624" lon="0.99451">
        <ele>87.599998</ele>
        <time>2015-07-19T08:31:26Z</time>
      </trkpt>
      <trkpt lat="48.97632" lon="0.99462">
        <ele>87.5</ele>
        <time>2015-07-19T08:31:29Z</time>
      </trkpt>
      <trkpt lat="48.97635" lon="0.99476">
        <ele>87.400002</ele>
        <time>2015-07-19T08:31:32Z</time>
      </trkpt>
      <trkpt lat="48.97644" lon="0.99482">
        <ele>87.400002</ele>
        <time>2015-07-19T08:31:34Z</time>
      </trkpt>
      <trkpt lat="48.97654" lon="0.99494">
        <ele>87.300003</ele>
        <time>2015-07-19T08:31:39Z</time>
      </trkpt>
      <trkpt lat="48.97661" lon="0.99502">
        <ele>87.300003</ele>
        <time>2015-07-19T08:31:42Z</time>
      </trkpt>
      <trkpt lat="48.97671" lon="0.99514">
        <ele>87.300003</ele>
        <time>2015-07-19T08:31:45Z</time>
      </trkpt>
      <trkpt lat="48.97675" lon="0.99527">
        <ele>87.400002</ele>
        <time>2015-07-19T08:31:48Z</time>
      </trkpt>
      <trkpt lat="48.97677" lon="0.99543">
        <ele>87.599998</ele>
        <time>2015-07-19T08:31:52Z</time>
      </trkpt>
      <trkpt lat="48.97674" lon="0.99557">
        <ele>87.900002</ele>
        <time>2015-07-19T08:31:55Z</time>
      </trkpt>
      <trkpt lat="48.97667" lon="0.99568">
        <ele>88.900002</ele>
        <time>2015-07-19T08:32:02Z</time>
      </trkpt>
      <trkpt lat="48.97661" lon="0.99579">
        <ele>91.599998</ele>
        <time>2015-07-19T08:32:14Z</time>
      </trkpt>
      <trkpt lat="48.97652" lon="0.99573">
        <ele>93.699997</ele>
        <time>2015-07-19T08:32:23Z</time>
      </trkpt>
      <trkpt lat="48.97645" lon="0.99564">
        <ele>95.300003</ele>
        <time>2015-07-19T08:32:30Z</time>
      </trkpt>
      <trkpt lat="48.97639" lon="0.99553">
        <ele>96.599998</ele>
        <time>2015-07-19T08:32:36Z</time>
      </trkpt>
      <trkpt lat="48.9763" lon="0.99544">
        <ele>97.699997</ele>
        <time>2015-07-19T08:32:41Z</time>
      </trkpt>
      <trkpt lat="48.97622" lon="0.99538">
        <ele>99.099998</ele>
        <time>2015-07-19T08:32:47Z</time>
      </trkpt>
      <trkpt lat="48.97612" lon="0.99535">
        <ele>100.199997</ele>
        <time>2015-07-19T08:32:52Z</time>
      </trkpt>
      <trkpt lat="48.97603" lon="0.99536">
        <ele>101.199997</ele>
        <time>2015-07-19T08:32:57Z</time>
      </trkpt>
      <trkpt lat="48.97593" lon="0.99538">
        <ele>102.199997</ele>
        <time>2015-07-19T08:33:02Z</time>
      </trkpt>
      <trkpt lat="48.97583" lon="0.99541">
        <ele>103.199997</ele>
        <time>2015-07-19T08:33:07Z</time>
      </trkpt>
      <trkpt lat="48.97573" lon="0.9954">
        <ele>104.099998</ele>
        <time>2015-07-19T08:33:12Z</time>
      </trkpt>
      <trkpt lat="48.97564" lon="0.99537">
        <ele>105.099998</ele>
        <time>2015-07-19T08:33:17Z</time>
      </trkpt>
      <trkpt lat="48.97554" lon="0.99532">
        <ele>106.199997</ele>
        <time>2015-07-19T08:33:23Z</time>
      </trkpt>
      <trkpt lat="48.97545" lon="0.99528">
        <ele>107.199997</ele>
        <time>2015-07-19T08:33:28Z</time>
      </trkpt>
      <trkpt lat="48.97534" lon="0.99524">
        <ele>108.199997</ele>
        <time>2015-07-19T08:33:33Z</time>
      </trkpt>
      <trkpt lat="48.97525" lon="0.9952">
        <ele>109.199997</ele>
        <time>2015-07-19T08:33:38Z</time>
      </trkpt>
      <trkpt lat="48.97516" lon="0.99516">
        <ele>110.099998</ele>
        <time>2015-07-19T08:33:43Z</time>
      </trkpt>
      <trkpt lat="48.97507" lon="0.99516">
        <ele>111.099998</ele>
        <time>2015-07-19T08:33:48Z</time>
      </trkpt>
      <trkpt lat="48.97496" lon="0.99518">
        <ele>112</ele>
        <time>2015-07-19T08:33:53Z</time>
      </trkpt>
      <trkpt lat="48.97487" lon="0.9952">
        <ele>112.5</ele>
        <time>2015-07-19T08:33:57Z</time>
      </trkpt>
      <trkpt lat="48.97478" lon="0.99524">
        <ele>113.099998</ele>
        <time>2015-07-19T08:34:01Z</time>
      </trkpt>
      <trkpt lat="48.97468" lon="0.99529">
        <ele>113.800003</ele>
        <time>2015-07-19T08:34:06Z</time>
      </trkpt>
      <trkpt lat="48.97459" lon="0.99533">
        <ele>114.400002</ele>
        <time>2015-07-19T08:34:10Z</time>
      </trkpt>
      <trkpt lat="48.9745" lon="0.99538">
        <ele>115.199997</ele>
        <time>2015-07-19T08:34:15Z</time>
      </trkpt>
      <trkpt lat="48.97441" lon="0.99544">
        <ele>115.900002</ele>
        <time>2015-07-19T08:34:19Z</time>
      </trkpt>
      <trkpt lat="48.97432" lon="0.99548">
        <ele>116.400002</ele>
        <time>2015-07-19T08:34:22Z</time>
      </trkpt>
      <trkpt lat="48.97422" lon="0.99555">
        <ele>117.099998</ele>
        <time>2015-07-19T08:34:26Z</time>
      </trkpt>
      <trkpt lat="48.97413" lon="0.9956">
        <ele>117.699997</ele>
        <time>2015-07-19T08:34:30Z</time>
      </trkpt>
      <trkpt lat="48.97404" lon="0.99567">
        <ele>118.400002</ele>
        <time>2015-07-19T08:34:34Z</time>
      </trkpt>
      <trkpt lat="48.97393" lon="0.99573">
        <ele>119.199997</ele>
        <time>2015-07-19T08:34:39Z</time>
      </trkpt>
      <trkpt lat="48.97383" lon="0.99582">
        <ele>119.900002</ele>
        <time>2015-07-19T08:34:43Z</time>
      </trkpt>
      <trkpt lat="48.97374" lon="0.99588">
        <ele>120.5</ele>
        <time>2015-07-19T08:34:46Z</time>
      </trkpt>
      <trkpt lat="48.97365" lon="0.99594">
        <ele>121</ele>
        <time>2015-07-19T08:34:49Z</time>
      </trkpt>
      <trkpt lat="48.97355" lon="0.99601">
        <ele>121.5</ele>
        <time>2015-07-19T08:34:52Z</time>
      </trkpt>
      <trkpt lat="48.97345" lon="0.99607">
        <ele>121.900002</ele>
        <time>2015-07-19T08:34:55Z</time>
      </trkpt>
      <trkpt lat="48.97335" lon="0.99614">
        <ele>122.300003</ele>
        <time>2015-07-19T08:34:58Z</time>
      </trkpt>
      <trkpt lat="48.97325" lon="0.99619">
        <ele>122.699997</ele>
        <time>2015-07-19T08:35:01Z</time>
      </trkpt>
      <trkpt lat="48.97314" lon="0.99624">
        <ele>123.099998</ele>
        <time>2015-07-19T08:35:04Z</time>
      </trkpt>
      <trkpt lat="48.97303" lon="0.99628">
        <ele>123.5</ele>
        <time>2015-07-19T08:35:07Z</time>
      </trkpt>
      <trkpt lat="48.97292" lon="0.99631">
        <ele>124</ele>
        <time>2015-07-19T08:35:10Z</time>
      </trkpt>
      <trkpt lat="48.97281" lon="0.99633">
        <ele>124.5</ele>
        <time>2015-07-19T08:35:13Z</time>
      </trkpt>
      <trkpt lat="48.9727" lon="0.99635">
        <ele>125.099998</ele>
        <time>2015-07-19T08:35:16Z</time>
      </trkpt>
      <trkpt lat="48.97259" lon="0.99636">
        <ele>125.699997</ele>
        <time>2015-07-19T08:35:19Z</time>
      </trkpt>
      <trkpt lat="48.97248" lon="0.99637">
        <ele>126.400002</ele>
        <time>2015-07-19T08:35:22Z</time>
      </trkpt>
      <trkpt lat="48.97238" lon="0.99637">
        <ele>127</ele>
        <time>2015-07-19T08:35:25Z</time>
      </trkpt>
      <trkpt lat="48.97228" lon="0.99637">
        <ele>127.599998</ele>
        <time>2015-07-19T08:35:28Z</time>
      </trkpt>
      <trkpt lat="48.97218" lon="0.99638">
        <ele>128.100006</ele>
        <time>2015-07-19T08:35:31Z</time>
      </trkpt>
      <trkpt lat="48.97207" lon="0.99637">
        <ele>128.699997</ele>
        <time>2015-07-19T08:35:34Z</time>
      </trkpt>
      <trkpt lat="48.97196" lon="0.99637">
        <ele>129.300003</ele>
        <time>2015-07-19T08:35:37Z</time>
      </trkpt>
      <trkpt lat="48.97187" lon="0.99637">
        <ele>129.800003</ele>
        <time>2015-07-19T08:35:40Z</time>
      </trkpt>
      <trkpt lat="48.97178" lon="0.9964">
        <ele>130.399994</ele>
        <time>2015-07-19T08:35:43Z</time>
      </trkpt>
      <trkpt lat="48.97169" lon="0.99646">
        <ele>130.899994</ele>
        <time>2015-07-19T08:35:46Z</time>
      </trkpt>
      <trkpt lat="48.97161" lon="0.99654">
        <ele>131.5</ele>
        <time>2015-07-19T08:35:49Z</time>
      </trkpt>
      <trkpt lat="48.97152" lon="0.99664">
        <ele>132.100006</ele>
        <time>2015-07-19T08:35:53Z</time>
      </trkpt>
      <trkpt lat="48.97144" lon="0.99675">
        <ele>132.600006</ele>
        <time>2015-07-19T08:35:56Z</time>
      </trkpt>
      <trkpt lat="48.97133" lon="0.99688">
        <ele>133</ele>
        <time>2015-07-19T08:35:59Z</time>
      </trkpt>
      <trkpt lat="48.97128" lon="0.99701">
        <ele>133.199997</ele>
        <time>2015-07-19T08:36:01Z</time>
      </trkpt>
      <trkpt lat="48.97121" lon="0.99719">
        <ele>133.600006</ele>
        <time>2015-07-19T08:36:04Z</time>
      </trkpt>
      <trkpt lat="48.97115" lon="0.99733">
        <ele>133.899994</ele>
        <time>2015-07-19T08:36:06Z</time>
      </trkpt>
      <trkpt lat="48.97108" lon="0.99746">
        <ele>134.100006</ele>
        <time>2015-07-19T08:36:08Z</time>
      </trkpt>
      <trkpt lat="48.971" lon="0.99761">
        <ele>134.399994</ele>
        <time>2015-07-19T08:36:10Z</time>
      </trkpt>
      <trkpt lat="48.97094" lon="0.99775">
        <ele>134.600006</ele>
        <time>2015-07-19T08:36:12Z</time>
      </trkpt>
      <trkpt lat="48.97088" lon="0.99788">
        <ele>134.800003</ele>
        <time>2015-07-19T08:36:14Z</time>
      </trkpt>
      <trkpt lat="48.97082" lon="0.99802">
        <ele>134.899994</ele>
        <time>2015-07-19T08:36:16Z</time>
      </trkpt>
      <trkpt lat="48.97077" lon="0.99816">
        <ele>135.100006</ele>
        <time>2015-07-19T08:36:18Z</time>
      </trkpt>
      <trkpt lat="48.97072" lon="0.9983">
        <ele>135.199997</ele>
        <time>2015-07-19T08:36:20Z</time>
      </trkpt>
      <trkpt lat="48.97066" lon="0.99844">
        <ele>135.399994</ele>
        <time>2015-07-19T08:36:22Z</time>
      </trkpt>
      <trkpt lat="48.97062" lon="0.99858">
        <ele>135.5</ele>
        <time>2015-07-19T08:36:24Z</time>
      </trkpt>
      <trkpt lat="48.9706" lon="0.99873">
        <ele>135.600006</ele>
        <time>2015-07-19T08:36:26Z</time>
      </trkpt>
      <trkpt lat="48.97057" lon="0.99888">
        <ele>135.699997</ele>
        <time>2015-07-19T08:36:28Z</time>
      </trkpt>
      <trkpt lat="48.97052" lon="0.99902">
        <ele>135.800003</ele>
        <time>2015-07-19T08:36:30Z</time>
      </trkpt>
      <trkpt lat="48.97043" lon="0.99916">
        <ele>135.899994</ele>
        <time>2015-07-19T08:36:32Z</time>
      </trkpt>
      <trkpt lat="48.97036" lon="0.99929">
        <ele>136</ele>
        <time>2015-07-19T08:36:34Z</time>
      </trkpt>
      <trkpt lat="48.97029" lon="0.99942">
        <ele>136.100006</ele>
        <time>2015-07-19T08:36:36Z</time>
      </trkpt>
      <trkpt lat="48.97021" lon="0.99954">
        <ele>136.100006</ele>
        <time>2015-07-19T08:36:38Z</time>
      </trkpt>
      <trkpt lat="48.97015" lon="0.99971">
        <ele>136.199997</ele>
        <time>2015-07-19T08:36:40Z</time>
      </trkpt>
      <trkpt lat="48.97009" lon="0.99989">
        <ele>136.300003</ele>
        <time>2015-07-19T08:36:42Z</time>
      </trkpt>
      <trkpt lat="48.97003" lon="1.00007">
        <ele>136.300003</ele>
        <time>2015-07-19T08:36:44Z</time>
      </trkpt>
      <trkpt lat="48.96997" lon="1.00024">
        <ele>136.300003</ele>
        <time>2015-07-19T08:36:46Z</time>
      </trkpt>
      <trkpt lat="48.96992" lon="1.00041">
        <ele>136.199997</ele>
        <time>2015-07-19T08:36:48Z</time>
      </trkpt>
      <trkpt lat="48.96984" lon="1.00058">
        <ele>136.100006</ele>
        <time>2015-07-19T08:36:50Z</time>
      </trkpt>
      <trkpt lat="48.96978" lon="1.00075">
        <ele>136</ele>
        <time>2015-07-19T08:36:52Z</time>
      </trkpt>
      <trkpt lat="48.96972" lon="1.00092">
        <ele>136</ele>
        <time>2015-07-19T08:36:54Z</time>
      </trkpt>
      <trkpt lat="48.96965" lon="1.00109">
        <ele>135.899994</ele>
        <time>2015-07-19T08:36:56Z</time>
      </trkpt>
      <trkpt lat="48.96957" lon="1.00125">
        <ele>135.899994</ele>
        <time>2015-07-19T08:36:58Z</time>
      </trkpt>
      <trkpt lat="48.9695" lon="1.00142">
        <ele>135.899994</ele>
        <time>2015-07-19T08:37:00Z</time>
      </trkpt>
      <trkpt lat="48.96944" lon="1.00159">
        <ele>135.800003</ele>
        <time>2015-07-19T08:37:02Z</time>
      </trkpt>
      <trkpt lat="48.96937" lon="1.00175">
        <ele>135.800003</ele>
        <time>2015-07-19T08:37:04Z</time>
      </trkpt>
      <trkpt lat="48.9693" lon="1.00191">
        <ele>135.800003</ele>
        <time>2015-07-19T08:37:06Z</time>
      </trkpt>
      <trkpt lat="48.96925" lon="1.00208">
        <ele>135.800003</ele>
        <time>2015-07-19T08:37:08Z</time>
      </trkpt>
      <trkpt lat="48.9692" lon="1.00225">
        <ele>135.800003</ele>
        <time>2015-07-19T08:37:10Z</time>
      </trkpt>
      <trkpt lat="48.96915" lon="1.00243">
        <ele>135.800003</ele>
        <time>2015-07-19T08:37:12Z</time>
      </trkpt>
      <trkpt lat="48.9691" lon="1.0026">
        <ele>135.800003</ele>
        <time>2015-07-19T08:37:14Z</time>
      </trkpt>
      <trkpt lat="48.96905" lon="1.00278">
        <ele>135.800003</ele>
        <time>2015-07-19T08:37:16Z</time>
      </trkpt>
      <trkpt lat="48.969" lon="1.00296">
        <ele>135.800003</ele>
        <time>2015-07-19T08:37:18Z</time>
      </trkpt>
      <trkpt lat="48.96895" lon="1.00315">
        <ele>135.800003</ele>
        <time>2015-07-19T08:37:20Z</time>
      </trkpt>
      <trkpt lat="48.96888" lon="1.00335">
        <ele>135.600006</ele>
        <time>2015-07-19T08:37:22Z</time>
      </trkpt>
      <trkpt lat="48.96881" lon="1.00356">
        <ele>135.399994</ele>
        <time>2015-07-19T08:37:24Z</time>
      </trkpt>
      <trkpt lat="48.96873" lon="1.00376">
        <ele>135.199997</ele>
        <time>2015-07-19T08:37:26Z</time>
      </trkpt>
      <trkpt lat="48.96864" lon="1.00394">
        <ele>135</ele>
        <time>2015-07-19T08:37:28Z</time>
      </trkpt>
      <trkpt lat="48.96857" lon="1.0041">
        <ele>134.800003</ele>
        <time>2015-07-19T08:37:30Z</time>
      </trkpt>
      <trkpt lat="48.96852" lon="1.00424">
        <ele>134.699997</ele>
        <time>2015-07-19T08:37:32Z</time>
      </trkpt>
      <trkpt lat="48.96847" lon="1.00435">
        <ele>134.5</ele>
        <time>2015-07-19T08:37:34Z</time>
      </trkpt>
      <trkpt lat="48.96839" lon="1.0045">
        <ele>134.5</ele>
        <time>2015-07-19T08:37:37Z</time>
      </trkpt>
      <trkpt lat="48.9683" lon="1.00461">
        <ele>134.600006</ele>
        <time>2015-07-19T08:37:40Z</time>
      </trkpt>
      <trkpt lat="48.9682" lon="1.00471">
        <ele>134.800003</ele>
        <time>2015-07-19T08:37:43Z</time>
      </trkpt>
      <trkpt lat="48.96811" lon="1.00483">
        <ele>135.100006</ele>
        <time>2015-07-19T08:37:46Z</time>
      </trkpt>
      <trkpt lat="48.96804" lon="1.00493">
        <ele>135.399994</ele>
        <time>2015-07-19T08:37:49Z</time>
      </trkpt>
      <trkpt lat="48.96793" lon="1.00502">
        <ele>135.699997</ele>
        <time>2015-07-19T08:37:52Z</time>
      </trkpt>
      <trkpt lat="48.96787" lon="1.00512">
        <ele>136</ele>
        <time>2015-07-19T08:37:55Z</time>
      </trkpt>
      <trkpt lat="48.96778" lon="1.00524">
        <ele>136.300003</ele>
        <time>2015-07-19T08:37:58Z</time>
      </trkpt>
      <trkpt lat="48.9677" lon="1.00531">
        <ele>136.600006</ele>
        <time>2015-07-19T08:38:00Z</time>
      </trkpt>
      <trkpt lat="48.96761" lon="1.00545">
        <ele>136.899994</ele>
        <time>2015-07-19T08:38:03Z</time>
      </trkpt>
      <trkpt lat="48.96753" lon="1.00559">
        <ele>137.199997</ele>
        <time>2015-07-19T08:38:06Z</time>
      </trkpt>
      <trkpt lat="48.96746" lon="1.00575">
        <ele>137.600006</ele>
        <time>2015-07-19T08:38:09Z</time>
      </trkpt>
      <trkpt lat="48.96739" lon="1.00586">
        <ele>137.800003</ele>
        <time>2015-07-19T08:38:11Z</time>
      </trkpt>
      <trkpt lat="48.96731" lon="1.006">
        <ele>138.100006</ele>
        <time>2015-07-19T08:38:14Z</time>
      </trkpt>
      <trkpt lat="48.96723" lon="1.0061">
        <ele>138.399994</ele>
        <time>2015-07-19T08:38:16Z</time>
      </trkpt>
      <trkpt lat="48.96716" lon="1.00622">
        <ele>138.699997</ele>
        <time>2015-07-19T08:38:18Z</time>
      </trkpt>
      <trkpt lat="48.96711" lon="1.00637">
        <ele>139</ele>
        <time>2015-07-19T08:38:21Z</time>
      </trkpt>
      <trkpt lat="48.96719" lon="1.00651">
        <ele>139.300003</ele>
        <time>2015-07-19T08:38:24Z</time>
      </trkpt>
      <trkpt lat="48.96726" lon="1.00667">
        <ele>139.600006</ele>
        <time>2015-07-19T08:38:27Z</time>
      </trkpt>
      <trkpt lat="48.96735" lon="1.00682">
        <ele>139.800003</ele>
        <time>2015-07-19T08:38:30Z</time>
      </trkpt>
      <trkpt lat="48.96743" lon="1.00698">
        <ele>140.100006</ele>
        <time>2015-07-19T08:38:33Z</time>
      </trkpt>
      <trkpt lat="48.9675" lon="1.0071">
        <ele>140.199997</ele>
        <time>2015-07-19T08:38:35Z</time>
      </trkpt>
      <trkpt lat="48.96756" lon="1.00719">
        <ele>140.300003</ele>
        <time>2015-07-19T08:38:37Z</time>
      </trkpt>
      <trkpt lat="48.96767" lon="1.00715">
        <ele>140.399994</ele>
        <time>2015-07-19T08:38:40Z</time>
      </trkpt>
      <trkpt lat="48.96777" lon="1.00703">
        <ele>140.5</ele>
        <time>2015-07-19T08:38:43Z</time>
      </trkpt>
      <trkpt lat="48.96786" lon="1.00696">
        <ele>140.600006</ele>
        <time>2015-07-19T08:38:45Z</time>
      </trkpt>
      <trkpt lat="48.96795" lon="1.00687">
        <ele>140.699997</ele>
        <time>2015-07-19T08:38:47Z</time>
      </trkpt>
      <trkpt lat="48.96804" lon="1.00681">
        <ele>140.600006</ele>
        <time>2015-07-19T08:38:50Z</time>
      </trkpt>
      <trkpt lat="48.96816" lon="1.0068">
        <ele>140.600006</ele>
        <time>2015-07-19T08:38:53Z</time>
      </trkpt>
      <trkpt lat="48.96827" lon="1.00673">
        <ele>140.5</ele>
        <time>2015-07-19T08:38:56Z</time>
      </trkpt>
      <trkpt lat="48.96836" lon="1.00673">
        <ele>140.5</ele>
        <time>2015-07-19T08:38:58Z</time>
      </trkpt>
      <trkpt lat="48.96846" lon="1.00673">
        <ele>140.399994</ele>
        <time>2015-07-19T08:39:00Z</time>
      </trkpt>
      <trkpt lat="48.96856" lon="1.00674">
        <ele>140.199997</ele>
        <time>2015-07-19T08:39:02Z</time>
      </trkpt>
      <trkpt lat="48.96868" lon="1.00674">
        <ele>140.100006</ele>
        <time>2015-07-19T08:39:04Z</time>
      </trkpt>
      <trkpt lat="48.96879" lon="1.00673">
        <ele>139.899994</ele>
        <time>2015-07-19T08:39:06Z</time>
      </trkpt>
      <trkpt lat="48.96888" lon="1.00674">
        <ele>139.800003</ele>
        <time>2015-07-19T08:39:08Z</time>
      </trkpt>
      <trkpt lat="48.969" lon="1.00676">
        <ele>139.600006</ele>
        <time>2015-07-19T08:39:10Z</time>
      </trkpt>
      <trkpt lat="48.96911" lon="1.00678">
        <ele>139.5</ele>
        <time>2015-07-19T08:39:12Z</time>
      </trkpt>
      <trkpt lat="48.96921" lon="1.0068">
        <ele>139.300003</ele>
        <time>2015-07-19T08:39:14Z</time>
      </trkpt>
      <trkpt lat="48.96935" lon="1.00678">
        <ele>139</ele>
        <time>2015-07-19T08:39:17Z</time>
      </trkpt>
      <trkpt lat="48.96945" lon="1.00679">
        <ele>138.800003</ele>
        <time>2015-07-19T08:39:19Z</time>
      </trkpt>
      <trkpt lat="48.96958" lon="1.00684">
        <ele>138.5</ele>
        <time>2015-07-19T08:39:22Z</time>
      </trkpt>
      <trkpt lat="48.96971" lon="1.00693">
        <ele>138.199997</ele>
        <time>2015-07-19T08:39:24Z</time>
      </trkpt>
      <trkpt lat="48.96981" lon="1.00698">
        <ele>137.800003</ele>
        <time>2015-07-19T08:39:26Z</time>
      </trkpt>
      <trkpt lat="48.96995" lon="1.00702">
        <ele>137.5</ele>
        <time>2015-07-19T08:39:28Z</time>
      </trkpt>
      <trkpt lat="48.97009" lon="1.00701">
        <ele>137.100006</ele>
        <time>2015-07-19T08:39:30Z</time>
      </trkpt>
      <trkpt lat="48.97022" lon="1.00705">
        <ele>136.800003</ele>
        <time>2015-07-19T08:39:32Z</time>
      </trkpt>
      <trkpt lat="48.97033" lon="1.00706">
        <ele>136.399994</ele>
        <time>2015-07-19T08:39:34Z</time>
      </trkpt>
      <trkpt lat="48.97043" lon="1.00707">
        <ele>135.899994</ele>
        <time>2015-07-19T08:39:36Z</time>
      </trkpt>
      <trkpt lat="48.97053" lon="1.00709">
        <ele>135.399994</ele>
        <time>2015-07-19T08:39:38Z</time>
      </trkpt>
      <trkpt lat="48.97069" lon="1.00707">
        <ele>135</ele>
        <time>2015-07-19T08:39:40Z</time>
      </trkpt>
      <trkpt lat="48.97081" lon="1.00708">
        <ele>134.5</ele>
        <time>2015-07-19T08:39:42Z</time>
      </trkpt>
      <trkpt lat="48.97092" lon="1.00709">
        <ele>134.199997</ele>
        <time>2015-07-19T08:39:44Z</time>
      </trkpt>
      <trkpt lat="48.97107" lon="1.00712">
        <ele>133.699997</ele>
        <time>2015-07-19T08:39:47Z</time>
      </trkpt>
      <trkpt lat="48.97116" lon="1.00712">
        <ele>133.399994</ele>
        <time>2015-07-19T08:39:49Z</time>
      </trkpt>
      <trkpt lat="48.97126" lon="1.0071">
        <ele>133</ele>
        <time>2015-07-19T08:39:51Z</time>
      </trkpt>
      <trkpt lat="48.97137" lon="1.00709">
        <ele>132.699997</ele>
        <time>2015-07-19T08:39:53Z</time>
      </trkpt>
      <trkpt lat="48.9715" lon="1.00708">
        <ele>132.399994</ele>
        <time>2015-07-19T08:39:55Z</time>
      </trkpt>
      <trkpt lat="48.97163" lon="1.00702">
        <ele>132.100006</ele>
        <time>2015-07-19T08:39:57Z</time>
      </trkpt>
      <trkpt lat="48.97172" lon="1.007">
        <ele>131.899994</ele>
        <time>2015-07-19T08:39:58Z</time>
      </trkpt>
      <trkpt lat="48.97186" lon="1.00695">
        <ele>131.399994</ele>
        <time>2015-07-19T08:40:00Z</time>
      </trkpt>
      <trkpt lat="48.972" lon="1.00689">
        <ele>131</ele>
        <time>2015-07-19T08:40:02Z</time>
      </trkpt>
      <trkpt lat="48.97212" lon="1.00683">
        <ele>130.699997</ele>
        <time>2015-07-19T08:40:04Z</time>
      </trkpt>
      <trkpt lat="48.97224" lon="1.0068">
        <ele>130.300003</ele>
        <time>2015-07-19T08:40:06Z</time>
      </trkpt>
      <trkpt lat="48.97237" lon="1.00677">
        <ele>130</ele>
        <time>2015-07-19T08:40:08Z</time>
      </trkpt>
      <trkpt lat="48.9725" lon="1.00669">
        <ele>129.699997</ele>
        <time>2015-07-19T08:40:10Z</time>
      </trkpt>
      <trkpt lat="48.97262" lon="1.00663">
        <ele>129.300003</ele>
        <time>2015-07-19T08:40:12Z</time>
      </trkpt>
      <trkpt lat="48.97271" lon="1.00655">
        <ele>128.800003</ele>
        <time>2015-07-19T08:40:14Z</time>
      </trkpt>
      <trkpt lat="48.97281" lon="1.00654">
        <ele>128.199997</ele>
        <time>2015-07-19T08:40:16Z</time>
      </trkpt>
      <trkpt lat="48.97292" lon="1.00649">
        <ele>127.599998</ele>
        <time>2015-07-19T08:40:18Z</time>
      </trkpt>
      <trkpt lat="48.97306" lon="1.00643">
        <ele>126.900002</ele>
        <time>2015-07-19T08:40:20Z</time>
      </trkpt>
      <trkpt lat="48.97318" lon="1.00639">
        <ele>126</ele>
        <time>2015-07-19T08:40:22Z</time>
      </trkpt>
      <trkpt lat="48.97331" lon="1.00639">
        <ele>125.300003</ele>
        <time>2015-07-19T08:40:24Z</time>
      </trkpt>
      <trkpt lat="48.97344" lon="1.0064">
        <ele>124.599998</ele>
        <time>2015-07-19T08:40:26Z</time>
      </trkpt>
      <trkpt lat="48.97357" lon="1.0064">
        <ele>123.900002</ele>
        <time>2015-07-19T08:40:28Z</time>
      </trkpt>
      <trkpt lat="48.97369" lon="1.0064">
        <ele>123.099998</ele>
        <time>2015-07-19T08:40:30Z</time>
      </trkpt>
      <trkpt lat="48.97382" lon="1.00639">
        <ele>122.300003</ele>
        <time>2015-07-19T08:40:32Z</time>
      </trkpt>
      <trkpt lat="48.97394" lon="1.00639">
        <ele>121.599998</ele>
        <time>2015-07-19T08:40:34Z</time>
      </trkpt>
      <trkpt lat="48.97405" lon="1.0064">
        <ele>121</ele>
        <time>2015-07-19T08:40:36Z</time>
      </trkpt>
      <trkpt lat="48.97416" lon="1.00643">
        <ele>120.5</ele>
        <time>2015-07-19T08:40:38Z</time>
      </trkpt>
      <trkpt lat="48.97428" lon="1.00645">
        <ele>119.900002</ele>
        <time>2015-07-19T08:40:40Z</time>
      </trkpt>
      <trkpt lat="48.97439" lon="1.00648">
        <ele>119.400002</ele>
        <time>2015-07-19T08:40:42Z</time>
      </trkpt>
      <trkpt lat="48.97448" lon="1.00649">
        <ele>118.900002</ele>
        <time>2015-07-19T08:40:44Z</time>
      </trkpt>
      <trkpt lat="48.97457" lon="1.00651">
        <ele>118.400002</ele>
        <time>2015-07-19T08:40:46Z</time>
      </trkpt>
      <trkpt lat="48.97467" lon="1.00654">
        <ele>118</ele>
        <time>2015-07-19T08:40:48Z</time>
      </trkpt>
      <trkpt lat="48.97477" lon="1.00655">
        <ele>117.599998</ele>
        <time>2015-07-19T08:40:50Z</time>
      </trkpt>
      <trkpt lat="48.97488" lon="1.00656">
        <ele>117.199997</ele>
        <time>2015-07-19T08:40:52Z</time>
      </trkpt>
      <trkpt lat="48.97498" lon="1.00656">
        <ele>116.900002</ele>
        <time>2015-07-19T08:40:54Z</time>
      </trkpt>
      <trkpt lat="48.97508" lon="1.00657">
        <ele>116.699997</ele>
        <time>2015-07-19T08:40:56Z</time>
      </trkpt>
      <trkpt lat="48.97518" lon="1.00658">
        <ele>116.300003</ele>
        <time>2015-07-19T08:40:59Z</time>
      </trkpt>
      <trkpt lat="48.9753" lon="1.00662">
        <ele>115.800003</ele>
        <time>2015-07-19T08:41:02Z</time>
      </trkpt>
      <trkpt lat="48.9754" lon="1.00671">
        <ele>115.400002</ele>
        <time>2015-07-19T08:41:05Z</time>
      </trkpt>
      <trkpt lat="48.97548" lon="1.00683">
        <ele>115</ele>
        <time>2015-07-19T08:41:08Z</time>
      </trkpt>
      <trkpt lat="48.97557" lon="1.00697">
        <ele>114.400002</ele>
        <time>2015-07-19T08:41:11Z</time>
      </trkpt>
      <trkpt lat="48.97566" lon="1.0071">
        <ele>113.699997</ele>
        <time>2015-07-19T08:41:14Z</time>
      </trkpt>
      <trkpt lat="48.97574" lon="1.00721">
        <ele>112.699997</ele>
        <time>2015-07-19T08:41:17Z</time>
      </trkpt>
      <trkpt lat="48.9758" lon="1.00736">
        <ele>111.400002</ele>
        <time>2015-07-19T08:41:20Z</time>
      </trkpt>
      <trkpt lat="48.97587" lon="1.00753">
        <ele>109.900002</ele>
        <time>2015-07-19T08:41:23Z</time>
      </trkpt>
      <trkpt lat="48.97592" lon="1.00774">
        <ele>108.099998</ele>
        <time>2015-07-19T08:41:26Z</time>
      </trkpt>
      <trkpt lat="48.97596" lon="1.00787">
        <ele>106.800003</ele>
        <time>2015-07-19T08:41:28Z</time>
      </trkpt>
      <trkpt lat="48.97603" lon="1.00806">
        <ele>104.699997</ele>
        <time>2015-07-19T08:41:31Z</time>
      </trkpt>
      <trkpt lat="48.97607" lon="1.00821">
        <ele>103.300003</ele>
        <time>2015-07-19T08:41:33Z</time>
      </trkpt>
      <trkpt lat="48.97613" lon="1.00839">
        <ele>101.900002</ele>
        <time>2015-07-19T08:41:35Z</time>
      </trkpt>
      <trkpt lat="48.97618" lon="1.00859">
        <ele>100.699997</ele>
        <time>2015-07-19T08:41:37Z</time>
      </trkpt>
      <trkpt lat="48.97622" lon="1.00878">
        <ele>99.5</ele>
        <time>2015-07-19T08:41:39Z</time>
      </trkpt>
      <trkpt lat="48.97624" lon="1.00895">
        <ele>98.400002</ele>
        <time>2015-07-19T08:41:41Z</time>
      </trkpt>
      <trkpt lat="48.97625" lon="1.00916">
        <ele>97.300003</ele>
        <time>2015-07-19T08:41:43Z</time>
      </trkpt>
      <trkpt lat="48.97626" lon="1.00936">
        <ele>96.300003</ele>
        <time>2015-07-19T08:41:45Z</time>
      </trkpt>
      <trkpt lat="48.97628" lon="1.00956">
        <ele>95.400002</ele>
        <time>2015-07-19T08:41:47Z</time>
      </trkpt>
      <trkpt lat="48.97631" lon="1.00973">
        <ele>94.699997</ele>
        <time>2015-07-19T08:41:49Z</time>
      </trkpt>
      <trkpt lat="48.97633" lon="1.0099">
        <ele>94</ele>
        <time>2015-07-19T08:41:51Z</time>
      </trkpt>
      <trkpt lat="48.97635" lon="1.01005">
        <ele>93.400002</ele>
        <time>2015-07-19T08:41:53Z</time>
      </trkpt>
      <trkpt lat="48.97636" lon="1.01019">
        <ele>92.900002</ele>
        <time>2015-07-19T08:41:55Z</time>
      </trkpt>
      <trkpt lat="48.97637" lon="1.01034">
        <ele>92.199997</ele>
        <time>2015-07-19T08:41:58Z</time>
      </trkpt>
      <trkpt lat="48.9764" lon="1.01049">
        <ele>91.199997</ele>
        <time>2015-07-19T08:42:03Z</time>
      </trkpt>
      <trkpt lat="48.97642" lon="1.01063">
        <ele>90.699997</ele>
        <time>2015-07-19T08:42:07Z</time>
      </trkpt>
      <trkpt lat="48.97647" lon="1.01079">
        <ele>90.099998</ele>
        <time>2015-07-19T08:42:12Z</time>
      </trkpt>
      <trkpt lat="48.97651" lon="1.01091">
        <ele>89.800003</ele>
        <time>2015-07-19T08:42:15Z</time>
      </trkpt>
      <trkpt lat="48.97655" lon="1.01105">
        <ele>89.5</ele>
        <time>2015-07-19T08:42:18Z</time>
      </trkpt>
      <trkpt lat="48.9766" lon="1.01121">
        <ele>89.300003</ele>
        <time>2015-07-19T08:42:21Z</time>
      </trkpt>
      <trkpt lat="48.97665" lon="1.01137">
        <ele>89.099998</ele>
        <time>2015-07-19T08:42:24Z</time>
      </trkpt>
      <trkpt lat="48.97669" lon="1.01154">
        <ele>88.900002</ele>
        <time>2015-07-19T08:42:27Z</time>
      </trkpt>
      <trkpt lat="48.97674" lon="1.0117">
        <ele>88.800003</ele>
        <time>2015-07-19T08:42:30Z</time>
      </trkpt>
      <trkpt lat="48.97679" lon="1.01187">
        <ele>88.699997</ele>
        <time>2015-07-19T08:42:33Z</time>
      </trkpt>
      <trkpt lat="48.97683" lon="1.01202">
        <ele>88.699997</ele>
        <time>2015-07-19T08:42:36Z</time>
      </trkpt>
      <trkpt lat="48.97689" lon="1.01219">
        <ele>88.599998</ele>
        <time>2015-07-19T08:42:39Z</time>
      </trkpt>
      <trkpt lat="48.97695" lon="1.01238">
        <ele>88.599998</ele>
        <time>2015-07-19T08:42:42Z</time>
      </trkpt>
      <trkpt lat="48.97699" lon="1.01251">
        <ele>88.599998</ele>
        <time>2015-07-19T08:42:44Z</time>
      </trkpt>
      <trkpt lat="48.97704" lon="1.01264">
        <ele>88.599998</ele>
        <time>2015-07-19T08:42:46Z</time>
      </trkpt>
      <trkpt lat="48.97708" lon="1.01278">
        <ele>88.599998</ele>
        <time>2015-07-19T08:42:48Z</time>
      </trkpt>
      <trkpt lat="48.97712" lon="1.01291">
        <ele>88.599998</ele>
        <time>2015-07-19T08:42:50Z</time>
      </trkpt>
      <trkpt lat="48.97716" lon="1.01305">
        <ele>88.599998</ele>
        <time>2015-07-19T08:42:52Z</time>
      </trkpt>
      <trkpt lat="48.9772" lon="1.01318">
        <ele>88.599998</ele>
        <time>2015-07-19T08:42:54Z</time>
      </trkpt>
      <trkpt lat="48.97722" lon="1.01335">
        <ele>88.599998</ele>
        <time>2015-07-19T08:42:57Z</time>
      </trkpt>
      <trkpt lat="48.97729" lon="1.01347">
        <ele>89.400002</ele>
        <time>2015-07-19T08:43:37Z</time>
      </trkpt>
      <trkpt lat="48.97739" lon="1.01349">
        <ele>89.5</ele>
        <time>2015-07-19T08:43:41Z</time>
      </trkpt>
      <trkpt lat="48.97749" lon="1.01349">
        <ele>89.599998</ele>
        <time>2015-07-19T08:43:45Z</time>
      </trkpt>
      <trkpt lat="48.9776" lon="1.01352">
        <ele>89.599998</ele>
        <time>2015-07-19T08:43:48Z</time>
      </trkpt>
      <trkpt lat="48.97771" lon="1.01357">
        <ele>89.699997</ele>
        <time>2015-07-19T08:43:51Z</time>
      </trkpt>
      <trkpt lat="48.9778" lon="1.01362">
        <ele>89.800003</ele>
        <time>2015-07-19T08:43:54Z</time>
      </trkpt>
      <trkpt lat="48.97791" lon="1.0137">
        <ele>90</ele>
        <time>2015-07-19T08:43:57Z</time>
      </trkpt>
      <trkpt lat="48.978" lon="1.01377">
        <ele>90.199997</ele>
        <time>2015-07-19T08:44:00Z</time>
      </trkpt>
      <trkpt lat="48.9781" lon="1.01386">
        <ele>90.400002</ele>
        <time>2015-07-19T08:44:03Z</time>
      </trkpt>
      <trkpt lat="48.97819" lon="1.01395">
        <ele>90.699997</ele>
        <time>2015-07-19T08:44:06Z</time>
      </trkpt>
      <trkpt lat="48.97829" lon="1.01406">
        <ele>91</ele>
        <time>2015-07-19T08:44:09Z</time>
      </trkpt>
      <trkpt lat="48.97837" lon="1.01417">
        <ele>91.300003</ele>
        <time>2015-07-19T08:44:12Z</time>
      </trkpt>
      <trkpt lat="48.97844" lon="1.01427">
        <ele>91.699997</ele>
        <time>2015-07-19T08:44:15Z</time>
      </trkpt>
      <trkpt lat="48.97851" lon="1.01439">
        <ele>92.099998</ele>
        <time>2015-07-19T08:44:18Z</time>
      </trkpt>
      <trkpt lat="48.97858" lon="1.01451">
        <ele>92.599998</ele>
        <time>2015-07-19T08:44:21Z</time>
      </trkpt>
      <trkpt lat="48.97869" lon="1.01464">
        <ele>93.099998</ele>
        <time>2015-07-19T08:44:24Z</time>
      </trkpt>
      <trkpt lat="48.97877" lon="1.01477">
        <ele>93.699997</ele>
        <time>2015-07-19T08:44:27Z</time>
      </trkpt>
      <trkpt lat="48.97884" lon="1.01489">
        <ele>94.099998</ele>
        <time>2015-07-19T08:44:30Z</time>
      </trkpt>
      <trkpt lat="48.97891" lon="1.01502">
        <ele>94.599998</ele>
        <time>2015-07-19T08:44:33Z</time>
      </trkpt>
      <trkpt lat="48.97897" lon="1.01515">
        <ele>95.099998</ele>
        <time>2015-07-19T08:44:36Z</time>
      </trkpt>
      <trkpt lat="48.97903" lon="1.01529">
        <ele>95.599998</ele>
        <time>2015-07-19T08:44:39Z</time>
      </trkpt>
      <trkpt lat="48.97909" lon="1.01542">
        <ele>96</ele>
        <time>2015-07-19T08:44:42Z</time>
      </trkpt>
      <trkpt lat="48.97915" lon="1.01556">
        <ele>96.5</ele>
        <time>2015-07-19T08:44:45Z</time>
      </trkpt>
      <trkpt lat="48.97921" lon="1.0157">
        <ele>97</ele>
        <time>2015-07-19T08:44:48Z</time>
      </trkpt>
      <trkpt lat="48.97927" lon="1.01585">
        <ele>97.400002</ele>
        <time>2015-07-19T08:44:51Z</time>
      </trkpt>
      <trkpt lat="48.97933" lon="1.016">
        <ele>97.900002</ele>
        <time>2015-07-19T08:44:54Z</time>
      </trkpt>
      <trkpt lat="48.9794" lon="1.01616">
        <ele>98.300003</ele>
        <time>2015-07-19T08:44:57Z</time>
      </trkpt>
      <trkpt lat="48.97947" lon="1.01632">
        <ele>98.699997</ele>
        <time>2015-07-19T08:45:00Z</time>
      </trkpt>
      <trkpt lat="48.97955" lon="1.01649">
        <ele>99</ele>
        <time>2015-07-19T08:45:03Z</time>
      </trkpt>
      <trkpt lat="48.97961" lon="1.01661">
        <ele>99.199997</ele>
        <time>2015-07-19T08:45:05Z</time>
      </trkpt>
      <trkpt lat="48.97966" lon="1.01673">
        <ele>99.400002</ele>
        <time>2015-07-19T08:45:07Z</time>
      </trkpt>
      <trkpt lat="48.97973" lon="1.01687">
        <ele>99.599998</ele>
        <time>2015-07-19T08:45:09Z</time>
      </trkpt>
      <trkpt lat="48.97979" lon="1.017">
        <ele>99.699997</ele>
        <time>2015-07-19T08:45:11Z</time>
      </trkpt>
      <trkpt lat="48.97986" lon="1.01714">
        <ele>99.900002</ele>
        <time>2015-07-19T08:45:13Z</time>
      </trkpt>
      <trkpt lat="48.97993" lon="1.01729">
        <ele>100</ele>
        <time>2015-07-19T08:45:15Z</time>
      </trkpt>
      <trkpt lat="48.98" lon="1.01744">
        <ele>100</ele>
        <time>2015-07-19T08:45:17Z</time>
      </trkpt>
      <trkpt lat="48.98007" lon="1.01761">
        <ele>100.099998</ele>
        <time>2015-07-19T08:45:19Z</time>
      </trkpt>
      <trkpt lat="48.98012" lon="1.01779">
        <ele>100</ele>
        <time>2015-07-19T08:45:21Z</time>
      </trkpt>
      <trkpt lat="48.98018" lon="1.01799">
        <ele>99.900002</ele>
        <time>2015-07-19T08:45:23Z</time>
      </trkpt>
      <trkpt lat="48.98021" lon="1.01819">
        <ele>99.800003</ele>
        <time>2015-07-19T08:45:25Z</time>
      </trkpt>
      <trkpt lat="48.98024" lon="1.0184">
        <ele>99.5</ele>
        <time>2015-07-19T08:45:27Z</time>
      </trkpt>
      <trkpt lat="48.98028" lon="1.01861">
        <ele>99.300003</ele>
        <time>2015-07-19T08:45:29Z</time>
      </trkpt>
      <trkpt lat="48.98033" lon="1.01882">
        <ele>99</ele>
        <time>2015-07-19T08:45:31Z</time>
      </trkpt>
      <trkpt lat="48.98036" lon="1.01902">
        <ele>98.599998</ele>
        <time>2015-07-19T08:45:33Z</time>
      </trkpt>
      <trkpt lat="48.98041" lon="1.01925">
        <ele>98.199997</ele>
        <time>2015-07-19T08:45:35Z</time>
      </trkpt>
      <trkpt lat="48.98042" lon="1.01946">
        <ele>97.900002</ele>
        <time>2015-07-19T08:45:37Z</time>
      </trkpt>
      <trkpt lat="48.98046" lon="1.01965">
        <ele>97.599998</ele>
        <time>2015-07-19T08:45:39Z</time>
      </trkpt>
      <trkpt lat="48.98056" lon="1.01977">
        <ele>97.300003</ele>
        <time>2015-07-19T08:45:41Z</time>
      </trkpt>
      <trkpt lat="48.98065" lon="1.01989">
        <ele>97</ele>
        <time>2015-07-19T08:45:43Z</time>
      </trkpt>
      <trkpt lat="48.98073" lon="1.02004">
        <ele>96.699997</ele>
        <time>2015-07-19T08:45:45Z</time>
      </trkpt>
      <trkpt lat="48.9808" lon="1.02021">
        <ele>96.300003</ele>
        <time>2015-07-19T08:45:47Z</time>
      </trkpt>
      <trkpt lat="48.98087" lon="1.02038">
        <ele>95.900002</ele>
        <time>2015-07-19T08:45:49Z</time>
      </trkpt>
      <trkpt lat="48.98097" lon="1.02057">
        <ele>95.5</ele>
        <time>2015-07-19T08:45:51Z</time>
      </trkpt>
      <trkpt lat="48.98104" lon="1.02075">
        <ele>95.199997</ele>
        <time>2015-07-19T08:45:53Z</time>
      </trkpt>
      <trkpt lat="48.9811" lon="1.02093">
        <ele>94.900002</ele>
        <time>2015-07-19T08:45:55Z</time>
      </trkpt>
      <trkpt lat="48.98116" lon="1.02111">
        <ele>94.599998</ele>
        <time>2015-07-19T08:45:57Z</time>
      </trkpt>
      <trkpt lat="48.98121" lon="1.02128">
        <ele>94.199997</ele>
        <time>2015-07-19T08:45:59Z</time>
      </trkpt>
      <trkpt lat="48.98125" lon="1.02146">
        <ele>93.900002</ele>
        <time>2015-07-19T08:46:01Z</time>
      </trkpt>
      <trkpt lat="48.9813" lon="1.02163">
        <ele>93.699997</ele>
        <time>2015-07-19T08:46:03Z</time>
      </trkpt>
      <trkpt lat="48.98137" lon="1.02179">
        <ele>93.400002</ele>
        <time>2015-07-19T08:46:05Z</time>
      </trkpt>
      <trkpt lat="48.98144" lon="1.02193">
        <ele>93.199997</ele>
        <time>2015-07-19T08:46:07Z</time>
      </trkpt>
      <trkpt lat="48.98151" lon="1.02207">
        <ele>93</ele>
        <time>2015-07-19T08:46:09Z</time>
      </trkpt>
      <trkpt lat="48.98155" lon="1.02222">
        <ele>92.800003</ele>
        <time>2015-07-19T08:46:11Z</time>
      </trkpt>
      <trkpt lat="48.98154" lon="1.02236">
        <ele>92.599998</ele>
        <time>2015-07-19T08:46:13Z</time>
      </trkpt>
      <trkpt lat="48.98155" lon="1.02253">
        <ele>92.5</ele>
        <time>2015-07-19T08:46:16Z</time>
      </trkpt>
      <trkpt lat="48.98155" lon="1.02268">
        <ele>92.5</ele>
        <time>2015-07-19T08:46:19Z</time>
      </trkpt>
      <trkpt lat="48.98156" lon="1.02283">
        <ele>92.800003</ele>
        <time>2015-07-19T08:46:23Z</time>
      </trkpt>
      <trkpt lat="48.98155" lon="1.02301">
        <ele>93.400002</ele>
        <time>2015-07-19T08:46:27Z</time>
      </trkpt>
      <trkpt lat="48.98156" lon="1.02316">
        <ele>93.900002</ele>
        <time>2015-07-19T08:46:30Z</time>
      </trkpt>
      <trkpt lat="48.98157" lon="1.02332">
        <ele>94.800003</ele>
        <time>2015-07-19T08:46:34Z</time>
      </trkpt>
      <trkpt lat="48.98156" lon="1.02349">
        <ele>95.800003</ele>
        <time>2015-07-19T08:46:38Z</time>
      </trkpt>
      <trkpt lat="48.98154" lon="1.02362">
        <ele>96.599998</ele>
        <time>2015-07-19T08:46:41Z</time>
      </trkpt>
      <trkpt lat="48.98149" lon="1.02378">
        <ele>97.300003</ele>
        <time>2015-07-19T08:46:44Z</time>
      </trkpt>
      <trkpt lat="48.98141" lon="1.02391">
        <ele>98.099998</ele>
        <time>2015-07-19T08:46:48Z</time>
      </trkpt>
      <trkpt lat="48.98131" lon="1.02397">
        <ele>98.699997</ele>
        <time>2015-07-19T08:46:51Z</time>
      </trkpt>
      <trkpt lat="48.98122" lon="1.02402">
        <ele>99.199997</ele>
        <time>2015-07-19T08:46:54Z</time>
      </trkpt>
      <trkpt lat="48.98113" lon="1.02409">
        <ele>99.699997</ele>
        <time>2015-07-19T08:46:57Z</time>
      </trkpt>
      <trkpt lat="48.98104" lon="1.02415">
        <ele>100.300003</ele>
        <time>2015-07-19T08:47:00Z</time>
      </trkpt>
      <trkpt lat="48.98094" lon="1.02421">
        <ele>100.800003</ele>
        <time>2015-07-19T08:47:03Z</time>
      </trkpt>
      <trkpt lat="48.98086" lon="1.02429">
        <ele>101.300003</ele>
        <time>2015-07-19T08:47:06Z</time>
      </trkpt>
      <trkpt lat="48.98077" lon="1.02437">
        <ele>101.800003</ele>
        <time>2015-07-19T08:47:09Z</time>
      </trkpt>
      <trkpt lat="48.98069" lon="1.02446">
        <ele>102.300003</ele>
        <time>2015-07-19T08:47:12Z</time>
      </trkpt>
      <trkpt lat="48.9806" lon="1.02456">
        <ele>102.900002</ele>
        <time>2015-07-19T08:47:15Z</time>
      </trkpt>
      <trkpt lat="48.98052" lon="1.02465">
        <ele>103.400002</ele>
        <time>2015-07-19T08:47:18Z</time>
      </trkpt>
      <trkpt lat="48.98044" lon="1.02473">
        <ele>104</ele>
        <time>2015-07-19T08:47:21Z</time>
      </trkpt>
      <trkpt lat="48.98035" lon="1.02478">
        <ele>104.599998</ele>
        <time>2015-07-19T08:47:24Z</time>
      </trkpt>
      <trkpt lat="48.98025" lon="1.02483">
        <ele>105.099998</ele>
        <time>2015-07-19T08:47:27Z</time>
      </trkpt>
      <trkpt lat="48.98015" lon="1.02487">
        <ele>105.599998</ele>
        <time>2015-07-19T08:47:30Z</time>
      </trkpt>
      <trkpt lat="48.98006" lon="1.02494">
        <ele>106.199997</ele>
        <time>2015-07-19T08:47:33Z</time>
      </trkpt>
      <trkpt lat="48.97999" lon="1.02507">
        <ele>107</ele>
        <time>2015-07-19T08:47:37Z</time>
      </trkpt>
      <trkpt lat="48.97992" lon="1.02521">
        <ele>107.800003</ele>
        <time>2015-07-19T08:47:41Z</time>
      </trkpt>
      <trkpt lat="48.97986" lon="1.02537">
        <ele>108.800003</ele>
        <time>2015-07-19T08:47:45Z</time>
      </trkpt>
      <trkpt lat="48.97984" lon="1.02551">
        <ele>109.599998</ele>
        <time>2015-07-19T08:47:48Z</time>
      </trkpt>
      <trkpt lat="48.97977" lon="1.02566">
        <ele>110.800003</ele>
        <time>2015-07-19T08:47:52Z</time>
      </trkpt>
      <trkpt lat="48.97972" lon="1.02578">
        <ele>111.699997</ele>
        <time>2015-07-19T08:47:55Z</time>
      </trkpt>
      <trkpt lat="48.97966" lon="1.02593">
        <ele>113</ele>
        <time>2015-07-19T08:47:59Z</time>
      </trkpt>
      <trkpt lat="48.97961" lon="1.02608">
        <ele>114.300003</ele>
        <time>2015-07-19T08:48:03Z</time>
      </trkpt>
      <trkpt lat="48.97957" lon="1.02622">
        <ele>115.599998</ele>
        <time>2015-07-19T08:48:07Z</time>
      </trkpt>
      <trkpt lat="48.97953" lon="1.02636">
        <ele>116.900002</ele>
        <time>2015-07-19T08:48:11Z</time>
      </trkpt>
      <trkpt lat="48.97949" lon="1.0265">
        <ele>118.199997</ele>
        <time>2015-07-19T08:48:15Z</time>
      </trkpt>
      <trkpt lat="48.97944" lon="1.02662">
        <ele>119.400002</ele>
        <time>2015-07-19T08:48:19Z</time>
      </trkpt>
      <trkpt lat="48.97937" lon="1.02675">
        <ele>120.599998</ele>
        <time>2015-07-19T08:48:23Z</time>
      </trkpt>
      <trkpt lat="48.9793" lon="1.02687">
        <ele>121.800003</ele>
        <time>2015-07-19T08:48:27Z</time>
      </trkpt>
      <trkpt lat="48.97925" lon="1.02701">
        <ele>122.800003</ele>
        <time>2015-07-19T08:48:31Z</time>
      </trkpt>
      <trkpt lat="48.97919" lon="1.02714">
        <ele>123.800003</ele>
        <time>2015-07-19T08:48:35Z</time>
      </trkpt>
      <trkpt lat="48.97913" lon="1.02728">
        <ele>124.699997</ele>
        <time>2015-07-19T08:48:39Z</time>
      </trkpt>
      <trkpt lat="48.97907" lon="1.02743">
        <ele>125.599998</ele>
        <time>2015-07-19T08:48:43Z</time>
      </trkpt>
      <trkpt lat="48.97902" lon="1.02757">
        <ele>126.599998</ele>
        <time>2015-07-19T08:48:47Z</time>
      </trkpt>
      <trkpt lat="48.97895" lon="1.02771">
        <ele>127.5</ele>
        <time>2015-07-19T08:48:51Z</time>
      </trkpt>
      <trkpt lat="48.9789" lon="1.02784">
        <ele>128.600006</ele>
        <time>2015-07-19T08:48:55Z</time>
      </trkpt>
      <trkpt lat="48.97885" lon="1.02796">
        <ele>129.800003</ele>
        <time>2015-07-19T08:48:59Z</time>
      </trkpt>
      <trkpt lat="48.97879" lon="1.02808">
        <ele>131.699997</ele>
        <time>2015-07-19T08:49:06Z</time>
      </trkpt>
      <trkpt lat="48.97873" lon="1.02818">
        <ele>133.199997</ele>
        <time>2015-07-19T08:49:12Z</time>
      </trkpt>
      <trkpt lat="48.97866" lon="1.0283">
        <ele>134.100006</ele>
        <time>2015-07-19T08:49:16Z</time>
      </trkpt>
      <trkpt lat="48.97859" lon="1.02839">
        <ele>134.899994</ele>
        <time>2015-07-19T08:49:20Z</time>
      </trkpt>
      <trkpt lat="48.9785" lon="1.02844">
        <ele>135.699997</ele>
        <time>2015-07-19T08:49:25Z</time>
      </trkpt>
      <trkpt lat="48.97841" lon="1.02853">
        <ele>136.399994</ele>
        <time>2015-07-19T08:49:29Z</time>
      </trkpt>
      <trkpt lat="48.97833" lon="1.02864">
        <ele>136.899994</ele>
        <time>2015-07-19T08:49:32Z</time>
      </trkpt>
      <trkpt lat="48.97824" lon="1.02874">
        <ele>137.399994</ele>
        <time>2015-07-19T08:49:35Z</time>
      </trkpt>
      <trkpt lat="48.97817" lon="1.02883">
        <ele>137.800003</ele>
        <time>2015-07-19T08:49:38Z</time>
      </trkpt>
      <trkpt lat="48.97806" lon="1.02892">
        <ele>138.300003</ele>
        <time>2015-07-19T08:49:42Z</time>
      </trkpt>
      <trkpt lat="48.97799" lon="1.02903">
        <ele>138.600006</ele>
        <time>2015-07-19T08:49:45Z</time>
      </trkpt>
      <trkpt lat="48.97789" lon="1.02914">
        <ele>139.199997</ele>
        <time>2015-07-19T08:49:49Z</time>
      </trkpt>
      <trkpt lat="48.97781" lon="1.02926">
        <ele>139.600006</ele>
        <time>2015-07-19T08:49:52Z</time>
      </trkpt>
      <trkpt lat="48.97772" lon="1.02936">
        <ele>140</ele>
        <time>2015-07-19T08:49:55Z</time>
      </trkpt>
      <trkpt lat="48.97765" lon="1.0295">
        <ele>140.399994</ele>
        <time>2015-07-19T08:49:59Z</time>
      </trkpt>
      <trkpt lat="48.97762" lon="1.02965">
        <ele>140.800003</ele>
        <time>2015-07-19T08:50:02Z</time>
      </trkpt>
      <trkpt lat="48.97761" lon="1.02981">
        <ele>141.100006</ele>
        <time>2015-07-19T08:50:05Z</time>
      </trkpt>
      <trkpt lat="48.97763" lon="1.02996">
        <ele>141.5</ele>
        <time>2015-07-19T08:50:08Z</time>
      </trkpt>
      <trkpt lat="48.97772" lon="1.03001">
        <ele>142.199997</ele>
        <time>2015-07-19T08:50:18Z</time>
      </trkpt>
      <trkpt lat="48.97782" lon="1.02999">
        <ele>143.699997</ele>
        <time>2015-07-19T08:51:10Z</time>
      </trkpt>
      <trkpt lat="48.97793" lon="1.02994">
        <ele>143.800003</ele>
        <time>2015-07-19T08:51:14Z</time>
      </trkpt>
      <trkpt lat="48.97803" lon="1.02989">
        <ele>143.800003</ele>
        <time>2015-07-19T08:51:17Z</time>
      </trkpt>
      <trkpt lat="48.97813" lon="1.02984">
        <ele>143.699997</ele>
        <time>2015-07-19T08:51:20Z</time>
      </trkpt>
      <trkpt lat="48.97824" lon="1.0298">
        <ele>143.600006</ele>
        <time>2015-07-19T08:51:23Z</time>
      </trkpt>
      <trkpt lat="48.97836" lon="1.02975">
        <ele>143.5</ele>
        <time>2015-07-19T08:51:26Z</time>
      </trkpt>
      <trkpt lat="48.97847" lon="1.02968">
        <ele>143.399994</ele>
        <time>2015-07-19T08:51:29Z</time>
      </trkpt>
      <trkpt lat="48.97861" lon="1.02963">
        <ele>143.199997</ele>
        <time>2015-07-19T08:51:32Z</time>
      </trkpt>
      <trkpt lat="48.9787" lon="1.02958">
        <ele>143</ele>
        <time>2015-07-19T08:51:34Z</time>
      </trkpt>
      <trkpt lat="48.97879" lon="1.02953">
        <ele>142.800003</ele>
        <time>2015-07-19T08:51:36Z</time>
      </trkpt>
      <trkpt lat="48.97888" lon="1.02949">
        <ele>142.600006</ele>
        <time>2015-07-19T08:51:38Z</time>
      </trkpt>
      <trkpt lat="48.97897" lon="1.02945">
        <ele>142.5</ele>
        <time>2015-07-19T08:51:40Z</time>
      </trkpt>
      <trkpt lat="48.9791" lon="1.02939">
        <ele>142.100006</ele>
        <time>2015-07-19T08:51:43Z</time>
      </trkpt>
      <trkpt lat="48.97918" lon="1.02934">
        <ele>141.899994</ele>
        <time>2015-07-19T08:51:45Z</time>
      </trkpt>
      <trkpt lat="48.9793" lon="1.02931">
        <ele>141.5</ele>
        <time>2015-07-19T08:51:48Z</time>
      </trkpt>
      <trkpt lat="48.97934" lon="1.02944">
        <ele>141.100006</ele>
        <time>2015-07-19T08:51:52Z</time>
      </trkpt>
      <trkpt lat="48.97936" lon="1.02959">
        <ele>140.800003</ele>
        <time>2015-07-19T08:51:56Z</time>
      </trkpt>
      <trkpt lat="48.97937" lon="1.02976">
        <ele>140.600006</ele>
        <time>2015-07-19T08:52:00Z</time>
      </trkpt>
      <trkpt lat="48.97944" lon="1.02994">
        <ele>140.600006</ele>
        <time>2015-07-19T08:52:03Z</time>
      </trkpt>
      <trkpt lat="48.97947" lon="1.03012">
        <ele>140.699997</ele>
        <time>2015-07-19T08:52:06Z</time>
      </trkpt>
      <trkpt lat="48.9795" lon="1.03028">
        <ele>140.699997</ele>
        <time>2015-07-19T08:52:09Z</time>
      </trkpt>
      <trkpt lat="48.97951" lon="1.03043">
        <ele>140.800003</ele>
        <time>2015-07-19T08:52:12Z</time>
      </trkpt>
      <trkpt lat="48.97954" lon="1.03062">
        <ele>140.899994</ele>
        <time>2015-07-19T08:52:15Z</time>
      </trkpt>
      <trkpt lat="48.97958" lon="1.03084">
        <ele>140.899994</ele>
        <time>2015-07-19T08:52:18Z</time>
      </trkpt>
      <trkpt lat="48.9796" lon="1.03103">
        <ele>140.899994</ele>
        <time>2015-07-19T08:52:21Z</time>
      </trkpt>
      <trkpt lat="48.97962" lon="1.03117">
        <ele>140.899994</ele>
        <time>2015-07-19T08:52:23Z</time>
      </trkpt>
      <trkpt lat="48.97963" lon="1.03135">
        <ele>140.899994</ele>
        <time>2015-07-19T08:52:26Z</time>
      </trkpt>
      <trkpt lat="48.97967" lon="1.0315">
        <ele>140.899994</ele>
        <time>2015-07-19T08:52:28Z</time>
      </trkpt>
      <trkpt lat="48.97972" lon="1.03165">
        <ele>140.800003</ele>
        <time>2015-07-19T08:52:30Z</time>
      </trkpt>
      <trkpt lat="48.97974" lon="1.03184">
        <ele>140.800003</ele>
        <time>2015-07-19T08:52:34Z</time>
      </trkpt>
      <trkpt lat="48.97978" lon="1.03201">
        <ele>140.800003</ele>
        <time>2015-07-19T08:52:36Z</time>
      </trkpt>
      <trkpt lat="48.97979" lon="1.03215">
        <ele>140.800003</ele>
        <time>2015-07-19T08:52:38Z</time>
      </trkpt>
      <trkpt lat="48.97983" lon="1.0323">
        <ele>140.800003</ele>
        <time>2015-07-19T08:52:40Z</time>
      </trkpt>
      <trkpt lat="48.97989" lon="1.03249">
        <ele>140.800003</ele>
        <time>2015-07-19T08:52:43Z</time>
      </trkpt>
      <trkpt lat="48.97992" lon="1.03264">
        <ele>140.800003</ele>
        <time>2015-07-19T08:52:45Z</time>
      </trkpt>
      <trkpt lat="48.97996" lon="1.03278">
        <ele>140.899994</ele>
        <time>2015-07-19T08:52:47Z</time>
      </trkpt>
      <trkpt lat="48.97999" lon="1.03291">
        <ele>141</ele>
        <time>2015-07-19T08:52:49Z</time>
      </trkpt>
      <trkpt lat="48.98002" lon="1.03305">
        <ele>141.100006</ele>
        <time>2015-07-19T08:52:51Z</time>
      </trkpt>
      <trkpt lat="48.98006" lon="1.03325">
        <ele>141.399994</ele>
        <time>2015-07-19T08:52:54Z</time>
      </trkpt>
      <trkpt lat="48.9801" lon="1.03339">
        <ele>141.5</ele>
        <time>2015-07-19T08:52:56Z</time>
      </trkpt>
      <trkpt lat="48.98012" lon="1.03358">
        <ele>141.800003</ele>
        <time>2015-07-19T08:52:59Z</time>
      </trkpt>
      <trkpt lat="48.98015" lon="1.03372">
        <ele>142.100006</ele>
        <time>2015-07-19T08:53:01Z</time>
      </trkpt>
      <trkpt lat="48.98017" lon="1.03387">
        <ele>142.300003</ele>
        <time>2015-07-19T08:53:03Z</time>
      </trkpt>
      <trkpt lat="48.98021" lon="1.03401">
        <ele>142.5</ele>
        <time>2015-07-19T08:53:05Z</time>
      </trkpt>
      <trkpt lat="48.98024" lon="1.03416">
        <ele>142.699997</ele>
        <time>2015-07-19T08:53:07Z</time>
      </trkpt>
      <trkpt lat="48.98028" lon="1.03431">
        <ele>142.899994</ele>
        <time>2015-07-19T08:53:09Z</time>
      </trkpt>
      <trkpt lat="48.98032" lon="1.03447">
        <ele>143</ele>
        <time>2015-07-19T08:53:11Z</time>
      </trkpt>
      <trkpt lat="48.98035" lon="1.03462">
        <ele>143.100006</ele>
        <time>2015-07-19T08:53:13Z</time>
      </trkpt>
      <trkpt lat="48.98038" lon="1.03477">
        <ele>143.199997</ele>
        <time>2015-07-19T08:53:15Z</time>
      </trkpt>
      <trkpt lat="48.98041" lon="1.03491">
        <ele>143.300003</ele>
        <time>2015-07-19T08:53:17Z</time>
      </trkpt>
      <trkpt lat="48.98044" lon="1.03506">
        <ele>143.399994</ele>
        <time>2015-07-19T08:53:19Z</time>
      </trkpt>
      <trkpt lat="48.98045" lon="1.03521">
        <ele>143.5</ele>
        <time>2015-07-19T08:53:21Z</time>
      </trkpt>
      <trkpt lat="48.98048" lon="1.03536">
        <ele>143.600006</ele>
        <time>2015-07-19T08:53:23Z</time>
      </trkpt>
      <trkpt lat="48.98051" lon="1.03551">
        <ele>143.699997</ele>
        <time>2015-07-19T08:53:25Z</time>
      </trkpt>
      <trkpt lat="48.98052" lon="1.03565">
        <ele>143.699997</ele>
        <time>2015-07-19T08:53:27Z</time>
      </trkpt>
      <trkpt lat="48.98056" lon="1.0358">
        <ele>143.800003</ele>
        <time>2015-07-19T08:53:29Z</time>
      </trkpt>
      <trkpt lat="48.98059" lon="1.03596">
        <ele>143.899994</ele>
        <time>2015-07-19T08:53:31Z</time>
      </trkpt>
      <trkpt lat="48.9806" lon="1.03615">
        <ele>144</ele>
        <time>2015-07-19T08:53:34Z</time>
      </trkpt>
      <trkpt lat="48.98062" lon="1.03628">
        <ele>144.100006</ele>
        <time>2015-07-19T08:53:36Z</time>
      </trkpt>
      <trkpt lat="48.98065" lon="1.03644">
        <ele>144.199997</ele>
        <time>2015-07-19T08:53:38Z</time>
      </trkpt>
      <trkpt lat="48.98067" lon="1.0366">
        <ele>144.199997</ele>
        <time>2015-07-19T08:53:40Z</time>
      </trkpt>
      <trkpt lat="48.98069" lon="1.03675">
        <ele>144.300003</ele>
        <time>2015-07-19T08:53:42Z</time>
      </trkpt>
      <trkpt lat="48.98073" lon="1.03689">
        <ele>144.399994</ele>
        <time>2015-07-19T08:53:44Z</time>
      </trkpt>
      <trkpt lat="48.9808" lon="1.03705">
        <ele>144.399994</ele>
        <time>2015-07-19T08:53:46Z</time>
      </trkpt>
      <trkpt lat="48.9809" lon="1.03711">
        <ele>144.5</ele>
        <time>2015-07-19T08:53:49Z</time>
      </trkpt>
      <trkpt lat="48.98103" lon="1.03707">
        <ele>144.699997</ele>
        <time>2015-07-19T08:53:52Z</time>
      </trkpt>
      <trkpt lat="48.98113" lon="1.03704">
        <ele>144.699997</ele>
        <time>2015-07-19T08:53:54Z</time>
      </trkpt>
      <trkpt lat="48.98126" lon="1.03703">
        <ele>144.800003</ele>
        <time>2015-07-19T08:53:56Z</time>
      </trkpt>
      <trkpt lat="48.98135" lon="1.037">
        <ele>144.800003</ele>
        <time>2015-07-19T08:53:58Z</time>
      </trkpt>
      <trkpt lat="48.98145" lon="1.03698">
        <ele>144.800003</ele>
        <time>2015-07-19T08:54:00Z</time>
      </trkpt>
      <trkpt lat="48.98156" lon="1.03695">
        <ele>144.699997</ele>
        <time>2015-07-19T08:54:02Z</time>
      </trkpt>
      <trkpt lat="48.98167" lon="1.03693">
        <ele>144.699997</ele>
        <time>2015-07-19T08:54:04Z</time>
      </trkpt>
      <trkpt lat="48.98176" lon="1.03689">
        <ele>144.699997</ele>
        <time>2015-07-19T08:54:06Z</time>
      </trkpt>
      <trkpt lat="48.98187" lon="1.03681">
        <ele>144.699997</ele>
        <time>2015-07-19T08:54:09Z</time>
      </trkpt>
      <trkpt lat="48.98201" lon="1.03671">
        <ele>144.699997</ele>
        <time>2015-07-19T08:54:12Z</time>
      </trkpt>
      <trkpt lat="48.98215" lon="1.03664">
        <ele>144.699997</ele>
        <time>2015-07-19T08:54:15Z</time>
      </trkpt>
      <trkpt lat="48.9823" lon="1.03662">
        <ele>144.600006</ele>
        <time>2015-07-19T08:54:17Z</time>
      </trkpt>
      <trkpt lat="48.98246" lon="1.03659">
        <ele>144.600006</ele>
        <time>2015-07-19T08:54:20Z</time>
      </trkpt>
      <trkpt lat="48.98257" lon="1.03658">
        <ele>144.5</ele>
        <time>2015-07-19T08:54:22Z</time>
      </trkpt>
      <trkpt lat="48.98268" lon="1.03658">
        <ele>144.5</ele>
        <time>2015-07-19T08:54:24Z</time>
      </trkpt>
      <trkpt lat="48.98277" lon="1.03658">
        <ele>144.5</ele>
        <time>2015-07-19T08:54:26Z</time>
      </trkpt>
      <trkpt lat="48.98289" lon="1.03658">
        <ele>144.5</ele>
        <time>2015-07-19T08:54:28Z</time>
      </trkpt>
      <trkpt lat="48.98301" lon="1.03655">
        <ele>144.5</ele>
        <time>2015-07-19T08:54:30Z</time>
      </trkpt>
      <trkpt lat="48.98312" lon="1.03652">
        <ele>144.5</ele>
        <time>2015-07-19T08:54:32Z</time>
      </trkpt>
      <trkpt lat="48.98324" lon="1.0365">
        <ele>144.5</ele>
        <time>2015-07-19T08:54:34Z</time>
      </trkpt>
      <trkpt lat="48.98334" lon="1.03646">
        <ele>144.5</ele>
        <time>2015-07-19T08:54:36Z</time>
      </trkpt>
      <trkpt lat="48.98345" lon="1.03643">
        <ele>144.399994</ele>
        <time>2015-07-19T08:54:38Z</time>
      </trkpt>
      <trkpt lat="48.98355" lon="1.03638">
        <ele>144.399994</ele>
        <time>2015-07-19T08:54:40Z</time>
      </trkpt>
      <trkpt lat="48.98366" lon="1.03632">
        <ele>144.199997</ele>
        <time>2015-07-19T08:54:42Z</time>
      </trkpt>
      <trkpt lat="48.98375" lon="1.03626">
        <ele>143.899994</ele>
        <time>2015-07-19T08:54:45Z</time>
      </trkpt>
      <trkpt lat="48.98384" lon="1.03623">
        <ele>143.800003</ele>
        <time>2015-07-19T08:54:47Z</time>
      </trkpt>
      <trkpt lat="48.98394" lon="1.03621">
        <ele>143.5</ele>
        <time>2015-07-19T08:54:49Z</time>
      </trkpt>
      <trkpt lat="48.9841" lon="1.03622">
        <ele>143.100006</ele>
        <time>2015-07-19T08:54:51Z</time>
      </trkpt>
      <trkpt lat="48.98423" lon="1.03627">
        <ele>142.600006</ele>
        <time>2015-07-19T08:54:53Z</time>
      </trkpt>
      <trkpt lat="48.98434" lon="1.03633">
        <ele>142</ele>
        <time>2015-07-19T08:54:55Z</time>
      </trkpt>
      <trkpt lat="48.98444" lon="1.03638">
        <ele>141.699997</ele>
        <time>2015-07-19T08:54:56Z</time>
      </trkpt>
      <trkpt lat="48.98454" lon="1.0364">
        <ele>141</ele>
        <time>2015-07-19T08:54:58Z</time>
      </trkpt>
      <trkpt lat="48.98464" lon="1.03647">
        <ele>140.100006</ele>
        <time>2015-07-19T08:55:00Z</time>
      </trkpt>
      <trkpt lat="48.98477" lon="1.03656">
        <ele>139.300003</ele>
        <time>2015-07-19T08:55:02Z</time>
      </trkpt>
      <trkpt lat="48.98494" lon="1.03662">
        <ele>138.399994</ele>
        <time>2015-07-19T08:55:04Z</time>
      </trkpt>
      <trkpt lat="48.98507" lon="1.03668">
        <ele>138</ele>
        <time>2015-07-19T08:55:05Z</time>
      </trkpt>
      <trkpt lat="48.98517" lon="1.03672">
        <ele>137.5</ele>
        <time>2015-07-19T08:55:06Z</time>
      </trkpt>
      <trkpt lat="48.9853" lon="1.03677">
        <ele>136.399994</ele>
        <time>2015-07-19T08:55:08Z</time>
      </trkpt>
      <trkpt lat="48.98553" lon="1.03686">
        <ele>134</ele>
        <time>2015-07-19T08:55:11Z</time>
      </trkpt>
      <trkpt lat="48.98579" lon="1.03694">
        <ele>132.600006</ele>
        <time>2015-07-19T08:55:14Z</time>
      </trkpt>
      <trkpt lat="48.9859" lon="1.03698">
        <ele>131.899994</ele>
        <time>2015-07-19T08:55:15Z</time>
      </trkpt>
      <trkpt lat="48.98607" lon="1.03702">
        <ele>130</ele>
        <time>2015-07-19T08:55:17Z</time>
      </trkpt>
      <trkpt lat="48.98632" lon="1.03711">
        <ele>128.100006</ele>
        <time>2015-07-19T08:55:20Z</time>
      </trkpt>
      <trkpt lat="48.98648" lon="1.03717">
        <ele>126.599998</ele>
        <time>2015-07-19T08:55:22Z</time>
      </trkpt>
      <trkpt lat="48.98668" lon="1.03725">
        <ele>125.099998</ele>
        <time>2015-07-19T08:55:24Z</time>
      </trkpt>
      <trkpt lat="48.98679" lon="1.03729">
        <ele>124.300003</ele>
        <time>2015-07-19T08:55:25Z</time>
      </trkpt>
      <trkpt lat="48.9869" lon="1.0373">
        <ele>123.400002</ele>
        <time>2015-07-19T08:55:26Z</time>
      </trkpt>
      <trkpt lat="48.98699" lon="1.03733">
        <ele>122.599998</ele>
        <time>2015-07-19T08:55:27Z</time>
      </trkpt>
      <trkpt lat="48.98715" lon="1.03743">
        <ele>120.800003</ele>
        <time>2015-07-19T08:55:29Z</time>
      </trkpt>
      <trkpt lat="48.98727" lon="1.03758">
        <ele>119.099998</ele>
        <time>2015-07-19T08:55:31Z</time>
      </trkpt>
      <trkpt lat="48.98737" lon="1.03772">
        <ele>117.300003</ele>
        <time>2015-07-19T08:55:33Z</time>
      </trkpt>
      <trkpt lat="48.98749" lon="1.03787">
        <ele>115.599998</ele>
        <time>2015-07-19T08:55:35Z</time>
      </trkpt>
      <trkpt lat="48.98757" lon="1.03804">
        <ele>113.900002</ele>
        <time>2015-07-19T08:55:37Z</time>
      </trkpt>
      <trkpt lat="48.98767" lon="1.03822">
        <ele>112.099998</ele>
        <time>2015-07-19T08:55:39Z</time>
      </trkpt>
      <trkpt lat="48.98779" lon="1.03839">
        <ele>110.599998</ele>
        <time>2015-07-19T08:55:41Z</time>
      </trkpt>
      <trkpt lat="48.98792" lon="1.03853">
        <ele>109</ele>
        <time>2015-07-19T08:55:43Z</time>
      </trkpt>
      <trkpt lat="48.98802" lon="1.0387">
        <ele>107.599998</ele>
        <time>2015-07-19T08:55:45Z</time>
      </trkpt>
      <trkpt lat="48.98813" lon="1.03887">
        <ele>106.099998</ele>
        <time>2015-07-19T08:55:47Z</time>
      </trkpt>
      <trkpt lat="48.98821" lon="1.03902">
        <ele>104.800003</ele>
        <time>2015-07-19T08:55:49Z</time>
      </trkpt>
      <trkpt lat="48.98829" lon="1.03916">
        <ele>103.599998</ele>
        <time>2015-07-19T08:55:51Z</time>
      </trkpt>
      <trkpt lat="48.98836" lon="1.03928">
        <ele>102.599998</ele>
        <time>2015-07-19T08:55:53Z</time>
      </trkpt>
      <trkpt lat="48.98844" lon="1.03941">
        <ele>101.699997</ele>
        <time>2015-07-19T08:55:55Z</time>
      </trkpt>
      <trkpt lat="48.98851" lon="1.03953">
        <ele>100.800003</ele>
        <time>2015-07-19T08:55:57Z</time>
      </trkpt>
      <trkpt lat="48.9886" lon="1.03965">
        <ele>100.099998</ele>
        <time>2015-07-19T08:55:59Z</time>
      </trkpt>
      <trkpt lat="48.98868" lon="1.03979">
        <ele>99.400002</ele>
        <time>2015-07-19T08:56:01Z</time>
      </trkpt>
      <trkpt lat="48.98877" lon="1.03992">
        <ele>98.900002</ele>
        <time>2015-07-19T08:56:03Z</time>
      </trkpt>
      <trkpt lat="48.98885" lon="1.04006">
        <ele>98.400002</ele>
        <time>2015-07-19T08:56:05Z</time>
      </trkpt>
      <trkpt lat="48.98893" lon="1.04019">
        <ele>97.900002</ele>
        <time>2015-07-19T08:56:07Z</time>
      </trkpt>
      <trkpt lat="48.98902" lon="1.04033">
        <ele>97.400002</ele>
        <time>2015-07-19T08:56:09Z</time>
      </trkpt>
      <trkpt lat="48.9891" lon="1.04049">
        <ele>97</ele>
        <time>2015-07-19T08:56:11Z</time>
      </trkpt>
      <trkpt lat="48.98919" lon="1.04066">
        <ele>96.599998</ele>
        <time>2015-07-19T08:56:13Z</time>
      </trkpt>
      <trkpt lat="48.98926" lon="1.04083">
        <ele>96.199997</ele>
        <time>2015-07-19T08:56:15Z</time>
      </trkpt>
      <trkpt lat="48.98933" lon="1.041">
        <ele>95.800003</ele>
        <time>2015-07-19T08:56:17Z</time>
      </trkpt>
      <trkpt lat="48.9894" lon="1.04116">
        <ele>95.400002</ele>
        <time>2015-07-19T08:56:19Z</time>
      </trkpt>
      <trkpt lat="48.98947" lon="1.04132">
        <ele>94.900002</ele>
        <time>2015-07-19T08:56:21Z</time>
      </trkpt>
      <trkpt lat="48.98955" lon="1.04147">
        <ele>94.5</ele>
        <time>2015-07-19T08:56:23Z</time>
      </trkpt>
      <trkpt lat="48.98967" lon="1.04156">
        <ele>94.099998</ele>
        <time>2015-07-19T08:56:25Z</time>
      </trkpt>
      <trkpt lat="48.9898" lon="1.04165">
        <ele>93.800003</ele>
        <time>2015-07-19T08:56:27Z</time>
      </trkpt>
      <trkpt lat="48.98992" lon="1.04172">
        <ele>93.5</ele>
        <time>2015-07-19T08:56:29Z</time>
      </trkpt>
      <trkpt lat="48.99003" lon="1.04178">
        <ele>93.300003</ele>
        <time>2015-07-19T08:56:31Z</time>
      </trkpt>
      <trkpt lat="48.99014" lon="1.04179">
        <ele>93</ele>
        <time>2015-07-19T08:56:33Z</time>
      </trkpt>
      <trkpt lat="48.99024" lon="1.04175">
        <ele>92.800003</ele>
        <time>2015-07-19T08:56:35Z</time>
      </trkpt>
      <trkpt lat="48.99034" lon="1.0417">
        <ele>92.599998</ele>
        <time>2015-07-19T08:56:37Z</time>
      </trkpt>
      <trkpt lat="48.99044" lon="1.0417">
        <ele>92.5</ele>
        <time>2015-07-19T08:56:39Z</time>
      </trkpt>
      <trkpt lat="48.99052" lon="1.04179">
        <ele>92.300003</ele>
        <time>2015-07-19T08:56:41Z</time>
      </trkpt>
      <trkpt lat="48.9906" lon="1.04189">
        <ele>92.199997</ele>
        <time>2015-07-19T08:56:43Z</time>
      </trkpt>
      <trkpt lat="48.99068" lon="1.04199">
        <ele>92.099998</ele>
        <time>2015-07-19T08:56:45Z</time>
      </trkpt>
      <trkpt lat="48.99076" lon="1.0421">
        <ele>92</ele>
        <time>2015-07-19T08:56:47Z</time>
      </trkpt>
      <trkpt lat="48.99083" lon="1.04221">
        <ele>91.900002</ele>
        <time>2015-07-19T08:56:49Z</time>
      </trkpt>
      <trkpt lat="48.9909" lon="1.04232">
        <ele>91.900002</ele>
        <time>2015-07-19T08:56:51Z</time>
      </trkpt>
      <trkpt lat="48.99097" lon="1.04243">
        <ele>91.800003</ele>
        <time>2015-07-19T08:56:53Z</time>
      </trkpt>
      <trkpt lat="48.99105" lon="1.04254">
        <ele>91.699997</ele>
        <time>2015-07-19T08:56:55Z</time>
      </trkpt>
      <trkpt lat="48.99112" lon="1.04265">
        <ele>91.699997</ele>
        <time>2015-07-19T08:56:57Z</time>
      </trkpt>
      <trkpt lat="48.99119" lon="1.04275">
        <ele>91.599998</ele>
        <time>2015-07-19T08:56:59Z</time>
      </trkpt>
      <trkpt lat="48.99129" lon="1.04285">
        <ele>91.599998</ele>
        <time>2015-07-19T08:57:02Z</time>
      </trkpt>
      <trkpt lat="48.99138" lon="1.04291">
        <ele>91.5</ele>
        <time>2015-07-19T08:57:04Z</time>
      </trkpt>
      <trkpt lat="48.99146" lon="1.04297">
        <ele>91.5</ele>
        <time>2015-07-19T08:57:06Z</time>
      </trkpt>
      <trkpt lat="48.99156" lon="1.04301">
        <ele>91.5</ele>
        <time>2015-07-19T08:57:08Z</time>
      </trkpt>
      <trkpt lat="48.99166" lon="1.04304">
        <ele>91.5</ele>
        <time>2015-07-19T08:57:10Z</time>
      </trkpt>
      <trkpt lat="48.99176" lon="1.04306">
        <ele>91.5</ele>
        <time>2015-07-19T08:57:12Z</time>
      </trkpt>
      <trkpt lat="48.99185" lon="1.04308">
        <ele>91.5</ele>
        <time>2015-07-19T08:57:14Z</time>
      </trkpt>
      <trkpt lat="48.99194" lon="1.04312">
        <ele>91.5</ele>
        <time>2015-07-19T08:57:16Z</time>
      </trkpt>
      <trkpt lat="48.99202" lon="1.04317">
        <ele>91.5</ele>
        <time>2015-07-19T08:57:18Z</time>
      </trkpt>
      <trkpt lat="48.99209" lon="1.04331">
        <ele>91.400002</ele>
        <time>2015-07-19T08:57:21Z</time>
      </trkpt>
      <trkpt lat="48.99205" lon="1.04351">
        <ele>91.400002</ele>
        <time>2015-07-19T08:57:24Z</time>
      </trkpt>
      <trkpt lat="48.99201" lon="1.04365">
        <ele>91.300003</ele>
        <time>2015-07-19T08:57:26Z</time>
      </trkpt>
      <trkpt lat="48.99197" lon="1.04379">
        <ele>91.199997</ele>
        <time>2015-07-19T08:57:28Z</time>
      </trkpt>
      <trkpt lat="48.99193" lon="1.04394">
        <ele>91.199997</ele>
        <time>2015-07-19T08:57:30Z</time>
      </trkpt>
      <trkpt lat="48.99189" lon="1.04409">
        <ele>91.099998</ele>
        <time>2015-07-19T08:57:32Z</time>
      </trkpt>
      <trkpt lat="48.99184" lon="1.04424">
        <ele>91</ele>
        <time>2015-07-19T08:57:34Z</time>
      </trkpt>
      <trkpt lat="48.9918" lon="1.04439">
        <ele>91</ele>
        <time>2015-07-19T08:57:36Z</time>
      </trkpt>
      <trkpt lat="48.99176" lon="1.04454">
        <ele>90.900002</ele>
        <time>2015-07-19T08:57:38Z</time>
      </trkpt>
      <trkpt lat="48.99173" lon="1.0447">
        <ele>90.900002</ele>
        <time>2015-07-19T08:57:40Z</time>
      </trkpt>
      <trkpt lat="48.99172" lon="1.04486">
        <ele>90.900002</ele>
        <time>2015-07-19T08:57:42Z</time>
      </trkpt>
      <trkpt lat="48.9917" lon="1.04502">
        <ele>90.800003</ele>
        <time>2015-07-19T08:57:44Z</time>
      </trkpt>
      <trkpt lat="48.9917" lon="1.04519">
        <ele>90.800003</ele>
        <time>2015-07-19T08:57:46Z</time>
      </trkpt>
      <trkpt lat="48.99168" lon="1.04535">
        <ele>90.800003</ele>
        <time>2015-07-19T08:57:48Z</time>
      </trkpt>
      <trkpt lat="48.99166" lon="1.0455">
        <ele>90.800003</ele>
        <time>2015-07-19T08:57:50Z</time>
      </trkpt>
      <trkpt lat="48.99164" lon="1.04565">
        <ele>90.800003</ele>
        <time>2015-07-19T08:57:52Z</time>
      </trkpt>
      <trkpt lat="48.99162" lon="1.04582">
        <ele>90.800003</ele>
        <time>2015-07-19T08:57:54Z</time>
      </trkpt>
      <trkpt lat="48.99159" lon="1.04597">
        <ele>90.800003</ele>
        <time>2015-07-19T08:57:56Z</time>
      </trkpt>
      <trkpt lat="48.99157" lon="1.04612">
        <ele>90.800003</ele>
        <time>2015-07-19T08:57:58Z</time>
      </trkpt>
      <trkpt lat="48.99155" lon="1.04627">
        <ele>90.800003</ele>
        <time>2015-07-19T08:58:00Z</time>
      </trkpt>
      <trkpt lat="48.99156" lon="1.04642">
        <ele>90.800003</ele>
        <time>2015-07-19T08:58:02Z</time>
      </trkpt>
      <trkpt lat="48.99157" lon="1.04656">
        <ele>90.800003</ele>
        <time>2015-07-19T08:58:04Z</time>
      </trkpt>
      <trkpt lat="48.99159" lon="1.04671">
        <ele>90.800003</ele>
        <time>2015-07-19T08:58:06Z</time>
      </trkpt>
      <trkpt lat="48.99161" lon="1.04702">
        <ele>90.900002</ele>
        <time>2015-07-19T08:58:11Z</time>
      </trkpt>
      <trkpt lat="48.99163" lon="1.04716">
        <ele>91</ele>
        <time>2015-07-19T08:58:13Z</time>
      </trkpt>
      <trkpt lat="48.99164" lon="1.04731">
        <ele>91</ele>
        <time>2015-07-19T08:58:15Z</time>
      </trkpt>
      <trkpt lat="48.99164" lon="1.04745">
        <ele>91</ele>
        <time>2015-07-19T08:58:17Z</time>
      </trkpt>
      <trkpt lat="48.99165" lon="1.0476">
        <ele>91.099998</ele>
        <time>2015-07-19T08:58:19Z</time>
      </trkpt>
      <trkpt lat="48.99164" lon="1.04774">
        <ele>91.099998</ele>
        <time>2015-07-19T08:58:21Z</time>
      </trkpt>
      <trkpt lat="48.99162" lon="1.04787">
        <ele>91.199997</ele>
        <time>2015-07-19T08:58:23Z</time>
      </trkpt>
      <trkpt lat="48.99158" lon="1.04805">
        <ele>91.400002</ele>
        <time>2015-07-19T08:58:26Z</time>
      </trkpt>
      <trkpt lat="48.99153" lon="1.04819">
        <ele>91.599998</ele>
        <time>2015-07-19T08:58:29Z</time>
      </trkpt>
      <trkpt lat="48.99149" lon="1.04834">
        <ele>91.900002</ele>
        <time>2015-07-19T08:58:32Z</time>
      </trkpt>
      <trkpt lat="48.99146" lon="1.04846">
        <ele>92.300003</ele>
        <time>2015-07-19T08:58:35Z</time>
      </trkpt>
      <trkpt lat="48.9914" lon="1.04862">
        <ele>92.800003</ele>
        <time>2015-07-19T08:58:39Z</time>
      </trkpt>
      <trkpt lat="48.99134" lon="1.04876">
        <ele>93.300003</ele>
        <time>2015-07-19T08:58:43Z</time>
      </trkpt>
      <trkpt lat="48.99129" lon="1.0489">
        <ele>93.800003</ele>
        <time>2015-07-19T08:58:47Z</time>
      </trkpt>
      <trkpt lat="48.99126" lon="1.04905">
        <ele>94.5</ele>
        <time>2015-07-19T08:58:51Z</time>
      </trkpt>
      <trkpt lat="48.99123" lon="1.04921">
        <ele>95.099998</ele>
        <time>2015-07-19T08:58:55Z</time>
      </trkpt>
      <trkpt lat="48.9912" lon="1.04937">
        <ele>95.800003</ele>
        <time>2015-07-19T08:58:59Z</time>
      </trkpt>
      <trkpt lat="48.99118" lon="1.0495">
        <ele>96.599998</ele>
        <time>2015-07-19T08:59:03Z</time>
      </trkpt>
      <trkpt lat="48.99113" lon="1.04965">
        <ele>97.5</ele>
        <time>2015-07-19T08:59:08Z</time>
      </trkpt>
      <trkpt lat="48.99108" lon="1.0498">
        <ele>98.400002</ele>
        <time>2015-07-19T08:59:13Z</time>
      </trkpt>
      <trkpt lat="48.99104" lon="1.04995">
        <ele>99.400002</ele>
        <time>2015-07-19T08:59:18Z</time>
      </trkpt>
      <trkpt lat="48.99096" lon="1.05007">
        <ele>100.5</ele>
        <time>2015-07-19T08:59:23Z</time>
      </trkpt>
      <trkpt lat="48.99092" lon="1.05022">
        <ele>101.400002</ele>
        <time>2015-07-19T08:59:28Z</time>
      </trkpt>
      <trkpt lat="48.99089" lon="1.05036">
        <ele>102.199997</ele>
        <time>2015-07-19T08:59:32Z</time>
      </trkpt>
      <trkpt lat="48.99084" lon="1.05051">
        <ele>103.300003</ele>
        <time>2015-07-19T08:59:37Z</time>
      </trkpt>
      <trkpt lat="48.99079" lon="1.05066">
        <ele>104.400002</ele>
        <time>2015-07-19T08:59:42Z</time>
      </trkpt>
      <trkpt lat="48.99077" lon="1.05082">
        <ele>105.5</ele>
        <time>2015-07-19T08:59:47Z</time>
      </trkpt>
      <trkpt lat="48.99069" lon="1.05092">
        <ele>106.900002</ele>
        <time>2015-07-19T08:59:53Z</time>
      </trkpt>
      <trkpt lat="48.99059" lon="1.051">
        <ele>108.400002</ele>
        <time>2015-07-19T08:59:59Z</time>
      </trkpt>
      <trkpt lat="48.9905" lon="1.05108">
        <ele>109.900002</ele>
        <time>2015-07-19T09:00:05Z</time>
      </trkpt>
      <trkpt lat="48.99041" lon="1.05113">
        <ele>111.199997</ele>
        <time>2015-07-19T09:00:10Z</time>
      </trkpt>
      <trkpt lat="48.99033" lon="1.0512">
        <ele>112.699997</ele>
        <time>2015-07-19T09:00:15Z</time>
      </trkpt>
      <trkpt lat="48.99024" lon="1.05125">
        <ele>114.099998</ele>
        <time>2015-07-19T09:00:20Z</time>
      </trkpt>
      <trkpt lat="48.99014" lon="1.05129">
        <ele>115.5</ele>
        <time>2015-07-19T09:00:25Z</time>
      </trkpt>
      <trkpt lat="48.99004" lon="1.05133">
        <ele>117</ele>
        <time>2015-07-19T09:00:31Z</time>
      </trkpt>
      <trkpt lat="48.98993" lon="1.05134">
        <ele>118.099998</ele>
        <time>2015-07-19T09:00:36Z</time>
      </trkpt>
      <trkpt lat="48.98986" lon="1.05143">
        <ele>119.199997</ele>
        <time>2015-07-19T09:00:41Z</time>
      </trkpt>
      <trkpt lat="48.98979" lon="1.05155">
        <ele>120.400002</ele>
        <time>2015-07-19T09:00:47Z</time>
      </trkpt>
      <trkpt lat="48.98975" lon="1.05168">
        <ele>121.400002</ele>
        <time>2015-07-19T09:00:52Z</time>
      </trkpt>
      <trkpt lat="48.98975" lon="1.05183">
        <ele>122.5</ele>
        <time>2015-07-19T09:00:57Z</time>
      </trkpt>
      <trkpt lat="48.98977" lon="1.05197">
        <ele>123.300003</ele>
        <time>2015-07-19T09:01:01Z</time>
      </trkpt>
      <trkpt lat="48.98979" lon="1.05213">
        <ele>124.5</ele>
        <time>2015-07-19T09:01:07Z</time>
      </trkpt>
      <trkpt lat="48.98976" lon="1.05227">
        <ele>125.300003</ele>
        <time>2015-07-19T09:01:12Z</time>
      </trkpt>
      <trkpt lat="48.98979" lon="1.0524">
        <ele>125.800003</ele>
        <time>2015-07-19T09:01:15Z</time>
      </trkpt>
      <trkpt lat="48.98976" lon="1.05256">
        <ele>126.5</ele>
        <time>2015-07-19T09:01:19Z</time>
      </trkpt>
      <trkpt lat="48.98972" lon="1.05271">
        <ele>127.199997</ele>
        <time>2015-07-19T09:01:23Z</time>
      </trkpt>
      <trkpt lat="48.98969" lon="1.05284">
        <ele>128</ele>
        <time>2015-07-19T09:01:27Z</time>
      </trkpt>
      <trkpt lat="48.98963" lon="1.05297">
        <ele>128.600006</ele>
        <time>2015-07-19T09:01:31Z</time>
      </trkpt>
      <trkpt lat="48.98957" lon="1.0531">
        <ele>129.300003</ele>
        <time>2015-07-19T09:01:35Z</time>
      </trkpt>
      <trkpt lat="48.98952" lon="1.05325">
        <ele>130.199997</ele>
        <time>2015-07-19T09:01:40Z</time>
      </trkpt>
      <trkpt lat="48.98947" lon="1.0534">
        <ele>130.800003</ele>
        <time>2015-07-19T09:01:44Z</time>
      </trkpt>
      <trkpt lat="48.98946" lon="1.05356">
        <ele>131.300003</ele>
        <time>2015-07-19T09:01:47Z</time>
      </trkpt>
      <trkpt lat="48.98942" lon="1.05372">
        <ele>132</ele>
        <time>2015-07-19T09:01:52Z</time>
      </trkpt>
      <trkpt lat="48.98936" lon="1.05382">
        <ele>132.399994</ele>
        <time>2015-07-19T09:01:55Z</time>
      </trkpt>
      <trkpt lat="48.98933" lon="1.05395">
        <ele>132.800003</ele>
        <time>2015-07-19T09:01:58Z</time>
      </trkpt>
      <trkpt lat="48.98927" lon="1.05408">
        <ele>133.199997</ele>
        <time>2015-07-19T09:02:01Z</time>
      </trkpt>
      <trkpt lat="48.98924" lon="1.05424">
        <ele>133.399994</ele>
        <time>2015-07-19T09:02:04Z</time>
      </trkpt>
      <trkpt lat="48.9892" lon="1.05439">
        <ele>133.699997</ele>
        <time>2015-07-19T09:02:07Z</time>
      </trkpt>
      <trkpt lat="48.98915" lon="1.05454">
        <ele>134</ele>
        <time>2015-07-19T09:02:10Z</time>
      </trkpt>
      <trkpt lat="48.98912" lon="1.05468">
        <ele>134.199997</ele>
        <time>2015-07-19T09:02:13Z</time>
      </trkpt>
      <trkpt lat="48.98904" lon="1.05482">
        <ele>134.399994</ele>
        <time>2015-07-19T09:02:16Z</time>
      </trkpt>
      <trkpt lat="48.989" lon="1.05499">
        <ele>134.600006</ele>
        <time>2015-07-19T09:02:19Z</time>
      </trkpt>
      <trkpt lat="48.98899" lon="1.05516">
        <ele>134.699997</ele>
        <time>2015-07-19T09:02:21Z</time>
      </trkpt>
      <trkpt lat="48.98894" lon="1.05533">
        <ele>134.800003</ele>
        <time>2015-07-19T09:02:24Z</time>
      </trkpt>
      <trkpt lat="48.98891" lon="1.05551">
        <ele>135</ele>
        <time>2015-07-19T09:02:27Z</time>
      </trkpt>
      <trkpt lat="48.98887" lon="1.05567">
        <ele>135.100006</ele>
        <time>2015-07-19T09:02:30Z</time>
      </trkpt>
      <trkpt lat="48.98883" lon="1.05582">
        <ele>135.300003</ele>
        <time>2015-07-19T09:02:33Z</time>
      </trkpt>
      <trkpt lat="48.9888" lon="1.05599">
        <ele>135.399994</ele>
        <time>2015-07-19T09:02:36Z</time>
      </trkpt>
      <trkpt lat="48.98875" lon="1.05612">
        <ele>135.600006</ele>
        <time>2015-07-19T09:02:39Z</time>
      </trkpt>
      <trkpt lat="48.98876" lon="1.05628">
        <ele>136</ele>
        <time>2015-07-19T09:02:44Z</time>
      </trkpt>
      <trkpt lat="48.98874" lon="1.05642">
        <ele>136.199997</ele>
        <time>2015-07-19T09:02:48Z</time>
      </trkpt>
      <trkpt lat="48.9887" lon="1.05655">
        <ele>136.5</ele>
        <time>2015-07-19T09:02:51Z</time>
      </trkpt>
      <trkpt lat="48.98867" lon="1.05669">
        <ele>137</ele>
        <time>2015-07-19T09:02:55Z</time>
      </trkpt>
      <trkpt lat="48.98865" lon="1.05682">
        <ele>137.300003</ele>
        <time>2015-07-19T09:02:58Z</time>
      </trkpt>
      <trkpt lat="48.98864" lon="1.05697">
        <ele>137.600006</ele>
        <time>2015-07-19T09:03:01Z</time>
      </trkpt>
      <trkpt lat="48.98858" lon="1.05715">
        <ele>137.899994</ele>
        <time>2015-07-19T09:03:04Z</time>
      </trkpt>
      <trkpt lat="48.98856" lon="1.05728">
        <ele>138.199997</ele>
        <time>2015-07-19T09:03:06Z</time>
      </trkpt>
      <trkpt lat="48.98858" lon="1.0575">
        <ele>138.600006</ele>
        <time>2015-07-19T09:03:09Z</time>
      </trkpt>
      <trkpt lat="48.98858" lon="1.05765">
        <ele>138.899994</ele>
        <time>2015-07-19T09:03:12Z</time>
      </trkpt>
      <trkpt lat="48.98855" lon="1.0578">
        <ele>139.300003</ele>
        <time>2015-07-19T09:03:15Z</time>
      </trkpt>
      <trkpt lat="48.98854" lon="1.05798">
        <ele>139.699997</ele>
        <time>2015-07-19T09:03:19Z</time>
      </trkpt>
      <trkpt lat="48.9885" lon="1.05816">
        <ele>140</ele>
        <time>2015-07-19T09:03:22Z</time>
      </trkpt>
      <trkpt lat="48.98843" lon="1.05835">
        <ele>140.300003</ele>
        <time>2015-07-19T09:03:25Z</time>
      </trkpt>
      <trkpt lat="48.98835" lon="1.05848">
        <ele>140.5</ele>
        <time>2015-07-19T09:03:28Z</time>
      </trkpt>
      <trkpt lat="48.98825" lon="1.05858">
        <ele>140.800003</ele>
        <time>2015-07-19T09:03:32Z</time>
      </trkpt>
      <trkpt lat="48.9882" lon="1.05876">
        <ele>141</ele>
        <time>2015-07-19T09:03:35Z</time>
      </trkpt>
      <trkpt lat="48.98812" lon="1.05886">
        <ele>141.300003</ele>
        <time>2015-07-19T09:03:38Z</time>
      </trkpt>
      <trkpt lat="48.98803" lon="1.05895">
        <ele>141.699997</ele>
        <time>2015-07-19T09:03:41Z</time>
      </trkpt>
      <trkpt lat="48.98795" lon="1.05911">
        <ele>141.899994</ele>
        <time>2015-07-19T09:03:44Z</time>
      </trkpt>
      <trkpt lat="48.98787" lon="1.05924">
        <ele>142.199997</ele>
        <time>2015-07-19T09:03:47Z</time>
      </trkpt>
      <trkpt lat="48.98783" lon="1.05936">
        <ele>142.399994</ele>
        <time>2015-07-19T09:03:49Z</time>
      </trkpt>
      <trkpt lat="48.98775" lon="1.0595">
        <ele>142.800003</ele>
        <time>2015-07-19T09:03:52Z</time>
      </trkpt>
      <trkpt lat="48.98771" lon="1.05963">
        <ele>143</ele>
        <time>2015-07-19T09:03:54Z</time>
      </trkpt>
      <trkpt lat="48.98766" lon="1.05979">
        <ele>143.199997</ele>
        <time>2015-07-19T09:03:57Z</time>
      </trkpt>
      <trkpt lat="48.9876" lon="1.05995">
        <ele>143.5</ele>
        <time>2015-07-19T09:04:00Z</time>
      </trkpt>
      <trkpt lat="48.98754" lon="1.06013">
        <ele>143.800003</ele>
        <time>2015-07-19T09:04:03Z</time>
      </trkpt>
      <trkpt lat="48.98749" lon="1.0603">
        <ele>144.100006</ele>
        <time>2015-07-19T09:04:06Z</time>
      </trkpt>
      <trkpt lat="48.98746" lon="1.06048">
        <ele>144.300003</ele>
        <time>2015-07-19T09:04:09Z</time>
      </trkpt>
      <trkpt lat="48.9874" lon="1.06063">
        <ele>144.5</ele>
        <time>2015-07-19T09:04:12Z</time>
      </trkpt>
      <trkpt lat="48.98733" lon="1.06081">
        <ele>144.699997</ele>
        <time>2015-07-19T09:04:15Z</time>
      </trkpt>
      <trkpt lat="48.98726" lon="1.06096">
        <ele>144.800003</ele>
        <time>2015-07-19T09:04:18Z</time>
      </trkpt>
      <trkpt lat="48.98724" lon="1.0611">
        <ele>144.899994</ele>
        <time>2015-07-19T09:04:20Z</time>
      </trkpt>
      <trkpt lat="48.98718" lon="1.06127">
        <ele>145.100006</ele>
        <time>2015-07-19T09:04:23Z</time>
      </trkpt>
      <trkpt lat="48.9871" lon="1.0614">
        <ele>145.199997</ele>
        <time>2015-07-19T09:04:26Z</time>
      </trkpt>
      <trkpt lat="48.98705" lon="1.06159">
        <ele>145.399994</ele>
        <time>2015-07-19T09:04:29Z</time>
      </trkpt>
      <trkpt lat="48.98698" lon="1.06176">
        <ele>145.5</ele>
        <time>2015-07-19T09:04:32Z</time>
      </trkpt>
      <trkpt lat="48.98696" lon="1.06193">
        <ele>145.600006</ele>
        <time>2015-07-19T09:04:35Z</time>
      </trkpt>
      <trkpt lat="48.98694" lon="1.0621">
        <ele>145.800003</ele>
        <time>2015-07-19T09:04:38Z</time>
      </trkpt>
      <trkpt lat="48.98691" lon="1.06227">
        <ele>145.899994</ele>
        <time>2015-07-19T09:04:41Z</time>
      </trkpt>
      <trkpt lat="48.98684" lon="1.06241">
        <ele>146.100006</ele>
        <time>2015-07-19T09:04:44Z</time>
      </trkpt>
      <trkpt lat="48.98677" lon="1.06258">
        <ele>146.199997</ele>
        <time>2015-07-19T09:04:47Z</time>
      </trkpt>
      <trkpt lat="48.98673" lon="1.06271">
        <ele>146.199997</ele>
        <time>2015-07-19T09:04:49Z</time>
      </trkpt>
      <trkpt lat="48.98674" lon="1.06293">
        <ele>146.300003</ele>
        <time>2015-07-19T09:04:51Z</time>
      </trkpt>
      <trkpt lat="48.98677" lon="1.06312">
        <ele>146.300003</ele>
        <time>2015-07-19T09:04:54Z</time>
      </trkpt>
      <trkpt lat="48.98682" lon="1.06326">
        <ele>146.399994</ele>
        <time>2015-07-19T09:04:56Z</time>
      </trkpt>
      <trkpt lat="48.98689" lon="1.06343">
        <ele>146.399994</ele>
        <time>2015-07-19T09:04:58Z</time>
      </trkpt>
      <trkpt lat="48.98692" lon="1.06359">
        <ele>146.399994</ele>
        <time>2015-07-19T09:05:00Z</time>
      </trkpt>
      <trkpt lat="48.98695" lon="1.06372">
        <ele>146.5</ele>
        <time>2015-07-19T09:05:02Z</time>
      </trkpt>
      <trkpt lat="48.98698" lon="1.06388">
        <ele>146.5</ele>
        <time>2015-07-19T09:05:04Z</time>
      </trkpt>
      <trkpt lat="48.98703" lon="1.06402">
        <ele>146.5</ele>
        <time>2015-07-19T09:05:06Z</time>
      </trkpt>
      <trkpt lat="48.98708" lon="1.06416">
        <ele>146.5</ele>
        <time>2015-07-19T09:05:08Z</time>
      </trkpt>
      <trkpt lat="48.98713" lon="1.06432">
        <ele>146.399994</ele>
        <time>2015-07-19T09:05:10Z</time>
      </trkpt>
      <trkpt lat="48.98716" lon="1.06449">
        <ele>146.100006</ele>
        <time>2015-07-19T09:05:13Z</time>
      </trkpt>
      <trkpt lat="48.98719" lon="1.06464">
        <ele>145.899994</ele>
        <time>2015-07-19T09:05:15Z</time>
      </trkpt>
      <trkpt lat="48.98721" lon="1.06484">
        <ele>145.600006</ele>
        <time>2015-07-19T09:05:18Z</time>
      </trkpt>
      <trkpt lat="48.98724" lon="1.06499">
        <ele>145.300003</ele>
        <time>2015-07-19T09:05:20Z</time>
      </trkpt>
      <trkpt lat="48.98733" lon="1.0651">
        <ele>145.199997</ele>
        <time>2015-07-19T09:05:21Z</time>
      </trkpt>
      <trkpt lat="48.9874" lon="1.06521">
        <ele>145</ele>
        <time>2015-07-19T09:05:22Z</time>
      </trkpt>
      <trkpt lat="48.98748" lon="1.06532">
        <ele>144.699997</ele>
        <time>2015-07-19T09:05:23Z</time>
      </trkpt>
      <trkpt lat="48.98756" lon="1.06555">
        <ele>144.100006</ele>
        <time>2015-07-19T09:05:25Z</time>
      </trkpt>
      <trkpt lat="48.98766" lon="1.06574">
        <ele>143.399994</ele>
        <time>2015-07-19T09:05:27Z</time>
      </trkpt>
      <trkpt lat="48.98771" lon="1.06587">
        <ele>143.100006</ele>
        <time>2015-07-19T09:05:28Z</time>
      </trkpt>
      <trkpt lat="48.98782" lon="1.06606">
        <ele>142.5</ele>
        <time>2015-07-19T09:05:30Z</time>
      </trkpt>
      <trkpt lat="48.98791" lon="1.0663">
        <ele>142</ele>
        <time>2015-07-19T09:05:32Z</time>
      </trkpt>
      <trkpt lat="48.98797" lon="1.06648">
        <ele>141.600006</ele>
        <time>2015-07-19T09:05:34Z</time>
      </trkpt>
      <trkpt lat="48.98805" lon="1.06669">
        <ele>141.300003</ele>
        <time>2015-07-19T09:05:36Z</time>
      </trkpt>
      <trkpt lat="48.9881" lon="1.06687">
        <ele>141</ele>
        <time>2015-07-19T09:05:38Z</time>
      </trkpt>
      <trkpt lat="48.98816" lon="1.06704">
        <ele>140.800003</ele>
        <time>2015-07-19T09:05:40Z</time>
      </trkpt>
      <trkpt lat="48.98821" lon="1.0672">
        <ele>140.600006</ele>
        <time>2015-07-19T09:05:42Z</time>
      </trkpt>
      <trkpt lat="48.98826" lon="1.06737">
        <ele>140.399994</ele>
        <time>2015-07-19T09:05:44Z</time>
      </trkpt>
      <trkpt lat="48.98832" lon="1.06754">
        <ele>140.199997</ele>
        <time>2015-07-19T09:05:46Z</time>
      </trkpt>
      <trkpt lat="48.98838" lon="1.06768">
        <ele>140</ele>
        <time>2015-07-19T09:05:48Z</time>
      </trkpt>
      <trkpt lat="48.98843" lon="1.06785">
        <ele>139.800003</ele>
        <time>2015-07-19T09:05:51Z</time>
      </trkpt>
      <trkpt lat="48.98848" lon="1.06798">
        <ele>139.699997</ele>
        <time>2015-07-19T09:05:53Z</time>
      </trkpt>
      <trkpt lat="48.98853" lon="1.06811">
        <ele>139.600006</ele>
        <time>2015-07-19T09:05:55Z</time>
      </trkpt>
      <trkpt lat="48.98858" lon="1.06825">
        <ele>139.600006</ele>
        <time>2015-07-19T09:05:57Z</time>
      </trkpt>
      <trkpt lat="48.98863" lon="1.0684">
        <ele>139.600006</ele>
        <time>2015-07-19T09:05:59Z</time>
      </trkpt>
      <trkpt lat="48.98867" lon="1.06859">
        <ele>139.600006</ele>
        <time>2015-07-19T09:06:02Z</time>
      </trkpt>
      <trkpt lat="48.98872" lon="1.06876">
        <ele>139.699997</ele>
        <time>2015-07-19T09:06:05Z</time>
      </trkpt>
      <trkpt lat="48.98876" lon="1.06891">
        <ele>139.699997</ele>
        <time>2015-07-19T09:06:07Z</time>
      </trkpt>
      <trkpt lat="48.98883" lon="1.06906">
        <ele>139.699997</ele>
        <time>2015-07-19T09:06:09Z</time>
      </trkpt>
      <trkpt lat="48.98889" lon="1.06921">
        <ele>139.699997</ele>
        <time>2015-07-19T09:06:11Z</time>
      </trkpt>
      <trkpt lat="48.98894" lon="1.06935">
        <ele>139.699997</ele>
        <time>2015-07-19T09:06:13Z</time>
      </trkpt>
      <trkpt lat="48.98899" lon="1.0695">
        <ele>139.699997</ele>
        <time>2015-07-19T09:06:15Z</time>
      </trkpt>
      <trkpt lat="48.98905" lon="1.06964">
        <ele>139.699997</ele>
        <time>2015-07-19T09:06:17Z</time>
      </trkpt>
      <trkpt lat="48.98912" lon="1.0698">
        <ele>139.699997</ele>
        <time>2015-07-19T09:06:19Z</time>
      </trkpt>
      <trkpt lat="48.98918" lon="1.06994">
        <ele>139.699997</ele>
        <time>2015-07-19T09:06:21Z</time>
      </trkpt>
      <trkpt lat="48.98926" lon="1.07009">
        <ele>139.600006</ele>
        <time>2015-07-19T09:06:23Z</time>
      </trkpt>
      <trkpt lat="48.98932" lon="1.07026">
        <ele>139.399994</ele>
        <time>2015-07-19T09:06:25Z</time>
      </trkpt>
      <trkpt lat="48.98937" lon="1.07044">
        <ele>139.199997</ele>
        <time>2015-07-19T09:06:27Z</time>
      </trkpt>
      <trkpt lat="48.98942" lon="1.07061">
        <ele>139</ele>
        <time>2015-07-19T09:06:29Z</time>
      </trkpt>
      <trkpt lat="48.98947" lon="1.07079">
        <ele>138.699997</ele>
        <time>2015-07-19T09:06:31Z</time>
      </trkpt>
      <trkpt lat="48.9895" lon="1.07096">
        <ele>138.5</ele>
        <time>2015-07-19T09:06:33Z</time>
      </trkpt>
      <trkpt lat="48.98953" lon="1.07112">
        <ele>138.399994</ele>
        <time>2015-07-19T09:06:35Z</time>
      </trkpt>
      <trkpt lat="48.98953" lon="1.07128">
        <ele>138.199997</ele>
        <time>2015-07-19T09:06:37Z</time>
      </trkpt>
      <trkpt lat="48.98952" lon="1.07145">
        <ele>138.199997</ele>
        <time>2015-07-19T09:06:39Z</time>
      </trkpt>
      <trkpt lat="48.98951" lon="1.07161">
        <ele>138.100006</ele>
        <time>2015-07-19T09:06:41Z</time>
      </trkpt>
      <trkpt lat="48.98951" lon="1.07178">
        <ele>138.100006</ele>
        <time>2015-07-19T09:06:43Z</time>
      </trkpt>
      <trkpt lat="48.98952" lon="1.07194">
        <ele>138.199997</ele>
        <time>2015-07-19T09:06:45Z</time>
      </trkpt>
      <trkpt lat="48.98952" lon="1.0721">
        <ele>138.300003</ele>
        <time>2015-07-19T09:06:47Z</time>
      </trkpt>
      <trkpt lat="48.98953" lon="1.07227">
        <ele>138.399994</ele>
        <time>2015-07-19T09:06:49Z</time>
      </trkpt>
      <trkpt lat="48.98954" lon="1.07244">
        <ele>138.5</ele>
        <time>2015-07-19T09:06:51Z</time>
      </trkpt>
      <trkpt lat="48.98955" lon="1.07259">
        <ele>138.600006</ele>
        <time>2015-07-19T09:06:53Z</time>
      </trkpt>
      <trkpt lat="48.98954" lon="1.07276">
        <ele>138.699997</ele>
        <time>2015-07-19T09:06:55Z</time>
      </trkpt>
      <trkpt lat="48.98953" lon="1.07291">
        <ele>138.899994</ele>
        <time>2015-07-19T09:06:57Z</time>
      </trkpt>
      <trkpt lat="48.98952" lon="1.07307">
        <ele>139</ele>
        <time>2015-07-19T09:06:59Z</time>
      </trkpt>
      <trkpt lat="48.98951" lon="1.07321">
        <ele>139.100006</ele>
        <time>2015-07-19T09:07:01Z</time>
      </trkpt>
      <trkpt lat="48.9895" lon="1.07335">
        <ele>139.199997</ele>
        <time>2015-07-19T09:07:03Z</time>
      </trkpt>
      <trkpt lat="48.9895" lon="1.07356">
        <ele>139.300003</ele>
        <time>2015-07-19T09:07:06Z</time>
      </trkpt>
      <trkpt lat="48.98949" lon="1.07372">
        <ele>139.399994</ele>
        <time>2015-07-19T09:07:08Z</time>
      </trkpt>
      <trkpt lat="48.98948" lon="1.07388">
        <ele>139.399994</ele>
        <time>2015-07-19T09:07:10Z</time>
      </trkpt>
      <trkpt lat="48.98947" lon="1.07404">
        <ele>139.5</ele>
        <time>2015-07-19T09:07:12Z</time>
      </trkpt>
      <trkpt lat="48.98944" lon="1.07419">
        <ele>139.5</ele>
        <time>2015-07-19T09:07:14Z</time>
      </trkpt>
      <trkpt lat="48.98946" lon="1.07436">
        <ele>139.600006</ele>
        <time>2015-07-19T09:07:16Z</time>
      </trkpt>
      <trkpt lat="48.98946" lon="1.07453">
        <ele>139.600006</ele>
        <time>2015-07-19T09:07:18Z</time>
      </trkpt>
      <trkpt lat="48.98947" lon="1.07469">
        <ele>139.699997</ele>
        <time>2015-07-19T09:07:20Z</time>
      </trkpt>
      <trkpt lat="48.98947" lon="1.07486">
        <ele>139.800003</ele>
        <time>2015-07-19T09:07:22Z</time>
      </trkpt>
      <trkpt lat="48.98947" lon="1.07503">
        <ele>139.899994</ele>
        <time>2015-07-19T09:07:24Z</time>
      </trkpt>
      <trkpt lat="48.98948" lon="1.07521">
        <ele>140</ele>
        <time>2015-07-19T09:07:26Z</time>
      </trkpt>
      <trkpt lat="48.98948" lon="1.07538">
        <ele>140</ele>
        <time>2015-07-19T09:07:28Z</time>
      </trkpt>
      <trkpt lat="48.98949" lon="1.07558">
        <ele>140.100006</ele>
        <time>2015-07-19T09:07:30Z</time>
      </trkpt>
      <trkpt lat="48.9895" lon="1.07576">
        <ele>140.199997</ele>
        <time>2015-07-19T09:07:32Z</time>
      </trkpt>
      <trkpt lat="48.98948" lon="1.07593">
        <ele>140.199997</ele>
        <time>2015-07-19T09:07:34Z</time>
      </trkpt>
      <trkpt lat="48.98949" lon="1.07609">
        <ele>140.300003</ele>
        <time>2015-07-19T09:07:36Z</time>
      </trkpt>
      <trkpt lat="48.98948" lon="1.07625">
        <ele>140.300003</ele>
        <time>2015-07-19T09:07:38Z</time>
      </trkpt>
      <trkpt lat="48.98949" lon="1.07642">
        <ele>140.300003</ele>
        <time>2015-07-19T09:07:40Z</time>
      </trkpt>
      <trkpt lat="48.98949" lon="1.0766">
        <ele>140.399994</ele>
        <time>2015-07-19T09:07:42Z</time>
      </trkpt>
      <trkpt lat="48.98949" lon="1.07677">
        <ele>140.399994</ele>
        <time>2015-07-19T09:07:44Z</time>
      </trkpt>
      <trkpt lat="48.98949" lon="1.07695">
        <ele>140.5</ele>
        <time>2015-07-19T09:07:46Z</time>
      </trkpt>
      <trkpt lat="48.98949" lon="1.07712">
        <ele>140.5</ele>
        <time>2015-07-19T09:07:48Z</time>
      </trkpt>
      <trkpt lat="48.98948" lon="1.0773">
        <ele>140.5</ele>
        <time>2015-07-19T09:07:50Z</time>
      </trkpt>
      <trkpt lat="48.98949" lon="1.07748">
        <ele>140.600006</ele>
        <time>2015-07-19T09:07:52Z</time>
      </trkpt>
      <trkpt lat="48.98948" lon="1.07766">
        <ele>140.600006</ele>
        <time>2015-07-19T09:07:54Z</time>
      </trkpt>
      <trkpt lat="48.98949" lon="1.07785">
        <ele>140.600006</ele>
        <time>2015-07-19T09:07:56Z</time>
      </trkpt>
      <trkpt lat="48.98949" lon="1.07803">
        <ele>140.600006</ele>
        <time>2015-07-19T09:07:58Z</time>
      </trkpt>
      <trkpt lat="48.98949" lon="1.07822">
        <ele>140.600006</ele>
        <time>2015-07-19T09:08:00Z</time>
      </trkpt>
      <trkpt lat="48.98949" lon="1.07839">
        <ele>140.600006</ele>
        <time>2015-07-19T09:08:02Z</time>
      </trkpt>
      <trkpt lat="48.98947" lon="1.07854">
        <ele>140.5</ele>
        <time>2015-07-19T09:08:04Z</time>
      </trkpt>
      <trkpt lat="48.98946" lon="1.07875">
        <ele>140.300003</ele>
        <time>2015-07-19T09:08:06Z</time>
      </trkpt>
      <trkpt lat="48.9895" lon="1.07901">
        <ele>139.899994</ele>
        <time>2015-07-19T09:08:08Z</time>
      </trkpt>
      <trkpt lat="48.98953" lon="1.07926">
        <ele>139.600006</ele>
        <time>2015-07-19T09:08:10Z</time>
      </trkpt>
      <trkpt lat="48.98953" lon="1.07946">
        <ele>139.199997</ele>
        <time>2015-07-19T09:08:12Z</time>
      </trkpt>
      <trkpt lat="48.98953" lon="1.07963">
        <ele>138.899994</ele>
        <time>2015-07-19T09:08:14Z</time>
      </trkpt>
      <trkpt lat="48.98953" lon="1.07979">
        <ele>138.600006</ele>
        <time>2015-07-19T09:08:16Z</time>
      </trkpt>
      <trkpt lat="48.98953" lon="1.07994">
        <ele>138.399994</ele>
        <time>2015-07-19T09:08:18Z</time>
      </trkpt>
      <trkpt lat="48.98954" lon="1.08012">
        <ele>138.399994</ele>
        <time>2015-07-19T09:08:20Z</time>
      </trkpt>
      <trkpt lat="48.98954" lon="1.08028">
        <ele>138.399994</ele>
        <time>2015-07-19T09:08:22Z</time>
      </trkpt>
      <trkpt lat="48.98952" lon="1.08044">
        <ele>138.399994</ele>
        <time>2015-07-19T09:08:24Z</time>
      </trkpt>
      <trkpt lat="48.98952" lon="1.0806">
        <ele>138.5</ele>
        <time>2015-07-19T09:08:26Z</time>
      </trkpt>
      <trkpt lat="48.98952" lon="1.08077">
        <ele>138.5</ele>
        <time>2015-07-19T09:08:28Z</time>
      </trkpt>
      <trkpt lat="48.98952" lon="1.08093">
        <ele>138.5</ele>
        <time>2015-07-19T09:08:30Z</time>
      </trkpt>
      <trkpt lat="48.98953" lon="1.08111">
        <ele>138.600006</ele>
        <time>2015-07-19T09:08:32Z</time>
      </trkpt>
      <trkpt lat="48.98953" lon="1.08128">
        <ele>138.600006</ele>
        <time>2015-07-19T09:08:34Z</time>
      </trkpt>
      <trkpt lat="48.98953" lon="1.08146">
        <ele>138.600006</ele>
        <time>2015-07-19T09:08:36Z</time>
      </trkpt>
      <trkpt lat="48.98953" lon="1.08164">
        <ele>138.699997</ele>
        <time>2015-07-19T09:08:38Z</time>
      </trkpt>
      <trkpt lat="48.98953" lon="1.08183">
        <ele>138.699997</ele>
        <time>2015-07-19T09:08:40Z</time>
      </trkpt>
      <trkpt lat="48.98952" lon="1.08201">
        <ele>138.699997</ele>
        <time>2015-07-19T09:08:42Z</time>
      </trkpt>
      <trkpt lat="48.98952" lon="1.0822">
        <ele>138.699997</ele>
        <time>2015-07-19T09:08:44Z</time>
      </trkpt>
      <trkpt lat="48.98952" lon="1.0824">
        <ele>138.699997</ele>
        <time>2015-07-19T09:08:46Z</time>
      </trkpt>
      <trkpt lat="48.98952" lon="1.08261">
        <ele>138.699997</ele>
        <time>2015-07-19T09:08:48Z</time>
      </trkpt>
      <trkpt lat="48.98952" lon="1.0828">
        <ele>138.699997</ele>
        <time>2015-07-19T09:08:50Z</time>
      </trkpt>
      <trkpt lat="48.9895" lon="1.083">
        <ele>138.600006</ele>
        <time>2015-07-19T09:08:52Z</time>
      </trkpt>
      <trkpt lat="48.98948" lon="1.08324">
        <ele>138.5</ele>
        <time>2015-07-19T09:08:54Z</time>
      </trkpt>
      <trkpt lat="48.98947" lon="1.08348">
        <ele>138.199997</ele>
        <time>2015-07-19T09:08:56Z</time>
      </trkpt>
      <trkpt lat="48.98949" lon="1.0837">
        <ele>138</ele>
        <time>2015-07-19T09:08:58Z</time>
      </trkpt>
      <trkpt lat="48.98949" lon="1.08389">
        <ele>137.800003</ele>
        <time>2015-07-19T09:09:00Z</time>
      </trkpt>
      <trkpt lat="48.9895" lon="1.08408">
        <ele>137.699997</ele>
        <time>2015-07-19T09:09:02Z</time>
      </trkpt>
      <trkpt lat="48.9895" lon="1.08426">
        <ele>137.699997</ele>
        <time>2015-07-19T09:09:04Z</time>
      </trkpt>
      <trkpt lat="48.9895" lon="1.08443">
        <ele>137.699997</ele>
        <time>2015-07-19T09:09:06Z</time>
      </trkpt>
      <trkpt lat="48.98949" lon="1.0846">
        <ele>137.800003</ele>
        <time>2015-07-19T09:09:08Z</time>
      </trkpt>
      <trkpt lat="48.98949" lon="1.08478">
        <ele>137.800003</ele>
        <time>2015-07-19T09:09:10Z</time>
      </trkpt>
      <trkpt lat="48.98949" lon="1.08495">
        <ele>137.800003</ele>
        <time>2015-07-19T09:09:12Z</time>
      </trkpt>
      <trkpt lat="48.98948" lon="1.08512">
        <ele>137.800003</ele>
        <time>2015-07-19T09:09:14Z</time>
      </trkpt>
      <trkpt lat="48.98948" lon="1.08529">
        <ele>137.800003</ele>
        <time>2015-07-19T09:09:16Z</time>
      </trkpt>
      <trkpt lat="48.98949" lon="1.08546">
        <ele>137.899994</ele>
        <time>2015-07-19T09:09:18Z</time>
      </trkpt>
      <trkpt lat="48.98948" lon="1.08561">
        <ele>137.899994</ele>
        <time>2015-07-19T09:09:20Z</time>
      </trkpt>
      <trkpt lat="48.98947" lon="1.08575">
        <ele>137.899994</ele>
        <time>2015-07-19T09:09:22Z</time>
      </trkpt>
      <trkpt lat="48.98947" lon="1.08592">
        <ele>137.899994</ele>
        <time>2015-07-19T09:09:25Z</time>
      </trkpt>
      <trkpt lat="48.98946" lon="1.08607">
        <ele>137.899994</ele>
        <time>2015-07-19T09:09:27Z</time>
      </trkpt>
      <trkpt lat="48.98945" lon="1.08623">
        <ele>137.899994</ele>
        <time>2015-07-19T09:09:30Z</time>
      </trkpt>
      <trkpt lat="48.98945" lon="1.08643">
        <ele>137.899994</ele>
        <time>2015-07-19T09:09:33Z</time>
      </trkpt>
      <trkpt lat="48.98943" lon="1.08665">
        <ele>137.899994</ele>
        <time>2015-07-19T09:09:36Z</time>
      </trkpt>
      <trkpt lat="48.98941" lon="1.08679">
        <ele>138</ele>
        <time>2015-07-19T09:09:38Z</time>
      </trkpt>
      <trkpt lat="48.98942" lon="1.08695">
        <ele>138</ele>
        <time>2015-07-19T09:09:40Z</time>
      </trkpt>
      <trkpt lat="48.98943" lon="1.08714">
        <ele>138</ele>
        <time>2015-07-19T09:09:42Z</time>
      </trkpt>
      <trkpt lat="48.98943" lon="1.0873">
        <ele>138</ele>
        <time>2015-07-19T09:09:44Z</time>
      </trkpt>
      <trkpt lat="48.98942" lon="1.08746">
        <ele>138</ele>
        <time>2015-07-19T09:09:46Z</time>
      </trkpt>
      <trkpt lat="48.98938" lon="1.08764">
        <ele>138</ele>
        <time>2015-07-19T09:09:49Z</time>
      </trkpt>
      <trkpt lat="48.98937" lon="1.08789">
        <ele>138</ele>
        <time>2015-07-19T09:09:51Z</time>
      </trkpt>
      <trkpt lat="48.98936" lon="1.08806">
        <ele>138</ele>
        <time>2015-07-19T09:09:53Z</time>
      </trkpt>
      <trkpt lat="48.98936" lon="1.08823">
        <ele>138</ele>
        <time>2015-07-19T09:09:55Z</time>
      </trkpt>
      <trkpt lat="48.98935" lon="1.08839">
        <ele>138</ele>
        <time>2015-07-19T09:09:57Z</time>
      </trkpt>
      <trkpt lat="48.98933" lon="1.08859">
        <ele>138</ele>
        <time>2015-07-19T09:09:59Z</time>
      </trkpt>
      <trkpt lat="48.98933" lon="1.08876">
        <ele>137.899994</ele>
        <time>2015-07-19T09:10:01Z</time>
      </trkpt>
      <trkpt lat="48.98932" lon="1.08895">
        <ele>137.800003</ele>
        <time>2015-07-19T09:10:03Z</time>
      </trkpt>
      <trkpt lat="48.98929" lon="1.08913">
        <ele>137.800003</ele>
        <time>2015-07-19T09:10:05Z</time>
      </trkpt>
      <trkpt lat="48.98926" lon="1.08933">
        <ele>137.699997</ele>
        <time>2015-07-19T09:10:07Z</time>
      </trkpt>
      <trkpt lat="48.98926" lon="1.08956">
        <ele>137.699997</ele>
        <time>2015-07-19T09:10:09Z</time>
      </trkpt>
      <trkpt lat="48.98926" lon="1.08978">
        <ele>137.600006</ele>
        <time>2015-07-19T09:10:11Z</time>
      </trkpt>
      <trkpt lat="48.98925" lon="1.08996">
        <ele>137.5</ele>
        <time>2015-07-19T09:10:13Z</time>
      </trkpt>
      <trkpt lat="48.98925" lon="1.09016">
        <ele>137.399994</ele>
        <time>2015-07-19T09:10:15Z</time>
      </trkpt>
      <trkpt lat="48.98925" lon="1.09035">
        <ele>137.399994</ele>
        <time>2015-07-19T09:10:17Z</time>
      </trkpt>
      <trkpt lat="48.98924" lon="1.09051">
        <ele>137.300003</ele>
        <time>2015-07-19T09:10:19Z</time>
      </trkpt>
      <trkpt lat="48.98923" lon="1.09068">
        <ele>137.199997</ele>
        <time>2015-07-19T09:10:21Z</time>
      </trkpt>
      <trkpt lat="48.9892" lon="1.09085">
        <ele>137.199997</ele>
        <time>2015-07-19T09:10:23Z</time>
      </trkpt>
      <trkpt lat="48.98921" lon="1.09105">
        <ele>137.199997</ele>
        <time>2015-07-19T09:10:25Z</time>
      </trkpt>
      <trkpt lat="48.98921" lon="1.09123">
        <ele>137</ele>
        <time>2015-07-19T09:10:27Z</time>
      </trkpt>
      <trkpt lat="48.9892" lon="1.09141">
        <ele>136.899994</ele>
        <time>2015-07-19T09:10:29Z</time>
      </trkpt>
      <trkpt lat="48.98919" lon="1.09157">
        <ele>136.699997</ele>
        <time>2015-07-19T09:10:31Z</time>
      </trkpt>
      <trkpt lat="48.98916" lon="1.09174">
        <ele>136.300003</ele>
        <time>2015-07-19T09:10:34Z</time>
      </trkpt>
      <trkpt lat="48.98914" lon="1.09188">
        <ele>135.600006</ele>
        <time>2015-07-19T09:10:37Z</time>
      </trkpt>
      <trkpt lat="48.98914" lon="1.09202">
        <ele>134.399994</ele>
        <time>2015-07-19T09:10:42Z</time>
      </trkpt>
      <trkpt lat="48.98915" lon="1.09218">
        <ele>132.600006</ele>
        <time>2015-07-19T09:10:50Z</time>
      </trkpt>
      <trkpt lat="48.98919" lon="1.0923">
        <ele>129.399994</ele>
        <time>2015-07-19T09:11:07Z</time>
      </trkpt>
      <trkpt lat="48.98918" lon="1.09247">
        <ele>127.599998</ele>
        <time>2015-07-19T09:11:19Z</time>
      </trkpt>
      <trkpt lat="48.98914" lon="1.09264">
        <ele>126.300003</ele>
        <time>2015-07-19T09:11:23Z</time>
      </trkpt>
      <trkpt lat="48.98914" lon="1.0928">
        <ele>125.199997</ele>
        <time>2015-07-19T09:11:26Z</time>
      </trkpt>
      <trkpt lat="48.98915" lon="1.09297">
        <ele>123</ele>
        <time>2015-07-19T09:11:32Z</time>
      </trkpt>
      <trkpt lat="48.98906" lon="1.09303">
        <ele>121.5</ele>
        <time>2015-07-19T09:11:38Z</time>
      </trkpt>
      <trkpt lat="48.98897" lon="1.09308">
        <ele>120.800003</ele>
        <time>2015-07-19T09:11:43Z</time>
      </trkpt>
      <trkpt lat="48.98886" lon="1.09311">
        <ele>120.400002</ele>
        <time>2015-07-19T09:11:48Z</time>
      </trkpt>
      <trkpt lat="48.98877" lon="1.09312">
        <ele>120.300003</ele>
        <time>2015-07-19T09:11:52Z</time>
      </trkpt>
      <trkpt lat="48.98867" lon="1.09314">
        <ele>120.400002</ele>
        <time>2015-07-19T09:11:56Z</time>
      </trkpt>
      <trkpt lat="48.98857" lon="1.09318">
        <ele>120.699997</ele>
        <time>2015-07-19T09:12:00Z</time>
      </trkpt>
      <trkpt lat="48.98846" lon="1.09322">
        <ele>121</ele>
        <time>2015-07-19T09:12:04Z</time>
      </trkpt>
      <trkpt lat="48.98836" lon="1.09326">
        <ele>121.300003</ele>
        <time>2015-07-19T09:12:08Z</time>
      </trkpt>
      <trkpt lat="48.98824" lon="1.09332">
        <ele>122</ele>
        <time>2015-07-19T09:12:14Z</time>
      </trkpt>
      <trkpt lat="48.98812" lon="1.09337">
        <ele>122.400002</ele>
        <time>2015-07-19T09:12:18Z</time>
      </trkpt>
      <trkpt lat="48.98801" lon="1.09341">
        <ele>123</ele>
        <time>2015-07-19T09:12:22Z</time>
      </trkpt>
      <trkpt lat="48.98791" lon="1.09346">
        <ele>123.599998</ele>
        <time>2015-07-19T09:12:26Z</time>
      </trkpt>
      <trkpt lat="48.98781" lon="1.0935">
        <ele>124.099998</ele>
        <time>2015-07-19T09:12:30Z</time>
      </trkpt>
      <trkpt lat="48.9877" lon="1.09351">
        <ele>124.599998</ele>
        <time>2015-07-19T09:12:34Z</time>
      </trkpt>
      <trkpt lat="48.98759" lon="1.09354">
        <ele>125.199997</ele>
        <time>2015-07-19T09:12:38Z</time>
      </trkpt>
      <trkpt lat="48.9875" lon="1.09355">
        <ele>125.699997</ele>
        <time>2015-07-19T09:12:42Z</time>
      </trkpt>
      <trkpt lat="48.98737" lon="1.09357">
        <ele>126.300003</ele>
        <time>2015-07-19T09:12:46Z</time>
      </trkpt>
      <trkpt lat="48.98726" lon="1.09359">
        <ele>127</ele>
        <time>2015-07-19T09:12:50Z</time>
      </trkpt>
      <trkpt lat="48.98716" lon="1.0936">
        <ele>127.699997</ele>
        <time>2015-07-19T09:12:54Z</time>
      </trkpt>
      <trkpt lat="48.98706" lon="1.0936">
        <ele>128.100006</ele>
        <time>2015-07-19T09:12:57Z</time>
      </trkpt>
      <trkpt lat="48.98697" lon="1.09362">
        <ele>128.800003</ele>
        <time>2015-07-19T09:13:01Z</time>
      </trkpt>
      <trkpt lat="48.98685" lon="1.09365">
        <ele>129.5</ele>
        <time>2015-07-19T09:13:05Z</time>
      </trkpt>
      <trkpt lat="48.9869" lon="1.09377">
        <ele>130.699997</ele>
        <time>2015-07-19T09:13:13Z</time>
      </trkpt>
      <trkpt lat="48.98701" lon="1.09384">
        <ele>131.300003</ele>
        <time>2015-07-19T09:13:18Z</time>
      </trkpt>
      <trkpt lat="48.98711" lon="1.09392">
        <ele>131.899994</ele>
        <time>2015-07-19T09:13:22Z</time>
      </trkpt>
      <trkpt lat="48.98721" lon="1.094">
        <ele>132.399994</ele>
        <time>2015-07-19T09:13:26Z</time>
      </trkpt>
      <trkpt lat="48.98729" lon="1.09407">
        <ele>133</ele>
        <time>2015-07-19T09:13:30Z</time>
      </trkpt>
      <trkpt lat="48.98737" lon="1.09416">
        <ele>133.800003</ele>
        <time>2015-07-19T09:13:35Z</time>
      </trkpt>
      <trkpt lat="48.98748" lon="1.09423">
        <ele>134.5</ele>
        <time>2015-07-19T09:13:39Z</time>
      </trkpt>
      <trkpt lat="48.9876" lon="1.0943">
        <ele>135.300003</ele>
        <time>2015-07-19T09:13:43Z</time>
      </trkpt>
      <trkpt lat="48.98769" lon="1.09439">
        <ele>136</ele>
        <time>2015-07-19T09:13:47Z</time>
      </trkpt>
      <trkpt lat="48.98779" lon="1.09446">
        <ele>136.699997</ele>
        <time>2015-07-19T09:13:51Z</time>
      </trkpt>
      <trkpt lat="48.98789" lon="1.09453">
        <ele>137.199997</ele>
        <time>2015-07-19T09:13:54Z</time>
      </trkpt>
      <trkpt lat="48.98801" lon="1.0946">
        <ele>137.600006</ele>
        <time>2015-07-19T09:13:57Z</time>
      </trkpt>
      <trkpt lat="48.98811" lon="1.09467">
        <ele>137.899994</ele>
        <time>2015-07-19T09:14:00Z</time>
      </trkpt>
      <trkpt lat="48.98821" lon="1.09475">
        <ele>138.199997</ele>
        <time>2015-07-19T09:14:03Z</time>
      </trkpt>
      <trkpt lat="48.9883" lon="1.09483">
        <ele>138.300003</ele>
        <time>2015-07-19T09:14:06Z</time>
      </trkpt>
      <trkpt lat="48.98841" lon="1.09492">
        <ele>138.5</ele>
        <time>2015-07-19T09:14:09Z</time>
      </trkpt>
      <trkpt lat="48.98852" lon="1.09501">
        <ele>138.5</ele>
        <time>2015-07-19T09:14:12Z</time>
      </trkpt>
      <trkpt lat="48.98863" lon="1.09509">
        <ele>138.300003</ele>
        <time>2015-07-19T09:14:15Z</time>
      </trkpt>
      <trkpt lat="48.98871" lon="1.09516">
        <ele>138.199997</ele>
        <time>2015-07-19T09:14:17Z</time>
      </trkpt>
      <trkpt lat="48.9888" lon="1.09522">
        <ele>138.100006</ele>
        <time>2015-07-19T09:14:19Z</time>
      </trkpt>
      <trkpt lat="48.98887" lon="1.09535">
        <ele>137.899994</ele>
        <time>2015-07-19T09:14:22Z</time>
      </trkpt>
      <trkpt lat="48.98885" lon="1.0955">
        <ele>137.600006</ele>
        <time>2015-07-19T09:14:25Z</time>
      </trkpt>
      <trkpt lat="48.98878" lon="1.09563">
        <ele>137.199997</ele>
        <time>2015-07-19T09:14:29Z</time>
      </trkpt>
      <trkpt lat="48.98873" lon="1.09577">
        <ele>136.899994</ele>
        <time>2015-07-19T09:14:33Z</time>
      </trkpt>
      <trkpt lat="48.98865" lon="1.0959">
        <ele>136.800003</ele>
        <time>2015-07-19T09:14:36Z</time>
      </trkpt>
      <trkpt lat="48.98857" lon="1.09602">
        <ele>136.800003</ele>
        <time>2015-07-19T09:14:39Z</time>
      </trkpt>
      <trkpt lat="48.98849" lon="1.09612">
        <ele>136.899994</ele>
        <time>2015-07-19T09:14:42Z</time>
      </trkpt>
      <trkpt lat="48.98853" lon="1.09625">
        <ele>137.100006</ele>
        <time>2015-07-19T09:14:47Z</time>
      </trkpt>
      <trkpt lat="48.98861" lon="1.0963">
        <ele>137.199997</ele>
        <time>2015-07-19T09:14:50Z</time>
      </trkpt>
      <trkpt lat="48.98874" lon="1.09639">
        <ele>137.199997</ele>
        <time>2015-07-19T09:14:54Z</time>
      </trkpt>
      <trkpt lat="48.98883" lon="1.09648">
        <ele>137.199997</ele>
        <time>2015-07-19T09:14:57Z</time>
      </trkpt>
      <trkpt lat="48.98891" lon="1.09661">
        <ele>137.100006</ele>
        <time>2015-07-19T09:15:00Z</time>
      </trkpt>
      <trkpt lat="48.98899" lon="1.09673">
        <ele>137</ele>
        <time>2015-07-19T09:15:03Z</time>
      </trkpt>
      <trkpt lat="48.98905" lon="1.09688">
        <ele>136.800003</ele>
        <time>2015-07-19T09:15:06Z</time>
      </trkpt>
      <trkpt lat="48.98914" lon="1.09697">
        <ele>136.600006</ele>
        <time>2015-07-19T09:15:08Z</time>
      </trkpt>
      <trkpt lat="48.98922" lon="1.09708">
        <ele>136.399994</ele>
        <time>2015-07-19T09:15:11Z</time>
      </trkpt>
      <trkpt lat="48.98931" lon="1.09717">
        <ele>136.199997</ele>
        <time>2015-07-19T09:15:13Z</time>
      </trkpt>
      <trkpt lat="48.98939" lon="1.09725">
        <ele>136</ele>
        <time>2015-07-19T09:15:15Z</time>
      </trkpt>
      <trkpt lat="48.98946" lon="1.09735">
        <ele>135.800003</ele>
        <time>2015-07-19T09:15:17Z</time>
      </trkpt>
      <trkpt lat="48.98955" lon="1.09747">
        <ele>135.399994</ele>
        <time>2015-07-19T09:15:20Z</time>
      </trkpt>
      <trkpt lat="48.98963" lon="1.09753">
        <ele>134.5</ele>
        <time>2015-07-19T09:15:26Z</time>
      </trkpt>
      <trkpt lat="48.98971" lon="1.09764">
        <ele>134</ele>
        <time>2015-07-19T09:15:30Z</time>
      </trkpt>
      <trkpt lat="48.98982" lon="1.09775">
        <ele>133.5</ele>
        <time>2015-07-19T09:15:33Z</time>
      </trkpt>
      <trkpt lat="48.9899" lon="1.09782">
        <ele>132.800003</ele>
        <time>2015-07-19T09:15:37Z</time>
      </trkpt>
      <trkpt lat="48.98998" lon="1.09787">
        <ele>131.399994</ele>
        <time>2015-07-19T09:15:46Z</time>
      </trkpt>
      <trkpt lat="48.99005" lon="1.09797">
        <ele>130.899994</ele>
        <time>2015-07-19T09:15:51Z</time>
      </trkpt>
      <trkpt lat="48.99014" lon="1.09807">
        <ele>130.5</ele>
        <time>2015-07-19T09:15:54Z</time>
      </trkpt>
      <trkpt lat="48.99022" lon="1.09816">
        <ele>130</ele>
        <time>2015-07-19T09:15:58Z</time>
      </trkpt>
      <trkpt lat="48.99026" lon="1.0983">
        <ele>129</ele>
        <time>2015-07-19T09:16:07Z</time>
      </trkpt>
      <trkpt lat="48.99031" lon="1.09842">
        <ele>128.300003</ele>
        <time>2015-07-19T09:16:15Z</time>
      </trkpt>
      <trkpt lat="48.99031" lon="1.09857">
        <ele>127.800003</ele>
        <time>2015-07-19T09:16:21Z</time>
      </trkpt>
      <trkpt lat="48.99032" lon="1.09871">
        <ele>127.400002</ele>
        <time>2015-07-19T09:16:27Z</time>
      </trkpt>
      <trkpt lat="48.99024" lon="1.0988">
        <ele>127.199997</ele>
        <time>2015-07-19T09:16:33Z</time>
      </trkpt>
      <trkpt lat="48.99018" lon="1.09893">
        <ele>127.099998</ele>
        <time>2015-07-19T09:16:39Z</time>
      </trkpt>
      <trkpt lat="48.9902" lon="1.09907">
        <ele>127.099998</ele>
        <time>2015-07-19T09:16:43Z</time>
      </trkpt>
      <trkpt lat="48.99029" lon="1.09918">
        <ele>127.199997</ele>
        <time>2015-07-19T09:16:52Z</time>
      </trkpt>
      <trkpt lat="48.99038" lon="1.09922">
        <ele>127.300003</ele>
        <time>2015-07-19T09:17:08Z</time>
      </trkpt>
      <trkpt lat="48.99044" lon="1.09932">
        <ele>127.400002</ele>
        <time>2015-07-19T09:17:44Z</time>
      </trkpt>
      <trkpt lat="48.99055" lon="1.09933">
        <ele>127.300003</ele>
        <time>2015-07-19T09:17:51Z</time>
      </trkpt>
      <trkpt lat="48.99063" lon="1.09925">
        <ele>127.099998</ele>
        <time>2015-07-19T09:17:54Z</time>
      </trkpt>
      <trkpt lat="48.99075" lon="1.09922">
        <ele>126.599998</ele>
        <time>2015-07-19T09:17:58Z</time>
      </trkpt>
      <trkpt lat="48.99085" lon="1.09917">
        <ele>125.900002</ele>
        <time>2015-07-19T09:18:02Z</time>
      </trkpt>
      <trkpt lat="48.99096" lon="1.09911">
        <ele>124.599998</ele>
        <time>2015-07-19T09:18:09Z</time>
      </trkpt>
      <trkpt lat="48.99105" lon="1.09901">
        <ele>123.900002</ele>
        <time>2015-07-19T09:18:12Z</time>
      </trkpt>
      <trkpt lat="48.99115" lon="1.09907">
        <ele>123.300003</ele>
        <time>2015-07-19T09:18:15Z</time>
      </trkpt>
      <trkpt lat="48.99126" lon="1.09915">
        <ele>122.599998</ele>
        <time>2015-07-19T09:18:18Z</time>
      </trkpt>
      <trkpt lat="48.99135" lon="1.09922">
        <ele>122.099998</ele>
        <time>2015-07-19T09:18:20Z</time>
      </trkpt>
      <trkpt lat="48.99145" lon="1.09931">
        <ele>121.699997</ele>
        <time>2015-07-19T09:18:22Z</time>
      </trkpt>
      <trkpt lat="48.99156" lon="1.0994">
        <ele>121.199997</ele>
        <time>2015-07-19T09:18:24Z</time>
      </trkpt>
      <trkpt lat="48.99168" lon="1.09949">
        <ele>120.699997</ele>
        <time>2015-07-19T09:18:26Z</time>
      </trkpt>
      <trkpt lat="48.99182" lon="1.09958">
        <ele>120.099998</ele>
        <time>2015-07-19T09:18:28Z</time>
      </trkpt>
      <trkpt lat="48.99194" lon="1.09966">
        <ele>119.300003</ele>
        <time>2015-07-19T09:18:30Z</time>
      </trkpt>
      <trkpt lat="48.992" lon="1.09981">
        <ele>118.199997</ele>
        <time>2015-07-19T09:18:33Z</time>
      </trkpt>
      <trkpt lat="48.99189" lon="1.09985">
        <ele>117</ele>
        <time>2015-07-19T09:18:37Z</time>
      </trkpt>
      <trkpt lat="48.99181" lon="1.09997">
        <ele>116.099998</ele>
        <time>2015-07-19T09:18:41Z</time>
      </trkpt>
      <trkpt lat="48.99176" lon="1.10011">
        <ele>115.5</ele>
        <time>2015-07-19T09:18:45Z</time>
      </trkpt>
      <trkpt lat="48.99173" lon="1.10024">
        <ele>115.300003</ele>
        <time>2015-07-19T09:18:48Z</time>
      </trkpt>
      <trkpt lat="48.99171" lon="1.10038">
        <ele>115.199997</ele>
        <time>2015-07-19T09:18:51Z</time>
      </trkpt>
      <trkpt lat="48.99168" lon="1.10051">
        <ele>115.300003</ele>
        <time>2015-07-19T09:18:54Z</time>
      </trkpt>
      <trkpt lat="48.99174" lon="1.10065">
        <ele>115.599998</ele>
        <time>2015-07-19T09:18:59Z</time>
      </trkpt>
      <trkpt lat="48.99185" lon="1.10069">
        <ele>115.900002</ele>
        <time>2015-07-19T09:19:03Z</time>
      </trkpt>
      <trkpt lat="48.99198" lon="1.10075">
        <ele>116</ele>
        <time>2015-07-19T09:19:06Z</time>
      </trkpt>
      <trkpt lat="48.99205" lon="1.10093">
        <ele>116.099998</ele>
        <time>2015-07-19T09:19:09Z</time>
      </trkpt>
      <trkpt lat="48.99208" lon="1.10106">
        <ele>116.099998</ele>
        <time>2015-07-19T09:19:11Z</time>
      </trkpt>
      <trkpt lat="48.99211" lon="1.1012">
        <ele>116</ele>
        <time>2015-07-19T09:19:13Z</time>
      </trkpt>
      <trkpt lat="48.99215" lon="1.10133">
        <ele>116</ele>
        <time>2015-07-19T09:19:15Z</time>
      </trkpt>
      <trkpt lat="48.99219" lon="1.10146">
        <ele>116</ele>
        <time>2015-07-19T09:19:17Z</time>
      </trkpt>
      <trkpt lat="48.99223" lon="1.10159">
        <ele>115.900002</ele>
        <time>2015-07-19T09:19:19Z</time>
      </trkpt>
      <trkpt lat="48.99227" lon="1.10173">
        <ele>115.800003</ele>
        <time>2015-07-19T09:19:21Z</time>
      </trkpt>
      <trkpt lat="48.99231" lon="1.10186">
        <ele>115.699997</ele>
        <time>2015-07-19T09:19:23Z</time>
      </trkpt>
      <trkpt lat="48.99235" lon="1.10198">
        <ele>115.699997</ele>
        <time>2015-07-19T09:19:25Z</time>
      </trkpt>
      <trkpt lat="48.99239" lon="1.10211">
        <ele>115.599998</ele>
        <time>2015-07-19T09:19:27Z</time>
      </trkpt>
      <trkpt lat="48.99241" lon="1.10226">
        <ele>115.400002</ele>
        <time>2015-07-19T09:19:29Z</time>
      </trkpt>
      <trkpt lat="48.99243" lon="1.10241">
        <ele>115.300003</ele>
        <time>2015-07-19T09:19:31Z</time>
      </trkpt>
      <trkpt lat="48.99245" lon="1.10256">
        <ele>115.199997</ele>
        <time>2015-07-19T09:19:33Z</time>
      </trkpt>
      <trkpt lat="48.99247" lon="1.10271">
        <ele>115</ele>
        <time>2015-07-19T09:19:35Z</time>
      </trkpt>
      <trkpt lat="48.9925" lon="1.1029">
        <ele>114.900002</ele>
        <time>2015-07-19T09:19:38Z</time>
      </trkpt>
      <trkpt lat="48.99253" lon="1.10307">
        <ele>114.800003</ele>
        <time>2015-07-19T09:19:41Z</time>
      </trkpt>
      <trkpt lat="48.99256" lon="1.10326">
        <ele>114.800003</ele>
        <time>2015-07-19T09:19:44Z</time>
      </trkpt>
      <trkpt lat="48.99259" lon="1.10346">
        <ele>114.900002</ele>
        <time>2015-07-19T09:19:47Z</time>
      </trkpt>
      <trkpt lat="48.99261" lon="1.1036">
        <ele>115</ele>
        <time>2015-07-19T09:19:49Z</time>
      </trkpt>
      <trkpt lat="48.99263" lon="1.10374">
        <ele>115.099998</ele>
        <time>2015-07-19T09:19:51Z</time>
      </trkpt>
      <trkpt lat="48.99265" lon="1.10389">
        <ele>115.199997</ele>
        <time>2015-07-19T09:19:53Z</time>
      </trkpt>
      <trkpt lat="48.99267" lon="1.10404">
        <ele>115.300003</ele>
        <time>2015-07-19T09:19:55Z</time>
      </trkpt>
      <trkpt lat="48.99269" lon="1.1042">
        <ele>115.5</ele>
        <time>2015-07-19T09:19:59Z</time>
      </trkpt>
      <trkpt lat="48.99273" lon="1.10434">
        <ele>116</ele>
        <time>2015-07-19T09:20:34Z</time>
      </trkpt>
      <trkpt lat="48.99281" lon="1.10441">
        <ele>116</ele>
        <time>2015-07-19T09:20:37Z</time>
      </trkpt>
      <trkpt lat="48.99291" lon="1.10449">
        <ele>115.900002</ele>
        <time>2015-07-19T09:20:40Z</time>
      </trkpt>
      <trkpt lat="48.993" lon="1.10456">
        <ele>115.900002</ele>
        <time>2015-07-19T09:20:42Z</time>
      </trkpt>
      <trkpt lat="48.99311" lon="1.10464">
        <ele>115.800003</ele>
        <time>2015-07-19T09:20:44Z</time>
      </trkpt>
      <trkpt lat="48.99323" lon="1.10473">
        <ele>115.599998</ele>
        <time>2015-07-19T09:20:46Z</time>
      </trkpt>
      <trkpt lat="48.99337" lon="1.10484">
        <ele>115.400002</ele>
        <time>2015-07-19T09:20:48Z</time>
      </trkpt>
      <trkpt lat="48.9935" lon="1.10494">
        <ele>115</ele>
        <time>2015-07-19T09:20:50Z</time>
      </trkpt>
      <trkpt lat="48.99366" lon="1.10505">
        <ele>114.599998</ele>
        <time>2015-07-19T09:20:52Z</time>
      </trkpt>
      <trkpt lat="48.99381" lon="1.10516">
        <ele>114</ele>
        <time>2015-07-19T09:20:54Z</time>
      </trkpt>
      <trkpt lat="48.99395" lon="1.10526">
        <ele>113.400002</ele>
        <time>2015-07-19T09:20:56Z</time>
      </trkpt>
      <trkpt lat="48.9941" lon="1.10538">
        <ele>112.800003</ele>
        <time>2015-07-19T09:20:58Z</time>
      </trkpt>
      <trkpt lat="48.99426" lon="1.10549">
        <ele>112.099998</ele>
        <time>2015-07-19T09:21:00Z</time>
      </trkpt>
      <trkpt lat="48.99442" lon="1.10561">
        <ele>111.5</ele>
        <time>2015-07-19T09:21:02Z</time>
      </trkpt>
      <trkpt lat="48.9945" lon="1.10567">
        <ele>111.099998</ele>
        <time>2015-07-19T09:21:03Z</time>
      </trkpt>
      <trkpt lat="48.99458" lon="1.10573">
        <ele>110.699997</ele>
        <time>2015-07-19T09:21:04Z</time>
      </trkpt>
      <trkpt lat="48.99467" lon="1.10579">
        <ele>110.300003</ele>
        <time>2015-07-19T09:21:05Z</time>
      </trkpt>
      <trkpt lat="48.99475" lon="1.10585">
        <ele>109.900002</ele>
        <time>2015-07-19T09:21:06Z</time>
      </trkpt>
      <trkpt lat="48.99484" lon="1.10592">
        <ele>109.5</ele>
        <time>2015-07-19T09:21:07Z</time>
      </trkpt>
      <trkpt lat="48.99492" lon="1.10598">
        <ele>109.099998</ele>
        <time>2015-07-19T09:21:08Z</time>
      </trkpt>
      <trkpt lat="48.995" lon="1.10605">
        <ele>108.699997</ele>
        <time>2015-07-19T09:21:09Z</time>
      </trkpt>
      <trkpt lat="48.99508" lon="1.10611">
        <ele>108.199997</ele>
        <time>2015-07-19T09:21:10Z</time>
      </trkpt>
      <trkpt lat="48.99517" lon="1.10618">
        <ele>107.699997</ele>
        <time>2015-07-19T09:21:11Z</time>
      </trkpt>
      <trkpt lat="48.99525" lon="1.10624">
        <ele>107.300003</ele>
        <time>2015-07-19T09:21:12Z</time>
      </trkpt>
      <trkpt lat="48.99534" lon="1.10631">
        <ele>106.900002</ele>
        <time>2015-07-19T09:21:13Z</time>
      </trkpt>
      <trkpt lat="48.99543" lon="1.10638">
        <ele>106.5</ele>
        <time>2015-07-19T09:21:14Z</time>
      </trkpt>
      <trkpt lat="48.99551" lon="1.10645">
        <ele>106.099998</ele>
        <time>2015-07-19T09:21:15Z</time>
      </trkpt>
      <trkpt lat="48.9956" lon="1.10652">
        <ele>105.599998</ele>
        <time>2015-07-19T09:21:16Z</time>
      </trkpt>
      <trkpt lat="48.9957" lon="1.10659">
        <ele>105.199997</ele>
        <time>2015-07-19T09:21:17Z</time>
      </trkpt>
      <trkpt lat="48.99579" lon="1.10666">
        <ele>104.800003</ele>
        <time>2015-07-19T09:21:18Z</time>
      </trkpt>
      <trkpt lat="48.99588" lon="1.10673">
        <ele>104.300003</ele>
        <time>2015-07-19T09:21:19Z</time>
      </trkpt>
      <trkpt lat="48.99598" lon="1.1068">
        <ele>103.800003</ele>
        <time>2015-07-19T09:21:20Z</time>
      </trkpt>
      <trkpt lat="48.99607" lon="1.10687">
        <ele>103.300003</ele>
        <time>2015-07-19T09:21:21Z</time>
      </trkpt>
      <trkpt lat="48.99616" lon="1.10694">
        <ele>102.800003</ele>
        <time>2015-07-19T09:21:22Z</time>
      </trkpt>
      <trkpt lat="48.99626" lon="1.107">
        <ele>102.400002</ele>
        <time>2015-07-19T09:21:23Z</time>
      </trkpt>
      <trkpt lat="48.99635" lon="1.10705">
        <ele>101.900002</ele>
        <time>2015-07-19T09:21:24Z</time>
      </trkpt>
      <trkpt lat="48.99645" lon="1.1071">
        <ele>101.400002</ele>
        <time>2015-07-19T09:21:25Z</time>
      </trkpt>
      <trkpt lat="48.99655" lon="1.10714">
        <ele>100.900002</ele>
        <time>2015-07-19T09:21:26Z</time>
      </trkpt>
      <trkpt lat="48.99665" lon="1.10717">
        <ele>100.400002</ele>
        <time>2015-07-19T09:21:27Z</time>
      </trkpt>
      <trkpt lat="48.99675" lon="1.1072">
        <ele>100</ele>
        <time>2015-07-19T09:21:28Z</time>
      </trkpt>
      <trkpt lat="48.99685" lon="1.10721">
        <ele>99.5</ele>
        <time>2015-07-19T09:21:29Z</time>
      </trkpt>
      <trkpt lat="48.99695" lon="1.10723">
        <ele>99</ele>
        <time>2015-07-19T09:21:30Z</time>
      </trkpt>
      <trkpt lat="48.99705" lon="1.10725">
        <ele>98.5</ele>
        <time>2015-07-19T09:21:31Z</time>
      </trkpt>
      <trkpt lat="48.99714" lon="1.10726">
        <ele>98.099998</ele>
        <time>2015-07-19T09:21:32Z</time>
      </trkpt>
      <trkpt lat="48.99723" lon="1.10728">
        <ele>97.699997</ele>
        <time>2015-07-19T09:21:33Z</time>
      </trkpt>
      <trkpt lat="48.99741" lon="1.1073">
        <ele>96.900002</ele>
        <time>2015-07-19T09:21:35Z</time>
      </trkpt>
      <trkpt lat="48.99759" lon="1.10733">
        <ele>96.099998</ele>
        <time>2015-07-19T09:21:37Z</time>
      </trkpt>
      <trkpt lat="48.99775" lon="1.10735">
        <ele>95.400002</ele>
        <time>2015-07-19T09:21:39Z</time>
      </trkpt>
      <trkpt lat="48.99791" lon="1.10737">
        <ele>94.800003</ele>
        <time>2015-07-19T09:21:41Z</time>
      </trkpt>
      <trkpt lat="48.99806" lon="1.10741">
        <ele>94.300003</ele>
        <time>2015-07-19T09:21:43Z</time>
      </trkpt>
      <trkpt lat="48.9982" lon="1.10749">
        <ele>93.699997</ele>
        <time>2015-07-19T09:21:45Z</time>
      </trkpt>
      <trkpt lat="48.99833" lon="1.10759">
        <ele>93.199997</ele>
        <time>2015-07-19T09:21:47Z</time>
      </trkpt>
      <trkpt lat="48.99845" lon="1.10771">
        <ele>92.599998</ele>
        <time>2015-07-19T09:21:49Z</time>
      </trkpt>
      <trkpt lat="48.99857" lon="1.10784">
        <ele>92.099998</ele>
        <time>2015-07-19T09:21:51Z</time>
      </trkpt>
      <trkpt lat="48.99869" lon="1.10797">
        <ele>91.5</ele>
        <time>2015-07-19T09:21:53Z</time>
      </trkpt>
      <trkpt lat="48.99882" lon="1.10808">
        <ele>91</ele>
        <time>2015-07-19T09:21:55Z</time>
      </trkpt>
      <trkpt lat="48.99893" lon="1.10821">
        <ele>90.599998</ele>
        <time>2015-07-19T09:21:57Z</time>
      </trkpt>
      <trkpt lat="48.99904" lon="1.10835">
        <ele>90.199997</ele>
        <time>2015-07-19T09:21:59Z</time>
      </trkpt>
      <trkpt lat="48.99914" lon="1.1085">
        <ele>89.800003</ele>
        <time>2015-07-19T09:22:01Z</time>
      </trkpt>
      <trkpt lat="48.99924" lon="1.10863">
        <ele>89.5</ele>
        <time>2015-07-19T09:22:03Z</time>
      </trkpt>
      <trkpt lat="48.99933" lon="1.10874">
        <ele>89.300003</ele>
        <time>2015-07-19T09:22:05Z</time>
      </trkpt>
      <trkpt lat="48.99942" lon="1.10884">
        <ele>89.099998</ele>
        <time>2015-07-19T09:22:07Z</time>
      </trkpt>
      <trkpt lat="48.99949" lon="1.10895">
        <ele>88.900002</ele>
        <time>2015-07-19T09:22:09Z</time>
      </trkpt>
      <trkpt lat="48.99956" lon="1.10904">
        <ele>88.900002</ele>
        <time>2015-07-19T09:22:11Z</time>
      </trkpt>
      <trkpt lat="48.99964" lon="1.10913">
        <ele>89</ele>
        <time>2015-07-19T09:22:13Z</time>
      </trkpt>
      <trkpt lat="48.99973" lon="1.10926">
        <ele>89.199997</ele>
        <time>2015-07-19T09:22:16Z</time>
      </trkpt>
      <trkpt lat="48.99983" lon="1.10939">
        <ele>89.400002</ele>
        <time>2015-07-19T09:22:19Z</time>
      </trkpt>
      <trkpt lat="48.9999" lon="1.10947">
        <ele>89.5</ele>
        <time>2015-07-19T09:22:21Z</time>
      </trkpt>
      <trkpt lat="48.99999" lon="1.1096">
        <ele>89.800003</ele>
        <time>2015-07-19T09:22:24Z</time>
      </trkpt>
      <trkpt lat="49.00009" lon="1.10972">
        <ele>90</ele>
        <time>2015-07-19T09:22:27Z</time>
      </trkpt>
      <trkpt lat="49.00017" lon="1.10981">
        <ele>90.099998</ele>
        <time>2015-07-19T09:22:29Z</time>
      </trkpt>
      <trkpt lat="49.00024" lon="1.10991">
        <ele>90.300003</ele>
        <time>2015-07-19T09:22:31Z</time>
      </trkpt>
      <trkpt lat="49.00032" lon="1.11">
        <ele>90.400002</ele>
        <time>2015-07-19T09:22:33Z</time>
      </trkpt>
      <trkpt lat="49.00041" lon="1.11014">
        <ele>90.599998</ele>
        <time>2015-07-19T09:22:36Z</time>
      </trkpt>
      <trkpt lat="49.0005" lon="1.11026">
        <ele>90.900002</ele>
        <time>2015-07-19T09:22:39Z</time>
      </trkpt>
      <trkpt lat="49.00058" lon="1.11037">
        <ele>91.199997</ele>
        <time>2015-07-19T09:22:42Z</time>
      </trkpt>
      <trkpt lat="49.00062" lon="1.11051">
        <ele>91.599998</ele>
        <time>2015-07-19T09:22:45Z</time>
      </trkpt>
      <trkpt lat="49.00062" lon="1.11065">
        <ele>92.099998</ele>
        <time>2015-07-19T09:22:48Z</time>
      </trkpt>
      <trkpt lat="49.00061" lon="1.11082">
        <ele>92.800003</ele>
        <time>2015-07-19T09:22:52Z</time>
      </trkpt>
      <trkpt lat="49.00059" lon="1.11096">
        <ele>93.699997</ele>
        <time>2015-07-19T09:22:56Z</time>
      </trkpt>
      <trkpt lat="49.00062" lon="1.1111">
        <ele>94.5</ele>
        <time>2015-07-19T09:23:00Z</time>
      </trkpt>
      <trkpt lat="49.0007" lon="1.11124">
        <ele>95.400002</ele>
        <time>2015-07-19T09:23:04Z</time>
      </trkpt>
      <trkpt lat="49.00077" lon="1.11136">
        <ele>96.599998</ele>
        <time>2015-07-19T09:23:09Z</time>
      </trkpt>
      <trkpt lat="49.00085" lon="1.11146">
        <ele>97.5</ele>
        <time>2015-07-19T09:23:13Z</time>
      </trkpt>
      <trkpt lat="49.00092" lon="1.11155">
        <ele>98.400002</ele>
        <time>2015-07-19T09:23:17Z</time>
      </trkpt>
      <trkpt lat="49.00102" lon="1.11165">
        <ele>99.800003</ele>
        <time>2015-07-19T09:23:23Z</time>
      </trkpt>
      <trkpt lat="49.00106" lon="1.11178">
        <ele>101.099998</ele>
        <time>2015-07-19T09:23:28Z</time>
      </trkpt>
      <trkpt lat="49.00097" lon="1.11187">
        <ele>103.099998</ele>
        <time>2015-07-19T09:23:36Z</time>
      </trkpt>
      <trkpt lat="49.00106" lon="1.11196">
        <ele>104.599998</ele>
        <time>2015-07-19T09:23:42Z</time>
      </trkpt>
      <trkpt lat="49.00116" lon="1.11201">
        <ele>105.199997</ele>
        <time>2015-07-19T09:23:45Z</time>
      </trkpt>
      <trkpt lat="49.00129" lon="1.1121">
        <ele>105.5</ele>
        <time>2015-07-19T09:23:48Z</time>
      </trkpt>
      <trkpt lat="49.0014" lon="1.11217">
        <ele>105.5</ele>
        <time>2015-07-19T09:23:50Z</time>
      </trkpt>
      <trkpt lat="49.0015" lon="1.11224">
        <ele>105.5</ele>
        <time>2015-07-19T09:23:52Z</time>
      </trkpt>
      <trkpt lat="49.00163" lon="1.11234">
        <ele>105</ele>
        <time>2015-07-19T09:23:54Z</time>
      </trkpt>
      <trkpt lat="49.00183" lon="1.11248">
        <ele>104.900002</ele>
        <time>2015-07-19T09:23:57Z</time>
      </trkpt>
      <trkpt lat="49.00198" lon="1.11259">
        <ele>104.599998</ele>
        <time>2015-07-19T09:23:59Z</time>
      </trkpt>
      <trkpt lat="49.00209" lon="1.11261">
        <ele>104.400002</ele>
        <time>2015-07-19T09:24:00Z</time>
      </trkpt>
      <trkpt lat="49.00221" lon="1.11265">
        <ele>104</ele>
        <time>2015-07-19T09:24:02Z</time>
      </trkpt>
      <trkpt lat="49.00235" lon="1.11271">
        <ele>103.599998</ele>
        <time>2015-07-19T09:24:04Z</time>
      </trkpt>
      <trkpt lat="49.00245" lon="1.11276">
        <ele>103.300003</ele>
        <time>2015-07-19T09:24:06Z</time>
      </trkpt>
      <trkpt lat="49.00256" lon="1.11279">
        <ele>103</ele>
        <time>2015-07-19T09:24:08Z</time>
      </trkpt>
      <trkpt lat="49.00266" lon="1.11282">
        <ele>102.699997</ele>
        <time>2015-07-19T09:24:10Z</time>
      </trkpt>
      <trkpt lat="49.00277" lon="1.11284">
        <ele>102.5</ele>
        <time>2015-07-19T09:24:12Z</time>
      </trkpt>
      <trkpt lat="49.00285" lon="1.1129">
        <ele>102.300003</ele>
        <time>2015-07-19T09:24:14Z</time>
      </trkpt>
      <trkpt lat="49.00297" lon="1.113">
        <ele>102</ele>
        <time>2015-07-19T09:24:17Z</time>
      </trkpt>
      <trkpt lat="49.00307" lon="1.1131">
        <ele>101.800003</ele>
        <time>2015-07-19T09:24:20Z</time>
      </trkpt>
      <trkpt lat="49.00314" lon="1.11327">
        <ele>101.699997</ele>
        <time>2015-07-19T09:24:23Z</time>
      </trkpt>
      <trkpt lat="49.00317" lon="1.11343">
        <ele>101.900002</ele>
        <time>2015-07-19T09:24:27Z</time>
      </trkpt>
      <trkpt lat="49.00316" lon="1.1136">
        <ele>102.599998</ele>
        <time>2015-07-19T09:24:32Z</time>
      </trkpt>
      <trkpt lat="49.0031" lon="1.1137">
        <ele>103.699997</ele>
        <time>2015-07-19T09:24:38Z</time>
      </trkpt>
      <trkpt lat="49.00301" lon="1.11375">
        <ele>104.800003</ele>
        <time>2015-07-19T09:24:43Z</time>
      </trkpt>
      <trkpt lat="49.00292" lon="1.1138">
        <ele>106.300003</ele>
        <time>2015-07-19T09:24:49Z</time>
      </trkpt>
      <trkpt lat="49.00282" lon="1.11385">
        <ele>107.800003</ele>
        <time>2015-07-19T09:24:55Z</time>
      </trkpt>
      <trkpt lat="49.00272" lon="1.11387">
        <ele>109.300003</ele>
        <time>2015-07-19T09:25:00Z</time>
      </trkpt>
      <trkpt lat="49.00263" lon="1.11393">
        <ele>110.599998</ele>
        <time>2015-07-19T09:25:05Z</time>
      </trkpt>
      <trkpt lat="49.00253" lon="1.11398">
        <ele>111.900002</ele>
        <time>2015-07-19T09:25:10Z</time>
      </trkpt>
      <trkpt lat="49.00242" lon="1.11405">
        <ele>113.199997</ele>
        <time>2015-07-19T09:25:15Z</time>
      </trkpt>
      <trkpt lat="49.00232" lon="1.11409">
        <ele>114.5</ele>
        <time>2015-07-19T09:25:20Z</time>
      </trkpt>
      <trkpt lat="49.00222" lon="1.11413">
        <ele>115.400002</ele>
        <time>2015-07-19T09:25:24Z</time>
      </trkpt>
      <trkpt lat="49.00213" lon="1.11417">
        <ele>116.199997</ele>
        <time>2015-07-19T09:25:27Z</time>
      </trkpt>
      <trkpt lat="49.00202" lon="1.11421">
        <ele>117.099998</ele>
        <time>2015-07-19T09:25:31Z</time>
      </trkpt>
      <trkpt lat="49.00192" lon="1.11425">
        <ele>117.900002</ele>
        <time>2015-07-19T09:25:35Z</time>
      </trkpt>
      <trkpt lat="49.00182" lon="1.11429">
        <ele>119</ele>
        <time>2015-07-19T09:25:40Z</time>
      </trkpt>
      <trkpt lat="49.00171" lon="1.11433">
        <ele>119.599998</ele>
        <time>2015-07-19T09:25:43Z</time>
      </trkpt>
      <trkpt lat="49.00162" lon="1.11437">
        <ele>120.5</ele>
        <time>2015-07-19T09:25:47Z</time>
      </trkpt>
      <trkpt lat="49.00151" lon="1.11443">
        <ele>121.5</ele>
        <time>2015-07-19T09:25:51Z</time>
      </trkpt>
      <trkpt lat="49.00141" lon="1.11447">
        <ele>122.400002</ele>
        <time>2015-07-19T09:25:55Z</time>
      </trkpt>
      <trkpt lat="49.00131" lon="1.11454">
        <ele>123.599998</ele>
        <time>2015-07-19T09:26:00Z</time>
      </trkpt>
      <trkpt lat="49.00122" lon="1.1146">
        <ele>124.599998</ele>
        <time>2015-07-19T09:26:04Z</time>
      </trkpt>
      <trkpt lat="49.00112" lon="1.11465">
        <ele>125.199997</ele>
        <time>2015-07-19T09:26:07Z</time>
      </trkpt>
      <trkpt lat="49.00103" lon="1.11468">
        <ele>125.800003</ele>
        <time>2015-07-19T09:26:10Z</time>
      </trkpt>
      <trkpt lat="49.00091" lon="1.11472">
        <ele>126.400002</ele>
        <time>2015-07-19T09:26:14Z</time>
      </trkpt>
      <trkpt lat="49.0008" lon="1.11478">
        <ele>127.099998</ele>
        <time>2015-07-19T09:26:18Z</time>
      </trkpt>
      <trkpt lat="49.00071" lon="1.11482">
        <ele>127.599998</ele>
        <time>2015-07-19T09:26:21Z</time>
      </trkpt>
      <trkpt lat="49.0006" lon="1.11485">
        <ele>128.300003</ele>
        <time>2015-07-19T09:26:25Z</time>
      </trkpt>
      <trkpt lat="49.00052" lon="1.1149">
        <ele>128.800003</ele>
        <time>2015-07-19T09:26:29Z</time>
      </trkpt>
      <trkpt lat="49.00043" lon="1.11495">
        <ele>129.300003</ele>
        <time>2015-07-19T09:26:33Z</time>
      </trkpt>
      <trkpt lat="49.00034" lon="1.115">
        <ele>130</ele>
        <time>2015-07-19T09:26:39Z</time>
      </trkpt>
      <trkpt lat="49.00027" lon="1.11488">
        <ele>131.899994</ele>
        <time>2015-07-19T09:27:46Z</time>
      </trkpt>
      <trkpt lat="49.00026" lon="1.1147">
        <ele>131.899994</ele>
        <time>2015-07-19T09:27:49Z</time>
      </trkpt>
      <trkpt lat="49.00027" lon="1.11454">
        <ele>131.899994</ele>
        <time>2015-07-19T09:27:52Z</time>
      </trkpt>
      <trkpt lat="49.00027" lon="1.11439">
        <ele>132</ele>
        <time>2015-07-19T09:27:55Z</time>
      </trkpt>
      <trkpt lat="49.00029" lon="1.11422">
        <ele>131.899994</ele>
        <time>2015-07-19T09:27:59Z</time>
      </trkpt>
      <trkpt lat="49.00025" lon="1.11409">
        <ele>131.899994</ele>
        <time>2015-07-19T09:28:01Z</time>
      </trkpt>
      <trkpt lat="49.00019" lon="1.11396">
        <ele>131.899994</ele>
        <time>2015-07-19T09:28:03Z</time>
      </trkpt>
      <trkpt lat="49.00014" lon="1.11382">
        <ele>131.699997</ele>
        <time>2015-07-19T09:28:05Z</time>
      </trkpt>
      <trkpt lat="49.00006" lon="1.11369">
        <ele>131.5</ele>
        <time>2015-07-19T09:28:07Z</time>
      </trkpt>
      <trkpt lat="49.00001" lon="1.11352">
        <ele>131.199997</ele>
        <time>2015-07-19T09:28:10Z</time>
      </trkpt>
      <trkpt lat="49.00009" lon="1.11343">
        <ele>130.800003</ele>
        <time>2015-07-19T09:28:12Z</time>
      </trkpt>
      <trkpt lat="49.00019" lon="1.11332">
        <ele>130.600006</ele>
        <time>2015-07-19T09:28:13Z</time>
      </trkpt>
      <trkpt lat="49.00021" lon="1.11315">
        <ele>130</ele>
        <time>2015-07-19T09:28:15Z</time>
      </trkpt>
      <trkpt lat="49.00022" lon="1.11295">
        <ele>129.100006</ele>
        <time>2015-07-19T09:28:17Z</time>
      </trkpt>
      <trkpt lat="49.00024" lon="1.11281">
        <ele>128.300003</ele>
        <time>2015-07-19T09:28:19Z</time>
      </trkpt>
      <trkpt lat="49.00025" lon="1.11264">
        <ele>127.300003</ele>
        <time>2015-07-19T09:28:21Z</time>
      </trkpt>
      <trkpt lat="49.00033" lon="1.11245">
        <ele>126.199997</ele>
        <time>2015-07-19T09:28:23Z</time>
      </trkpt>
      <trkpt lat="49.00031" lon="1.11226">
        <ele>124.800003</ele>
        <time>2015-07-19T09:28:25Z</time>
      </trkpt>
      <trkpt lat="49.00031" lon="1.11212">
        <ele>122.5</ele>
        <time>2015-07-19T09:28:28Z</time>
      </trkpt>
      <trkpt lat="49.00029" lon="1.11198">
        <ele>120.199997</ele>
        <time>2015-07-19T09:28:31Z</time>
      </trkpt>
      <trkpt lat="49.00021" lon="1.11188">
        <ele>117.199997</ele>
        <time>2015-07-19T09:28:36Z</time>
      </trkpt>
      <trkpt lat="49.00012" lon="1.11183">
        <ele>115.900002</ele>
        <time>2015-07-19T09:28:39Z</time>
      </trkpt>
      <trkpt lat="49.00005" lon="1.11174">
        <ele>114.099998</ele>
        <time>2015-07-19T09:28:45Z</time>
      </trkpt>
      <trkpt lat="48.99995" lon="1.11167">
        <ele>113.5</ele>
        <time>2015-07-19T09:28:49Z</time>
      </trkpt>
      <trkpt lat="48.99986" lon="1.11159">
        <ele>113.099998</ele>
        <time>2015-07-19T09:28:53Z</time>
      </trkpt>
      <trkpt lat="48.99977" lon="1.11151">
        <ele>112.800003</ele>
        <time>2015-07-19T09:28:57Z</time>
      </trkpt>
      <trkpt lat="48.99968" lon="1.1114">
        <ele>112.5</ele>
        <time>2015-07-19T09:29:02Z</time>
      </trkpt>
      <trkpt lat="48.9996" lon="1.11129">
        <ele>112.400002</ele>
        <time>2015-07-19T09:29:05Z</time>
      </trkpt>
      <trkpt lat="48.99951" lon="1.1112">
        <ele>112.300003</ele>
        <time>2015-07-19T09:29:08Z</time>
      </trkpt>
      <trkpt lat="48.99941" lon="1.11112">
        <ele>112.199997</ele>
        <time>2015-07-19T09:29:11Z</time>
      </trkpt>
      <trkpt lat="48.99932" lon="1.11106">
        <ele>112.099998</ele>
        <time>2015-07-19T09:29:14Z</time>
      </trkpt>
      <trkpt lat="48.99922" lon="1.11102">
        <ele>112</ele>
        <time>2015-07-19T09:29:17Z</time>
      </trkpt>
      <trkpt lat="48.99913" lon="1.11098">
        <ele>112</ele>
        <time>2015-07-19T09:29:20Z</time>
      </trkpt>
      <trkpt lat="48.99903" lon="1.11095">
        <ele>112.199997</ele>
        <time>2015-07-19T09:29:24Z</time>
      </trkpt>
      <trkpt lat="48.99892" lon="1.11097">
        <ele>112.599998</ele>
        <time>2015-07-19T09:29:28Z</time>
      </trkpt>
      <trkpt lat="48.99884" lon="1.11103">
        <ele>113.199997</ele>
        <time>2015-07-19T09:29:32Z</time>
      </trkpt>
      <trkpt lat="48.99873" lon="1.11107">
        <ele>114.300003</ele>
        <time>2015-07-19T09:29:38Z</time>
      </trkpt>
      <trkpt lat="48.99865" lon="1.11114">
        <ele>115.199997</ele>
        <time>2015-07-19T09:29:42Z</time>
      </trkpt>
      <trkpt lat="48.99857" lon="1.11123">
        <ele>116.099998</ele>
        <time>2015-07-19T09:29:46Z</time>
      </trkpt>
      <trkpt lat="48.9985" lon="1.11134">
        <ele>117.599998</ele>
        <time>2015-07-19T09:29:52Z</time>
      </trkpt>
      <trkpt lat="48.9984" lon="1.11141">
        <ele>119</ele>
        <time>2015-07-19T09:29:57Z</time>
      </trkpt>
      <trkpt lat="48.99832" lon="1.11149">
        <ele>119.900002</ele>
        <time>2015-07-19T09:30:01Z</time>
      </trkpt>
      <trkpt lat="48.99825" lon="1.11159">
        <ele>120.900002</ele>
        <time>2015-07-19T09:30:05Z</time>
      </trkpt>
      <trkpt lat="48.99816" lon="1.11169">
        <ele>122.099998</ele>
        <time>2015-07-19T09:30:10Z</time>
      </trkpt>
      <trkpt lat="48.99808" lon="1.11178">
        <ele>123</ele>
        <time>2015-07-19T09:30:14Z</time>
      </trkpt>
      <trkpt lat="48.998" lon="1.11191">
        <ele>123.800003</ele>
        <time>2015-07-19T09:30:18Z</time>
      </trkpt>
      <trkpt lat="48.99794" lon="1.11202">
        <ele>124.599998</ele>
        <time>2015-07-19T09:30:22Z</time>
      </trkpt>
      <trkpt lat="48.99786" lon="1.11213">
        <ele>125.199997</ele>
        <time>2015-07-19T09:30:26Z</time>
      </trkpt>
      <trkpt lat="48.99779" lon="1.11227">
        <ele>125.699997</ele>
        <time>2015-07-19T09:30:30Z</time>
      </trkpt>
      <trkpt lat="48.99772" lon="1.11238">
        <ele>126.099998</ele>
        <time>2015-07-19T09:30:33Z</time>
      </trkpt>
      <trkpt lat="48.99765" lon="1.11252">
        <ele>126.5</ele>
        <time>2015-07-19T09:30:37Z</time>
      </trkpt>
      <trkpt lat="48.99759" lon="1.11264">
        <ele>126.699997</ele>
        <time>2015-07-19T09:30:40Z</time>
      </trkpt>
      <trkpt lat="48.99752" lon="1.11275">
        <ele>127</ele>
        <time>2015-07-19T09:30:43Z</time>
      </trkpt>
      <trkpt lat="48.99745" lon="1.11284">
        <ele>127.400002</ele>
        <time>2015-07-19T09:30:46Z</time>
      </trkpt>
      <trkpt lat="48.99738" lon="1.11296">
        <ele>127.699997</ele>
        <time>2015-07-19T09:30:49Z</time>
      </trkpt>
      <trkpt lat="48.99731" lon="1.11305">
        <ele>128.100006</ele>
        <time>2015-07-19T09:30:52Z</time>
      </trkpt>
      <trkpt lat="48.99724" lon="1.11315">
        <ele>128.699997</ele>
        <time>2015-07-19T09:30:56Z</time>
      </trkpt>
      <trkpt lat="48.99714" lon="1.11326">
        <ele>129.399994</ele>
        <time>2015-07-19T09:31:00Z</time>
      </trkpt>
      <trkpt lat="48.99706" lon="1.11333">
        <ele>130</ele>
        <time>2015-07-19T09:31:03Z</time>
      </trkpt>
      <trkpt lat="48.99696" lon="1.11342">
        <ele>130.600006</ele>
        <time>2015-07-19T09:31:07Z</time>
      </trkpt>
      <trkpt lat="48.99696" lon="1.11357">
        <ele>131.100006</ele>
        <time>2015-07-19T09:31:11Z</time>
      </trkpt>
      <trkpt lat="48.99697" lon="1.11374">
        <ele>131.5</ele>
        <time>2015-07-19T09:31:15Z</time>
      </trkpt>
      <trkpt lat="48.99703" lon="1.11386">
        <ele>131.699997</ele>
        <time>2015-07-19T09:31:18Z</time>
      </trkpt>
      <trkpt lat="48.99708" lon="1.114">
        <ele>132</ele>
        <time>2015-07-19T09:31:22Z</time>
      </trkpt>
      <trkpt lat="48.9971" lon="1.11414">
        <ele>132.100006</ele>
        <time>2015-07-19T09:31:25Z</time>
      </trkpt>
      <trkpt lat="48.99716" lon="1.11431">
        <ele>132.199997</ele>
        <time>2015-07-19T09:31:28Z</time>
      </trkpt>
      <trkpt lat="48.99716" lon="1.11447">
        <ele>132.300003</ele>
        <time>2015-07-19T09:31:31Z</time>
      </trkpt>
      <trkpt lat="48.9972" lon="1.11464">
        <ele>132.199997</ele>
        <time>2015-07-19T09:31:36Z</time>
      </trkpt>
      <trkpt lat="48.99722" lon="1.11483">
        <ele>132.100006</ele>
        <time>2015-07-19T09:31:38Z</time>
      </trkpt>
      <trkpt lat="48.99723" lon="1.11505">
        <ele>131.899994</ele>
        <time>2015-07-19T09:31:40Z</time>
      </trkpt>
      <trkpt lat="48.99723" lon="1.11519">
        <ele>131.699997</ele>
        <time>2015-07-19T09:31:42Z</time>
      </trkpt>
      <trkpt lat="48.99727" lon="1.11535">
        <ele>131.600006</ele>
        <time>2015-07-19T09:31:44Z</time>
      </trkpt>
      <trkpt lat="48.99729" lon="1.11552">
        <ele>131.399994</ele>
        <time>2015-07-19T09:31:46Z</time>
      </trkpt>
      <trkpt lat="48.9973" lon="1.11568">
        <ele>131.199997</ele>
        <time>2015-07-19T09:31:48Z</time>
      </trkpt>
      <trkpt lat="48.99732" lon="1.11591">
        <ele>130.899994</ele>
        <time>2015-07-19T09:31:51Z</time>
      </trkpt>
      <trkpt lat="48.99733" lon="1.11605">
        <ele>130.800003</ele>
        <time>2015-07-19T09:31:53Z</time>
      </trkpt>
      <trkpt lat="48.99735" lon="1.11619">
        <ele>130.5</ele>
        <time>2015-07-19T09:31:55Z</time>
      </trkpt>
      <trkpt lat="48.99739" lon="1.11638">
        <ele>130.300003</ele>
        <time>2015-07-19T09:31:57Z</time>
      </trkpt>
      <trkpt lat="48.99737" lon="1.11654">
        <ele>130.199997</ele>
        <time>2015-07-19T09:31:59Z</time>
      </trkpt>
      <trkpt lat="48.99737" lon="1.11669">
        <ele>130</ele>
        <time>2015-07-19T09:32:01Z</time>
      </trkpt>
      <trkpt lat="48.99739" lon="1.11684">
        <ele>129.800003</ele>
        <time>2015-07-19T09:32:03Z</time>
      </trkpt>
      <trkpt lat="48.99743" lon="1.11704">
        <ele>129.5</ele>
        <time>2015-07-19T09:32:06Z</time>
      </trkpt>
      <trkpt lat="48.99742" lon="1.1172">
        <ele>129.100006</ele>
        <time>2015-07-19T09:32:09Z</time>
      </trkpt>
      <trkpt lat="48.99751" lon="1.11741">
        <ele>128.800003</ele>
        <time>2015-07-19T09:32:11Z</time>
      </trkpt>
      <trkpt lat="48.99752" lon="1.11756">
        <ele>128.399994</ele>
        <time>2015-07-19T09:32:13Z</time>
      </trkpt>
      <trkpt lat="48.9975" lon="1.11774">
        <ele>127.599998</ele>
        <time>2015-07-19T09:32:16Z</time>
      </trkpt>
      <trkpt lat="48.99749" lon="1.11791">
        <ele>126.599998</ele>
        <time>2015-07-19T09:32:19Z</time>
      </trkpt>
      <trkpt lat="48.99752" lon="1.11806">
        <ele>125.599998</ele>
        <time>2015-07-19T09:32:22Z</time>
      </trkpt>
      <trkpt lat="48.99754" lon="1.11822">
        <ele>125</ele>
        <time>2015-07-19T09:32:24Z</time>
      </trkpt>
      <trkpt lat="48.99755" lon="1.11838">
        <ele>124</ele>
        <time>2015-07-19T09:32:27Z</time>
      </trkpt>
      <trkpt lat="48.99759" lon="1.11856">
        <ele>123.099998</ele>
        <time>2015-07-19T09:32:30Z</time>
      </trkpt>
      <trkpt lat="48.99764" lon="1.11873">
        <ele>122.5</ele>
        <time>2015-07-19T09:32:33Z</time>
      </trkpt>
      <trkpt lat="48.99769" lon="1.11889">
        <ele>122</ele>
        <time>2015-07-19T09:32:37Z</time>
      </trkpt>
      <trkpt lat="48.99773" lon="1.11903">
        <ele>121.900002</ele>
        <time>2015-07-19T09:32:42Z</time>
      </trkpt>
      <trkpt lat="48.99778" lon="1.11918">
        <ele>122.199997</ele>
        <time>2015-07-19T09:32:46Z</time>
      </trkpt>
      <trkpt lat="48.99782" lon="1.11934">
        <ele>122.900002</ele>
        <time>2015-07-19T09:32:50Z</time>
      </trkpt>
      <trkpt lat="48.99784" lon="1.11949">
        <ele>123.400002</ele>
        <time>2015-07-19T09:32:53Z</time>
      </trkpt>
      <trkpt lat="48.99786" lon="1.11964">
        <ele>124.300003</ele>
        <time>2015-07-19T09:32:57Z</time>
      </trkpt>
      <trkpt lat="48.99785" lon="1.11979">
        <ele>125.099998</ele>
        <time>2015-07-19T09:33:01Z</time>
      </trkpt>
      <trkpt lat="48.99788" lon="1.11995">
        <ele>126.5</ele>
        <time>2015-07-19T09:33:07Z</time>
      </trkpt>
      <trkpt lat="48.9979" lon="1.12009">
        <ele>127.300003</ele>
        <time>2015-07-19T09:33:11Z</time>
      </trkpt>
      <trkpt lat="48.99792" lon="1.12024">
        <ele>128.300003</ele>
        <time>2015-07-19T09:33:16Z</time>
      </trkpt>
      <trkpt lat="48.99794" lon="1.1204">
        <ele>129.199997</ele>
        <time>2015-07-19T09:33:21Z</time>
      </trkpt>
      <trkpt lat="48.99796" lon="1.12054">
        <ele>129.699997</ele>
        <time>2015-07-19T09:33:25Z</time>
      </trkpt>
      <trkpt lat="48.99798" lon="1.12069">
        <ele>130.100006</ele>
        <time>2015-07-19T09:33:29Z</time>
      </trkpt>
      <trkpt lat="48.99801" lon="1.12082">
        <ele>131</ele>
        <time>2015-07-19T09:33:39Z</time>
      </trkpt>
      <trkpt lat="48.99804" lon="1.12098">
        <ele>131.5</ele>
        <time>2015-07-19T09:33:46Z</time>
      </trkpt>
      <trkpt lat="48.99806" lon="1.12114">
        <ele>131.699997</ele>
        <time>2015-07-19T09:33:51Z</time>
      </trkpt>
      <trkpt lat="48.99806" lon="1.1213">
        <ele>131.899994</ele>
        <time>2015-07-19T09:33:56Z</time>
      </trkpt>
      <trkpt lat="48.99809" lon="1.12146">
        <ele>132.100006</ele>
        <time>2015-07-19T09:34:01Z</time>
      </trkpt>
      <trkpt lat="48.99813" lon="1.1216">
        <ele>132.100006</ele>
        <time>2015-07-19T09:34:04Z</time>
      </trkpt>
      <trkpt lat="48.99816" lon="1.12176">
        <ele>132.199997</ele>
        <time>2015-07-19T09:34:07Z</time>
      </trkpt>
      <trkpt lat="48.99818" lon="1.12192">
        <ele>132.300003</ele>
        <time>2015-07-19T09:34:10Z</time>
      </trkpt>
      <trkpt lat="48.99821" lon="1.1221">
        <ele>132.399994</ele>
        <time>2015-07-19T09:34:13Z</time>
      </trkpt>
      <trkpt lat="48.99825" lon="1.12227">
        <ele>132.5</ele>
        <time>2015-07-19T09:34:16Z</time>
      </trkpt>
      <trkpt lat="48.99827" lon="1.12243">
        <ele>132.600006</ele>
        <time>2015-07-19T09:34:19Z</time>
      </trkpt>
      <trkpt lat="48.99831" lon="1.12257">
        <ele>132.699997</ele>
        <time>2015-07-19T09:34:22Z</time>
      </trkpt>
      <trkpt lat="48.99833" lon="1.12276">
        <ele>133</ele>
        <time>2015-07-19T09:34:25Z</time>
      </trkpt>
      <trkpt lat="48.99834" lon="1.1229">
        <ele>133.300003</ele>
        <time>2015-07-19T09:34:28Z</time>
      </trkpt>
      <trkpt lat="48.99837" lon="1.12305">
        <ele>133.5</ele>
        <time>2015-07-19T09:34:31Z</time>
      </trkpt>
      <trkpt lat="48.9984" lon="1.12321">
        <ele>133.800003</ele>
        <time>2015-07-19T09:34:34Z</time>
      </trkpt>
      <trkpt lat="48.99843" lon="1.12339">
        <ele>134.100006</ele>
        <time>2015-07-19T09:34:37Z</time>
      </trkpt>
      <trkpt lat="48.99847" lon="1.12355">
        <ele>134.300003</ele>
        <time>2015-07-19T09:34:41Z</time>
      </trkpt>
      <trkpt lat="48.99846" lon="1.12372">
        <ele>134.5</ele>
        <time>2015-07-19T09:34:44Z</time>
      </trkpt>
      <trkpt lat="48.99848" lon="1.1239">
        <ele>134.600006</ele>
        <time>2015-07-19T09:34:46Z</time>
      </trkpt>
      <trkpt lat="48.99851" lon="1.1241">
        <ele>134.699997</ele>
        <time>2015-07-19T09:34:48Z</time>
      </trkpt>
      <trkpt lat="48.99857" lon="1.12426">
        <ele>134.800003</ele>
        <time>2015-07-19T09:34:50Z</time>
      </trkpt>
      <trkpt lat="48.9986" lon="1.12442">
        <ele>134.800003</ele>
        <time>2015-07-19T09:34:52Z</time>
      </trkpt>
      <trkpt lat="48.99862" lon="1.12461">
        <ele>134.899994</ele>
        <time>2015-07-19T09:34:55Z</time>
      </trkpt>
      <trkpt lat="48.99865" lon="1.12474">
        <ele>134.899994</ele>
        <time>2015-07-19T09:34:57Z</time>
      </trkpt>
      <trkpt lat="48.9987" lon="1.12492">
        <ele>135</ele>
        <time>2015-07-19T09:35:00Z</time>
      </trkpt>
      <trkpt lat="48.99868" lon="1.12507">
        <ele>135.100006</ele>
        <time>2015-07-19T09:35:02Z</time>
      </trkpt>
      <trkpt lat="48.99871" lon="1.12525">
        <ele>135.300003</ele>
        <time>2015-07-19T09:35:05Z</time>
      </trkpt>
      <trkpt lat="48.99874" lon="1.12545">
        <ele>135.600006</ele>
        <time>2015-07-19T09:35:08Z</time>
      </trkpt>
      <trkpt lat="48.99876" lon="1.12559">
        <ele>135.800003</ele>
        <time>2015-07-19T09:35:10Z</time>
      </trkpt>
      <trkpt lat="48.99878" lon="1.12578">
        <ele>136.100006</ele>
        <time>2015-07-19T09:35:13Z</time>
      </trkpt>
      <trkpt lat="48.99881" lon="1.12596">
        <ele>136.5</ele>
        <time>2015-07-19T09:35:16Z</time>
      </trkpt>
      <trkpt lat="48.99884" lon="1.12613">
        <ele>136.899994</ele>
        <time>2015-07-19T09:35:19Z</time>
      </trkpt>
      <trkpt lat="48.99886" lon="1.1263">
        <ele>137.300003</ele>
        <time>2015-07-19T09:35:22Z</time>
      </trkpt>
      <trkpt lat="48.99889" lon="1.12647">
        <ele>137.800003</ele>
        <time>2015-07-19T09:35:25Z</time>
      </trkpt>
      <trkpt lat="48.99891" lon="1.12664">
        <ele>138.300003</ele>
        <time>2015-07-19T09:35:28Z</time>
      </trkpt>
      <trkpt lat="48.99895" lon="1.12681">
        <ele>138.800003</ele>
        <time>2015-07-19T09:35:31Z</time>
      </trkpt>
      <trkpt lat="48.99898" lon="1.12699">
        <ele>139.199997</ele>
        <time>2015-07-19T09:35:34Z</time>
      </trkpt>
      <trkpt lat="48.99901" lon="1.12718">
        <ele>139.5</ele>
        <time>2015-07-19T09:35:37Z</time>
      </trkpt>
      <trkpt lat="48.99904" lon="1.12736">
        <ele>139.899994</ele>
        <time>2015-07-19T09:35:40Z</time>
      </trkpt>
      <trkpt lat="48.99906" lon="1.12753">
        <ele>140.5</ele>
        <time>2015-07-19T09:35:43Z</time>
      </trkpt>
      <trkpt lat="48.99909" lon="1.1277">
        <ele>141</ele>
        <time>2015-07-19T09:35:46Z</time>
      </trkpt>
      <trkpt lat="48.99912" lon="1.12786">
        <ele>141.399994</ele>
        <time>2015-07-19T09:35:49Z</time>
      </trkpt>
      <trkpt lat="48.99916" lon="1.128">
        <ele>141.800003</ele>
        <time>2015-07-19T09:35:52Z</time>
      </trkpt>
      <trkpt lat="48.99924" lon="1.12809">
        <ele>142.300003</ele>
        <time>2015-07-19T09:35:55Z</time>
      </trkpt>
      <trkpt lat="48.99934" lon="1.12814">
        <ele>142.800003</ele>
        <time>2015-07-19T09:35:58Z</time>
      </trkpt>
      <trkpt lat="48.99945" lon="1.12816">
        <ele>143.100006</ele>
        <time>2015-07-19T09:36:01Z</time>
      </trkpt>
      <trkpt lat="48.99958" lon="1.12818">
        <ele>143.399994</ele>
        <time>2015-07-19T09:36:04Z</time>
      </trkpt>
      <trkpt lat="48.99971" lon="1.1282">
        <ele>143.699997</ele>
        <time>2015-07-19T09:36:07Z</time>
      </trkpt>
      <trkpt lat="48.9998" lon="1.12821">
        <ele>143.800003</ele>
        <time>2015-07-19T09:36:09Z</time>
      </trkpt>
      <trkpt lat="48.99991" lon="1.12822">
        <ele>143.899994</ele>
        <time>2015-07-19T09:36:11Z</time>
      </trkpt>
      <trkpt lat="49" lon="1.12823">
        <ele>143.899994</ele>
        <time>2015-07-19T09:36:13Z</time>
      </trkpt>
      <trkpt lat="49.0001" lon="1.12823">
        <ele>143.899994</ele>
        <time>2015-07-19T09:36:15Z</time>
      </trkpt>
      <trkpt lat="49.00022" lon="1.12824">
        <ele>143.899994</ele>
        <time>2015-07-19T09:36:17Z</time>
      </trkpt>
      <trkpt lat="49.00032" lon="1.12825">
        <ele>143.899994</ele>
        <time>2015-07-19T09:36:19Z</time>
      </trkpt>
      <trkpt lat="49.00042" lon="1.12826">
        <ele>143.899994</ele>
        <time>2015-07-19T09:36:21Z</time>
      </trkpt>
      <trkpt lat="49.00056" lon="1.12827">
        <ele>143.699997</ele>
        <time>2015-07-19T09:36:24Z</time>
      </trkpt>
      <trkpt lat="49.00066" lon="1.12829">
        <ele>143.5</ele>
        <time>2015-07-19T09:36:26Z</time>
      </trkpt>
      <trkpt lat="49.00076" lon="1.1283">
        <ele>143.399994</ele>
        <time>2015-07-19T09:36:28Z</time>
      </trkpt>
      <trkpt lat="49.00085" lon="1.1283">
        <ele>143.199997</ele>
        <time>2015-07-19T09:36:30Z</time>
      </trkpt>
      <trkpt lat="49.00097" lon="1.1283">
        <ele>143</ele>
        <time>2015-07-19T09:36:32Z</time>
      </trkpt>
      <trkpt lat="49.00108" lon="1.12831">
        <ele>142.800003</ele>
        <time>2015-07-19T09:36:34Z</time>
      </trkpt>
      <trkpt lat="49.00117" lon="1.12832">
        <ele>142.600006</ele>
        <time>2015-07-19T09:36:36Z</time>
      </trkpt>
      <trkpt lat="49.00129" lon="1.12832">
        <ele>142.300003</ele>
        <time>2015-07-19T09:36:38Z</time>
      </trkpt>
      <trkpt lat="49.00141" lon="1.12833">
        <ele>142.100006</ele>
        <time>2015-07-19T09:36:40Z</time>
      </trkpt>
      <trkpt lat="49.00151" lon="1.12836">
        <ele>142</ele>
        <time>2015-07-19T09:36:42Z</time>
      </trkpt>
      <trkpt lat="49.00161" lon="1.12837">
        <ele>141.800003</ele>
        <time>2015-07-19T09:36:44Z</time>
      </trkpt>
      <trkpt lat="49.00173" lon="1.1284">
        <ele>141.600006</ele>
        <time>2015-07-19T09:36:46Z</time>
      </trkpt>
      <trkpt lat="49.00185" lon="1.12842">
        <ele>141.399994</ele>
        <time>2015-07-19T09:36:48Z</time>
      </trkpt>
      <trkpt lat="49.00198" lon="1.12842">
        <ele>141.199997</ele>
        <time>2015-07-19T09:36:50Z</time>
      </trkpt>
      <trkpt lat="49.00209" lon="1.12842">
        <ele>141.100006</ele>
        <time>2015-07-19T09:36:52Z</time>
      </trkpt>
      <trkpt lat="49.00218" lon="1.12842">
        <ele>140.899994</ele>
        <time>2015-07-19T09:36:54Z</time>
      </trkpt>
      <trkpt lat="49.0023" lon="1.12846">
        <ele>140.600006</ele>
        <time>2015-07-19T09:36:57Z</time>
      </trkpt>
      <trkpt lat="49.00239" lon="1.12853">
        <ele>140.399994</ele>
        <time>2015-07-19T09:37:00Z</time>
      </trkpt>
      <trkpt lat="49.0025" lon="1.12855">
        <ele>140.199997</ele>
        <time>2015-07-19T09:37:03Z</time>
      </trkpt>
      <trkpt lat="49.00256" lon="1.12844">
        <ele>139.199997</ele>
        <time>2015-07-19T09:37:13Z</time>
      </trkpt>
      <trkpt lat="49.00247" lon="1.12842">
        <ele>137.699997</ele>
        <time>2015-07-19T09:38:23Z</time>
      </trkpt>
      <trkpt lat="49.00237" lon="1.12843">
        <ele>137.699997</ele>
        <time>2015-07-19T09:40:00Z</time>
      </trkpt>
      <trkpt lat="49.00233" lon="1.1283">
        <ele>137.800003</ele>
        <time>2015-07-19T09:40:04Z</time>
      </trkpt>
      <trkpt lat="49.00228" lon="1.12812">
        <ele>137.899994</ele>
        <time>2015-07-19T09:40:07Z</time>
      </trkpt>
      <trkpt lat="49.00224" lon="1.12799">
        <ele>138</ele>
        <time>2015-07-19T09:40:09Z</time>
      </trkpt>
      <trkpt lat="49.0022" lon="1.12785">
        <ele>138.100006</ele>
        <time>2015-07-19T09:40:11Z</time>
      </trkpt>
      <trkpt lat="49.00217" lon="1.1277">
        <ele>138.100006</ele>
        <time>2015-07-19T09:40:13Z</time>
      </trkpt>
      <trkpt lat="49.00214" lon="1.12754">
        <ele>138.199997</ele>
        <time>2015-07-19T09:40:15Z</time>
      </trkpt>
      <trkpt lat="49.00212" lon="1.12737">
        <ele>138.199997</ele>
        <time>2015-07-19T09:40:17Z</time>
      </trkpt>
      <trkpt lat="49.00209" lon="1.12718">
        <ele>138.199997</ele>
        <time>2015-07-19T09:40:19Z</time>
      </trkpt>
      <trkpt lat="49.00203" lon="1.12698">
        <ele>138.199997</ele>
        <time>2015-07-19T09:40:21Z</time>
      </trkpt>
      <trkpt lat="49.00197" lon="1.1268">
        <ele>138.100006</ele>
        <time>2015-07-19T09:40:23Z</time>
      </trkpt>
      <trkpt lat="49.00192" lon="1.1266">
        <ele>137.899994</ele>
        <time>2015-07-19T09:40:25Z</time>
      </trkpt>
      <trkpt lat="49.00189" lon="1.12639">
        <ele>137.699997</ele>
        <time>2015-07-19T09:40:27Z</time>
      </trkpt>
      <trkpt lat="49.00186" lon="1.1262">
        <ele>137.399994</ele>
        <time>2015-07-19T09:40:29Z</time>
      </trkpt>
      <trkpt lat="49.00181" lon="1.126">
        <ele>137.199997</ele>
        <time>2015-07-19T09:40:31Z</time>
      </trkpt>
      <trkpt lat="49.00177" lon="1.12579">
        <ele>136.899994</ele>
        <time>2015-07-19T09:40:33Z</time>
      </trkpt>
      <trkpt lat="49.00172" lon="1.1256">
        <ele>136.600006</ele>
        <time>2015-07-19T09:40:35Z</time>
      </trkpt>
      <trkpt lat="49.00166" lon="1.12541">
        <ele>136.399994</ele>
        <time>2015-07-19T09:40:37Z</time>
      </trkpt>
      <trkpt lat="49.00159" lon="1.12521">
        <ele>136.100006</ele>
        <time>2015-07-19T09:40:39Z</time>
      </trkpt>
      <trkpt lat="49.00152" lon="1.12502">
        <ele>135.899994</ele>
        <time>2015-07-19T09:40:41Z</time>
      </trkpt>
      <trkpt lat="49.00148" lon="1.12481">
        <ele>135.600006</ele>
        <time>2015-07-19T09:40:43Z</time>
      </trkpt>
      <trkpt lat="49.00144" lon="1.12459">
        <ele>135.300003</ele>
        <time>2015-07-19T09:40:45Z</time>
      </trkpt>
      <trkpt lat="49.0014" lon="1.12437">
        <ele>134.899994</ele>
        <time>2015-07-19T09:40:47Z</time>
      </trkpt>
      <trkpt lat="49.00136" lon="1.12417">
        <ele>134.199997</ele>
        <time>2015-07-19T09:40:49Z</time>
      </trkpt>
      <trkpt lat="49.00132" lon="1.124">
        <ele>133.399994</ele>
        <time>2015-07-19T09:40:51Z</time>
      </trkpt>
      <trkpt lat="49.00128" lon="1.12382">
        <ele>132.600006</ele>
        <time>2015-07-19T09:40:53Z</time>
      </trkpt>
      <trkpt lat="49.00124" lon="1.12362">
        <ele>131.800003</ele>
        <time>2015-07-19T09:40:55Z</time>
      </trkpt>
      <trkpt lat="49.00124" lon="1.12341">
        <ele>130.699997</ele>
        <time>2015-07-19T09:40:57Z</time>
      </trkpt>
      <trkpt lat="49.00126" lon="1.12322">
        <ele>129.699997</ele>
        <time>2015-07-19T09:40:59Z</time>
      </trkpt>
      <trkpt lat="49.00128" lon="1.12303">
        <ele>128.699997</ele>
        <time>2015-07-19T09:41:01Z</time>
      </trkpt>
      <trkpt lat="49.00132" lon="1.12285">
        <ele>127.599998</ele>
        <time>2015-07-19T09:41:03Z</time>
      </trkpt>
      <trkpt lat="49.00136" lon="1.12267">
        <ele>126.5</ele>
        <time>2015-07-19T09:41:05Z</time>
      </trkpt>
      <trkpt lat="49.0014" lon="1.12254">
        <ele>125.400002</ele>
        <time>2015-07-19T09:41:07Z</time>
      </trkpt>
      <trkpt lat="49.00145" lon="1.12239">
        <ele>123.800003</ele>
        <time>2015-07-19T09:41:10Z</time>
      </trkpt>
      <trkpt lat="49.0015" lon="1.12225">
        <ele>122.400002</ele>
        <time>2015-07-19T09:41:13Z</time>
      </trkpt>
      <trkpt lat="49.00157" lon="1.1221">
        <ele>121.099998</ele>
        <time>2015-07-19T09:41:16Z</time>
      </trkpt>
      <trkpt lat="49.00162" lon="1.12197">
        <ele>120.300003</ele>
        <time>2015-07-19T09:41:18Z</time>
      </trkpt>
      <trkpt lat="49.00168" lon="1.12183">
        <ele>119.599998</ele>
        <time>2015-07-19T09:41:20Z</time>
      </trkpt>
      <trkpt lat="49.00174" lon="1.12167">
        <ele>118.900002</ele>
        <time>2015-07-19T09:41:22Z</time>
      </trkpt>
      <trkpt lat="49.0018" lon="1.1215">
        <ele>118.199997</ele>
        <time>2015-07-19T09:41:24Z</time>
      </trkpt>
      <trkpt lat="49.00186" lon="1.12134">
        <ele>117.5</ele>
        <time>2015-07-19T09:41:26Z</time>
      </trkpt>
      <trkpt lat="49.00191" lon="1.12119">
        <ele>116.800003</ele>
        <time>2015-07-19T09:41:28Z</time>
      </trkpt>
      <trkpt lat="49.00198" lon="1.12104">
        <ele>116.199997</ele>
        <time>2015-07-19T09:41:30Z</time>
      </trkpt>
      <trkpt lat="49.00205" lon="1.12087">
        <ele>115.599998</ele>
        <time>2015-07-19T09:41:32Z</time>
      </trkpt>
      <trkpt lat="49.00213" lon="1.12068">
        <ele>114.900002</ele>
        <time>2015-07-19T09:41:34Z</time>
      </trkpt>
      <trkpt lat="49.00221" lon="1.12048">
        <ele>114.300003</ele>
        <time>2015-07-19T09:41:36Z</time>
      </trkpt>
      <trkpt lat="49.00229" lon="1.12027">
        <ele>113.699997</ele>
        <time>2015-07-19T09:41:38Z</time>
      </trkpt>
      <trkpt lat="49.00237" lon="1.12005">
        <ele>113.099998</ele>
        <time>2015-07-19T09:41:40Z</time>
      </trkpt>
      <trkpt lat="49.00246" lon="1.11983">
        <ele>112.400002</ele>
        <time>2015-07-19T09:41:42Z</time>
      </trkpt>
      <trkpt lat="49.00255" lon="1.1196">
        <ele>111.800003</ele>
        <time>2015-07-19T09:41:44Z</time>
      </trkpt>
      <trkpt lat="49.00263" lon="1.11936">
        <ele>111.099998</ele>
        <time>2015-07-19T09:41:46Z</time>
      </trkpt>
      <trkpt lat="49.00272" lon="1.11913">
        <ele>110.400002</ele>
        <time>2015-07-19T09:41:48Z</time>
      </trkpt>
      <trkpt lat="49.0028" lon="1.11891">
        <ele>109.599998</ele>
        <time>2015-07-19T09:41:50Z</time>
      </trkpt>
      <trkpt lat="49.00289" lon="1.1187">
        <ele>108.900002</ele>
        <time>2015-07-19T09:41:52Z</time>
      </trkpt>
      <trkpt lat="49.00296" lon="1.1185">
        <ele>108</ele>
        <time>2015-07-19T09:41:54Z</time>
      </trkpt>
      <trkpt lat="49.00304" lon="1.11833">
        <ele>107.199997</ele>
        <time>2015-07-19T09:41:56Z</time>
      </trkpt>
      <trkpt lat="49.00311" lon="1.11821">
        <ele>106.400002</ele>
        <time>2015-07-19T09:41:58Z</time>
      </trkpt>
      <trkpt lat="49.00314" lon="1.11808">
        <ele>104.900002</ele>
        <time>2015-07-19T09:42:02Z</time>
      </trkpt>
      <trkpt lat="49.00308" lon="1.11797">
        <ele>103.400002</ele>
        <time>2015-07-19T09:42:07Z</time>
      </trkpt>
      <trkpt lat="49.00302" lon="1.11785">
        <ele>101.300003</ele>
        <time>2015-07-19T09:42:20Z</time>
      </trkpt>
      <trkpt lat="49.00309" lon="1.1177">
        <ele>101</ele>
        <time>2015-07-19T09:42:27Z</time>
      </trkpt>
      <trkpt lat="49.00314" lon="1.11757">
        <ele>100.900002</ele>
        <time>2015-07-19T09:42:30Z</time>
      </trkpt>
      <trkpt lat="49.00319" lon="1.11743">
        <ele>100.900002</ele>
        <time>2015-07-19T09:42:33Z</time>
      </trkpt>
      <trkpt lat="49.00325" lon="1.11727">
        <ele>100.900002</ele>
        <time>2015-07-19T09:42:36Z</time>
      </trkpt>
      <trkpt lat="49.00331" lon="1.1171">
        <ele>100.800003</ele>
        <time>2015-07-19T09:42:39Z</time>
      </trkpt>
      <trkpt lat="49.00336" lon="1.11697">
        <ele>100.800003</ele>
        <time>2015-07-19T09:42:41Z</time>
      </trkpt>
      <trkpt lat="49.00341" lon="1.11685">
        <ele>100.800003</ele>
        <time>2015-07-19T09:42:43Z</time>
      </trkpt>
      <trkpt lat="49.00345" lon="1.11673">
        <ele>100.800003</ele>
        <time>2015-07-19T09:42:45Z</time>
      </trkpt>
      <trkpt lat="49.0035" lon="1.11661">
        <ele>100.800003</ele>
        <time>2015-07-19T09:42:47Z</time>
      </trkpt>
      <trkpt lat="49.00354" lon="1.11647">
        <ele>100.699997</ele>
        <time>2015-07-19T09:42:49Z</time>
      </trkpt>
      <trkpt lat="49.0036" lon="1.11631">
        <ele>100.599998</ele>
        <time>2015-07-19T09:42:51Z</time>
      </trkpt>
      <trkpt lat="49.00366" lon="1.11614">
        <ele>100.400002</ele>
        <time>2015-07-19T09:42:53Z</time>
      </trkpt>
      <trkpt lat="49.00372" lon="1.11595">
        <ele>100.099998</ele>
        <time>2015-07-19T09:42:55Z</time>
      </trkpt>
      <trkpt lat="49.00378" lon="1.11577">
        <ele>99.699997</ele>
        <time>2015-07-19T09:42:57Z</time>
      </trkpt>
      <trkpt lat="49.00384" lon="1.1156">
        <ele>99.300003</ele>
        <time>2015-07-19T09:42:59Z</time>
      </trkpt>
      <trkpt lat="49.0039" lon="1.11543">
        <ele>98.699997</ele>
        <time>2015-07-19T09:43:01Z</time>
      </trkpt>
      <trkpt lat="49.00396" lon="1.11526">
        <ele>98.199997</ele>
        <time>2015-07-19T09:43:03Z</time>
      </trkpt>
      <trkpt lat="49.00403" lon="1.1151">
        <ele>97.599998</ele>
        <time>2015-07-19T09:43:05Z</time>
      </trkpt>
      <trkpt lat="49.00408" lon="1.11493">
        <ele>97.099998</ele>
        <time>2015-07-19T09:43:07Z</time>
      </trkpt>
      <trkpt lat="49.00411" lon="1.11476">
        <ele>96.699997</ele>
        <time>2015-07-19T09:43:09Z</time>
      </trkpt>
      <trkpt lat="49.00411" lon="1.11457">
        <ele>96.199997</ele>
        <time>2015-07-19T09:43:11Z</time>
      </trkpt>
      <trkpt lat="49.00412" lon="1.11439">
        <ele>95.800003</ele>
        <time>2015-07-19T09:43:13Z</time>
      </trkpt>
      <trkpt lat="49.00416" lon="1.11421">
        <ele>95.400002</ele>
        <time>2015-07-19T09:43:15Z</time>
      </trkpt>
      <trkpt lat="49.00422" lon="1.11404">
        <ele>95</ele>
        <time>2015-07-19T09:43:17Z</time>
      </trkpt>
      <trkpt lat="49.00428" lon="1.11386">
        <ele>94.599998</ele>
        <time>2015-07-19T09:43:19Z</time>
      </trkpt>
      <trkpt lat="49.00434" lon="1.11368">
        <ele>94.099998</ele>
        <time>2015-07-19T09:43:21Z</time>
      </trkpt>
      <trkpt lat="49.0044" lon="1.11349">
        <ele>93.599998</ele>
        <time>2015-07-19T09:43:23Z</time>
      </trkpt>
      <trkpt lat="49.00444" lon="1.11334">
        <ele>93.099998</ele>
        <time>2015-07-19T09:43:25Z</time>
      </trkpt>
      <trkpt lat="49.00444" lon="1.1132">
        <ele>92.400002</ele>
        <time>2015-07-19T09:43:28Z</time>
      </trkpt>
      <trkpt lat="49.0044" lon="1.11305">
        <ele>90.199997</ele>
        <time>2015-07-19T09:43:40Z</time>
      </trkpt>
      <trkpt lat="49.0043" lon="1.11298">
        <ele>89.800003</ele>
        <time>2015-07-19T09:43:43Z</time>
      </trkpt>
      <trkpt lat="49.00418" lon="1.11292">
        <ele>89.5</ele>
        <time>2015-07-19T09:43:46Z</time>
      </trkpt>
      <trkpt lat="49.00409" lon="1.11287">
        <ele>89.400002</ele>
        <time>2015-07-19T09:43:48Z</time>
      </trkpt>
      <trkpt lat="49.004" lon="1.11282">
        <ele>89.199997</ele>
        <time>2015-07-19T09:43:50Z</time>
      </trkpt>
      <trkpt lat="49.00391" lon="1.11276">
        <ele>89.099998</ele>
        <time>2015-07-19T09:43:52Z</time>
      </trkpt>
      <trkpt lat="49.00382" lon="1.1127">
        <ele>89</ele>
        <time>2015-07-19T09:43:54Z</time>
      </trkpt>
      <trkpt lat="49.00372" lon="1.11265">
        <ele>88.900002</ele>
        <time>2015-07-19T09:43:56Z</time>
      </trkpt>
      <trkpt lat="49.00363" lon="1.1126">
        <ele>88.800003</ele>
        <time>2015-07-19T09:43:58Z</time>
      </trkpt>
      <trkpt lat="49.00353" lon="1.11254">
        <ele>88.800003</ele>
        <time>2015-07-19T09:44:00Z</time>
      </trkpt>
      <trkpt lat="49.00344" lon="1.11249">
        <ele>88.800003</ele>
        <time>2015-07-19T09:44:02Z</time>
      </trkpt>
      <trkpt lat="49.00335" lon="1.11244">
        <ele>88.900002</ele>
        <time>2015-07-19T09:44:04Z</time>
      </trkpt>
      <trkpt lat="49.00326" lon="1.11238">
        <ele>88.900002</ele>
        <time>2015-07-19T09:44:06Z</time>
      </trkpt>
      <trkpt lat="49.00317" lon="1.11232">
        <ele>89</ele>
        <time>2015-07-19T09:44:08Z</time>
      </trkpt>
      <trkpt lat="49.00308" lon="1.11227">
        <ele>89.099998</ele>
        <time>2015-07-19T09:44:10Z</time>
      </trkpt>
      <trkpt lat="49.003" lon="1.11221">
        <ele>89.199997</ele>
        <time>2015-07-19T09:44:12Z</time>
      </trkpt>
      <trkpt lat="49.00291" lon="1.11216">
        <ele>89.300003</ele>
        <time>2015-07-19T09:44:14Z</time>
      </trkpt>
      <trkpt lat="49.00283" lon="1.1121">
        <ele>89.400002</ele>
        <time>2015-07-19T09:44:16Z</time>
      </trkpt>
      <trkpt lat="49.00274" lon="1.11204">
        <ele>89.599998</ele>
        <time>2015-07-19T09:44:18Z</time>
      </trkpt>
      <trkpt lat="49.00265" lon="1.11198">
        <ele>89.699997</ele>
        <time>2015-07-19T09:44:20Z</time>
      </trkpt>
      <trkpt lat="49.00257" lon="1.11191">
        <ele>89.800003</ele>
        <time>2015-07-19T09:44:22Z</time>
      </trkpt>
      <trkpt lat="49.00248" lon="1.11184">
        <ele>89.900002</ele>
        <time>2015-07-19T09:44:24Z</time>
      </trkpt>
      <trkpt lat="49.0024" lon="1.11176">
        <ele>90.099998</ele>
        <time>2015-07-19T09:44:26Z</time>
      </trkpt>
      <trkpt lat="49.00231" lon="1.11168">
        <ele>90.199997</ele>
        <time>2015-07-19T09:44:28Z</time>
      </trkpt>
      <trkpt lat="49.00223" lon="1.11158">
        <ele>90.300003</ele>
        <time>2015-07-19T09:44:30Z</time>
      </trkpt>
      <trkpt lat="49.00214" lon="1.11148">
        <ele>90.300003</ele>
        <time>2015-07-19T09:44:32Z</time>
      </trkpt>
      <trkpt lat="49.00205" lon="1.11138">
        <ele>90.400002</ele>
        <time>2015-07-19T09:44:34Z</time>
      </trkpt>
      <trkpt lat="49.00196" lon="1.11128">
        <ele>90.5</ele>
        <time>2015-07-19T09:44:36Z</time>
      </trkpt>
      <trkpt lat="49.00188" lon="1.11118">
        <ele>90.5</ele>
        <time>2015-07-19T09:44:38Z</time>
      </trkpt>
      <trkpt lat="49.0018" lon="1.11108">
        <ele>90.599998</ele>
        <time>2015-07-19T09:44:40Z</time>
      </trkpt>
      <trkpt lat="49.00171" lon="1.11098">
        <ele>90.599998</ele>
        <time>2015-07-19T09:44:42Z</time>
      </trkpt>
      <trkpt lat="49.00163" lon="1.11088">
        <ele>90.699997</ele>
        <time>2015-07-19T09:44:44Z</time>
      </trkpt>
      <trkpt lat="49.00154" lon="1.11078">
        <ele>90.699997</ele>
        <time>2015-07-19T09:44:46Z</time>
      </trkpt>
      <trkpt lat="49.00144" lon="1.11068">
        <ele>90.699997</ele>
        <time>2015-07-19T09:44:48Z</time>
      </trkpt>
      <trkpt lat="49.00136" lon="1.11057">
        <ele>90.699997</ele>
        <time>2015-07-19T09:44:50Z</time>
      </trkpt>
      <trkpt lat="49.00127" lon="1.11046">
        <ele>90.800003</ele>
        <time>2015-07-19T09:44:52Z</time>
      </trkpt>
      <trkpt lat="49.00118" lon="1.11035">
        <ele>90.800003</ele>
        <time>2015-07-19T09:44:54Z</time>
      </trkpt>
      <trkpt lat="49.00109" lon="1.11025">
        <ele>90.800003</ele>
        <time>2015-07-19T09:44:56Z</time>
      </trkpt>
      <trkpt lat="49.001" lon="1.11014">
        <ele>90.800003</ele>
        <time>2015-07-19T09:44:58Z</time>
      </trkpt>
      <trkpt lat="49.00091" lon="1.11004">
        <ele>90.800003</ele>
        <time>2015-07-19T09:45:00Z</time>
      </trkpt>
      <trkpt lat="49.00083" lon="1.10992">
        <ele>90.800003</ele>
        <time>2015-07-19T09:45:02Z</time>
      </trkpt>
      <trkpt lat="49.00074" lon="1.10981">
        <ele>90.800003</ele>
        <time>2015-07-19T09:45:04Z</time>
      </trkpt>
      <trkpt lat="49.00065" lon="1.10969">
        <ele>90.800003</ele>
        <time>2015-07-19T09:45:06Z</time>
      </trkpt>
      <trkpt lat="49.00056" lon="1.10957">
        <ele>90.699997</ele>
        <time>2015-07-19T09:45:08Z</time>
      </trkpt>
      <trkpt lat="49.00047" lon="1.10944">
        <ele>90.599998</ele>
        <time>2015-07-19T09:45:10Z</time>
      </trkpt>
      <trkpt lat="49.00037" lon="1.10932">
        <ele>90.5</ele>
        <time>2015-07-19T09:45:12Z</time>
      </trkpt>
      <trkpt lat="49.00029" lon="1.10918">
        <ele>90.5</ele>
        <time>2015-07-19T09:45:14Z</time>
      </trkpt>
      <trkpt lat="49.0002" lon="1.10906">
        <ele>90.400002</ele>
        <time>2015-07-19T09:45:16Z</time>
      </trkpt>
      <trkpt lat="49.00011" lon="1.10893">
        <ele>90.300003</ele>
        <time>2015-07-19T09:45:18Z</time>
      </trkpt>
      <trkpt lat="49.00002" lon="1.1088">
        <ele>90.199997</ele>
        <time>2015-07-19T09:45:20Z</time>
      </trkpt>
      <trkpt lat="48.99994" lon="1.10867">
        <ele>90.199997</ele>
        <time>2015-07-19T09:45:22Z</time>
      </trkpt>
      <trkpt lat="48.99985" lon="1.10854">
        <ele>90.099998</ele>
        <time>2015-07-19T09:45:24Z</time>
      </trkpt>
      <trkpt lat="48.99977" lon="1.10842">
        <ele>90</ele>
        <time>2015-07-19T09:45:26Z</time>
      </trkpt>
      <trkpt lat="48.99968" lon="1.10829">
        <ele>89.900002</ele>
        <time>2015-07-19T09:45:28Z</time>
      </trkpt>
      <trkpt lat="48.99958" lon="1.10817">
        <ele>89.699997</ele>
        <time>2015-07-19T09:45:30Z</time>
      </trkpt>
      <trkpt lat="48.99948" lon="1.10806">
        <ele>89.5</ele>
        <time>2015-07-19T09:45:32Z</time>
      </trkpt>
      <trkpt lat="48.99936" lon="1.10799">
        <ele>89.199997</ele>
        <time>2015-07-19T09:45:34Z</time>
      </trkpt>
      <trkpt lat="48.99923" lon="1.10797">
        <ele>88.900002</ele>
        <time>2015-07-19T09:45:36Z</time>
      </trkpt>
      <trkpt lat="48.99911" lon="1.108">
        <ele>88.599998</ele>
        <time>2015-07-19T09:45:38Z</time>
      </trkpt>
      <trkpt lat="48.99898" lon="1.10803">
        <ele>88.300003</ele>
        <time>2015-07-19T09:45:40Z</time>
      </trkpt>
      <trkpt lat="48.99885" lon="1.10802">
        <ele>88</ele>
        <time>2015-07-19T09:45:42Z</time>
      </trkpt>
      <trkpt lat="48.99874" lon="1.10797">
        <ele>87.800003</ele>
        <time>2015-07-19T09:45:44Z</time>
      </trkpt>
      <trkpt lat="48.99865" lon="1.10788">
        <ele>87.599998</ele>
        <time>2015-07-19T09:45:46Z</time>
      </trkpt>
      <trkpt lat="48.99857" lon="1.10778">
        <ele>87.400002</ele>
        <time>2015-07-19T09:45:48Z</time>
      </trkpt>
      <trkpt lat="48.99849" lon="1.10769">
        <ele>87.199997</ele>
        <time>2015-07-19T09:45:50Z</time>
      </trkpt>
      <trkpt lat="48.99841" lon="1.10761">
        <ele>87.099998</ele>
        <time>2015-07-19T09:45:52Z</time>
      </trkpt>
      <trkpt lat="48.99833" lon="1.10754">
        <ele>87</ele>
        <time>2015-07-19T09:45:54Z</time>
      </trkpt>
      <trkpt lat="48.99824" lon="1.10748">
        <ele>86.900002</ele>
        <time>2015-07-19T09:45:56Z</time>
      </trkpt>
      <trkpt lat="48.99816" lon="1.10743">
        <ele>86.900002</ele>
        <time>2015-07-19T09:45:58Z</time>
      </trkpt>
      <trkpt lat="48.99807" lon="1.10739">
        <ele>86.900002</ele>
        <time>2015-07-19T09:46:00Z</time>
      </trkpt>
      <trkpt lat="48.99799" lon="1.10732">
        <ele>87</ele>
        <time>2015-07-19T09:46:02Z</time>
      </trkpt>
      <trkpt lat="48.99793" lon="1.10722">
        <ele>87.199997</ele>
        <time>2015-07-19T09:46:04Z</time>
      </trkpt>
      <trkpt lat="48.99786" lon="1.10711">
        <ele>87.199997</ele>
        <time>2015-07-19T09:46:06Z</time>
      </trkpt>
      <trkpt lat="48.99781" lon="1.10701">
        <ele>87.300003</ele>
        <time>2015-07-19T09:46:08Z</time>
      </trkpt>
      <trkpt lat="48.99772" lon="1.10685">
        <ele>87.5</ele>
        <time>2015-07-19T09:46:11Z</time>
      </trkpt>
      <trkpt lat="48.99764" lon="1.1067">
        <ele>87.599998</ele>
        <time>2015-07-19T09:46:14Z</time>
      </trkpt>
      <trkpt lat="48.99755" lon="1.10656">
        <ele>87.900002</ele>
        <time>2015-07-19T09:46:17Z</time>
      </trkpt>
      <trkpt lat="48.99747" lon="1.10642">
        <ele>88.099998</ele>
        <time>2015-07-19T09:46:20Z</time>
      </trkpt>
      <trkpt lat="48.99738" lon="1.10628">
        <ele>88.300003</ele>
        <time>2015-07-19T09:46:23Z</time>
      </trkpt>
      <trkpt lat="48.9973" lon="1.10614">
        <ele>88.5</ele>
        <time>2015-07-19T09:46:26Z</time>
      </trkpt>
      <trkpt lat="48.99722" lon="1.10601">
        <ele>88.800003</ele>
        <time>2015-07-19T09:46:29Z</time>
      </trkpt>
      <trkpt lat="48.99715" lon="1.10588">
        <ele>89.099998</ele>
        <time>2015-07-19T09:46:32Z</time>
      </trkpt>
      <trkpt lat="48.99709" lon="1.10574">
        <ele>89.400002</ele>
        <time>2015-07-19T09:46:35Z</time>
      </trkpt>
      <trkpt lat="48.99703" lon="1.10561">
        <ele>89.900002</ele>
        <time>2015-07-19T09:46:38Z</time>
      </trkpt>
      <trkpt lat="48.99696" lon="1.10547">
        <ele>90.300003</ele>
        <time>2015-07-19T09:46:41Z</time>
      </trkpt>
      <trkpt lat="48.9969" lon="1.10533">
        <ele>90.699997</ele>
        <time>2015-07-19T09:46:44Z</time>
      </trkpt>
      <trkpt lat="48.99685" lon="1.1052">
        <ele>91.099998</ele>
        <time>2015-07-19T09:46:47Z</time>
      </trkpt>
      <trkpt lat="48.99691" lon="1.10509">
        <ele>91.900002</ele>
        <time>2015-07-19T09:46:56Z</time>
      </trkpt>
      <trkpt lat="48.99693" lon="1.10492">
        <ele>92.199997</ele>
        <time>2015-07-19T09:53:37Z</time>
      </trkpt>
      <trkpt lat="48.99686" lon="1.10483">
        <ele>92.199997</ele>
        <time>2015-07-19T09:53:41Z</time>
      </trkpt>
      <trkpt lat="48.99678" lon="1.10475">
        <ele>92.099998</ele>
        <time>2015-07-19T09:53:46Z</time>
      </trkpt>
      <trkpt lat="48.99669" lon="1.1048">
        <ele>92.199997</ele>
        <time>2015-07-19T09:53:52Z</time>
      </trkpt>
      <trkpt lat="48.99663" lon="1.10468">
        <ele>92.400002</ele>
        <time>2015-07-19T09:53:56Z</time>
      </trkpt>
      <trkpt lat="48.99657" lon="1.10455">
        <ele>92.599998</ele>
        <time>2015-07-19T09:53:59Z</time>
      </trkpt>
      <trkpt lat="48.9965" lon="1.1044">
        <ele>92.800003</ele>
        <time>2015-07-19T09:54:02Z</time>
      </trkpt>
      <trkpt lat="48.99643" lon="1.10424">
        <ele>92.900002</ele>
        <time>2015-07-19T09:54:05Z</time>
      </trkpt>
      <trkpt lat="48.99636" lon="1.1041">
        <ele>93</ele>
        <time>2015-07-19T09:54:08Z</time>
      </trkpt>
      <trkpt lat="48.99629" lon="1.10397">
        <ele>93.099998</ele>
        <time>2015-07-19T09:54:11Z</time>
      </trkpt>
      <trkpt lat="48.9962" lon="1.10405">
        <ele>93.199997</ele>
        <time>2015-07-19T09:54:15Z</time>
      </trkpt>
      <trkpt lat="48.99613" lon="1.10419">
        <ele>93.300003</ele>
        <time>2015-07-19T09:54:19Z</time>
      </trkpt>
      <trkpt lat="48.99608" lon="1.10431">
        <ele>93.599998</ele>
        <time>2015-07-19T09:54:22Z</time>
      </trkpt>
      <trkpt lat="48.996" lon="1.10444">
        <ele>93.900002</ele>
        <time>2015-07-19T09:54:25Z</time>
      </trkpt>
      <trkpt lat="48.99592" lon="1.10458">
        <ele>94.300003</ele>
        <time>2015-07-19T09:54:28Z</time>
      </trkpt>
      <trkpt lat="48.99584" lon="1.1047">
        <ele>94.699997</ele>
        <time>2015-07-19T09:54:31Z</time>
      </trkpt>
      <trkpt lat="48.99575" lon="1.10483">
        <ele>95</ele>
        <time>2015-07-19T09:54:34Z</time>
      </trkpt>
      <trkpt lat="48.99564" lon="1.10494">
        <ele>95.400002</ele>
        <time>2015-07-19T09:54:37Z</time>
      </trkpt>
      <trkpt lat="48.99554" lon="1.10506">
        <ele>95.800003</ele>
        <time>2015-07-19T09:54:40Z</time>
      </trkpt>
      <trkpt lat="48.99543" lon="1.10517">
        <ele>96.199997</ele>
        <time>2015-07-19T09:54:43Z</time>
      </trkpt>
      <trkpt lat="48.99532" lon="1.10528">
        <ele>96.599998</ele>
        <time>2015-07-19T09:54:46Z</time>
      </trkpt>
      <trkpt lat="48.99524" lon="1.10536">
        <ele>96.800003</ele>
        <time>2015-07-19T09:54:48Z</time>
      </trkpt>
      <trkpt lat="48.99513" lon="1.10546">
        <ele>97.199997</ele>
        <time>2015-07-19T09:54:51Z</time>
      </trkpt>
      <trkpt lat="48.99502" lon="1.10557">
        <ele>97.599998</ele>
        <time>2015-07-19T09:54:54Z</time>
      </trkpt>
      <trkpt lat="48.99489" lon="1.10564">
        <ele>97.900002</ele>
        <time>2015-07-19T09:54:57Z</time>
      </trkpt>
      <trkpt lat="48.99481" lon="1.10568">
        <ele>98.099998</ele>
        <time>2015-07-19T09:54:59Z</time>
      </trkpt>
      <trkpt lat="48.99471" lon="1.10573">
        <ele>98.300003</ele>
        <time>2015-07-19T09:55:02Z</time>
      </trkpt>
      <trkpt lat="48.99461" lon="1.1057">
        <ele>98.599998</ele>
        <time>2015-07-19T09:55:06Z</time>
      </trkpt>
      <trkpt lat="48.99451" lon="1.10582">
        <ele>99</ele>
        <time>2015-07-19T09:55:10Z</time>
      </trkpt>
      <trkpt lat="48.99442" lon="1.10587">
        <ele>99.300003</ele>
        <time>2015-07-19T09:55:13Z</time>
      </trkpt>
      <trkpt lat="48.99432" lon="1.10592">
        <ele>99.800003</ele>
        <time>2015-07-19T09:55:16Z</time>
      </trkpt>
      <trkpt lat="48.99423" lon="1.10597">
        <ele>100.400002</ele>
        <time>2015-07-19T09:55:19Z</time>
      </trkpt>
      <trkpt lat="48.99414" lon="1.10601">
        <ele>100.900002</ele>
        <time>2015-07-19T09:55:22Z</time>
      </trkpt>
      <trkpt lat="48.99405" lon="1.10606">
        <ele>101.5</ele>
        <time>2015-07-19T09:55:25Z</time>
      </trkpt>
      <trkpt lat="48.99393" lon="1.10606">
        <ele>102.300003</ele>
        <time>2015-07-19T09:55:29Z</time>
      </trkpt>
      <trkpt lat="48.99384" lon="1.10603">
        <ele>102.900002</ele>
        <time>2015-07-19T09:55:32Z</time>
      </trkpt>
      <trkpt lat="48.99376" lon="1.10597">
        <ele>103.5</ele>
        <time>2015-07-19T09:55:35Z</time>
      </trkpt>
      <trkpt lat="48.99367" lon="1.1059">
        <ele>104.099998</ele>
        <time>2015-07-19T09:55:38Z</time>
      </trkpt>
      <trkpt lat="48.99357" lon="1.10582">
        <ele>104.900002</ele>
        <time>2015-07-19T09:55:42Z</time>
      </trkpt>
      <trkpt lat="48.99346" lon="1.10574">
        <ele>105.699997</ele>
        <time>2015-07-19T09:55:46Z</time>
      </trkpt>
      <trkpt lat="48.99337" lon="1.10568">
        <ele>106.400002</ele>
        <time>2015-07-19T09:55:49Z</time>
      </trkpt>
      <trkpt lat="48.99329" lon="1.10562">
        <ele>107</ele>
        <time>2015-07-19T09:55:52Z</time>
      </trkpt>
      <trkpt lat="48.9932" lon="1.10556">
        <ele>107.5</ele>
        <time>2015-07-19T09:55:55Z</time>
      </trkpt>
      <trkpt lat="48.99309" lon="1.1055">
        <ele>108</ele>
        <time>2015-07-19T09:55:58Z</time>
      </trkpt>
      <trkpt lat="48.99299" lon="1.10546">
        <ele>108.599998</ele>
        <time>2015-07-19T09:56:01Z</time>
      </trkpt>
      <trkpt lat="48.99289" lon="1.10541">
        <ele>109.199997</ele>
        <time>2015-07-19T09:56:04Z</time>
      </trkpt>
      <trkpt lat="48.99281" lon="1.10534">
        <ele>109.800003</ele>
        <time>2015-07-19T09:56:07Z</time>
      </trkpt>
      <trkpt lat="48.99271" lon="1.10526">
        <ele>110.599998</ele>
        <time>2015-07-19T09:56:11Z</time>
      </trkpt>
      <trkpt lat="48.99263" lon="1.1052">
        <ele>111.199997</ele>
        <time>2015-07-19T09:56:14Z</time>
      </trkpt>
      <trkpt lat="48.99258" lon="1.10506">
        <ele>111.900002</ele>
        <time>2015-07-19T09:56:18Z</time>
      </trkpt>
      <trkpt lat="48.99261" lon="1.10489">
        <ele>112.400002</ele>
        <time>2015-07-19T09:56:21Z</time>
      </trkpt>
      <trkpt lat="48.99256" lon="1.10473">
        <ele>112.900002</ele>
        <time>2015-07-19T09:56:24Z</time>
      </trkpt>
      <trkpt lat="48.99247" lon="1.10464">
        <ele>113.199997</ele>
        <time>2015-07-19T09:56:27Z</time>
      </trkpt>
      <trkpt lat="48.99238" lon="1.10456">
        <ele>113.5</ele>
        <time>2015-07-19T09:56:30Z</time>
      </trkpt>
      <trkpt lat="48.99229" lon="1.10447">
        <ele>113.800003</ele>
        <time>2015-07-19T09:56:33Z</time>
      </trkpt>
      <trkpt lat="48.99219" lon="1.1044">
        <ele>114.199997</ele>
        <time>2015-07-19T09:56:36Z</time>
      </trkpt>
      <trkpt lat="48.99209" lon="1.10434">
        <ele>114.5</ele>
        <time>2015-07-19T09:56:39Z</time>
      </trkpt>
      <trkpt lat="48.99198" lon="1.10431">
        <ele>114.900002</ele>
        <time>2015-07-19T09:56:42Z</time>
      </trkpt>
      <trkpt lat="48.99188" lon="1.10432">
        <ele>115.400002</ele>
        <time>2015-07-19T09:56:45Z</time>
      </trkpt>
      <trkpt lat="48.99178" lon="1.10433">
        <ele>115.800003</ele>
        <time>2015-07-19T09:56:48Z</time>
      </trkpt>
      <trkpt lat="48.99168" lon="1.10433">
        <ele>116.400002</ele>
        <time>2015-07-19T09:56:51Z</time>
      </trkpt>
    </trkseg>
  </trk>
</gpx>